<?xml version='1.0' encoding='UTF-8'?><gpx version="1.1" creator="JPX - https://github.com/jenetics/jpx" xmlns="http://www.topografix.com/GPX/1/1"><trk><trkseg><trkpt lat="47.83023134768363" lon="-0.6990381819554216"><ele>37.0</ele><time>2026-04-26T11:35:53.998Z</time></trkpt><trkpt lat="47.830223993147456" lon="-0.6989179110967014"><ele>37.0</ele><time>2026-04-26T11:35:57.998Z</time></trkpt><trkpt lat="47.830205987521566" lon="-0.6988031824840293"><ele>37.0</ele><time>2026-04-26T11:36:00.998Z</time></trkpt><trkpt lat="47.830178973019166" lon="-0.698700668259969"><ele>37.0</ele><time>2026-04-26T11:36:04.998Z</time></trkpt><trkpt lat="47.830084019875216" lon="-0.6987131578261436"><ele>37.0</ele><time>2026-04-26T11:36:07.998Z</time></trkpt><trkpt lat="47.83001008731859" lon="-0.6987508245442591"><ele>37.0</ele><time>2026-04-26T11:36:09.998Z</time></trkpt><trkpt lat="47.82992659879491" lon="-0.6987827078642066"><ele>36.800000000000004</ele><time>2026-04-26T11:36:11.998Z</time></trkpt><trkpt lat="47.829832074757704" lon="-0.6988204580686284"><ele>36.6</ele><time>2026-04-26T11:36:13.998Z</time></trkpt><trkpt lat="47.82972955447627" lon="-0.6988548269388539"><ele>36.400000000000006</ele><time>2026-04-26T11:36:15.998Z</time></trkpt><trkpt lat="47.829631621136855" lon="-0.6989032732121386"><ele>36.2</ele><time>2026-04-26T11:36:17.998Z</time></trkpt><trkpt lat="47.8295348067433" lon="-0.6989430514413153"><ele>36.0</ele><time>2026-04-26T11:36:19.998Z</time></trkpt><trkpt lat="47.82945454782193" lon="-0.6989712375267755"><ele>36.0</ele><time>2026-04-26T11:36:21.998Z</time></trkpt><trkpt lat="47.82938748639709" lon="-0.6989850657704365"><ele>36.0</ele><time>2026-04-26T11:36:23.998Z</time></trkpt><trkpt lat="47.82931723363884" lon="-0.6989298134638545"><ele>36.0</ele><time>2026-04-26T11:36:25.998Z</time></trkpt><trkpt lat="47.829238568712974" lon="-0.698877431055279"><ele>36.0</ele><time>2026-04-26T11:36:27.998Z</time></trkpt><trkpt lat="47.82916232548134" lon="-0.6988260620728872"><ele>36.0</ele><time>2026-04-26T11:36:29.998Z</time></trkpt><trkpt lat="47.82908852397539" lon="-0.6987902984801667"><ele>36.0</ele><time>2026-04-26T11:36:31.998Z</time></trkpt><trkpt lat="47.82902333065611" lon="-0.698760551002943"><ele>36.00000000000001</ele><time>2026-04-26T11:36:33.998Z</time></trkpt><trkpt lat="47.82895649204039" lon="-0.6987643343301612"><ele>36.0</ele><time>2026-04-26T11:36:48.998Z</time></trkpt><trkpt lat="47.828892162132796" lon="-0.6987392957595607"><ele>36.0</ele><time>2026-04-26T11:36:54.998Z</time></trkpt><trkpt lat="47.82884464313008" lon="-0.698836470983"><ele>36.0</ele><time>2026-04-26T11:36:57.998Z</time></trkpt><trkpt lat="47.82884228191311" lon="-0.6989588288900263"><ele>36.0</ele><time>2026-04-26T11:36:59.998Z</time></trkpt><trkpt lat="47.828826131378555" lon="-0.6990540351845951"><ele>36.00000000000001</ele><time>2026-04-26T11:37:01.997Z</time></trkpt><trkpt lat="47.8288180318351" lon="-0.6991563275553658"><ele>36.0</ele><time>2026-04-26T11:37:34.999Z</time></trkpt><trkpt lat="47.82880132758184" lon="-0.6992963196846465"><ele>35.8</ele><time>2026-04-26T11:37:37.999Z</time></trkpt><trkpt lat="47.828793538861966" lon="-0.6994248468022226"><ele>35.6</ele><time>2026-04-26T11:37:39.999Z</time></trkpt><trkpt lat="47.82877873173914" lon="-0.6995809353698221"><ele>35.4</ele><time>2026-04-26T11:37:41.999Z</time></trkpt><trkpt lat="47.82876388660592" lon="-0.699758181582136"><ele>35.2</ele><time>2026-04-26T11:37:43.999Z</time></trkpt><trkpt lat="47.82875130860428" lon="-0.6998550888575521"><ele>35.0</ele><time>2026-04-26T11:37:44.999Z</time></trkpt><trkpt lat="47.82874159601974" lon="-0.6999624603260974"><ele>35.0</ele><time>2026-04-26T11:37:45.999Z</time></trkpt><trkpt lat="47.82873760818084" lon="-0.7000701721055308"><ele>35.0</ele><time>2026-04-26T11:37:46.999Z</time></trkpt><trkpt lat="47.82873312786615" lon="-0.7001795173082758"><ele>35.0</ele><time>2026-04-26T11:37:47.999Z</time></trkpt><trkpt lat="47.82872612710462" lon="-0.700292708720972"><ele>35.0</ele><time>2026-04-26T11:37:48.999Z</time></trkpt><trkpt lat="47.82871405900036" lon="-0.7004061667137554"><ele>35.0</ele><time>2026-04-26T11:37:49.999Z</time></trkpt><trkpt lat="47.828699983339966" lon="-0.7005207606233423"><ele>35.0</ele><time>2026-04-26T11:37:50.999Z</time></trkpt><trkpt lat="47.82870771872916" lon="-0.7006391887986002"><ele>34.666666666666664</ele><time>2026-04-26T11:37:51.999Z</time></trkpt><trkpt lat="47.82868714288912" lon="-0.7007501678567278"><ele>34.33333333333333</ele><time>2026-04-26T11:37:52.999Z</time></trkpt><trkpt lat="47.82868507569047" lon="-0.7008663580627499"><ele>34.0</ele><time>2026-04-26T11:37:53.999Z</time></trkpt><trkpt lat="47.828681646652115" lon="-0.7009796623086724"><ele>33.666666666666664</ele><time>2026-04-26T11:37:54.999Z</time></trkpt><trkpt lat="47.82867476599151" lon="-0.7010918735707676"><ele>33.333333333333336</ele><time>2026-04-26T11:37:55.999Z</time></trkpt><trkpt lat="47.828663793890364" lon="-0.7012047719586033"><ele>33.0</ele><time>2026-04-26T11:37:56.999Z</time></trkpt><trkpt lat="47.828657838617914" lon="-0.7013130588271084"><ele>32.5</ele><time>2026-04-26T11:37:57.999Z</time></trkpt><trkpt lat="47.82865151099388" lon="-0.7014147535065167"><ele>32.0</ele><time>2026-04-26T11:37:58.999Z</time></trkpt><trkpt lat="47.82864104871138" lon="-0.7015106880595252"><ele>31.5</ele><time>2026-04-26T11:37:59.999Z</time></trkpt><trkpt lat="47.828713608922904" lon="-0.7016612699409034"><ele>31.0</ele><time>2026-04-26T11:38:01.999Z</time></trkpt><trkpt lat="47.828689240841925" lon="-0.7017849171709916"><ele>30.5</ele><time>2026-04-26T11:38:02.999Z</time></trkpt><trkpt lat="47.82864301348846" lon="-0.701874969853034"><ele>30.0</ele><time>2026-04-26T11:38:03.999Z</time></trkpt><trkpt lat="47.82861127128162" lon="-0.7019628075308304"><ele>29.666666666666668</ele><time>2026-04-26T11:38:04.999Z</time></trkpt><trkpt lat="47.82861078053497" lon="-0.7020687306061986"><ele>29.333333333333336</ele><time>2026-04-26T11:38:05.999Z</time></trkpt><trkpt lat="47.82861374855423" lon="-0.7021755447955659"><ele>29.0</ele><time>2026-04-26T11:38:06.999Z</time></trkpt><trkpt lat="47.828607287363276" lon="-0.7022792254311491"><ele>28.666666666666668</ele><time>2026-04-26T11:38:07.999Z</time></trkpt><trkpt lat="47.82860254818137" lon="-0.7023820497329203"><ele>28.333333333333336</ele><time>2026-04-26T11:38:08.999Z</time></trkpt><trkpt lat="47.82859857205816" lon="-0.702479932156076"><ele>28.0</ele><time>2026-04-26T11:38:09.999Z</time></trkpt><trkpt lat="47.82858133292444" lon="-0.7026402047401842"><ele>28.0</ele><time>2026-04-26T11:38:11.999Z</time></trkpt><trkpt lat="47.828489846410704" lon="-0.7027146461619185"><ele>27.999999999999996</ele><time>2026-04-26T11:38:13.999Z</time></trkpt><trkpt lat="47.82843096626333" lon="-0.7026711982459974"><ele>27.999999999999996</ele><time>2026-04-26T11:38:14.999Z</time></trkpt><trkpt lat="47.82837751499071" lon="-0.7026008541196168"><ele>28.0</ele><time>2026-04-26T11:38:15.999Z</time></trkpt><trkpt lat="47.828241946938" lon="-0.7025829515127731"><ele>28.0</ele><time>2026-04-26T11:38:17.999Z</time></trkpt><trkpt lat="47.828164546389914" lon="-0.7025795165300588"><ele>28.500000000000004</ele><time>2026-04-26T11:38:18.999Z</time></trkpt><trkpt lat="47.82809081425424" lon="-0.702576462736902"><ele>29.0</ele><time>2026-04-26T11:38:19.999Z</time></trkpt><trkpt lat="47.82801078069195" lon="-0.7025648513228406"><ele>29.5</ele><time>2026-04-26T11:38:20.999Z</time></trkpt><trkpt lat="47.82792906076853" lon="-0.7025556467199813"><ele>30.0</ele><time>2026-04-26T11:38:21.999Z</time></trkpt><trkpt lat="47.8278502464523" lon="-0.7025443601282862"><ele>30.500000000000004</ele><time>2026-04-26T11:38:22.999Z</time></trkpt><trkpt lat="47.82776915224476" lon="-0.7025364535565545"><ele>31.0</ele><time>2026-04-26T11:38:23.999Z</time></trkpt><trkpt lat="47.827686533548935" lon="-0.7025303928902296"><ele>31.333333333333336</ele><time>2026-04-26T11:38:24.999Z</time></trkpt><trkpt lat="47.82760237572306" lon="-0.7025255097847303"><ele>31.666666666666668</ele><time>2026-04-26T11:38:25.999Z</time></trkpt><trkpt lat="47.8275176256871" lon="-0.7025155356588533"><ele>32.0</ele><time>2026-04-26T11:38:26.999Z</time></trkpt><trkpt lat="47.827433560125314" lon="-0.7024990650647174"><ele>32.333333333333336</ele><time>2026-04-26T11:38:27.999Z</time></trkpt><trkpt lat="47.82734859918971" lon="-0.7024823082935054"><ele>32.666666666666664</ele><time>2026-04-26T11:38:28.999Z</time></trkpt><trkpt lat="47.82726159129959" lon="-0.7024797642610354"><ele>33.0</ele><time>2026-04-26T11:38:29.999Z</time></trkpt><trkpt lat="47.82717387683496" lon="-0.7024806979770484"><ele>33.0</ele><time>2026-04-26T11:38:30.999Z</time></trkpt><trkpt lat="47.82708959859831" lon="-0.7025064933479888"><ele>33.0</ele><time>2026-04-26T11:38:31.999Z</time></trkpt><trkpt lat="47.82700594677059" lon="-0.7025529631965789"><ele>33.0</ele><time>2026-04-26T11:38:32.999Z</time></trkpt><trkpt lat="47.82692017875264" lon="-0.7025776606511267"><ele>33.0</ele><time>2026-04-26T11:38:33.999Z</time></trkpt><trkpt lat="47.82683317030758" lon="-0.7025890841314025"><ele>33.0</ele><time>2026-04-26T11:38:34.999Z</time></trkpt><trkpt lat="47.82674627521302" lon="-0.7026360532077972"><ele>33.0</ele><time>2026-04-26T11:38:35.999Z</time></trkpt><trkpt lat="47.82658172733076" lon="-0.7027210022816973"><ele>33.333333333333336</ele><time>2026-04-26T11:38:37.999Z</time></trkpt><trkpt lat="47.826499826135475" lon="-0.7027592547159889"><ele>33.666666666666664</ele><time>2026-04-26T11:38:38.999Z</time></trkpt><trkpt lat="47.82641802369742" lon="-0.7027890240965767"><ele>34.0</ele><time>2026-04-26T11:38:39.999Z</time></trkpt><trkpt lat="47.82633666727132" lon="-0.7028226828489658"><ele>34.33333333333333</ele><time>2026-04-26T11:38:40.999Z</time></trkpt><trkpt lat="47.82625994149785" lon="-0.7028572443557016"><ele>34.666666666666664</ele><time>2026-04-26T11:38:41.999Z</time></trkpt><trkpt lat="47.82618343123224" lon="-0.7028968558808708"><ele>35.0</ele><time>2026-04-26T11:38:42.999Z</time></trkpt><trkpt lat="47.826106892398585" lon="-0.7029367979611659"><ele>35.0</ele><time>2026-04-26T11:38:43.999Z</time></trkpt><trkpt lat="47.82603251244234" lon="-0.7029693594024471"><ele>35.0</ele><time>2026-04-26T11:38:44.999Z</time></trkpt><trkpt lat="47.825954481861324" lon="-0.7030070006543973"><ele>35.0</ele><time>2026-04-26T11:38:45.999Z</time></trkpt><trkpt lat="47.82588532925245" lon="-0.7030628622704518"><ele>35.0</ele><time>2026-04-26T11:38:46.999Z</time></trkpt><trkpt lat="47.8258179293228" lon="-0.70311408970445"><ele>35.0</ele><time>2026-04-26T11:38:47.999Z</time></trkpt><trkpt lat="47.82575053605352" lon="-0.703159040845444"><ele>35.0</ele><time>2026-04-26T11:38:48.999Z</time></trkpt><trkpt lat="47.825683170690624" lon="-0.7032121687642356"><ele>34.5</ele><time>2026-04-26T11:38:49.999Z</time></trkpt><trkpt lat="47.82561900597593" lon="-0.7032632026551103"><ele>34.0</ele><time>2026-04-26T11:38:50.999Z</time></trkpt><trkpt lat="47.82549004853601" lon="-0.7033699665539161"><ele>33.5</ele><time>2026-04-26T11:38:52.999Z</time></trkpt><trkpt lat="47.82542647753433" lon="-0.7034234566112714"><ele>33.0</ele><time>2026-04-26T11:38:53.999Z</time></trkpt><trkpt lat="47.82536063821602" lon="-0.7034682154322046"><ele>32.5</ele><time>2026-04-26T11:38:54.999Z</time></trkpt><trkpt lat="47.825295805825036" lon="-0.703513177922775"><ele>32.0</ele><time>2026-04-26T11:38:55.999Z</time></trkpt><trkpt lat="47.82523102597394" lon="-0.7035576642724266"><ele>32.285714285714285</ele><time>2026-04-26T11:38:56.999Z</time></trkpt><trkpt lat="47.825165297580135" lon="-0.7036058466881239"><ele>32.57142857142857</ele><time>2026-04-26T11:38:57.999Z</time></trkpt><trkpt lat="47.82510492190053" lon="-0.7036542226964402"><ele>32.857142857142854</ele><time>2026-04-26T11:38:58.999Z</time></trkpt><trkpt lat="47.82504358278722" lon="-0.7037074864494487"><ele>33.14285714285714</ele><time>2026-04-26T11:38:59.999Z</time></trkpt><trkpt lat="47.824980048639226" lon="-0.7037531459934382"><ele>33.42857142857143</ele><time>2026-04-26T11:39:00.999Z</time></trkpt><trkpt lat="47.82491626901418" lon="-0.7037959482425625"><ele>33.71428571428571</ele><time>2026-04-26T11:39:01.999Z</time></trkpt><trkpt lat="47.824854898183666" lon="-0.7038421824810193"><ele>34.0</ele><time>2026-04-26T11:39:02.999Z</time></trkpt><trkpt lat="47.824795691098004" lon="-0.7038895308987883"><ele>33.99999999999999</ele><time>2026-04-26T11:39:03.999Z</time></trkpt><trkpt lat="47.8247340282361" lon="-0.7039336810685254"><ele>34.0</ele><time>2026-04-26T11:39:04.999Z</time></trkpt><trkpt lat="47.82467434622164" lon="-0.7039768557475489"><ele>34.0</ele><time>2026-04-26T11:39:05.999Z</time></trkpt><trkpt lat="47.82461513033494" lon="-0.7040216333568586"><ele>34.0</ele><time>2026-04-26T11:39:06.998Z</time></trkpt><trkpt lat="47.82455646973935" lon="-0.7040642921691062"><ele>34.0</ele><time>2026-04-26T11:39:07.998Z</time></trkpt><trkpt lat="47.82450055198273" lon="-0.7041079610926958"><ele>33.99999999999999</ele><time>2026-04-26T11:39:08.998Z</time></trkpt><trkpt lat="47.82440398398665" lon="-0.7042037053951126"><ele>34.0</ele><time>2026-04-26T11:39:10.998Z</time></trkpt><trkpt lat="47.824318981599035" lon="-0.7043073468579721"><ele>34.6</ele><time>2026-04-26T11:39:12.998Z</time></trkpt><trkpt lat="47.82425691564874" lon="-0.7044306518576273"><ele>35.2</ele><time>2026-04-26T11:39:14.999Z</time></trkpt><trkpt lat="47.824199998639216" lon="-0.7045505346900313"><ele>35.800000000000004</ele><time>2026-04-26T11:39:16.999Z</time></trkpt><trkpt lat="47.82414012683699" lon="-0.7046665897410727"><ele>36.4</ele><time>2026-04-26T11:39:18.999Z</time></trkpt><trkpt lat="47.8240822057778" lon="-0.7047834681349193"><ele>37.0</ele><time>2026-04-26T11:39:20.999Z</time></trkpt><trkpt lat="47.82404605553379" lon="-0.704913797271635"><ele>37.0</ele><time>2026-04-26T11:39:22.999Z</time></trkpt><trkpt lat="47.82402596685607" lon="-0.7050489062334117"><ele>37.0</ele><time>2026-04-26T11:39:24.999Z</time></trkpt><trkpt lat="47.82403566959835" lon="-0.7051998661224289"><ele>37.0</ele><time>2026-04-26T11:39:26.999Z</time></trkpt><trkpt lat="47.82405865286389" lon="-0.7053302475057774"><ele>37.0</ele><time>2026-04-26T11:39:28.999Z</time></trkpt><trkpt lat="47.824055223580494" lon="-0.7054701112696271"><ele>37.0</ele><time>2026-04-26T11:39:30.999Z</time></trkpt><trkpt lat="47.824075793167516" lon="-0.705590920690589"><ele>37.2</ele><time>2026-04-26T11:39:32.999Z</time></trkpt><trkpt lat="47.82405013238038" lon="-0.7057444348022539"><ele>37.400000000000006</ele><time>2026-04-26T11:39:34.999Z</time></trkpt><trkpt lat="47.82404914223953" lon="-0.705880300382464"><ele>37.599999999999994</ele><time>2026-04-26T11:39:36.999Z</time></trkpt><trkpt lat="47.82404528957715" lon="-0.7060166505102562"><ele>37.8</ele><time>2026-04-26T11:39:38.999Z</time></trkpt><trkpt lat="47.82391283819571" lon="-0.7061484345386445"><ele>38.0</ele><time>2026-04-26T11:39:40.999Z</time></trkpt><trkpt lat="47.82390904990595" lon="-0.7062951960723127"><ele>38.0</ele><time>2026-04-26T11:39:42.999Z</time></trkpt><trkpt lat="47.823903943715464" lon="-0.7064286133318767"><ele>38.0</ele><time>2026-04-26T11:39:44.999Z</time></trkpt><trkpt lat="47.82389732588134" lon="-0.7065689453402176"><ele>38.0</ele><time>2026-04-26T11:39:46.999Z</time></trkpt><trkpt lat="47.823890056577675" lon="-0.7067037455198654"><ele>38.0</ele><time>2026-04-26T11:39:48.999Z</time></trkpt><trkpt lat="47.823882693128596" lon="-0.7068354694096095"><ele>38.0</ele><time>2026-04-26T11:39:50.999Z</time></trkpt><trkpt lat="47.82387495245433" lon="-0.7069739417221033"><ele>38.199999999999996</ele><time>2026-04-26T11:39:52.999Z</time></trkpt><trkpt lat="47.823867277524826" lon="-0.7071112379393045"><ele>38.4</ele><time>2026-04-26T11:39:54.999Z</time></trkpt><trkpt lat="47.82385994117396" lon="-0.7072424773708988"><ele>38.599999999999994</ele><time>2026-04-26T11:39:56.999Z</time></trkpt><trkpt lat="47.82375290057448" lon="-0.7072694581615361"><ele>38.8</ele><time>2026-04-26T11:39:57.999Z</time></trkpt><trkpt lat="47.82374053211296" lon="-0.7073907954765387"><ele>39.0</ele><time>2026-04-26T11:39:59.999Z</time></trkpt><trkpt lat="47.82372761681425" lon="-0.7075174974037615"><ele>39.0</ele><time>2026-04-26T11:40:01.999Z</time></trkpt><trkpt lat="47.82371597590063" lon="-0.7076316973138524"><ele>39.0</ele><time>2026-04-26T11:40:03.999Z</time></trkpt><trkpt lat="47.82404686255149" lon="-0.7078174734955467"><ele>39.0</ele><time>2026-04-26T11:40:05.999Z</time></trkpt><trkpt lat="47.8240996415277" lon="-0.707893550042877"><ele>39.333333333333336</ele><time>2026-04-26T11:40:07.999Z</time></trkpt><trkpt lat="47.824175799455226" lon="-0.7079322347357685"><ele>39.666666666666664</ele><time>2026-04-26T11:40:09.999Z</time></trkpt><trkpt lat="47.82425775909357" lon="-0.7079042173024411"><ele>40.0</ele><time>2026-04-26T11:40:11.999Z</time></trkpt><trkpt lat="47.824349057426474" lon="-0.7079012536307703"><ele>40.33333333333333</ele><time>2026-04-26T11:40:13.999Z</time></trkpt><trkpt lat="47.82443711963608" lon="-0.7079088116027394"><ele>40.666666666666664</ele><time>2026-04-26T11:40:15.999Z</time></trkpt><trkpt lat="47.82452764658273" lon="-0.7079125213987179"><ele>41.0</ele><time>2026-04-26T11:40:17.999Z</time></trkpt><trkpt lat="47.82461807507655" lon="-0.7079192403969461"><ele>41.83333333333333</ele><time>2026-04-26T11:40:19.999Z</time></trkpt><trkpt lat="47.82470926726821" lon="-0.7079281868588878"><ele>42.666666666666664</ele><time>2026-04-26T11:40:21.999Z</time></trkpt><trkpt lat="47.824801778171" lon="-0.7079267009325881"><ele>43.5</ele><time>2026-04-26T11:40:23.999Z</time></trkpt><trkpt lat="47.824886277881795" lon="-0.7079228892189898"><ele>44.333333333333336</ele><time>2026-04-26T11:40:26Z</time></trkpt><trkpt lat="47.824972083380416" lon="-0.7079254983329338"><ele>45.16666666666667</ele><time>2026-04-26T11:40:28Z</time></trkpt><trkpt lat="47.8250572189951" lon="-0.7079162532270425"><ele>46.0</ele><time>2026-04-26T11:40:30Z</time></trkpt><trkpt lat="47.82513279138678" lon="-0.7079204019724029"><ele>47.0</ele><time>2026-04-26T11:40:32Z</time></trkpt><trkpt lat="47.825205484929356" lon="-0.707919658233879"><ele>48.0</ele><time>2026-04-26T11:40:34Z</time></trkpt><trkpt lat="47.82527789510402" lon="-0.7079192411893488"><ele>49.0</ele><time>2026-04-26T11:40:36Z</time></trkpt><trkpt lat="47.82534590619494" lon="-0.7079176255970162"><ele>50.0</ele><time>2026-04-26T11:40:38Z</time></trkpt><trkpt lat="47.8254132937426" lon="-0.707919243049935"><ele>51.0</ele><time>2026-04-26T11:40:40Z</time></trkpt><trkpt lat="47.825478435762534" lon="-0.7079253960488292"><ele>52.0</ele><time>2026-04-26T11:40:42Z</time></trkpt><trkpt lat="47.82554144937559" lon="-0.7079019175470026"><ele>53.0</ele><time>2026-04-26T11:40:44Z</time></trkpt><trkpt lat="47.82561167615004" lon="-0.7079221048226421"><ele>53.00000000000001</ele><time>2026-04-26T11:40:46Z</time></trkpt><trkpt lat="47.825680062976254" lon="-0.7079197463946074"><ele>53.0</ele><time>2026-04-26T11:40:48Z</time></trkpt><trkpt lat="47.82574954445076" lon="-0.707915060070382"><ele>53.0</ele><time>2026-04-26T11:40:50Z</time></trkpt><trkpt lat="47.82581387604646" lon="-0.7079143751503194"><ele>53.0</ele><time>2026-04-26T11:40:52Z</time></trkpt><trkpt lat="47.82588102984991" lon="-0.7079148228503424"><ele>53.00000000000001</ele><time>2026-04-26T11:40:54Z</time></trkpt><trkpt lat="47.82597488640968" lon="-0.7079091028119662"><ele>53.0</ele><time>2026-04-26T11:40:57Z</time></trkpt><trkpt lat="47.82607274554165" lon="-0.7079069381272874"><ele>53.66666666666667</ele><time>2026-04-26T11:41:00Z</time></trkpt><trkpt lat="47.826140062041134" lon="-0.7079129069994513"><ele>54.333333333333336</ele><time>2026-04-26T11:41:02Z</time></trkpt><trkpt lat="47.82622652389805" lon="-0.7079099023581159"><ele>55.0</ele><time>2026-04-26T11:41:05Z</time></trkpt><trkpt lat="47.82630096651944" lon="-0.707869006749056"><ele>55.66666666666667</ele><time>2026-04-26T11:41:08Z</time></trkpt><trkpt lat="47.82636789980606" lon="-0.707796037241233"><ele>56.333333333333336</ele><time>2026-04-26T11:41:11Z</time></trkpt><trkpt lat="47.826437320820304" lon="-0.7078636565102527"><ele>57.0</ele><time>2026-04-26T11:41:12.999Z</time></trkpt><trkpt lat="47.82650363236993" lon="-0.7079047018451333"><ele>57.0</ele><time>2026-04-26T11:41:14.999Z</time></trkpt><trkpt lat="47.826586392376065" lon="-0.7079184406468984"><ele>57.0</ele><time>2026-04-26T11:41:16.999Z</time></trkpt><trkpt lat="47.82667504848935" lon="-0.7079227512386217"><ele>57.0</ele><time>2026-04-26T11:41:18.999Z</time></trkpt><trkpt lat="47.82677186649887" lon="-0.7079351740989305"><ele>57.0</ele><time>2026-04-26T11:41:20.999Z</time></trkpt><trkpt lat="47.826872167387634" lon="-0.7079477339039001"><ele>57.0</ele><time>2026-04-26T11:41:22.999Z</time></trkpt><trkpt lat="47.82698000798416" lon="-0.7079682115262145"><ele>56.75</ele><time>2026-04-26T11:41:24.999Z</time></trkpt><trkpt lat="47.82709587609931" lon="-0.7079922323442274"><ele>56.5</ele><time>2026-04-26T11:41:26.999Z</time></trkpt><trkpt lat="47.82721269540499" lon="-0.7080160730920239"><ele>56.25</ele><time>2026-04-26T11:41:28.999Z</time></trkpt><trkpt lat="47.82732490721904" lon="-0.7080381859499358"><ele>56.0</ele><time>2026-04-26T11:41:30.999Z</time></trkpt><trkpt lat="47.827445014642976" lon="-0.7080653558522202"><ele>56.0</ele><time>2026-04-26T11:41:32.999Z</time></trkpt><trkpt lat="47.8275644219993" lon="-0.7080942997021406"><ele>56.0</ele><time>2026-04-26T11:41:34.999Z</time></trkpt><trkpt lat="47.82768742316159" lon="-0.7081236250779029"><ele>56.0</ele><time>2026-04-26T11:41:36.999Z</time></trkpt><trkpt lat="47.82781220211164" lon="-0.7081471050087029"><ele>56.0</ele><time>2026-04-26T11:41:38.999Z</time></trkpt><trkpt lat="47.82793729120214" lon="-0.7081707099826375"><ele>56.0</ele><time>2026-04-26T11:41:40.999Z</time></trkpt><trkpt lat="47.82800596283628" lon="-0.708190123549167"><ele>56.0</ele><time>2026-04-26T11:41:41.999Z</time></trkpt><trkpt lat="47.828068678257246" lon="-0.7082057254367167"><ele>56.0</ele><time>2026-04-26T11:41:42.999Z</time></trkpt><trkpt lat="47.82813603757899" lon="-0.7082212861009992"><ele>56.0</ele><time>2026-04-26T11:41:44Z</time></trkpt><trkpt lat="47.828201096377086" lon="-0.7082393723257931"><ele>56.0</ele><time>2026-04-26T11:41:45Z</time></trkpt><trkpt lat="47.82826942273757" lon="-0.7082559921264509"><ele>56.0</ele><time>2026-04-26T11:41:46Z</time></trkpt><trkpt lat="47.828337767108515" lon="-0.7082714968832907"><ele>56.0</ele><time>2026-04-26T11:41:47Z</time></trkpt><trkpt lat="47.82840758289672" lon="-0.708290596409903"><ele>55.833333333333336</ele><time>2026-04-26T11:41:48Z</time></trkpt><trkpt lat="47.82854793024946" lon="-0.708316899473649"><ele>55.66666666666667</ele><time>2026-04-26T11:41:50Z</time></trkpt><trkpt lat="47.828616926821084" lon="-0.708332221259223"><ele>55.5</ele><time>2026-04-26T11:41:51Z</time></trkpt><trkpt lat="47.82868505419466" lon="-0.7083493614815051"><ele>55.33333333333333</ele><time>2026-04-26T11:41:52Z</time></trkpt><trkpt lat="47.82875271542939" lon="-0.708365911045241"><ele>55.166666666666664</ele><time>2026-04-26T11:41:53Z</time></trkpt><trkpt lat="47.82882211496811" lon="-0.70838561778352"><ele>55.0</ele><time>2026-04-26T11:41:54Z</time></trkpt><trkpt lat="47.828890568085434" lon="-0.7083952460186178"><ele>54.99999999999999</ele><time>2026-04-26T11:41:55Z</time></trkpt><trkpt lat="47.828955350744785" lon="-0.7084112925342859"><ele>55.0</ele><time>2026-04-26T11:41:56Z</time></trkpt><trkpt lat="47.829021023423856" lon="-0.708426249782716"><ele>55.0</ele><time>2026-04-26T11:41:57Z</time></trkpt><trkpt lat="47.82908420887835" lon="-0.7084405647027904"><ele>55.0</ele><time>2026-04-26T11:41:58Z</time></trkpt><trkpt lat="47.82914924207529" lon="-0.7084348809739531"><ele>54.99999999999999</ele><time>2026-04-26T11:41:59Z</time></trkpt><trkpt lat="47.829267791908606" lon="-0.7084802385583719"><ele>55.0</ele><time>2026-04-26T11:42:01Z</time></trkpt><trkpt lat="47.82938504693903" lon="-0.7085071953145478"><ele>55.0</ele><time>2026-04-26T11:42:03Z</time></trkpt><trkpt lat="47.82949648375068" lon="-0.7085226031344127"><ele>55.0</ele><time>2026-04-26T11:42:05Z</time></trkpt><trkpt lat="47.829609838662485" lon="-0.7085187241475212"><ele>55.0</ele><time>2026-04-26T11:42:07Z</time></trkpt><trkpt lat="47.82972083204741" lon="-0.7083928519639661"><ele>55.0</ele><time>2026-04-26T11:42:10Z</time></trkpt><trkpt lat="47.82974839642215" lon="-0.708261159818889"><ele>55.0</ele><time>2026-04-26T11:42:12Z</time></trkpt><trkpt lat="47.829791444069805" lon="-0.7081544656385034"><ele>55.0</ele><time>2026-04-26T11:42:14Z</time></trkpt><trkpt lat="47.82986262253321" lon="-0.7080613958839146"><ele>55.0</ele><time>2026-04-26T11:42:16Z</time></trkpt><trkpt lat="47.82996848503892" lon="-0.7080878241229497"><ele>55.0</ele><time>2026-04-26T11:42:18Z</time></trkpt><trkpt lat="47.83005089945726" lon="-0.708157421768654"><ele>55.0</ele><time>2026-04-26T11:42:20Z</time></trkpt><trkpt lat="47.8300920291036" lon="-0.708294893786222"><ele>55.0</ele><time>2026-04-26T11:42:22Z</time></trkpt><trkpt lat="47.830087454800996" lon="-0.70844802170348"><ele>55.0</ele><time>2026-04-26T11:42:24Z</time></trkpt><trkpt lat="47.83012989285677" lon="-0.7086767104068662"><ele>55.0</ele><time>2026-04-26T11:42:27Z</time></trkpt><trkpt lat="47.83019766215806" lon="-0.7088023042143795"><ele>55.0</ele><time>2026-04-26T11:42:29Z</time></trkpt><trkpt lat="47.830261060258024" lon="-0.7089220815893292"><ele>55.6</ele><time>2026-04-26T11:42:31Z</time></trkpt><trkpt lat="47.830319498527444" lon="-0.7090503258783283"><ele>56.2</ele><time>2026-04-26T11:42:33Z</time></trkpt><trkpt lat="47.8303886490604" lon="-0.7091743093359902"><ele>56.8</ele><time>2026-04-26T11:42:35Z</time></trkpt><trkpt lat="47.83045162850622" lon="-0.7092914294876"><ele>57.4</ele><time>2026-04-26T11:42:37Z</time></trkpt><trkpt lat="47.8305095937885" lon="-0.7094064946368599"><ele>58.0</ele><time>2026-04-26T11:42:39Z</time></trkpt><trkpt lat="47.83056454012161" lon="-0.7095209044356449"><ele>58.599999999999994</ele><time>2026-04-26T11:42:41Z</time></trkpt><trkpt lat="47.8306166686853" lon="-0.709630837108379"><ele>59.199999999999996</ele><time>2026-04-26T11:42:43Z</time></trkpt><trkpt lat="47.83066071539612" lon="-0.7097397518162176"><ele>59.8</ele><time>2026-04-26T11:42:45Z</time></trkpt><trkpt lat="47.83070677370308" lon="-0.7098586924014723"><ele>60.4</ele><time>2026-04-26T11:42:47Z</time></trkpt><trkpt lat="47.830762228382454" lon="-0.7099763064552025"><ele>61.0</ele><time>2026-04-26T11:42:49Z</time></trkpt><trkpt lat="47.83080543033264" lon="-0.7100963172648219"><ele>60.99999999999999</ele><time>2026-04-26T11:42:51Z</time></trkpt><trkpt lat="47.83084377627149" lon="-0.7101997087223418"><ele>61.0</ele><time>2026-04-26T11:42:53Z</time></trkpt><trkpt lat="47.83087265660573" lon="-0.7102872520206484"><ele>61.0</ele><time>2026-04-26T11:42:55Z</time></trkpt><trkpt lat="47.83091799952152" lon="-0.7104100055012125"><ele>61.0</ele><time>2026-04-26T11:42:58Z</time></trkpt><trkpt lat="47.83094939450376" lon="-0.710503715197937"><ele>60.99999999999999</ele><time>2026-04-26T11:43:01Z</time></trkpt><trkpt lat="47.83098020823848" lon="-0.7105893021462504"><ele>61.0</ele><time>2026-04-26T11:43:06Z</time></trkpt><trkpt lat="47.831014217590386" lon="-0.7106915757752573"><ele>61.33333333333333</ele><time>2026-04-26T11:43:10Z</time></trkpt><trkpt lat="47.83106249875798" lon="-0.7108057927667435"><ele>61.666666666666664</ele><time>2026-04-26T11:43:13Z</time></trkpt><trkpt lat="47.83110982056247" lon="-0.7109110556394621"><ele>62.0</ele><time>2026-04-26T11:43:15Z</time></trkpt><trkpt lat="47.831160876445104" lon="-0.7110172244192943"><ele>62.33333333333333</ele><time>2026-04-26T11:43:17Z</time></trkpt><trkpt lat="47.83122091760556" lon="-0.7111205590191417"><ele>62.666666666666664</ele><time>2026-04-26T11:43:19Z</time></trkpt><trkpt lat="47.831274746753735" lon="-0.7112304437257109"><ele>63.0</ele><time>2026-04-26T11:43:21Z</time></trkpt><trkpt lat="47.831330881106005" lon="-0.7113351739937304"><ele>63.166666666666664</ele><time>2026-04-26T11:43:23Z</time></trkpt><trkpt lat="47.83138340150249" lon="-0.7114349026352336"><ele>63.33333333333333</ele><time>2026-04-26T11:43:25Z</time></trkpt><trkpt lat="47.83143247076828" lon="-0.7115355775475133"><ele>63.5</ele><time>2026-04-26T11:43:27Z</time></trkpt><trkpt lat="47.83148554932968" lon="-0.711627013524418"><ele>63.666666666666664</ele><time>2026-04-26T11:43:29Z</time></trkpt><trkpt lat="47.83153494208629" lon="-0.7117245043676812"><ele>63.83333333333333</ele><time>2026-04-26T11:43:31Z</time></trkpt><trkpt lat="47.8315892006764" lon="-0.7118223803086975"><ele>64.0</ele><time>2026-04-26T11:43:33Z</time></trkpt><trkpt lat="47.83164481234299" lon="-0.7119203039648133"><ele>64.5</ele><time>2026-04-26T11:43:35Z</time></trkpt><trkpt lat="47.831697830409965" lon="-0.7120165215429323"><ele>65.0</ele><time>2026-04-26T11:43:37Z</time></trkpt><trkpt lat="47.8317487909868" lon="-0.7121110917292129"><ele>65.5</ele><time>2026-04-26T11:43:39Z</time></trkpt><trkpt lat="47.83179885726126" lon="-0.7122041208886793"><ele>66.0</ele><time>2026-04-26T11:43:41Z</time></trkpt><trkpt lat="47.831846511278236" lon="-0.7122982342739955"><ele>66.5</ele><time>2026-04-26T11:43:43Z</time></trkpt><trkpt lat="47.8318992684632" lon="-0.7123918720053027"><ele>67.0</ele><time>2026-04-26T11:43:45Z</time></trkpt><trkpt lat="47.83195064887283" lon="-0.7124919062419566"><ele>67.0</ele><time>2026-04-26T11:43:47Z</time></trkpt><trkpt lat="47.83200430931487" lon="-0.7125862640333497"><ele>67.0</ele><time>2026-04-26T11:43:49Z</time></trkpt><trkpt lat="47.83205643814344" lon="-0.7126782478354964"><ele>67.0</ele><time>2026-04-26T11:43:51Z</time></trkpt><trkpt lat="47.832106985422556" lon="-0.7127741253585752"><ele>67.0</ele><time>2026-04-26T11:43:53Z</time></trkpt><trkpt lat="47.83216187121688" lon="-0.7128732700255638"><ele>67.0</ele><time>2026-04-26T11:43:55Z</time></trkpt><trkpt lat="47.83221351253802" lon="-0.7129668420790815"><ele>67.0</ele><time>2026-04-26T11:43:57Z</time></trkpt><trkpt lat="47.83226468017782" lon="-0.7130740574541603"><ele>67.2</ele><time>2026-04-26T11:43:59Z</time></trkpt><trkpt lat="47.83232821119597" lon="-0.7131861646960952"><ele>67.4</ele><time>2026-04-26T11:44:01Z</time></trkpt><trkpt lat="47.83239098395621" lon="-0.713307947984871"><ele>67.6</ele><time>2026-04-26T11:44:03Z</time></trkpt><trkpt lat="47.832458607209375" lon="-0.7134398820669373"><ele>67.8</ele><time>2026-04-26T11:44:05Z</time></trkpt><trkpt lat="47.83252117062222" lon="-0.7135719638359498"><ele>68.0</ele><time>2026-04-26T11:44:07Z</time></trkpt><trkpt lat="47.832593967196125" lon="-0.7137040791152838"><ele>67.25</ele><time>2026-04-26T11:44:09Z</time></trkpt><trkpt lat="47.83266950425542" lon="-0.7138352048938451"><ele>66.5</ele><time>2026-04-26T11:44:11Z</time></trkpt><trkpt lat="47.832740126966755" lon="-0.7139771109608619"><ele>65.75</ele><time>2026-04-26T11:44:13Z</time></trkpt><trkpt lat="47.8328176550359" lon="-0.7141144840221982"><ele>65.0</ele><time>2026-04-26T11:44:15Z</time></trkpt><trkpt lat="47.83289643548284" lon="-0.7142589540089933"><ele>65.0</ele><time>2026-04-26T11:44:17Z</time></trkpt><trkpt lat="47.83297039245288" lon="-0.7144002290959298"><ele>65.0</ele><time>2026-04-26T11:44:19Z</time></trkpt><trkpt lat="47.83301250245777" lon="-0.7144718497298017"><ele>65.0</ele><time>2026-04-26T11:44:20Z</time></trkpt><trkpt lat="47.833054319686326" lon="-0.7145470741972505"><ele>65.0</ele><time>2026-04-26T11:44:21Z</time></trkpt><trkpt lat="47.833131743052185" lon="-0.7146930016633399"><ele>65.0</ele><time>2026-04-26T11:44:23Z</time></trkpt><trkpt lat="47.833172636778386" lon="-0.7147658434392549"><ele>65.0</ele><time>2026-04-26T11:44:24Z</time></trkpt><trkpt lat="47.833246037330746" lon="-0.7149150419580166"><ele>65.0</ele><time>2026-04-26T11:44:26Z</time></trkpt><trkpt lat="47.833321071432366" lon="-0.7150603145928807"><ele>65.0</ele><time>2026-04-26T11:44:28Z</time></trkpt><trkpt lat="47.8333989968744" lon="-0.7152024649680045"><ele>65.0</ele><time>2026-04-26T11:44:30Z</time></trkpt><trkpt lat="47.83347490349203" lon="-0.7153389124584427"><ele>65.0</ele><time>2026-04-26T11:44:32Z</time></trkpt><trkpt lat="47.8335498142273" lon="-0.7154752613883836"><ele>63.75</ele><time>2026-04-26T11:44:34Z</time></trkpt><trkpt lat="47.83362233585942" lon="-0.7156204505075277"><ele>62.5</ele><time>2026-04-26T11:44:36Z</time></trkpt><trkpt lat="47.833660797586795" lon="-0.715702923982434"><ele>61.25</ele><time>2026-04-26T11:44:37Z</time></trkpt><trkpt lat="47.83377129671132" lon="-0.7159167020093721"><ele>60.0</ele><time>2026-04-26T11:44:40Z</time></trkpt><trkpt lat="47.833849418286576" lon="-0.7160573298401646"><ele>60.333333333333336</ele><time>2026-04-26T11:44:42Z</time></trkpt><trkpt lat="47.83389281418632" lon="-0.7161278426082918"><ele>60.66666666666667</ele><time>2026-04-26T11:44:43Z</time></trkpt><trkpt lat="47.83396649894342" lon="-0.7162824159517817"><ele>61.0</ele><time>2026-04-26T11:44:45Z</time></trkpt><trkpt lat="47.83400228731371" lon="-0.7163600549676651"><ele>61.333333333333336</ele><time>2026-04-26T11:44:46Z</time></trkpt><trkpt lat="47.83404328972768" lon="-0.7164375496822561"><ele>61.66666666666667</ele><time>2026-04-26T11:44:47Z</time></trkpt><trkpt lat="47.83408287552962" lon="-0.7165151102486514"><ele>62.0</ele><time>2026-04-26T11:44:48Z</time></trkpt><trkpt lat="47.83412096603823" lon="-0.7165988097273015"><ele>62.0</ele><time>2026-04-26T11:44:49Z</time></trkpt><trkpt lat="47.83416252843784" lon="-0.7166712784193026"><ele>62.00000000000001</ele><time>2026-04-26T11:44:50Z</time></trkpt><trkpt lat="47.83420395793604" lon="-0.7167526247118446"><ele>62.0</ele><time>2026-04-26T11:44:51.001Z</time></trkpt><trkpt lat="47.83424526539895" lon="-0.716828989198582"><ele>62.0</ele><time>2026-04-26T11:44:52.001Z</time></trkpt><trkpt lat="47.83428862826495" lon="-0.7169139213737548"><ele>62.00000000000001</ele><time>2026-04-26T11:44:53.001Z</time></trkpt><trkpt lat="47.834341436267" lon="-0.716997569834875"><ele>62.0</ele><time>2026-04-26T11:44:54.001Z</time></trkpt><trkpt lat="47.8343922843561" lon="-0.7170644374581975"><ele>62.0</ele><time>2026-04-26T11:44:55.001Z</time></trkpt><trkpt lat="47.83443896712047" lon="-0.717167713026622"><ele>62.00000000000001</ele><time>2026-04-26T11:44:56.001Z</time></trkpt><trkpt lat="47.83448969864675" lon="-0.7172707074552194"><ele>62.0</ele><time>2026-04-26T11:44:57.001Z</time></trkpt><trkpt lat="47.834538928184486" lon="-0.7173718073050374"><ele>62.0</ele><time>2026-04-26T11:44:58.001Z</time></trkpt><trkpt lat="47.834594430328806" lon="-0.7174692173893491"><ele>62.0</ele><time>2026-04-26T11:44:59.001Z</time></trkpt><trkpt lat="47.83464827065398" lon="-0.7175674635800852"><ele>62.00000000000001</ele><time>2026-04-26T11:45:00.001Z</time></trkpt><trkpt lat="47.834705600552354" lon="-0.7176748713036998"><ele>62.0</ele><time>2026-04-26T11:45:01.001Z</time></trkpt><trkpt lat="47.834759133995576" lon="-0.7177775969701283"><ele>62.00000000000001</ele><time>2026-04-26T11:45:02.001Z</time></trkpt><trkpt lat="47.83481224116291" lon="-0.7178770430659435"><ele>62.0</ele><time>2026-04-26T11:45:03.001Z</time></trkpt><trkpt lat="47.83486305032874" lon="-0.7179763858291462"><ele>62.0</ele><time>2026-04-26T11:45:04.001Z</time></trkpt><trkpt lat="47.83491848805316" lon="-0.718084041951621"><ele>62.0</ele><time>2026-04-26T11:45:05.001Z</time></trkpt><trkpt lat="47.834968412307376" lon="-0.718183054242583"><ele>62.00000000000001</ele><time>2026-04-26T11:45:06.001Z</time></trkpt><trkpt lat="47.835014372510834" lon="-0.7182889563566879"><ele>62.0</ele><time>2026-04-26T11:45:07.001Z</time></trkpt><trkpt lat="47.835064740385015" lon="-0.718391305285517"><ele>62.00000000000001</ele><time>2026-04-26T11:45:08.001Z</time></trkpt><trkpt lat="47.835113072026864" lon="-0.7184926141858671"><ele>62.0</ele><time>2026-04-26T11:45:09.001Z</time></trkpt><trkpt lat="47.83516203432138" lon="-0.7186004002442801"><ele>62.0</ele><time>2026-04-26T11:45:10.001Z</time></trkpt><trkpt lat="47.83521108837641" lon="-0.7187002910952387"><ele>62.0</ele><time>2026-04-26T11:45:11.001Z</time></trkpt><trkpt lat="47.83526084481756" lon="-0.7187997668226479"><ele>62.00000000000001</ele><time>2026-04-26T11:45:12.001Z</time></trkpt><trkpt lat="47.8353076044025" lon="-0.7188972305902939"><ele>62.0</ele><time>2026-04-26T11:45:13.001Z</time></trkpt><trkpt lat="47.835346054309056" lon="-0.7190035023010386"><ele>61.85714285714286</ele><time>2026-04-26T11:45:14.001Z</time></trkpt><trkpt lat="47.83538456629128" lon="-0.7191018398642323"><ele>61.71428571428572</ele><time>2026-04-26T11:45:15.001Z</time></trkpt><trkpt lat="47.8354256108534" lon="-0.7192028577792161"><ele>61.57142857142857</ele><time>2026-04-26T11:45:16.001Z</time></trkpt><trkpt lat="47.835459969945276" lon="-0.7193016817625842"><ele>61.42857142857143</ele><time>2026-04-26T11:45:17.001Z</time></trkpt><trkpt lat="47.83549279529282" lon="-0.7193960700794407"><ele>61.285714285714285</ele><time>2026-04-26T11:45:18.001Z</time></trkpt><trkpt lat="47.83552324671448" lon="-0.7194909385425782"><ele>61.14285714285714</ele><time>2026-04-26T11:45:19.001Z</time></trkpt><trkpt lat="47.835553627955655" lon="-0.7195781409403871"><ele>60.99999999999999</ele><time>2026-04-26T11:45:20.001Z</time></trkpt><trkpt lat="47.83560824583668" lon="-0.7196429674327374"><ele>60.99999999999999</ele><time>2026-04-26T11:45:21.001Z</time></trkpt><trkpt lat="47.835688167749964" lon="-0.7196494249731007"><ele>61.0</ele><time>2026-04-26T11:45:22.001Z</time></trkpt><trkpt lat="47.83577180651117" lon="-0.7196074872257167"><ele>61.0</ele><time>2026-04-26T11:45:23.001Z</time></trkpt><trkpt lat="47.83585112151189" lon="-0.7196009790151329"><ele>61.0</ele><time>2026-04-26T11:45:24.001Z</time></trkpt><trkpt lat="47.835946165572764" lon="-0.7196209430982784"><ele>60.99999999999999</ele><time>2026-04-26T11:45:25.001Z</time></trkpt><trkpt lat="47.8360427664354" lon="-0.7196513906867362"><ele>61.0</ele><time>2026-04-26T11:45:26.001Z</time></trkpt><trkpt lat="47.8361432857756" lon="-0.7196811708379434"><ele>60.599999999999994</ele><time>2026-04-26T11:45:27.001Z</time></trkpt><trkpt lat="47.836244516705605" lon="-0.7197157302238157"><ele>60.199999999999996</ele><time>2026-04-26T11:45:28.001Z</time></trkpt><trkpt lat="47.836347804112116" lon="-0.7197589944836631"><ele>59.800000000000004</ele><time>2026-04-26T11:45:29.001Z</time></trkpt><trkpt lat="47.83644183644227" lon="-0.7198109886337803"><ele>59.400000000000006</ele><time>2026-04-26T11:45:30.001Z</time></trkpt><trkpt lat="47.836535655614774" lon="-0.7198586608384617"><ele>59.0</ele><time>2026-04-26T11:45:31.001Z</time></trkpt><trkpt lat="47.836620470812875" lon="-0.7199093067791872"><ele>59.00000000000001</ele><time>2026-04-26T11:45:32.001Z</time></trkpt><trkpt lat="47.836703281735154" lon="-0.7199698274996285"><ele>59.0</ele><time>2026-04-26T11:45:33.001Z</time></trkpt><trkpt lat="47.836776170964185" lon="-0.7200274956574341"><ele>59.0</ele><time>2026-04-26T11:45:34.001Z</time></trkpt><trkpt lat="47.83685026543601" lon="-0.7200849394735019"><ele>59.0</ele><time>2026-04-26T11:45:35.001Z</time></trkpt><trkpt lat="47.8369214198891" lon="-0.7201405366708435"><ele>59.00000000000001</ele><time>2026-04-26T11:45:36.001Z</time></trkpt><trkpt lat="47.83698742214633" lon="-0.7201913816052485"><ele>59.0</ele><time>2026-04-26T11:45:37.001Z</time></trkpt><trkpt lat="47.837050457580396" lon="-0.7202428088454976"><ele>59.66666666666667</ele><time>2026-04-26T11:45:38.001Z</time></trkpt><trkpt lat="47.837115762230766" lon="-0.7202829020312329"><ele>60.333333333333336</ele><time>2026-04-26T11:45:39.001Z</time></trkpt><trkpt lat="47.83717407486326" lon="-0.7203271822825658"><ele>61.0</ele><time>2026-04-26T11:45:40.001Z</time></trkpt><trkpt lat="47.83723463193269" lon="-0.7203818553007105"><ele>61.66666666666667</ele><time>2026-04-26T11:45:41.001Z</time></trkpt><trkpt lat="47.8373428571379" lon="-0.7204670477680302"><ele>62.333333333333336</ele><time>2026-04-26T11:45:43.001Z</time></trkpt><trkpt lat="47.83739841679984" lon="-0.7205113684864677"><ele>63.0</ele><time>2026-04-26T11:45:44.001Z</time></trkpt><trkpt lat="47.8375077521245" lon="-0.7205950970452348"><ele>63.0</ele><time>2026-04-26T11:45:46.001Z</time></trkpt><trkpt lat="47.83761071618828" lon="-0.7206794118753564"><ele>63.0</ele><time>2026-04-26T11:45:48.001Z</time></trkpt><trkpt lat="47.83771204746145" lon="-0.7207620067073505"><ele>63.0</ele><time>2026-04-26T11:45:50.001Z</time></trkpt><trkpt lat="47.83781751908376" lon="-0.7208410356684866"><ele>63.0</ele><time>2026-04-26T11:45:52.001Z</time></trkpt><trkpt lat="47.837924591030145" lon="-0.7209290994956884"><ele>63.333333333333336</ele><time>2026-04-26T11:45:54Z</time></trkpt><trkpt lat="47.83803811505193" lon="-0.7210149174965482"><ele>63.66666666666667</ele><time>2026-04-26T11:45:56Z</time></trkpt><trkpt lat="47.83809886758027" lon="-0.7210619681969702"><ele>64.0</ele><time>2026-04-26T11:45:57Z</time></trkpt><trkpt lat="47.838157323214155" lon="-0.7211114882622505"><ele>64.33333333333334</ele><time>2026-04-26T11:45:58Z</time></trkpt><trkpt lat="47.838217649566204" lon="-0.721159656735982"><ele>64.66666666666667</ele><time>2026-04-26T11:45:59Z</time></trkpt><trkpt lat="47.83827874920943" lon="-0.721207264568758"><ele>65.0</ele><time>2026-04-26T11:46:00Z</time></trkpt><trkpt lat="47.8383404476548" lon="-0.7212516972800925"><ele>65.00000000000001</ele><time>2026-04-26T11:46:01Z</time></trkpt><trkpt lat="47.83840161312772" lon="-0.7213035085999637"><ele>65.0</ele><time>2026-04-26T11:46:02Z</time></trkpt><trkpt lat="47.838463826835735" lon="-0.7213529898333974"><ele>65.0</ele><time>2026-04-26T11:46:03Z</time></trkpt><trkpt lat="47.838526013753345" lon="-0.7214037961109877"><ele>65.0</ele><time>2026-04-26T11:46:04Z</time></trkpt><trkpt lat="47.83858847471453" lon="-0.7214500640081869"><ele>65.0</ele><time>2026-04-26T11:46:05Z</time></trkpt><trkpt lat="47.838650434558566" lon="-0.72150084693312"><ele>65.00000000000001</ele><time>2026-04-26T11:46:06Z</time></trkpt><trkpt lat="47.83871662675442" lon="-0.7215503364731182"><ele>65.0</ele><time>2026-04-26T11:46:07Z</time></trkpt><trkpt lat="47.83877307982918" lon="-0.7215945554702393"><ele>65.16666666666667</ele><time>2026-04-26T11:46:08Z</time></trkpt><trkpt lat="47.83883126723949" lon="-0.7216404123523091"><ele>65.33333333333334</ele><time>2026-04-26T11:46:09Z</time></trkpt><trkpt lat="47.83888925609195" lon="-0.7216873682915234"><ele>65.5</ele><time>2026-04-26T11:46:10Z</time></trkpt><trkpt lat="47.83894563400531" lon="-0.7217339018080828"><ele>65.66666666666667</ele><time>2026-04-26T11:46:11Z</time></trkpt><trkpt lat="47.83900325016741" lon="-0.7217770953484364"><ele>65.83333333333333</ele><time>2026-04-26T11:46:12.001Z</time></trkpt><trkpt lat="47.83910976760889" lon="-0.721862937050495"><ele>66.0</ele><time>2026-04-26T11:46:14.001Z</time></trkpt><trkpt lat="47.83921156484099" lon="-0.7219444517684982"><ele>67.39999999999999</ele><time>2026-04-26T11:46:16.001Z</time></trkpt><trkpt lat="47.839309396723145" lon="-0.7220194371857548"><ele>68.8</ele><time>2026-04-26T11:46:18.001Z</time></trkpt><trkpt lat="47.83940602990304" lon="-0.7220978142662433"><ele>70.19999999999999</ele><time>2026-04-26T11:46:20.001Z</time></trkpt><trkpt lat="47.839492225217946" lon="-0.7221600188505485"><ele>71.6</ele><time>2026-04-26T11:46:22.001Z</time></trkpt><trkpt lat="47.83956891269296" lon="-0.722222377795156"><ele>73.0</ele><time>2026-04-26T11:46:24.001Z</time></trkpt><trkpt lat="47.83964147224528" lon="-0.7222754927588576"><ele>73.0</ele><time>2026-04-26T11:46:26.001Z</time></trkpt><trkpt lat="47.83971017995631" lon="-0.7223297867755325"><ele>73.0</ele><time>2026-04-26T11:46:28.001Z</time></trkpt><trkpt lat="47.83977767392539" lon="-0.7223806765993338"><ele>73.0</ele><time>2026-04-26T11:46:30.001Z</time></trkpt><trkpt lat="47.839838362559135" lon="-0.722430844168701"><ele>73.0</ele><time>2026-04-26T11:46:32.001Z</time></trkpt><trkpt lat="47.839903805971645" lon="-0.722479816156136"><ele>73.0</ele><time>2026-04-26T11:46:34.001Z</time></trkpt><trkpt lat="47.839969273819875" lon="-0.7225313369295396"><ele>73.0</ele><time>2026-04-26T11:46:36.001Z</time></trkpt><trkpt lat="47.84003454868045" lon="-0.7225846356126712"><ele>73.0</ele><time>2026-04-26T11:46:38.001Z</time></trkpt><trkpt lat="47.84009909388448" lon="-0.7226324074235114"><ele>73.71428571428571</ele><time>2026-04-26T11:46:40.001Z</time></trkpt><trkpt lat="47.84016228567214" lon="-0.7226796744074202"><ele>74.42857142857143</ele><time>2026-04-26T11:46:42.001Z</time></trkpt><trkpt lat="47.8402271429743" lon="-0.7227317863124392"><ele>75.14285714285714</ele><time>2026-04-26T11:46:44.001Z</time></trkpt><trkpt lat="47.84028919348794" lon="-0.7227853544296212"><ele>75.85714285714286</ele><time>2026-04-26T11:46:46.001Z</time></trkpt><trkpt lat="47.84035344363122" lon="-0.722835806695517"><ele>76.57142857142857</ele><time>2026-04-26T11:46:48.001Z</time></trkpt><trkpt lat="47.84042013091666" lon="-0.7228867447895221"><ele>77.28571428571429</ele><time>2026-04-26T11:46:50.001Z</time></trkpt><trkpt lat="47.84048228752744" lon="-0.7229331803640007"><ele>78.0</ele><time>2026-04-26T11:46:52.001Z</time></trkpt><trkpt lat="47.84054393533757" lon="-0.7229824163135645"><ele>78.0</ele><time>2026-04-26T11:46:54.001Z</time></trkpt><trkpt lat="47.8406038326787" lon="-0.7230286224317299"><ele>78.0</ele><time>2026-04-26T11:46:56.001Z</time></trkpt><trkpt lat="47.84066577704746" lon="-0.7230755916471553"><ele>78.0</ele><time>2026-04-26T11:46:58.001Z</time></trkpt><trkpt lat="47.840728235509864" lon="-0.7231243874423396"><ele>78.0</ele><time>2026-04-26T11:47:00.001Z</time></trkpt><trkpt lat="47.84078847330683" lon="-0.7231795132541559"><ele>78.0</ele><time>2026-04-26T11:47:02.001Z</time></trkpt><trkpt lat="47.84085120268156" lon="-0.7232256680774007"><ele>78.0</ele><time>2026-04-26T11:47:04.001Z</time></trkpt><trkpt lat="47.840915468789674" lon="-0.7232745125275841"><ele>78.0</ele><time>2026-04-26T11:47:06.001Z</time></trkpt><trkpt lat="47.84098003525543" lon="-0.7233255307048226"><ele>78.33333333333333</ele><time>2026-04-26T11:47:08.001Z</time></trkpt><trkpt lat="47.84104081711403" lon="-0.7233784328017216"><ele>78.66666666666667</ele><time>2026-04-26T11:47:10.001Z</time></trkpt><trkpt lat="47.8411065849121" lon="-0.723423861420003"><ele>79.0</ele><time>2026-04-26T11:47:12.001Z</time></trkpt><trkpt lat="47.8411724353146" lon="-0.7234796286821294"><ele>79.33333333333334</ele><time>2026-04-26T11:47:14.001Z</time></trkpt><trkpt lat="47.84124006832579" lon="-0.7235308705002896"><ele>79.66666666666667</ele><time>2026-04-26T11:47:16.001Z</time></trkpt><trkpt lat="47.84131151896513" lon="-0.723591395690109"><ele>80.0</ele><time>2026-04-26T11:47:18.001Z</time></trkpt><trkpt lat="47.84139028487501" lon="-0.7236423529257003"><ele>79.6</ele><time>2026-04-26T11:47:20.001Z</time></trkpt><trkpt lat="47.8414700413173" lon="-0.723711855216122"><ele>79.2</ele><time>2026-04-26T11:47:22.001Z</time></trkpt><trkpt lat="47.84155534006322" lon="-0.7237793200931204"><ele>78.8</ele><time>2026-04-26T11:47:24.001Z</time></trkpt><trkpt lat="47.84164672958638" lon="-0.7238509500843882"><ele>78.4</ele><time>2026-04-26T11:47:26.001Z</time></trkpt><trkpt lat="47.84174302058708" lon="-0.7239290811226046"><ele>78.0</ele><time>2026-04-26T11:47:28.001Z</time></trkpt><trkpt lat="47.84184400383085" lon="-0.7240076232743837"><ele>78.0</ele><time>2026-04-26T11:47:30.001Z</time></trkpt><trkpt lat="47.84195054204655" lon="-0.7240914135115779"><ele>78.0</ele><time>2026-04-26T11:47:32.001Z</time></trkpt><trkpt lat="47.84205950647331" lon="-0.7241802763063879"><ele>78.0</ele><time>2026-04-26T11:47:34.001Z</time></trkpt><trkpt lat="47.8421158489492" lon="-0.7242232043499486"><ele>78.0</ele><time>2026-04-26T11:47:35.001Z</time></trkpt><trkpt lat="47.84217334905238" lon="-0.7242632932518835"><ele>78.0</ele><time>2026-04-26T11:47:36.001Z</time></trkpt><trkpt lat="47.8422294898845" lon="-0.7243075942551696"><ele>78.0</ele><time>2026-04-26T11:47:37.001Z</time></trkpt><trkpt lat="47.84228413301766" lon="-0.7243544745933822"><ele>78.2</ele><time>2026-04-26T11:47:38.001Z</time></trkpt><trkpt lat="47.84234048757355" lon="-0.7244005038317293"><ele>78.4</ele><time>2026-04-26T11:47:39.001Z</time></trkpt><trkpt lat="47.842449731900246" lon="-0.7244850189685047"><ele>78.60000000000001</ele><time>2026-04-26T11:47:41.001Z</time></trkpt><trkpt lat="47.84255701577507" lon="-0.7245681320065692"><ele>78.8</ele><time>2026-04-26T11:47:43.001Z</time></trkpt><trkpt lat="47.8426643611171" lon="-0.7246447704023524"><ele>79.0</ele><time>2026-04-26T11:47:45.001Z</time></trkpt><trkpt lat="47.84276732016851" lon="-0.7247032685286422"><ele>79.0</ele><time>2026-04-26T11:47:47.001Z</time></trkpt><trkpt lat="47.842875504662274" lon="-0.7247462530992678"><ele>79.0</ele><time>2026-04-26T11:47:49.001Z</time></trkpt><trkpt lat="47.84295974817131" lon="-0.7247487148015329"><ele>79.0</ele><time>2026-04-26T11:47:50.001Z</time></trkpt><trkpt lat="47.843043563709394" lon="-0.7247187763066049"><ele>79.0</ele><time>2026-04-26T11:47:52.001Z</time></trkpt><trkpt lat="47.843114970158275" lon="-0.7247266116160904"><ele>79.0</ele><time>2026-04-26T11:47:54.001Z</time></trkpt><trkpt lat="47.84320285088288" lon="-0.7247894175227344"><ele>79.0</ele><time>2026-04-26T11:47:56.001Z</time></trkpt><trkpt lat="47.84323752013073" lon="-0.7248875850839848"><ele>79.0</ele><time>2026-04-26T11:47:58.001Z</time></trkpt><trkpt lat="47.84326405204765" lon="-0.7250267751697558"><ele>79.0</ele><time>2026-04-26T11:48:00.001Z</time></trkpt><trkpt lat="47.84332600459041" lon="-0.7251360258755662"><ele>79.0</ele><time>2026-04-26T11:48:01.001Z</time></trkpt><trkpt lat="47.84345037577873" lon="-0.7252562012289009"><ele>79.0</ele><time>2026-04-26T11:48:03.001Z</time></trkpt><trkpt lat="47.843504068382366" lon="-0.7253060279723331"><ele>78.83333333333333</ele><time>2026-04-26T11:48:04.001Z</time></trkpt><trkpt lat="47.84360905179722" lon="-0.7254034525802298"><ele>78.66666666666666</ele><time>2026-04-26T11:48:06.001Z</time></trkpt><trkpt lat="47.84366458719161" lon="-0.7254549894738882"><ele>78.5</ele><time>2026-04-26T11:48:07.001Z</time></trkpt><trkpt lat="47.843754757236" lon="-0.7254382704945266"><ele>78.33333333333333</ele><time>2026-04-26T11:48:08.001Z</time></trkpt><trkpt lat="47.843811160139616" lon="-0.7254831046404671"><ele>78.16666666666667</ele><time>2026-04-26T11:48:09.001Z</time></trkpt><trkpt lat="47.84387104099507" lon="-0.7255307033916236"><ele>78.0</ele><time>2026-04-26T11:48:10.001Z</time></trkpt><trkpt lat="47.84393020909217" lon="-0.7255777355730415"><ele>78.0</ele><time>2026-04-26T11:48:11.001Z</time></trkpt><trkpt lat="47.843990915758454" lon="-0.7256259907486662"><ele>78.0</ele><time>2026-04-26T11:48:12.001Z</time></trkpt><trkpt lat="47.84405112581872" lon="-0.7256738511756743"><ele>78.0</ele><time>2026-04-26T11:48:13.001Z</time></trkpt><trkpt lat="47.8441131708781" lon="-0.7257225685157976"><ele>78.0</ele><time>2026-04-26T11:48:14.001Z</time></trkpt><trkpt lat="47.84417662007079" lon="-0.7257723037365547"><ele>78.0</ele><time>2026-04-26T11:48:15.001Z</time></trkpt><trkpt lat="47.844239682141406" lon="-0.7258217355074243"><ele>78.0</ele><time>2026-04-26T11:48:16Z</time></trkpt><trkpt lat="47.8443031888077" lon="-0.7258715157784467"><ele>78.0</ele><time>2026-04-26T11:48:17Z</time></trkpt><trkpt lat="47.8443673602398" lon="-0.7259218171331693"><ele>77.85714285714286</ele><time>2026-04-26T11:48:18Z</time></trkpt><trkpt lat="47.84443196959622" lon="-0.7259724617558658"><ele>77.71428571428571</ele><time>2026-04-26T11:48:19Z</time></trkpt><trkpt lat="47.84449700801778" lon="-0.7260234427158692"><ele>77.57142857142857</ele><time>2026-04-26T11:48:20Z</time></trkpt><trkpt lat="47.84456202228575" lon="-0.7260743464174453"><ele>77.42857142857143</ele><time>2026-04-26T11:48:21Z</time></trkpt><trkpt lat="47.84462666871293" lon="-0.7261249680092114"><ele>77.28571428571428</ele><time>2026-04-26T11:48:22Z</time></trkpt><trkpt lat="47.84469096461276" lon="-0.726175315127017"><ele>77.14285714285714</ele><time>2026-04-26T11:48:23Z</time></trkpt><trkpt lat="47.844755373734515" lon="-0.7262257508811467"><ele>77.0</ele><time>2026-04-26T11:48:24Z</time></trkpt><trkpt lat="47.84482022433732" lon="-0.7262765323495066"><ele>77.0</ele><time>2026-04-26T11:48:25Z</time></trkpt><trkpt lat="47.84488477116784" lon="-0.7263270759502656"><ele>77.0</ele><time>2026-04-26T11:48:26Z</time></trkpt><trkpt lat="47.84494946047973" lon="-0.7263777311087384"><ele>77.0</ele><time>2026-04-26T11:48:27Z</time></trkpt><trkpt lat="47.845015154323086" lon="-0.7264291728827977"><ele>77.0</ele><time>2026-04-26T11:48:28Z</time></trkpt><trkpt lat="47.8450805190233" lon="-0.7264803569133963"><ele>77.0</ele><time>2026-04-26T11:48:29Z</time></trkpt><trkpt lat="47.845146041727844" lon="-0.7265316646701249"><ele>77.0</ele><time>2026-04-26T11:48:30.001Z</time></trkpt><trkpt lat="47.84521102468548" lon="-0.7265825497757352"><ele>77.0</ele><time>2026-04-26T11:48:31.001Z</time></trkpt><trkpt lat="47.845277805366344" lon="-0.7266348425962285"><ele>76.8</ele><time>2026-04-26T11:48:32.001Z</time></trkpt><trkpt lat="47.84533977900366" lon="-0.7266833712505445"><ele>76.6</ele><time>2026-04-26T11:48:33.001Z</time></trkpt><trkpt lat="47.84544532667859" lon="-0.7268188904212887"><ele>76.39999999999999</ele><time>2026-04-26T11:48:35.001Z</time></trkpt><trkpt lat="47.84551998139485" lon="-0.7268696509122693"><ele>76.2</ele><time>2026-04-26T11:48:36.001Z</time></trkpt><trkpt lat="47.845593859073695" lon="-0.7269239087257784"><ele>76.0</ele><time>2026-04-26T11:48:37.001Z</time></trkpt><trkpt lat="47.84566901598166" lon="-0.726983085021902"><ele>76.0</ele><time>2026-04-26T11:48:38.001Z</time></trkpt><trkpt lat="47.8457433459532" lon="-0.727041729070344"><ele>76.0</ele><time>2026-04-26T11:48:39.001Z</time></trkpt><trkpt lat="47.845820367520986" lon="-0.7270998061427663"><ele>76.0</ele><time>2026-04-26T11:48:40.001Z</time></trkpt><trkpt lat="47.84589922501861" lon="-0.7271610930292174"><ele>76.0</ele><time>2026-04-26T11:48:41.001Z</time></trkpt><trkpt lat="47.84597729348108" lon="-0.7272240131978341"><ele>76.0</ele><time>2026-04-26T11:48:42.001Z</time></trkpt><trkpt lat="47.84605489651075" lon="-0.7272832988513859"><ele>76.0</ele><time>2026-04-26T11:48:43.001Z</time></trkpt><trkpt lat="47.84613584011425" lon="-0.7273462481756355"><ele>75.16666666666666</ele><time>2026-04-26T11:48:44.001Z</time></trkpt><trkpt lat="47.8462101615873" lon="-0.727410575808773"><ele>74.33333333333333</ele><time>2026-04-26T11:48:45.001Z</time></trkpt><trkpt lat="47.846290205269426" lon="-0.7274707162634849"><ele>73.5</ele><time>2026-04-26T11:48:46.001Z</time></trkpt><trkpt lat="47.84636686521265" lon="-0.7275304471693483"><ele>72.66666666666667</ele><time>2026-04-26T11:48:47.001Z</time></trkpt><trkpt lat="47.84644386835948" lon="-0.7275896004959006"><ele>71.83333333333334</ele><time>2026-04-26T11:48:48.001Z</time></trkpt><trkpt lat="47.84652086640131" lon="-0.7276521255050208"><ele>71.0</ele><time>2026-04-26T11:48:49.001Z</time></trkpt><trkpt lat="47.846597509860445" lon="-0.7277128018832257"><ele>71.0</ele><time>2026-04-26T11:48:50.001Z</time></trkpt><trkpt lat="47.84667498862708" lon="-0.7277724935755571"><ele>71.0</ele><time>2026-04-26T11:48:51.001Z</time></trkpt><trkpt lat="47.84675157923893" lon="-0.727834892147177"><ele>71.0</ele><time>2026-04-26T11:48:52.001Z</time></trkpt><trkpt lat="47.84682929086729" lon="-0.7278985287741114"><ele>71.0</ele><time>2026-04-26T11:48:53.001Z</time></trkpt><trkpt lat="47.84690713003568" lon="-0.7279577630025139"><ele>71.0</ele><time>2026-04-26T11:48:54.001Z</time></trkpt><trkpt lat="47.846980600520354" lon="-0.7280199608911864"><ele>71.0</ele><time>2026-04-26T11:48:55.001Z</time></trkpt><trkpt lat="47.84705376591204" lon="-0.7280785289252402"><ele>70.83333333333334</ele><time>2026-04-26T11:48:56.001Z</time></trkpt><trkpt lat="47.84712717697661" lon="-0.728134334249603"><ele>70.66666666666667</ele><time>2026-04-26T11:48:57.001Z</time></trkpt><trkpt lat="47.8471983460518" lon="-0.7281921904476918"><ele>70.5</ele><time>2026-04-26T11:48:58.001Z</time></trkpt><trkpt lat="47.84727201227117" lon="-0.7282300348907752"><ele>70.33333333333333</ele><time>2026-04-26T11:48:59.001Z</time></trkpt><trkpt lat="47.84734875746174" lon="-0.7282536501465713"><ele>70.16666666666666</ele><time>2026-04-26T11:49:00.001Z</time></trkpt><trkpt lat="47.84742452716251" lon="-0.7282569487382455"><ele>70.0</ele><time>2026-04-26T11:49:01.001Z</time></trkpt><trkpt lat="47.84750499789969" lon="-0.7282820122801327"><ele>70.0</ele><time>2026-04-26T11:49:02.001Z</time></trkpt><trkpt lat="47.84756654396793" lon="-0.728327866092062"><ele>70.0</ele><time>2026-04-26T11:49:03.001Z</time></trkpt><trkpt lat="47.8476202514634" lon="-0.7284077625176301"><ele>70.0</ele><time>2026-04-26T11:49:04.001Z</time></trkpt><trkpt lat="47.847667199878174" lon="-0.7284940774749659"><ele>70.0</ele><time>2026-04-26T11:49:05.001Z</time></trkpt><trkpt lat="47.84771792370724" lon="-0.7285740827161054"><ele>70.0</ele><time>2026-04-26T11:49:06.001Z</time></trkpt><trkpt lat="47.847777253080956" lon="-0.7286409904847849"><ele>70.0</ele><time>2026-04-26T11:49:07.001Z</time></trkpt><trkpt lat="47.84782692504742" lon="-0.7287222144823898"><ele>70.0</ele><time>2026-04-26T11:49:08.001Z</time></trkpt><trkpt lat="47.84790392666899" lon="-0.7287544574742815"><ele>70.57142857142857</ele><time>2026-04-26T11:49:09.001Z</time></trkpt><trkpt lat="47.84796843224811" lon="-0.7288055135771996"><ele>71.14285714285714</ele><time>2026-04-26T11:49:10.001Z</time></trkpt><trkpt lat="47.84803198907005" lon="-0.7288559250152701"><ele>71.71428571428572</ele><time>2026-04-26T11:49:11.001Z</time></trkpt><trkpt lat="47.848096962587945" lon="-0.7289044716664301"><ele>72.28571428571428</ele><time>2026-04-26T11:49:12.001Z</time></trkpt><trkpt lat="47.84815995708953" lon="-0.7289572159252862"><ele>72.85714285714286</ele><time>2026-04-26T11:49:13.001Z</time></trkpt><trkpt lat="47.848223514813995" lon="-0.7290064047439806"><ele>73.42857142857143</ele><time>2026-04-26T11:49:14.001Z</time></trkpt><trkpt lat="47.84828716599909" lon="-0.7290567553096085"><ele>74.0</ele><time>2026-04-26T11:49:15.001Z</time></trkpt><trkpt lat="47.848348676269396" lon="-0.7291069410858388"><ele>74.0</ele><time>2026-04-26T11:49:16.001Z</time></trkpt><trkpt lat="47.8484116010874" lon="-0.7291575937980079"><ele>74.0</ele><time>2026-04-26T11:49:17.001Z</time></trkpt><trkpt lat="47.84847439571802" lon="-0.729207801703432"><ele>74.0</ele><time>2026-04-26T11:49:18.001Z</time></trkpt><trkpt lat="47.84853842589407" lon="-0.7292559822708272"><ele>74.0</ele><time>2026-04-26T11:49:19.001Z</time></trkpt><trkpt lat="47.8486021156371" lon="-0.7293053420923769"><ele>74.0</ele><time>2026-04-26T11:49:20.001Z</time></trkpt><trkpt lat="47.84866431924045" lon="-0.72935500149816"><ele>74.0</ele><time>2026-04-26T11:49:21.001Z</time></trkpt><trkpt lat="47.84872747835376" lon="-0.7294045836835039"><ele>74.0</ele><time>2026-04-26T11:49:22.001Z</time></trkpt><trkpt lat="47.84878908208363" lon="-0.72945384297153"><ele>74.28571428571429</ele><time>2026-04-26T11:49:23.001Z</time></trkpt><trkpt lat="47.848852383018034" lon="-0.7295027520104234"><ele>74.57142857142857</ele><time>2026-04-26T11:49:24.001Z</time></trkpt><trkpt lat="47.84891465247915" lon="-0.729550457647005"><ele>74.85714285714286</ele><time>2026-04-26T11:49:25.001Z</time></trkpt><trkpt lat="47.848974565010586" lon="-0.729600188361578"><ele>75.14285714285714</ele><time>2026-04-26T11:49:26.001Z</time></trkpt><trkpt lat="47.84903520472163" lon="-0.7296428526336126"><ele>75.42857142857143</ele><time>2026-04-26T11:49:27.001Z</time></trkpt><trkpt lat="47.849093442905485" lon="-0.7296910792726179"><ele>75.71428571428571</ele><time>2026-04-26T11:49:28.001Z</time></trkpt><trkpt lat="47.849151183635456" lon="-0.7297393142365628"><ele>76.0</ele><time>2026-04-26T11:49:29.001Z</time></trkpt><trkpt lat="47.84921091684913" lon="-0.7297862384226366"><ele>76.0</ele><time>2026-04-26T11:49:30.001Z</time></trkpt><trkpt lat="47.84927195107014" lon="-0.7298310553284819"><ele>76.0</ele><time>2026-04-26T11:49:31.001Z</time></trkpt><trkpt lat="47.84933341599728" lon="-0.7298752532563825"><ele>76.0</ele><time>2026-04-26T11:49:32.001Z</time></trkpt><trkpt lat="47.84939408868375" lon="-0.729922953042587"><ele>76.0</ele><time>2026-04-26T11:49:33.001Z</time></trkpt><trkpt lat="47.84945387542884" lon="-0.7299716427336013"><ele>76.0</ele><time>2026-04-26T11:49:34.001Z</time></trkpt><trkpt lat="47.84951497700834" lon="-0.7300202527973857"><ele>76.0</ele><time>2026-04-26T11:49:35.001Z</time></trkpt><trkpt lat="47.84957603290234" lon="-0.7300670149115005"><ele>76.0</ele><time>2026-04-26T11:49:36.001Z</time></trkpt><trkpt lat="47.849637259492745" lon="-0.730113681275193"><ele>76.0</ele><time>2026-04-26T11:49:37.001Z</time></trkpt><trkpt lat="47.849697047424584" lon="-0.7301641616915819"><ele>76.0</ele><time>2026-04-26T11:49:38.001Z</time></trkpt><trkpt lat="47.84976095607909" lon="-0.7302133669653984"><ele>76.0</ele><time>2026-04-26T11:49:39.001Z</time></trkpt><trkpt lat="47.84982400153683" lon="-0.730261048687081"><ele>76.0</ele><time>2026-04-26T11:49:40.001Z</time></trkpt><trkpt lat="47.84988540286619" lon="-0.7303109870351784"><ele>76.0</ele><time>2026-04-26T11:49:41.001Z</time></trkpt><trkpt lat="47.84994797003352" lon="-0.7303601512673198"><ele>76.0</ele><time>2026-04-26T11:49:42.001Z</time></trkpt><trkpt lat="47.85001127129522" lon="-0.7304106360267243"><ele>76.0</ele><time>2026-04-26T11:49:43.001Z</time></trkpt><trkpt lat="47.85007591095981" lon="-0.7304611312705477"><ele>75.5</ele><time>2026-04-26T11:49:44.001Z</time></trkpt><trkpt lat="47.850139355725474" lon="-0.7305121792930831"><ele>75.0</ele><time>2026-04-26T11:49:45.001Z</time></trkpt><trkpt lat="47.850204555683" lon="-0.730562695149561"><ele>74.5</ele><time>2026-04-26T11:49:46.001Z</time></trkpt><trkpt lat="47.85027143567284" lon="-0.7306148286624395"><ele>74.0</ele><time>2026-04-26T11:49:47.001Z</time></trkpt><trkpt lat="47.85033819232064" lon="-0.7306685719722671"><ele>73.5</ele><time>2026-04-26T11:49:48.001Z</time></trkpt><trkpt lat="47.85040713485625" lon="-0.7307242095185902"><ele>73.0</ele><time>2026-04-26T11:49:49.001Z</time></trkpt><trkpt lat="47.85047885418557" lon="-0.7307794107215518"><ele>73.0</ele><time>2026-04-26T11:49:50.001Z</time></trkpt><trkpt lat="47.85055035600284" lon="-0.7308346965747028"><ele>73.0</ele><time>2026-04-26T11:49:51.001Z</time></trkpt><trkpt lat="47.85062132851345" lon="-0.7308968688338476"><ele>73.0</ele><time>2026-04-26T11:49:52.001Z</time></trkpt><trkpt lat="47.850694438822956" lon="-0.7309564350790019"><ele>73.0</ele><time>2026-04-26T11:49:53.001Z</time></trkpt><trkpt lat="47.85076927238872" lon="-0.7310114685406605"><ele>73.0</ele><time>2026-04-26T11:49:54.001Z</time></trkpt><trkpt lat="47.850845559630535" lon="-0.7310675623872709"><ele>73.0</ele><time>2026-04-26T11:49:55.001Z</time></trkpt><trkpt lat="47.850920978067364" lon="-0.7311249508802782"><ele>72.0</ele><time>2026-04-26T11:49:56.001Z</time></trkpt><trkpt lat="47.85099767979267" lon="-0.7311851693657179"><ele>71.0</ele><time>2026-04-26T11:49:57.001Z</time></trkpt><trkpt lat="47.85107470851974" lon="-0.7312503986135167"><ele>70.0</ele><time>2026-04-26T11:49:58.001Z</time></trkpt><trkpt lat="47.851155285238825" lon="-0.7313149852191914"><ele>69.0</ele><time>2026-04-26T11:49:59.001Z</time></trkpt><trkpt lat="47.8512356971767" lon="-0.7313782102051144"><ele>68.0</ele><time>2026-04-26T11:50:00.001Z</time></trkpt><trkpt lat="47.85131663900965" lon="-0.7314435835102933"><ele>68.0</ele><time>2026-04-26T11:50:01.001Z</time></trkpt><trkpt lat="47.851400943313415" lon="-0.7315064957933644"><ele>68.0</ele><time>2026-04-26T11:50:02.001Z</time></trkpt><trkpt lat="47.85148627323202" lon="-0.731572368708699"><ele>68.0</ele><time>2026-04-26T11:50:03.001Z</time></trkpt><trkpt lat="47.8515731505095" lon="-0.7316401699533649"><ele>68.0</ele><time>2026-04-26T11:50:04.001Z</time></trkpt><trkpt lat="47.85165821230475" lon="-0.731712093794242"><ele>68.0</ele><time>2026-04-26T11:50:05.001Z</time></trkpt><trkpt lat="47.85174602963785" lon="-0.7317830679019188"><ele>67.8</ele><time>2026-04-26T11:50:06.001Z</time></trkpt><trkpt lat="47.85183640930246" lon="-0.7318495275585694"><ele>67.6</ele><time>2026-04-26T11:50:07.001Z</time></trkpt><trkpt lat="47.85192613918333" lon="-0.7319182081856707"><ele>67.4</ele><time>2026-04-26T11:50:08Z</time></trkpt><trkpt lat="47.85201522608537" lon="-0.7319897558982039"><ele>67.2</ele><time>2026-04-26T11:50:09Z</time></trkpt><trkpt lat="47.85210610492352" lon="-0.7320604689086446"><ele>67.0</ele><time>2026-04-26T11:50:10Z</time></trkpt><trkpt lat="47.85219741328598" lon="-0.7321304423685633"><ele>66.8</ele><time>2026-04-26T11:50:11Z</time></trkpt><trkpt lat="47.85229197932694" lon="-0.7322041961398488"><ele>66.6</ele><time>2026-04-26T11:50:12Z</time></trkpt><trkpt lat="47.85238530344173" lon="-0.7322817454885132"><ele>66.39999999999999</ele><time>2026-04-26T11:50:13Z</time></trkpt><trkpt lat="47.85248217209919" lon="-0.7323562359676723"><ele>66.2</ele><time>2026-04-26T11:50:14Z</time></trkpt><trkpt lat="47.8525799381348" lon="-0.7324319428136421"><ele>66.0</ele><time>2026-04-26T11:50:15Z</time></trkpt><trkpt lat="47.852676476572526" lon="-0.7325065095932236"><ele>66.0</ele><time>2026-04-26T11:50:16Z</time></trkpt><trkpt lat="47.852771952500795" lon="-0.7325843891977227"><ele>66.0</ele><time>2026-04-26T11:50:17Z</time></trkpt><trkpt lat="47.85286870248863" lon="-0.7326616915900172"><ele>66.0</ele><time>2026-04-26T11:50:18Z</time></trkpt><trkpt lat="47.85296551860453" lon="-0.7327367204702273"><ele>66.0</ele><time>2026-04-26T11:50:19Z</time></trkpt><trkpt lat="47.85306429022826" lon="-0.7328168215837865"><ele>66.0</ele><time>2026-04-26T11:50:20Z</time></trkpt><trkpt lat="47.85316299571017" lon="-0.7328914719594986"><ele>66.0</ele><time>2026-04-26T11:50:21Z</time></trkpt><trkpt lat="47.85325901160663" lon="-0.7329696129735576"><ele>66.0</ele><time>2026-04-26T11:50:22Z</time></trkpt><trkpt lat="47.853356486989604" lon="-0.7330463345801007"><ele>66.0</ele><time>2026-04-26T11:50:23Z</time></trkpt><trkpt lat="47.853452125732694" lon="-0.7331176474983924"><ele>66.0</ele><time>2026-04-26T11:50:24Z</time></trkpt><trkpt lat="47.85354703515714" lon="-0.733192538497761"><ele>66.0</ele><time>2026-04-26T11:50:25Z</time></trkpt><trkpt lat="47.853641052637066" lon="-0.7332667048370799"><ele>65.8</ele><time>2026-04-26T11:50:26Z</time></trkpt><trkpt lat="47.85373184400845" lon="-0.7333431414658722"><ele>65.6</ele><time>2026-04-26T11:50:27Z</time></trkpt><trkpt lat="47.85382239694684" lon="-0.7334202869007117"><ele>65.4</ele><time>2026-04-26T11:50:28Z</time></trkpt><trkpt lat="47.85391523812591" lon="-0.7334886380712222"><ele>65.2</ele><time>2026-04-26T11:50:29Z</time></trkpt><trkpt lat="47.854007372549326" lon="-0.7335559747873475"><ele>65.0</ele><time>2026-04-26T11:50:30Z</time></trkpt><trkpt lat="47.85409837378901" lon="-0.7336293972068302"><ele>65.0</ele><time>2026-04-26T11:50:31Z</time></trkpt><trkpt lat="47.85419065752465" lon="-0.7336988718552434"><ele>65.0</ele><time>2026-04-26T11:50:32Z</time></trkpt><trkpt lat="47.85428153640893" lon="-0.7337717942418333"><ele>65.0</ele><time>2026-04-26T11:50:33Z</time></trkpt><trkpt lat="47.85437349611766" lon="-0.7338467904636856"><ele>65.0</ele><time>2026-04-26T11:50:34Z</time></trkpt><trkpt lat="47.8544661882985" lon="-0.7339211325729695"><ele>65.0</ele><time>2026-04-26T11:50:35Z</time></trkpt><trkpt lat="47.85455726359386" lon="-0.7339915015227889"><ele>64.2</ele><time>2026-04-26T11:50:36Z</time></trkpt><trkpt lat="47.854649791443535" lon="-0.7340645327940339"><ele>63.4</ele><time>2026-04-26T11:50:37Z</time></trkpt><trkpt lat="47.85474089098004" lon="-0.7341344796335549"><ele>62.599999999999994</ele><time>2026-04-26T11:50:38Z</time></trkpt><trkpt lat="47.854832616219156" lon="-0.734208108141294"><ele>61.8</ele><time>2026-04-26T11:50:39Z</time></trkpt><trkpt lat="47.854923075436346" lon="-0.7342824478111545"><ele>61.0</ele><time>2026-04-26T11:50:40Z</time></trkpt><trkpt lat="47.85501528336527" lon="-0.7343507767280448"><ele>60.8</ele><time>2026-04-26T11:50:41Z</time></trkpt><trkpt lat="47.85510664141976" lon="-0.7344223304078301"><ele>60.599999999999994</ele><time>2026-04-26T11:50:42Z</time></trkpt><trkpt lat="47.85519687056864" lon="-0.7344956015509019"><ele>60.4</ele><time>2026-04-26T11:50:43Z</time></trkpt><trkpt lat="47.855286971832406" lon="-0.7345660696106716"><ele>60.2</ele><time>2026-04-26T11:50:44Z</time></trkpt><trkpt lat="47.855377093314395" lon="-0.7346340677836415"><ele>60.0</ele><time>2026-04-26T11:50:45Z</time></trkpt><trkpt lat="47.85546645115844" lon="-0.734701098987227"><ele>60.0</ele><time>2026-04-26T11:50:46Z</time></trkpt><trkpt lat="47.855552987350165" lon="-0.7347731766204088"><ele>60.0</ele><time>2026-04-26T11:50:47Z</time></trkpt><trkpt lat="47.85563714620184" lon="-0.7348417814928209"><ele>60.0</ele><time>2026-04-26T11:50:48Z</time></trkpt><trkpt lat="47.8557206891514" lon="-0.7349063740638414"><ele>60.0</ele><time>2026-04-26T11:50:49Z</time></trkpt><trkpt lat="47.85580466143526" lon="-0.7349720056487389"><ele>60.0</ele><time>2026-04-26T11:50:50Z</time></trkpt><trkpt lat="47.85588663921232" lon="-0.7350388605664092"><ele>60.2</ele><time>2026-04-26T11:50:51Z</time></trkpt><trkpt lat="47.85596834853632" lon="-0.7351023530266408"><ele>60.4</ele><time>2026-04-26T11:50:52Z</time></trkpt><trkpt lat="47.856050503192925" lon="-0.735164877690978"><ele>60.599999999999994</ele><time>2026-04-26T11:50:53Z</time></trkpt><trkpt lat="47.85613142076562" lon="-0.7352282782553472"><ele>60.8</ele><time>2026-04-26T11:50:54Z</time></trkpt><trkpt lat="47.85621136562799" lon="-0.7352910453262889"><ele>61.0</ele><time>2026-04-26T11:50:55Z</time></trkpt><trkpt lat="47.856287610986904" lon="-0.7353541789730826"><ele>60.99999999999999</ele><time>2026-04-26T11:50:56Z</time></trkpt><trkpt lat="47.85636472149499" lon="-0.7354138613121163"><ele>61.0</ele><time>2026-04-26T11:50:57Z</time></trkpt><trkpt lat="47.85644148799748" lon="-0.7354711113925142"><ele>61.0</ele><time>2026-04-26T11:50:58Z</time></trkpt><trkpt lat="47.85651646427789" lon="-0.7355307083948428"><ele>61.0</ele><time>2026-04-26T11:50:59Z</time></trkpt><trkpt lat="47.856591085824746" lon="-0.735590339421483"><ele>60.99999999999999</ele><time>2026-04-26T11:51:00Z</time></trkpt><trkpt lat="47.85666487321404" lon="-0.735649423497949"><ele>61.0</ele><time>2026-04-26T11:51:01Z</time></trkpt><trkpt lat="47.85673771110462" lon="-0.735706806380335"><ele>61.166666666666664</ele><time>2026-04-26T11:51:02Z</time></trkpt><trkpt lat="47.85681004917669" lon="-0.7357638515540812"><ele>61.33333333333333</ele><time>2026-04-26T11:51:03Z</time></trkpt><trkpt lat="47.85688230613398" lon="-0.735819111531726"><ele>61.5</ele><time>2026-04-26T11:51:04Z</time></trkpt><trkpt lat="47.856953675005556" lon="-0.7358733831515265"><ele>61.66666666666667</ele><time>2026-04-26T11:51:05Z</time></trkpt><trkpt lat="47.857023142687005" lon="-0.735927939227625"><ele>61.833333333333336</ele><time>2026-04-26T11:51:06Z</time></trkpt><trkpt lat="47.85709283150642" lon="-0.7359829924154764"><ele>62.0</ele><time>2026-04-26T11:51:07Z</time></trkpt><trkpt lat="47.85716126296164" lon="-0.7360356699685253"><ele>62.16666666666667</ele><time>2026-04-26T11:51:08Z</time></trkpt><trkpt lat="47.857228658885184" lon="-0.7360910396560346"><ele>62.333333333333336</ele><time>2026-04-26T11:51:09Z</time></trkpt><trkpt lat="47.8572956940826" lon="-0.7361468408834015"><ele>62.5</ele><time>2026-04-26T11:51:10Z</time></trkpt><trkpt lat="47.857362847261236" lon="-0.7361979451817116"><ele>62.66666666666667</ele><time>2026-04-26T11:51:11Z</time></trkpt><trkpt lat="47.85742965828559" lon="-0.7362481656853005"><ele>62.833333333333336</ele><time>2026-04-26T11:51:12Z</time></trkpt><trkpt lat="47.857496328945615" lon="-0.7363019292727637"><ele>63.0</ele><time>2026-04-26T11:51:13Z</time></trkpt><trkpt lat="47.85756149925625" lon="-0.7363569701535267"><ele>63.333333333333336</ele><time>2026-04-26T11:51:14Z</time></trkpt><trkpt lat="47.8576285561293" lon="-0.7364083422589759"><ele>63.66666666666667</ele><time>2026-04-26T11:51:15Z</time></trkpt><trkpt lat="47.857695973391785" lon="-0.736459121709135"><ele>64.0</ele><time>2026-04-26T11:51:16Z</time></trkpt><trkpt lat="47.85776433942128" lon="-0.7365153700359771"><ele>64.33333333333334</ele><time>2026-04-26T11:51:17Z</time></trkpt><trkpt lat="47.85782992381658" lon="-0.7365701832779195"><ele>64.66666666666667</ele><time>2026-04-26T11:51:18Z</time></trkpt><trkpt lat="47.85789805161695" lon="-0.7366225417392792"><ele>65.0</ele><time>2026-04-26T11:51:19Z</time></trkpt><trkpt lat="47.85796637295148" lon="-0.7366707457107001"><ele>65.00000000000001</ele><time>2026-04-26T11:51:20Z</time></trkpt><trkpt lat="47.85803224691488" lon="-0.7367224002189627"><ele>65.0</ele><time>2026-04-26T11:51:21Z</time></trkpt><trkpt lat="47.85809724765298" lon="-0.7367773559239869"><ele>65.0</ele><time>2026-04-26T11:51:22Z</time></trkpt><trkpt lat="47.858163689696624" lon="-0.7368265434571143"><ele>65.0</ele><time>2026-04-26T11:51:23Z</time></trkpt><trkpt lat="47.858229957015695" lon="-0.7368773109056265"><ele>65.0</ele><time>2026-04-26T11:51:24Z</time></trkpt><trkpt lat="47.85829389636855" lon="-0.7369281340786056"><ele>65.00000000000001</ele><time>2026-04-26T11:51:25Z</time></trkpt><trkpt lat="47.85835877939828" lon="-0.7369778889539511"><ele>65.0</ele><time>2026-04-26T11:51:26Z</time></trkpt><trkpt lat="47.858422106377866" lon="-0.7370285603672911"><ele>64.85714285714286</ele><time>2026-04-26T11:51:27Z</time></trkpt><trkpt lat="47.85848517416002" lon="-0.7370760970156268"><ele>64.71428571428572</ele><time>2026-04-26T11:51:28Z</time></trkpt><trkpt lat="47.858547797541284" lon="-0.7371264835714024"><ele>64.57142857142857</ele><time>2026-04-26T11:51:29Z</time></trkpt><trkpt lat="47.85860842704141" lon="-0.737179445128443"><ele>64.42857142857143</ele><time>2026-04-26T11:51:30Z</time></trkpt><trkpt lat="47.858669720386914" lon="-0.7372275582380456"><ele>64.28571428571428</ele><time>2026-04-26T11:51:31Z</time></trkpt><trkpt lat="47.858732132892726" lon="-0.737272772469956"><ele>64.14285714285714</ele><time>2026-04-26T11:51:32Z</time></trkpt><trkpt lat="47.85879182663446" lon="-0.7373202655368469"><ele>64.0</ele><time>2026-04-26T11:51:33Z</time></trkpt><trkpt lat="47.85885138407815" lon="-0.737370358028284"><ele>64.0</ele><time>2026-04-26T11:51:34Z</time></trkpt><trkpt lat="47.85891108927284" lon="-0.7374142421148465"><ele>64.0</ele><time>2026-04-26T11:51:35Z</time></trkpt><trkpt lat="47.85897138747708" lon="-0.7374584515228453"><ele>64.0</ele><time>2026-04-26T11:51:36Z</time></trkpt><trkpt lat="47.85908171480576" lon="-0.7375481331971991"><ele>64.0</ele><time>2026-04-26T11:51:38Z</time></trkpt><trkpt lat="47.8591901735864" lon="-0.7376294418590419"><ele>64.0</ele><time>2026-04-26T11:51:40Z</time></trkpt><trkpt lat="47.859294033221076" lon="-0.7377131359619745"><ele>64.75</ele><time>2026-04-26T11:51:42Z</time></trkpt><trkpt lat="47.85939836748319" lon="-0.7377934742364417"><ele>65.5</ele><time>2026-04-26T11:51:44.001Z</time></trkpt><trkpt lat="47.85950047610008" lon="-0.737874336304654"><ele>66.25</ele><time>2026-04-26T11:51:46.001Z</time></trkpt><trkpt lat="47.85960045623181" lon="-0.7379554334942362"><ele>67.0</ele><time>2026-04-26T11:51:48.001Z</time></trkpt><trkpt lat="47.859703415574785" lon="-0.738034495965589"><ele>67.0</ele><time>2026-04-26T11:51:50.001Z</time></trkpt><trkpt lat="47.85980688334994" lon="-0.7381185259233577"><ele>67.0</ele><time>2026-04-26T11:51:52.001Z</time></trkpt><trkpt lat="47.85991004051709" lon="-0.738196207055697"><ele>67.0</ele><time>2026-04-26T11:51:54.001Z</time></trkpt><trkpt lat="47.860015596250896" lon="-0.7382822767731007"><ele>67.0</ele><time>2026-04-26T11:51:56.001Z</time></trkpt><trkpt lat="47.86012205277599" lon="-0.7383645512428738"><ele>66.71428571428572</ele><time>2026-04-26T11:51:58.001Z</time></trkpt><trkpt lat="47.86023265366122" lon="-0.7384525734477528"><ele>66.42857142857143</ele><time>2026-04-26T11:52:00Z</time></trkpt><trkpt lat="47.86028867000627" lon="-0.7384971760185469"><ele>66.14285714285714</ele><time>2026-04-26T11:52:01Z</time></trkpt><trkpt lat="47.86034591134785" lon="-0.7385423492400595"><ele>65.85714285714286</ele><time>2026-04-26T11:52:02Z</time></trkpt><trkpt lat="47.86040358809932" lon="-0.7385871695211871"><ele>65.57142857142857</ele><time>2026-04-26T11:52:03Z</time></trkpt><trkpt lat="47.86046030147182" lon="-0.7386334953253271"><ele>65.28571428571429</ele><time>2026-04-26T11:52:04Z</time></trkpt><trkpt lat="47.86051744554444" lon="-0.7386778512362243"><ele>65.0</ele><time>2026-04-26T11:52:05Z</time></trkpt><trkpt lat="47.860576147725766" lon="-0.7387232444671794"><ele>65.00000000000001</ele><time>2026-04-26T11:52:06Z</time></trkpt><trkpt lat="47.86063650801845" lon="-0.7387688781582357"><ele>65.0</ele><time>2026-04-26T11:52:07Z</time></trkpt><trkpt lat="47.86069738527089" lon="-0.7388159842495002"><ele>65.0</ele><time>2026-04-26T11:52:08Z</time></trkpt><trkpt lat="47.86076039575308" lon="-0.7388662082329617"><ele>65.0</ele><time>2026-04-26T11:52:09Z</time></trkpt><trkpt lat="47.860824299726055" lon="-0.7389181836591245"><ele>65.0</ele><time>2026-04-26T11:52:10Z</time></trkpt><trkpt lat="47.86088776818368" lon="-0.7389697472712463"><ele>65.00000000000001</ele><time>2026-04-26T11:52:11Z</time></trkpt><trkpt lat="47.860956736547756" lon="-0.7390207501256965"><ele>65.0</ele><time>2026-04-26T11:52:12Z</time></trkpt><trkpt lat="47.86102706262221" lon="-0.7390773324693746"><ele>64.33333333333334</ele><time>2026-04-26T11:52:13Z</time></trkpt><trkpt lat="47.86109894134802" lon="-0.7391330519954932"><ele>63.66666666666667</ele><time>2026-04-26T11:52:14Z</time></trkpt><trkpt lat="47.86117162956434" lon="-0.7391924590110313"><ele>63.0</ele><time>2026-04-26T11:52:15Z</time></trkpt><trkpt lat="47.861246354277746" lon="-0.7392523354753211"><ele>62.33333333333333</ele><time>2026-04-26T11:52:16Z</time></trkpt><trkpt lat="47.861322150645414" lon="-0.7393120293777312"><ele>61.666666666666664</ele><time>2026-04-26T11:52:17Z</time></trkpt><trkpt lat="47.86140058895097" lon="-0.7393757515201264"><ele>61.0</ele><time>2026-04-26T11:52:18Z</time></trkpt><trkpt lat="47.861478573386904" lon="-0.7394379654518567"><ele>60.99999999999999</ele><time>2026-04-26T11:52:19Z</time></trkpt><trkpt lat="47.861557311477696" lon="-0.739497507154966"><ele>61.0</ele><time>2026-04-26T11:52:20Z</time></trkpt><trkpt lat="47.86163556681867" lon="-0.7395581988181867"><ele>61.0</ele><time>2026-04-26T11:52:21Z</time></trkpt><trkpt lat="47.86171412902092" lon="-0.7396208669270009"><ele>61.0</ele><time>2026-04-26T11:52:22Z</time></trkpt><trkpt lat="47.86178999517514" lon="-0.7396786254265134"><ele>60.99999999999999</ele><time>2026-04-26T11:52:23Z</time></trkpt><trkpt lat="47.86186627844903" lon="-0.7397387253754092"><ele>61.0</ele><time>2026-04-26T11:52:24Z</time></trkpt><trkpt lat="47.86194355033084" lon="-0.739797559168767"><ele>60.99999999999999</ele><time>2026-04-26T11:52:25Z</time></trkpt><trkpt lat="47.86201852196431" lon="-0.7398550783067934"><ele>61.0</ele><time>2026-04-26T11:52:26Z</time></trkpt><trkpt lat="47.86209224164114" lon="-0.7399143239639252"><ele>61.0</ele><time>2026-04-26T11:52:27Z</time></trkpt><trkpt lat="47.86216553681871" lon="-0.7399732473345713"><ele>61.0</ele><time>2026-04-26T11:52:28Z</time></trkpt><trkpt lat="47.862239624266806" lon="-0.7400295291093082"><ele>60.99999999999999</ele><time>2026-04-26T11:52:29Z</time></trkpt><trkpt lat="47.86231313415053" lon="-0.7400845542001425"><ele>61.0</ele><time>2026-04-26T11:52:30Z</time></trkpt><trkpt lat="47.8623846414065" lon="-0.7401411873501493"><ele>60.99999999999999</ele><time>2026-04-26T11:52:31Z</time></trkpt><trkpt lat="47.86245572740952" lon="-0.7401972371649312"><ele>61.0</ele><time>2026-04-26T11:52:32Z</time></trkpt><trkpt lat="47.8625286743518" lon="-0.7402535321793836"><ele>61.0</ele><time>2026-04-26T11:52:33Z</time></trkpt><trkpt lat="47.86259675747716" lon="-0.7403100323409405"><ele>61.0</ele><time>2026-04-26T11:52:34Z</time></trkpt><trkpt lat="47.862666419683805" lon="-0.7403666312751678"><ele>60.99999999999999</ele><time>2026-04-26T11:52:35Z</time></trkpt><trkpt lat="47.86273669311748" lon="-0.7404219311171945"><ele>61.0</ele><time>2026-04-26T11:52:36Z</time></trkpt><trkpt lat="47.86280745803854" lon="-0.7404761450585107"><ele>60.99999999999999</ele><time>2026-04-26T11:52:37Z</time></trkpt><trkpt lat="47.86287687357757" lon="-0.7405308913891976"><ele>61.0</ele><time>2026-04-26T11:52:38Z</time></trkpt><trkpt lat="47.86294485055965" lon="-0.7405852529061867"><ele>61.0</ele><time>2026-04-26T11:52:39Z</time></trkpt><trkpt lat="47.863014070542384" lon="-0.7406395886612187"><ele>61.0</ele><time>2026-04-26T11:52:40Z</time></trkpt><trkpt lat="47.863082263787916" lon="-0.740693278708533"><ele>60.99999999999999</ele><time>2026-04-26T11:52:41Z</time></trkpt><trkpt lat="47.86314943219519" lon="-0.7407491770958005"><ele>61.0</ele><time>2026-04-26T11:52:42Z</time></trkpt><trkpt lat="47.863216835317075" lon="-0.7408000336237361"><ele>60.99999999999999</ele><time>2026-04-26T11:52:43Z</time></trkpt><trkpt lat="47.8632795772271" lon="-0.7408513131800978"><ele>61.0</ele><time>2026-04-26T11:52:44Z</time></trkpt><trkpt lat="47.86334079723162" lon="-0.7408991891822185"><ele>60.99999999999999</ele><time>2026-04-26T11:52:45Z</time></trkpt><trkpt lat="47.863401481811614" lon="-0.7409460679632429"><ele>60.99999999999999</ele><time>2026-04-26T11:52:46Z</time></trkpt><trkpt lat="47.8634615894629" lon="-0.7409957579498822"><ele>61.0</ele><time>2026-04-26T11:52:47Z</time></trkpt><trkpt lat="47.863518644638184" lon="-0.7410403236604742"><ele>60.99999999999999</ele><time>2026-04-26T11:52:48Z</time></trkpt><trkpt lat="47.86357452978173" lon="-0.7410836624824793"><ele>60.99999999999999</ele><time>2026-04-26T11:52:49Z</time></trkpt><trkpt lat="47.863683412882686" lon="-0.7411691540168895"><ele>61.75</ele><time>2026-04-26T11:52:51Z</time></trkpt><trkpt lat="47.863785692498276" lon="-0.7412499290566487"><ele>62.5</ele><time>2026-04-26T11:52:53Z</time></trkpt><trkpt lat="47.86388543863885" lon="-0.741322753329468"><ele>63.25</ele><time>2026-04-26T11:52:55Z</time></trkpt><trkpt lat="47.86398448531449" lon="-0.7414041935647929"><ele>64.0</ele><time>2026-04-26T11:52:57Z</time></trkpt><trkpt lat="47.86408239150098" lon="-0.7414819949553689"><ele>64.0</ele><time>2026-04-26T11:52:59Z</time></trkpt><trkpt lat="47.86418438146528" lon="-0.7415633643816373"><ele>64.0</ele><time>2026-04-26T11:53:01Z</time></trkpt><trkpt lat="47.864288459482545" lon="-0.7416405959645197"><ele>64.0</ele><time>2026-04-26T11:53:03Z</time></trkpt><trkpt lat="47.864386848405154" lon="-0.7417203805299907"><ele>64.0</ele><time>2026-04-26T11:53:05Z</time></trkpt><trkpt lat="47.86449144715307" lon="-0.7418073668551909"><ele>64.5</ele><time>2026-04-26T11:53:07Z</time></trkpt><trkpt lat="47.864596506254664" lon="-0.7418843441389"><ele>65.0</ele><time>2026-04-26T11:53:09Z</time></trkpt><trkpt lat="47.86470895892514" lon="-0.741969445436268"><ele>65.5</ele><time>2026-04-26T11:53:11Z</time></trkpt><trkpt lat="47.86476392429342" lon="-0.7420219132106722"><ele>66.0</ele><time>2026-04-26T11:53:12Z</time></trkpt><trkpt lat="47.864825059837884" lon="-0.7420631366210051"><ele>66.5</ele><time>2026-04-26T11:53:13Z</time></trkpt><trkpt lat="47.86488685426181" lon="-0.7421098855083376"><ele>67.0</ele><time>2026-04-26T11:53:14Z</time></trkpt><trkpt lat="47.86494422553806" lon="-0.7421670423853814"><ele>67.0</ele><time>2026-04-26T11:53:15Z</time></trkpt><trkpt lat="47.86500302893732" lon="-0.742204856873968"><ele>67.0</ele><time>2026-04-26T11:53:16Z</time></trkpt><trkpt lat="47.86511175056496" lon="-0.7422921689518107"><ele>67.0</ele><time>2026-04-26T11:53:18Z</time></trkpt><trkpt lat="47.86521659141553" lon="-0.7423766760513573"><ele>67.0</ele><time>2026-04-26T11:53:20Z</time></trkpt><trkpt lat="47.86531907761554" lon="-0.7424575546360483"><ele>67.0</ele><time>2026-04-26T11:53:22Z</time></trkpt><trkpt lat="47.86541805659704" lon="-0.7425314344025844"><ele>67.4</ele><time>2026-04-26T11:53:24Z</time></trkpt><trkpt lat="47.8655141069411" lon="-0.742608163102847"><ele>67.80000000000001</ele><time>2026-04-26T11:53:26Z</time></trkpt><trkpt lat="47.86560818036361" lon="-0.7426845536381859"><ele>68.2</ele><time>2026-04-26T11:53:28Z</time></trkpt><trkpt lat="47.865700232189994" lon="-0.7427560488942183"><ele>68.60000000000001</ele><time>2026-04-26T11:53:30Z</time></trkpt><trkpt lat="47.86579010893751" lon="-0.7428305134305759"><ele>69.0</ele><time>2026-04-26T11:53:32Z</time></trkpt><trkpt lat="47.865880788752555" lon="-0.7429042643997554"><ele>69.60000000000001</ele><time>2026-04-26T11:53:34Z</time></trkpt><trkpt lat="47.86597200059247" lon="-0.7429736938705522"><ele>70.2</ele><time>2026-04-26T11:53:36Z</time></trkpt><trkpt lat="47.866063368820306" lon="-0.7430435131192935"><ele>70.80000000000001</ele><time>2026-04-26T11:53:38Z</time></trkpt><trkpt lat="47.86615584865705" lon="-0.7431130863819119"><ele>71.4</ele><time>2026-04-26T11:53:40Z</time></trkpt><trkpt lat="47.86624864657288" lon="-0.7431892217895177"><ele>72.0</ele><time>2026-04-26T11:53:42Z</time></trkpt><trkpt lat="47.866342194927995" lon="-0.7432624313423208"><ele>72.0</ele><time>2026-04-26T11:53:44Z</time></trkpt><trkpt lat="47.866438526544705" lon="-0.7433370036842705"><ele>72.0</ele><time>2026-04-26T11:53:46Z</time></trkpt><trkpt lat="47.86653517777558" lon="-0.7434140871663838"><ele>72.0</ele><time>2026-04-26T11:53:48Z</time></trkpt><trkpt lat="47.86663393838748" lon="-0.7434920301360024"><ele>72.0</ele><time>2026-04-26T11:53:50.001Z</time></trkpt><trkpt lat="47.86673115017033" lon="-0.7435683739096257"><ele>72.0</ele><time>2026-04-26T11:53:52.001Z</time></trkpt><trkpt lat="47.86682558265526" lon="-0.7436458514481695"><ele>72.2</ele><time>2026-04-26T11:53:54.001Z</time></trkpt><trkpt lat="47.86692263029039" lon="-0.7437190884306946"><ele>72.4</ele><time>2026-04-26T11:53:56.001Z</time></trkpt><trkpt lat="47.86701815727884" lon="-0.7437969610597499"><ele>72.6</ele><time>2026-04-26T11:53:58.001Z</time></trkpt><trkpt lat="47.867114383802736" lon="-0.7438716300136"><ele>72.8</ele><time>2026-04-26T11:54:00.001Z</time></trkpt><trkpt lat="47.86720977065247" lon="-0.7439462814240603"><ele>73.0</ele><time>2026-04-26T11:54:02.001Z</time></trkpt><trkpt lat="47.86730435970612" lon="-0.7440191497029236"><ele>73.0</ele><time>2026-04-26T11:54:04.001Z</time></trkpt><trkpt lat="47.86739731975443" lon="-0.7440933926546478"><ele>73.0</ele><time>2026-04-26T11:54:06.001Z</time></trkpt><trkpt lat="47.867491708912915" lon="-0.7441678387300418"><ele>73.0</ele><time>2026-04-26T11:54:08.001Z</time></trkpt><trkpt lat="47.86758549570025" lon="-0.7442455877190529"><ele>73.0</ele><time>2026-04-26T11:54:10.001Z</time></trkpt><trkpt lat="47.867681682782084" lon="-0.7443158738707034"><ele>73.0</ele><time>2026-04-26T11:54:12.001Z</time></trkpt><trkpt lat="47.86777833062893" lon="-0.7443936667572434"><ele>73.0</ele><time>2026-04-26T11:54:14.001Z</time></trkpt><trkpt lat="47.8678759946881" lon="-0.7444725585205315"><ele>73.0</ele><time>2026-04-26T11:54:16Z</time></trkpt><trkpt lat="47.86797729718232" lon="-0.744555012549335"><ele>73.0</ele><time>2026-04-26T11:54:18Z</time></trkpt><trkpt lat="47.868082757453905" lon="-0.7446350853159204"><ele>73.0</ele><time>2026-04-26T11:54:20Z</time></trkpt><trkpt lat="47.86818733032057" lon="-0.7447203313788554"><ele>73.0</ele><time>2026-04-26T11:54:22Z</time></trkpt><trkpt lat="47.868294528691024" lon="-0.7448047250372786"><ele>73.0</ele><time>2026-04-26T11:54:24Z</time></trkpt><trkpt lat="47.86840220395888" lon="-0.7448857737860286"><ele>73.0</ele><time>2026-04-26T11:54:26Z</time></trkpt><trkpt lat="47.86851123577875" lon="-0.7449717221450484"><ele>73.0</ele><time>2026-04-26T11:54:28Z</time></trkpt><trkpt lat="47.86862252240289" lon="-0.7450401096628314"><ele>73.0</ele><time>2026-04-26T11:54:30Z</time></trkpt><trkpt lat="47.86873426134157" lon="-0.7451103586983605"><ele>73.0</ele><time>2026-04-26T11:54:32Z</time></trkpt><trkpt lat="47.86884274104927" lon="-0.745193847111044"><ele>73.0</ele><time>2026-04-26T11:54:34Z</time></trkpt><trkpt lat="47.86894882954748" lon="-0.7452830697605993"><ele>73.0</ele><time>2026-04-26T11:54:36Z</time></trkpt><trkpt lat="47.86905295339659" lon="-0.7453760966379656"><ele>73.0</ele><time>2026-04-26T11:54:38Z</time></trkpt><trkpt lat="47.869154081456635" lon="-0.7454795151028719"><ele>73.0</ele><time>2026-04-26T11:54:40Z</time></trkpt><trkpt lat="47.8692064428665" lon="-0.7455318320074691"><ele>73.0</ele><time>2026-04-26T11:54:41Z</time></trkpt><trkpt lat="47.869262135369986" lon="-0.7455791017605504"><ele>73.0</ele><time>2026-04-26T11:54:42Z</time></trkpt><trkpt lat="47.86931939628611" lon="-0.7456254073438475"><ele>73.0</ele><time>2026-04-26T11:54:43Z</time></trkpt><trkpt lat="47.86942865923494" lon="-0.7457119785361161"><ele>73.0</ele><time>2026-04-26T11:54:45Z</time></trkpt><trkpt lat="47.869539038217404" lon="-0.7458013366622565"><ele>72.75</ele><time>2026-04-26T11:54:47Z</time></trkpt><trkpt lat="47.869648763881514" lon="-0.7458885527347058"><ele>72.5</ele><time>2026-04-26T11:54:49Z</time></trkpt><trkpt lat="47.86975428058153" lon="-0.7459733162795337"><ele>72.25</ele><time>2026-04-26T11:54:51Z</time></trkpt><trkpt lat="47.86986243205869" lon="-0.7460599545105697"><ele>72.0</ele><time>2026-04-26T11:54:53Z</time></trkpt><trkpt lat="47.869973787544865" lon="-0.7461451017658339"><ele>72.0</ele><time>2026-04-26T11:54:55Z</time></trkpt><trkpt lat="47.87008332541669" lon="-0.7462363444181649"><ele>72.0</ele><time>2026-04-26T11:54:57Z</time></trkpt><trkpt lat="47.87014144724507" lon="-0.7462814207475126"><ele>72.0</ele><time>2026-04-26T11:54:58Z</time></trkpt><trkpt lat="47.87020024776939" lon="-0.7463276886532898"><ele>72.0</ele><time>2026-04-26T11:54:59Z</time></trkpt><trkpt lat="47.87026083292205" lon="-0.7463740448038254"><ele>72.0</ele><time>2026-04-26T11:55:00Z</time></trkpt><trkpt lat="47.870322027024834" lon="-0.7464222835466798"><ele>72.0</ele><time>2026-04-26T11:55:01Z</time></trkpt><trkpt lat="47.87038327532261" lon="-0.7464744726286993"><ele>72.0</ele><time>2026-04-26T11:55:02Z</time></trkpt><trkpt lat="47.87044550595642" lon="-0.7465283901720193"><ele>72.0</ele><time>2026-04-26T11:55:03Z</time></trkpt><trkpt lat="47.87050666204766" lon="-0.7465864884514646"><ele>72.0</ele><time>2026-04-26T11:55:04Z</time></trkpt><trkpt lat="47.87057240700972" lon="-0.7466415154437193"><ele>72.0</ele><time>2026-04-26T11:55:05Z</time></trkpt><trkpt lat="47.87064202845999" lon="-0.7466885148980491"><ele>72.0</ele><time>2026-04-26T11:55:06Z</time></trkpt><trkpt lat="47.87071410835791" lon="-0.7467276174353509"><ele>72.0</ele><time>2026-04-26T11:55:07Z</time></trkpt><trkpt lat="47.870788069797634" lon="-0.7467788332884425"><ele>72.0</ele><time>2026-04-26T11:55:08Z</time></trkpt><trkpt lat="47.87085730262345" lon="-0.7468367439216542"><ele>72.0</ele><time>2026-04-26T11:55:09Z</time></trkpt><trkpt lat="47.8709271759299" lon="-0.7468921440579801"><ele>72.0</ele><time>2026-04-26T11:55:10Z</time></trkpt><trkpt lat="47.870997650186666" lon="-0.7469445597061254"><ele>72.0</ele><time>2026-04-26T11:55:11Z</time></trkpt><trkpt lat="47.87106582013395" lon="-0.746997289784603"><ele>72.0</ele><time>2026-04-26T11:55:12Z</time></trkpt><trkpt lat="47.87113472341492" lon="-0.7470526944277096"><ele>72.0</ele><time>2026-04-26T11:55:13Z</time></trkpt><trkpt lat="47.87120403204265" lon="-0.7471057264997157"><ele>72.28571428571429</ele><time>2026-04-26T11:55:14Z</time></trkpt><trkpt lat="47.87127189610509" lon="-0.747160813103606"><ele>72.57142857142857</ele><time>2026-04-26T11:55:15Z</time></trkpt><trkpt lat="47.87134371723053" lon="-0.7472156133563004"><ele>72.85714285714286</ele><time>2026-04-26T11:55:16Z</time></trkpt><trkpt lat="47.871410031229146" lon="-0.7472659297258738"><ele>73.14285714285714</ele><time>2026-04-26T11:55:17Z</time></trkpt><trkpt lat="47.871475205602266" lon="-0.7473110271294384"><ele>73.42857142857143</ele><time>2026-04-26T11:55:18Z</time></trkpt><trkpt lat="47.871540133699696" lon="-0.7473638637820229"><ele>73.71428571428572</ele><time>2026-04-26T11:55:19Z</time></trkpt><trkpt lat="47.87159940843956" lon="-0.7474098823570484"><ele>74.0</ele><time>2026-04-26T11:55:20Z</time></trkpt><trkpt lat="47.87165504861587" lon="-0.7474557569804707"><ele>74.0</ele><time>2026-04-26T11:55:21Z</time></trkpt><trkpt lat="47.87176314756023" lon="-0.7475369354568413"><ele>74.0</ele><time>2026-04-26T11:55:23Z</time></trkpt><trkpt lat="47.871854482043894" lon="-0.7476146493227817"><ele>74.0</ele><time>2026-04-26T11:55:25Z</time></trkpt><trkpt lat="47.87195242402413" lon="-0.7476820932778887"><ele>74.0</ele><time>2026-04-26T11:55:27Z</time></trkpt><trkpt lat="47.872041861636404" lon="-0.747753438480436"><ele>74.0</ele><time>2026-04-26T11:55:29Z</time></trkpt><trkpt lat="47.87212573845333" lon="-0.747813698602079"><ele>75.0</ele><time>2026-04-26T11:55:31Z</time></trkpt><trkpt lat="47.872213302958635" lon="-0.7478549422327827"><ele>76.0</ele><time>2026-04-26T11:55:33Z</time></trkpt><trkpt lat="47.872290748247615" lon="-0.7478929209186072"><ele>77.0</ele><time>2026-04-26T11:55:35Z</time></trkpt><trkpt lat="47.87237023836591" lon="-0.7479362987595228"><ele>78.0</ele><time>2026-04-26T11:55:37Z</time></trkpt><trkpt lat="47.87244770197926" lon="-0.7479615388897426"><ele>79.0</ele><time>2026-04-26T11:55:39Z</time></trkpt><trkpt lat="47.8725192346298" lon="-0.7479982429444754"><ele>80.0</ele><time>2026-04-26T11:55:41Z</time></trkpt><trkpt lat="47.87258507722905" lon="-0.7480258826896694"><ele>80.57142857142857</ele><time>2026-04-26T11:55:43Z</time></trkpt><trkpt lat="47.87264752654174" lon="-0.7480380262875214"><ele>81.14285714285714</ele><time>2026-04-26T11:55:45Z</time></trkpt><trkpt lat="47.87271593875769" lon="-0.7480656340853549"><ele>81.71428571428572</ele><time>2026-04-26T11:55:47Z</time></trkpt><trkpt lat="47.872784525102844" lon="-0.7480980676318018"><ele>82.28571428571428</ele><time>2026-04-26T11:55:49Z</time></trkpt><trkpt lat="47.872851914489914" lon="-0.748133527066803"><ele>82.85714285714286</ele><time>2026-04-26T11:55:51Z</time></trkpt><trkpt lat="47.87291557084708" lon="-0.7481838949575302"><ele>83.42857142857143</ele><time>2026-04-26T11:55:53Z</time></trkpt><trkpt lat="47.87297072024012" lon="-0.7482498844615264"><ele>84.0</ele><time>2026-04-26T11:55:55.001Z</time></trkpt><trkpt lat="47.87299937658889" lon="-0.7483514487093964"><ele>84.0</ele><time>2026-04-26T11:55:57.001Z</time></trkpt><trkpt lat="47.87303978942071" lon="-0.7484334998314951"><ele>84.0</ele><time>2026-04-26T11:55:59.001Z</time></trkpt><trkpt lat="47.87307744468867" lon="-0.7485124761490554"><ele>84.0</ele><time>2026-04-26T11:56:01.001Z</time></trkpt><trkpt lat="47.87312305762448" lon="-0.7485863065118978"><ele>84.0</ele><time>2026-04-26T11:56:03.001Z</time></trkpt><trkpt lat="47.873173657700804" lon="-0.748651149631732"><ele>84.0</ele><time>2026-04-26T11:56:05.001Z</time></trkpt><trkpt lat="47.873245025812416" lon="-0.748749325466124"><ele>84.0</ele><time>2026-04-26T11:56:08.001Z</time></trkpt><trkpt lat="47.87329282576349" lon="-0.7488156356016102"><ele>84.0</ele><time>2026-04-26T11:56:10.001Z</time></trkpt><trkpt lat="47.87334074078523" lon="-0.7488804077489042"><ele>84.14285714285714</ele><time>2026-04-26T11:56:12.001Z</time></trkpt><trkpt lat="47.87338894267626" lon="-0.7489447916527767"><ele>84.28571428571428</ele><time>2026-04-26T11:56:14.001Z</time></trkpt><trkpt lat="47.87343691022302" lon="-0.7490119639989663"><ele>84.42857142857143</ele><time>2026-04-26T11:56:16.001Z</time></trkpt><trkpt lat="47.87348670497045" lon="-0.7490776449029252"><ele>84.57142857142857</ele><time>2026-04-26T11:56:18Z</time></trkpt><trkpt lat="47.87354061439888" lon="-0.7491347655623501"><ele>84.71428571428571</ele><time>2026-04-26T11:56:20Z</time></trkpt><trkpt lat="47.87359209309286" lon="-0.7491893606948361"><ele>84.85714285714286</ele><time>2026-04-26T11:56:22Z</time></trkpt><trkpt lat="47.873646435369984" lon="-0.7492401136439839"><ele>85.0</ele><time>2026-04-26T11:56:24Z</time></trkpt><trkpt lat="47.87370000785763" lon="-0.7492988849216097"><ele>85.42857142857143</ele><time>2026-04-26T11:56:26Z</time></trkpt><trkpt lat="47.87375708744456" lon="-0.7493566219768248"><ele>85.85714285714285</ele><time>2026-04-26T11:56:28Z</time></trkpt><trkpt lat="47.873813665132396" lon="-0.7494168862124782"><ele>86.28571428571428</ele><time>2026-04-26T11:56:30Z</time></trkpt><trkpt lat="47.87387028867523" lon="-0.7494772280112508"><ele>86.71428571428572</ele><time>2026-04-26T11:56:32Z</time></trkpt><trkpt lat="47.873926289855596" lon="-0.7495358621189927"><ele>87.14285714285714</ele><time>2026-04-26T11:56:34Z</time></trkpt><trkpt lat="47.873976714101566" lon="-0.7495951497443157"><ele>87.57142857142857</ele><time>2026-04-26T11:56:36Z</time></trkpt><trkpt lat="47.87402791502487" lon="-0.7496533674710439"><ele>88.0</ele><time>2026-04-26T11:56:38Z</time></trkpt><trkpt lat="47.87407670559159" lon="-0.7497136612846053"><ele>88.42857142857143</ele><time>2026-04-26T11:56:40Z</time></trkpt><trkpt lat="47.87412677437875" lon="-0.7497730866388713"><ele>88.85714285714286</ele><time>2026-04-26T11:56:42Z</time></trkpt><trkpt lat="47.87420047946194" lon="-0.749859826671555"><ele>89.28571428571428</ele><time>2026-04-26T11:56:45Z</time></trkpt><trkpt lat="47.87427581890557" lon="-0.7499434212259672"><ele>89.71428571428572</ele><time>2026-04-26T11:56:48Z</time></trkpt><trkpt lat="47.8743286860959" lon="-0.7499993771757383"><ele>90.14285714285714</ele><time>2026-04-26T11:56:50Z</time></trkpt><trkpt lat="47.874383422528496" lon="-0.750054111094418"><ele>90.57142857142857</ele><time>2026-04-26T11:56:52Z</time></trkpt><trkpt lat="47.87443964996372" lon="-0.7501074079896278"><ele>91.0</ele><time>2026-04-26T11:56:54Z</time></trkpt><trkpt lat="47.87449419592996" lon="-0.750164103999755"><ele>91.28571428571429</ele><time>2026-04-26T11:56:56Z</time></trkpt><trkpt lat="47.8745472974934" lon="-0.7502213301029782"><ele>91.57142857142857</ele><time>2026-04-26T11:56:58Z</time></trkpt><trkpt lat="47.874600619106154" lon="-0.7502744185599034"><ele>91.85714285714286</ele><time>2026-04-26T11:57:00Z</time></trkpt><trkpt lat="47.87465310913898" lon="-0.75033735330375"><ele>92.14285714285714</ele><time>2026-04-26T11:57:02Z</time></trkpt><trkpt lat="47.87471202520351" lon="-0.7504010055368985"><ele>92.42857142857143</ele><time>2026-04-26T11:57:04Z</time></trkpt><trkpt lat="47.874774300160894" lon="-0.7504632414306908"><ele>92.71428571428572</ele><time>2026-04-26T11:57:06Z</time></trkpt><trkpt lat="47.87483626288997" lon="-0.7505310808526136"><ele>93.0</ele><time>2026-04-26T11:57:08Z</time></trkpt><trkpt lat="47.874900701891605" lon="-0.7505937753826589"><ele>93.0</ele><time>2026-04-26T11:57:10Z</time></trkpt><trkpt lat="47.87496500478242" lon="-0.7506551490622358"><ele>93.0</ele><time>2026-04-26T11:57:12Z</time></trkpt><trkpt lat="47.875029988977886" lon="-0.7507114987442692"><ele>93.0</ele><time>2026-04-26T11:57:14Z</time></trkpt><trkpt lat="47.87509060431235" lon="-0.750776498859975"><ele>93.0</ele><time>2026-04-26T11:57:16Z</time></trkpt><trkpt lat="47.87515577722347" lon="-0.7508361803069308"><ele>93.0</ele><time>2026-04-26T11:57:18Z</time></trkpt><trkpt lat="47.87521934691212" lon="-0.7508952451594569"><ele>93.0</ele><time>2026-04-26T11:57:20Z</time></trkpt><trkpt lat="47.87527943463233" lon="-0.7509590153230042"><ele>93.16666666666667</ele><time>2026-04-26T11:57:22Z</time></trkpt><trkpt lat="47.87534302587775" lon="-0.7510195888287735"><ele>93.33333333333333</ele><time>2026-04-26T11:57:24Z</time></trkpt><trkpt lat="47.87540293487073" lon="-0.7510856193000628"><ele>93.5</ele><time>2026-04-26T11:57:26Z</time></trkpt><trkpt lat="47.87546330832845" lon="-0.751148076571199"><ele>93.66666666666666</ele><time>2026-04-26T11:57:28Z</time></trkpt><trkpt lat="47.875525165026424" lon="-0.7512123757535928"><ele>93.83333333333333</ele><time>2026-04-26T11:57:30Z</time></trkpt><trkpt lat="47.87558751602815" lon="-0.7512738808671932"><ele>94.0</ele><time>2026-04-26T11:57:32Z</time></trkpt><trkpt lat="47.87565001975316" lon="-0.7513435436470547"><ele>94.16666666666666</ele><time>2026-04-26T11:57:34Z</time></trkpt><trkpt lat="47.87571866288035" lon="-0.7514115178295474"><ele>94.33333333333333</ele><time>2026-04-26T11:57:36Z</time></trkpt><trkpt lat="47.875786773818334" lon="-0.7514853020600326"><ele>94.5</ele><time>2026-04-26T11:57:38Z</time></trkpt><trkpt lat="47.87585477355982" lon="-0.7515578334141878"><ele>94.66666666666667</ele><time>2026-04-26T11:57:40Z</time></trkpt><trkpt lat="47.87592656839914" lon="-0.7516304481554892"><ele>94.83333333333334</ele><time>2026-04-26T11:57:42Z</time></trkpt><trkpt lat="47.875997895955976" lon="-0.7517058182524047"><ele>95.0</ele><time>2026-04-26T11:57:44Z</time></trkpt><trkpt lat="47.8760715807049" lon="-0.7517882938882603"><ele>94.6</ele><time>2026-04-26T11:57:46Z</time></trkpt><trkpt lat="47.87615157601382" lon="-0.7518710537080031"><ele>94.2</ele><time>2026-04-26T11:57:48Z</time></trkpt><trkpt lat="47.87623766624506" lon="-0.751960215591492"><ele>93.80000000000001</ele><time>2026-04-26T11:57:50Z</time></trkpt><trkpt lat="47.87632824747398" lon="-0.7520521769948637"><ele>93.4</ele><time>2026-04-26T11:57:52Z</time></trkpt><trkpt lat="47.87641937909475" lon="-0.7521515952249478"><ele>93.0</ele><time>2026-04-26T11:57:54Z</time></trkpt><trkpt lat="47.8765158875155" lon="-0.7522558200410927"><ele>93.00000000000001</ele><time>2026-04-26T11:57:56Z</time></trkpt><trkpt lat="47.87656853907011" lon="-0.7523088235068406"><ele>93.0</ele><time>2026-04-26T11:57:57Z</time></trkpt><trkpt lat="47.8766203941581" lon="-0.7523642230108262"><ele>93.0</ele><time>2026-04-26T11:57:58Z</time></trkpt><trkpt lat="47.8766726938326" lon="-0.7524217084975164"><ele>93.0</ele><time>2026-04-26T11:57:59Z</time></trkpt><trkpt lat="47.87672702297887" lon="-0.7524789390614804"><ele>93.0</ele><time>2026-04-26T11:58:00Z</time></trkpt><trkpt lat="47.876780928978064" lon="-0.7525390038767769"><ele>93.00000000000001</ele><time>2026-04-26T11:58:01.001Z</time></trkpt><trkpt lat="47.87683800248182" lon="-0.7525989101512713"><ele>93.0</ele><time>2026-04-26T11:58:02.001Z</time></trkpt><trkpt lat="47.87689510785563" lon="-0.7526602124850689"><ele>92.66666666666667</ele><time>2026-04-26T11:58:03.001Z</time></trkpt><trkpt lat="47.87695472653363" lon="-0.7527222329172772"><ele>92.33333333333333</ele><time>2026-04-26T11:58:04.001Z</time></trkpt><trkpt lat="47.877016539652445" lon="-0.7527873941578078"><ele>92.0</ele><time>2026-04-26T11:58:05.001Z</time></trkpt><trkpt lat="47.87707902821134" lon="-0.7528537115970515"><ele>91.66666666666666</ele><time>2026-04-26T11:58:06.001Z</time></trkpt><trkpt lat="47.87714321515643" lon="-0.7529219677850486"><ele>91.33333333333333</ele><time>2026-04-26T11:58:07.001Z</time></trkpt><trkpt lat="47.87720926790009" lon="-0.752992547536762"><ele>91.0</ele><time>2026-04-26T11:58:08.001Z</time></trkpt><trkpt lat="47.87727883478291" lon="-0.7530626160042279"><ele>91.0</ele><time>2026-04-26T11:58:09.001Z</time></trkpt><trkpt lat="47.87734858567523" lon="-0.7531391005552044"><ele>91.0</ele><time>2026-04-26T11:58:10.001Z</time></trkpt><trkpt lat="47.87741957508071" lon="-0.7532135177307312"><ele>91.0</ele><time>2026-04-26T11:58:11.001Z</time></trkpt><trkpt lat="47.877493625512045" lon="-0.7532890364523742"><ele>91.0</ele><time>2026-04-26T11:58:12.001Z</time></trkpt><trkpt lat="47.877565024641875" lon="-0.753365513176127"><ele>91.0</ele><time>2026-04-26T11:58:13Z</time></trkpt><trkpt lat="47.87763840141717" lon="-0.7534422146541225"><ele>91.0</ele><time>2026-04-26T11:58:14Z</time></trkpt><trkpt lat="47.87771240998626" lon="-0.7535198293308121"><ele>90.6</ele><time>2026-04-26T11:58:15Z</time></trkpt><trkpt lat="47.877786477276324" lon="-0.7535972926120837"><ele>90.19999999999999</ele><time>2026-04-26T11:58:16Z</time></trkpt><trkpt lat="47.87785953515637" lon="-0.753676607147548"><ele>89.80000000000001</ele><time>2026-04-26T11:58:17Z</time></trkpt><trkpt lat="47.877937065963245" lon="-0.7537573438622468"><ele>89.4</ele><time>2026-04-26T11:58:18Z</time></trkpt><trkpt lat="47.87801252108811" lon="-0.7538348009525251"><ele>89.0</ele><time>2026-04-26T11:58:19Z</time></trkpt><trkpt lat="47.8780895628229" lon="-0.7539125703044549"><ele>89.0</ele><time>2026-04-26T11:58:20Z</time></trkpt><trkpt lat="47.8781661458764" lon="-0.7539960170573151"><ele>89.0</ele><time>2026-04-26T11:58:21Z</time></trkpt><trkpt lat="47.87824368042551" lon="-0.7540778162702365"><ele>89.0</ele><time>2026-04-26T11:58:22Z</time></trkpt><trkpt lat="47.878322993741264" lon="-0.7541597073956869"><ele>89.0</ele><time>2026-04-26T11:58:23Z</time></trkpt><trkpt lat="47.8784018362247" lon="-0.7542429642359747"><ele>89.0</ele><time>2026-04-26T11:58:24Z</time></trkpt><trkpt lat="47.8784808957897" lon="-0.7543270559513022"><ele>88.6</ele><time>2026-04-26T11:58:25Z</time></trkpt><trkpt lat="47.87855949116325" lon="-0.7544116094276142"><ele>88.2</ele><time>2026-04-26T11:58:26Z</time></trkpt><trkpt lat="47.878637747131016" lon="-0.7544943857454443"><ele>87.8</ele><time>2026-04-26T11:58:27Z</time></trkpt><trkpt lat="47.8787187001705" lon="-0.7545760096383726"><ele>87.39999999999999</ele><time>2026-04-26T11:58:28Z</time></trkpt><trkpt lat="47.8787952873242" lon="-0.7546575729599657"><ele>87.0</ele><time>2026-04-26T11:58:29Z</time></trkpt><trkpt lat="47.878875258301996" lon="-0.7547431648769536"><ele>87.0</ele><time>2026-04-26T11:58:30Z</time></trkpt><trkpt lat="47.87895351278665" lon="-0.7548253496957497"><ele>87.0</ele><time>2026-04-26T11:58:31Z</time></trkpt><trkpt lat="47.87902968203714" lon="-0.7549060328454152"><ele>87.0</ele><time>2026-04-26T11:58:32Z</time></trkpt><trkpt lat="47.87910723735897" lon="-0.754987357544901"><ele>87.0</ele><time>2026-04-26T11:58:33Z</time></trkpt><trkpt lat="47.87918332761434" lon="-0.7550666536710261"><ele>87.0</ele><time>2026-04-26T11:58:34Z</time></trkpt><trkpt lat="47.87925876308108" lon="-0.7551451269315979"><ele>87.0</ele><time>2026-04-26T11:58:35Z</time></trkpt><trkpt lat="47.879331808751346" lon="-0.7552253140542204"><ele>87.0</ele><time>2026-04-26T11:58:36Z</time></trkpt><trkpt lat="47.87940453520066" lon="-0.7553026529501541"><ele>87.0</ele><time>2026-04-26T11:58:37Z</time></trkpt><trkpt lat="47.87947574369274" lon="-0.7553787822722114"><ele>87.0</ele><time>2026-04-26T11:58:38Z</time></trkpt><trkpt lat="47.87954721620324" lon="-0.7554523212249147"><ele>87.0</ele><time>2026-04-26T11:58:39Z</time></trkpt><trkpt lat="47.879616425469315" lon="-0.7555254938456806"><ele>87.0</ele><time>2026-04-26T11:58:40Z</time></trkpt><trkpt lat="47.87968688180796" lon="-0.7555978733484908"><ele>87.0</ele><time>2026-04-26T11:58:41Z</time></trkpt><trkpt lat="47.879754819058746" lon="-0.7556707544367642"><ele>87.0</ele><time>2026-04-26T11:58:42Z</time></trkpt><trkpt lat="47.879823948517796" lon="-0.7557441230162988"><ele>87.0</ele><time>2026-04-26T11:58:43Z</time></trkpt><trkpt lat="47.879893764025326" lon="-0.7558185648676978"><ele>87.0</ele><time>2026-04-26T11:58:44Z</time></trkpt><trkpt lat="47.87996343805591" lon="-0.7558914688145175"><ele>87.0</ele><time>2026-04-26T11:58:45Z</time></trkpt><trkpt lat="47.88003205983226" lon="-0.7559665748395339"><ele>87.0</ele><time>2026-04-26T11:58:46Z</time></trkpt><trkpt lat="47.880102263508974" lon="-0.756039462187327"><ele>87.16666666666667</ele><time>2026-04-26T11:58:47Z</time></trkpt><trkpt lat="47.88017244416479" lon="-0.7561172880470027"><ele>87.33333333333333</ele><time>2026-04-26T11:58:48Z</time></trkpt><trkpt lat="47.88024460230242" lon="-0.7561910871977666"><ele>87.5</ele><time>2026-04-26T11:58:49Z</time></trkpt><trkpt lat="47.880315220158515" lon="-0.7562658620875217"><ele>87.66666666666666</ele><time>2026-04-26T11:58:50Z</time></trkpt><trkpt lat="47.88038685194225" lon="-0.7563420778722231"><ele>87.83333333333333</ele><time>2026-04-26T11:58:51Z</time></trkpt><trkpt lat="47.88045772356156" lon="-0.7564168399872986"><ele>88.0</ele><time>2026-04-26T11:58:52Z</time></trkpt><trkpt lat="47.880528363030415" lon="-0.7564893695842217"><ele>88.0</ele><time>2026-04-26T11:58:53Z</time></trkpt><trkpt lat="47.88059770173716" lon="-0.7565631436751056"><ele>88.0</ele><time>2026-04-26T11:58:54Z</time></trkpt><trkpt lat="47.88066844527653" lon="-0.7566380651382197"><ele>88.0</ele><time>2026-04-26T11:58:55Z</time></trkpt><trkpt lat="47.880737322593774" lon="-0.75671443172338"><ele>88.0</ele><time>2026-04-26T11:58:56Z</time></trkpt><trkpt lat="47.88080608549301" lon="-0.7567887400756169"><ele>88.0</ele><time>2026-04-26T11:58:57Z</time></trkpt><trkpt lat="47.88087675612275" lon="-0.7568606773561517"><ele>88.0</ele><time>2026-04-26T11:58:58Z</time></trkpt><trkpt lat="47.88094564524954" lon="-0.7569357827008366"><ele>88.33333333333333</ele><time>2026-04-26T11:58:59Z</time></trkpt><trkpt lat="47.88101615893608" lon="-0.757008983158163"><ele>88.66666666666666</ele><time>2026-04-26T11:59:00Z</time></trkpt><trkpt lat="47.88108429394595" lon="-0.7570846003568608"><ele>89.0</ele><time>2026-04-26T11:59:01Z</time></trkpt><trkpt lat="47.8811528668475" lon="-0.7571599593658475"><ele>89.33333333333333</ele><time>2026-04-26T11:59:02Z</time></trkpt><trkpt lat="47.88122172076124" lon="-0.7572325815932557"><ele>89.66666666666667</ele><time>2026-04-26T11:59:03Z</time></trkpt><trkpt lat="47.88128931217268" lon="-0.7573007428633154"><ele>90.0</ele><time>2026-04-26T11:59:04Z</time></trkpt><trkpt lat="47.88135383371063" lon="-0.7573682327004052"><ele>90.0</ele><time>2026-04-26T11:59:05Z</time></trkpt><trkpt lat="47.88142006766096" lon="-0.7574344362141942"><ele>90.0</ele><time>2026-04-26T11:59:06Z</time></trkpt><trkpt lat="47.881483767167836" lon="-0.7575016327581313"><ele>90.0</ele><time>2026-04-26T11:59:07Z</time></trkpt><trkpt lat="47.88154724568602" lon="-0.7575699148378993"><ele>90.0</ele><time>2026-04-26T11:59:08Z</time></trkpt><trkpt lat="47.88161071197309" lon="-0.757636072440053"><ele>90.0</ele><time>2026-04-26T11:59:09Z</time></trkpt><trkpt lat="47.88167286008557" lon="-0.7577032351386767"><ele>90.0</ele><time>2026-04-26T11:59:10Z</time></trkpt><trkpt lat="47.881735965289856" lon="-0.7577716048134847"><ele>90.57142857142857</ele><time>2026-04-26T11:59:11Z</time></trkpt><trkpt lat="47.88179769153105" lon="-0.7578363598908217"><ele>91.14285714285715</ele><time>2026-04-26T11:59:12Z</time></trkpt><trkpt lat="47.881858898673386" lon="-0.7579007782089886"><ele>91.71428571428572</ele><time>2026-04-26T11:59:13Z</time></trkpt><trkpt lat="47.88192032217541" lon="-0.7579651270550811"><ele>92.28571428571428</ele><time>2026-04-26T11:59:14Z</time></trkpt><trkpt lat="47.881978835537645" lon="-0.7580283504058626"><ele>92.85714285714286</ele><time>2026-04-26T11:59:15Z</time></trkpt><trkpt lat="47.88203937504007" lon="-0.7580910641276309"><ele>93.42857142857143</ele><time>2026-04-26T11:59:16Z</time></trkpt><trkpt lat="47.88209733257633" lon="-0.7581506178604811"><ele>94.0</ele><time>2026-04-26T11:59:17Z</time></trkpt><trkpt lat="47.882152674337156" lon="-0.7582111480711806"><ele>94.0</ele><time>2026-04-26T11:59:18Z</time></trkpt><trkpt lat="47.88220686886714" lon="-0.7582682849524166"><ele>94.0</ele><time>2026-04-26T11:59:19Z</time></trkpt><trkpt lat="47.88225919964768" lon="-0.7583240886353512"><ele>94.0</ele><time>2026-04-26T11:59:20Z</time></trkpt><trkpt lat="47.88231149488168" lon="-0.7583772745728276"><ele>94.0</ele><time>2026-04-26T11:59:21Z</time></trkpt><trkpt lat="47.88241176608582" lon="-0.75848076580313"><ele>94.0</ele><time>2026-04-26T11:59:23Z</time></trkpt><trkpt lat="47.8825046395268" lon="-0.7585823464715433"><ele>94.0</ele><time>2026-04-26T11:59:25Z</time></trkpt><trkpt lat="47.882596348481144" lon="-0.7586724483727342"><ele>94.80000000000001</ele><time>2026-04-26T11:59:27Z</time></trkpt><trkpt lat="47.882679073913245" lon="-0.7587600682244415"><ele>95.60000000000001</ele><time>2026-04-26T11:59:29Z</time></trkpt><trkpt lat="47.8827549933504" lon="-0.7588434848039038"><ele>96.4</ele><time>2026-04-26T11:59:31Z</time></trkpt><trkpt lat="47.88283439239709" lon="-0.7589241630061083"><ele>97.2</ele><time>2026-04-26T11:59:33Z</time></trkpt><trkpt lat="47.88290927735379" lon="-0.7590014398479238"><ele>98.0</ele><time>2026-04-26T11:59:35Z</time></trkpt><trkpt lat="47.88298011362602" lon="-0.759078412316499"><ele>97.99999999999999</ele><time>2026-04-26T11:59:37Z</time></trkpt><trkpt lat="47.88304706320103" lon="-0.7591529947316487"><ele>98.0</ele><time>2026-04-26T11:59:39Z</time></trkpt><trkpt lat="47.8831162551561" lon="-0.7592259283073274"><ele>98.0</ele><time>2026-04-26T11:59:41Z</time></trkpt><trkpt lat="47.883181845097276" lon="-0.7592928063280334"><ele>98.0</ele><time>2026-04-26T11:59:43Z</time></trkpt><trkpt lat="47.8832451847399" lon="-0.7593607219327777"><ele>97.99999999999999</ele><time>2026-04-26T11:59:45Z</time></trkpt><trkpt lat="47.88330731384809" lon="-0.7594284001671809"><ele>98.0</ele><time>2026-04-26T11:59:47Z</time></trkpt><trkpt lat="47.88337009508469" lon="-0.7594929596623011"><ele>98.49999999999999</ele><time>2026-04-26T11:59:49Z</time></trkpt><trkpt lat="47.88343287254816" lon="-0.7595608957773116"><ele>99.0</ele><time>2026-04-26T11:59:51Z</time></trkpt><trkpt lat="47.88349681833677" lon="-0.7596269714735261"><ele>99.5</ele><time>2026-04-26T11:59:53Z</time></trkpt><trkpt lat="47.883560978202894" lon="-0.7596954747494115"><ele>100.0</ele><time>2026-04-26T11:59:55Z</time></trkpt><trkpt lat="47.88362464814553" lon="-0.7597625797160176"><ele>100.49999999999999</ele><time>2026-04-26T11:59:56.999Z</time></trkpt><trkpt lat="47.88368854431014" lon="-0.7598293633420263"><ele>101.0</ele><time>2026-04-26T11:59:58.999Z</time></trkpt><trkpt lat="47.88375166844653" lon="-0.7598961867597047"><ele>100.99999999999999</ele><time>2026-04-26T12:00:00.999Z</time></trkpt><trkpt lat="47.88381373897536" lon="-0.7599615148998798"><ele>101.0</ele><time>2026-04-26T12:00:02.999Z</time></trkpt><trkpt lat="47.88387658284605" lon="-0.7600297961577476"><ele>101.0</ele><time>2026-04-26T12:00:04.999Z</time></trkpt><trkpt lat="47.883941169316316" lon="-0.7600931823814251"><ele>101.0</ele><time>2026-04-26T12:00:07Z</time></trkpt><trkpt lat="47.88400203079837" lon="-0.7601665156797401"><ele>100.99999999999999</ele><time>2026-04-26T12:00:09Z</time></trkpt><trkpt lat="47.88407022783033" lon="-0.760235373017526"><ele>101.0</ele><time>2026-04-26T12:00:11Z</time></trkpt><trkpt lat="47.88413830924718" lon="-0.7603038459257047"><ele>101.16666666666666</ele><time>2026-04-26T12:00:13Z</time></trkpt><trkpt lat="47.88420577570651" lon="-0.7603747694209397"><ele>101.33333333333333</ele><time>2026-04-26T12:00:15Z</time></trkpt><trkpt lat="47.88427235585873" lon="-0.7604459375141088"><ele>101.5</ele><time>2026-04-26T12:00:17Z</time></trkpt><trkpt lat="47.884339349791595" lon="-0.7605177538742846"><ele>101.66666666666666</ele><time>2026-04-26T12:00:19Z</time></trkpt><trkpt lat="47.88440929989368" lon="-0.7605886978338604"><ele>101.83333333333333</ele><time>2026-04-26T12:00:21Z</time></trkpt><trkpt lat="47.88447749574752" lon="-0.7606615027804703"><ele>102.0</ele><time>2026-04-26T12:00:23Z</time></trkpt><trkpt lat="47.88454754529552" lon="-0.7607341716113218"><ele>102.0</ele><time>2026-04-26T12:00:25Z</time></trkpt><trkpt lat="47.88461787945521" lon="-0.7608100577947672"><ele>102.0</ele><time>2026-04-26T12:00:27Z</time></trkpt><trkpt lat="47.884691470287656" lon="-0.7608855890899452"><ele>102.0</ele><time>2026-04-26T12:00:29Z</time></trkpt><trkpt lat="47.88476332251389" lon="-0.7609658346572444"><ele>102.0</ele><time>2026-04-26T12:00:31Z</time></trkpt><trkpt lat="47.88483816861495" lon="-0.7610444934395066"><ele>102.0</ele><time>2026-04-26T12:00:33Z</time></trkpt><trkpt lat="47.88491180831449" lon="-0.7611225548594056"><ele>102.0</ele><time>2026-04-26T12:00:35Z</time></trkpt><trkpt lat="47.884987436814264" lon="-0.7612067103962658"><ele>102.0</ele><time>2026-04-26T12:00:37Z</time></trkpt><trkpt lat="47.88506317743212" lon="-0.7612780104261744"><ele>102.0</ele><time>2026-04-26T12:00:39Z</time></trkpt><trkpt lat="47.885142733339286" lon="-0.7613663261153476"><ele>102.0</ele><time>2026-04-26T12:00:41Z</time></trkpt><trkpt lat="47.88521714986216" lon="-0.761451947725575"><ele>102.0</ele><time>2026-04-26T12:00:43Z</time></trkpt><trkpt lat="47.88529603011292" lon="-0.7615303636386295"><ele>102.0</ele><time>2026-04-26T12:00:45Z</time></trkpt><trkpt lat="47.88537529406147" lon="-0.7616167023559306"><ele>101.8</ele><time>2026-04-26T12:00:47Z</time></trkpt><trkpt lat="47.88545285899558" lon="-0.7617000450268421"><ele>101.6</ele><time>2026-04-26T12:00:49Z</time></trkpt><trkpt lat="47.88553278047964" lon="-0.7617858857790504"><ele>101.39999999999999</ele><time>2026-04-26T12:00:51Z</time></trkpt><trkpt lat="47.88561469964639" lon="-0.761868601728599"><ele>101.19999999999999</ele><time>2026-04-26T12:00:53Z</time></trkpt><trkpt lat="47.885693139607184" lon="-0.761961114758341"><ele>101.0</ele><time>2026-04-26T12:00:55Z</time></trkpt><trkpt lat="47.885781023239616" lon="-0.7620479871626419"><ele>101.0</ele><time>2026-04-26T12:00:57Z</time></trkpt><trkpt lat="47.88587052405647" lon="-0.7621396930174179"><ele>101.0</ele><time>2026-04-26T12:00:59Z</time></trkpt><trkpt lat="47.88596433482072" lon="-0.7622344701992395"><ele>101.0</ele><time>2026-04-26T12:01:01Z</time></trkpt><trkpt lat="47.88605880425474" lon="-0.7623343877573314"><ele>101.0</ele><time>2026-04-26T12:01:03Z</time></trkpt><trkpt lat="47.88615427143922" lon="-0.7624410613384359"><ele>100.85714285714286</ele><time>2026-04-26T12:01:05Z</time></trkpt><trkpt lat="47.88620885538741" lon="-0.7624915041837794"><ele>100.71428571428571</ele><time>2026-04-26T12:01:06Z</time></trkpt><trkpt lat="47.886262117391134" lon="-0.7625428097601789"><ele>100.57142857142858</ele><time>2026-04-26T12:01:07Z</time></trkpt><trkpt lat="47.886312869474395" lon="-0.7625995698567967"><ele>100.42857142857143</ele><time>2026-04-26T12:01:08Z</time></trkpt><trkpt lat="47.886365561083316" lon="-0.7626562108929582"><ele>100.28571428571429</ele><time>2026-04-26T12:01:09Z</time></trkpt><trkpt lat="47.88641962659268" lon="-0.762715645413417"><ele>100.14285714285715</ele><time>2026-04-26T12:01:10Z</time></trkpt><trkpt lat="47.88647354644859" lon="-0.762773230299682"><ele>100.0</ele><time>2026-04-26T12:01:11Z</time></trkpt><trkpt lat="47.88652797511241" lon="-0.7628301095932534"><ele>100.00000000000001</ele><time>2026-04-26T12:01:12Z</time></trkpt><trkpt lat="47.88658188307436" lon="-0.7628878340238189"><ele>100.0</ele><time>2026-04-26T12:01:13Z</time></trkpt><trkpt lat="47.886637306400324" lon="-0.7629438064849468"><ele>100.0</ele><time>2026-04-26T12:01:14Z</time></trkpt><trkpt lat="47.88669551499481" lon="-0.7630001992388248"><ele>100.0</ele><time>2026-04-26T12:01:15Z</time></trkpt><trkpt lat="47.88675166675867" lon="-0.7630624568964444"><ele>100.0</ele><time>2026-04-26T12:01:16Z</time></trkpt><trkpt lat="47.88680691647319" lon="-0.7631257640176821"><ele>100.00000000000001</ele><time>2026-04-26T12:01:17Z</time></trkpt><trkpt lat="47.886862530876805" lon="-0.7631894310202528"><ele>100.0</ele><time>2026-04-26T12:01:18Z</time></trkpt><trkpt lat="47.886918651119544" lon="-0.763248571743901"><ele>100.00000000000001</ele><time>2026-04-26T12:01:19Z</time></trkpt><trkpt lat="47.886976028592116" lon="-0.7633094301386689"><ele>100.0</ele><time>2026-04-26T12:01:20Z</time></trkpt><trkpt lat="47.88703366999848" lon="-0.763368216481071"><ele>100.0</ele><time>2026-04-26T12:01:21Z</time></trkpt><trkpt lat="47.88709176463038" lon="-0.7634276173016362"><ele>100.0</ele><time>2026-04-26T12:01:22Z</time></trkpt><trkpt lat="47.88714949294212" lon="-0.7634870625636277"><ele>100.0</ele><time>2026-04-26T12:01:23Z</time></trkpt><trkpt lat="47.88720449895475" lon="-0.7635464214366111"><ele>100.00000000000001</ele><time>2026-04-26T12:01:24Z</time></trkpt><trkpt lat="47.88726256157955" lon="-0.7636055718745873"><ele>100.0</ele><time>2026-04-26T12:01:25Z</time></trkpt><trkpt lat="47.88731773314957" lon="-0.7636681202128544"><ele>100.14285714285715</ele><time>2026-04-26T12:01:26Z</time></trkpt><trkpt lat="47.887373858125144" lon="-0.7637276915927742"><ele>100.28571428571429</ele><time>2026-04-26T12:01:27Z</time></trkpt><trkpt lat="47.88743140126131" lon="-0.7637877201245644"><ele>100.42857142857143</ele><time>2026-04-26T12:01:28Z</time></trkpt><trkpt lat="47.887485822320485" lon="-0.7638457917431356"><ele>100.57142857142858</ele><time>2026-04-26T12:01:29Z</time></trkpt><trkpt lat="47.88754049824626" lon="-0.7639027391002416"><ele>100.71428571428571</ele><time>2026-04-26T12:01:30Z</time></trkpt><trkpt lat="47.88759422766085" lon="-0.7639606585622954"><ele>100.85714285714286</ele><time>2026-04-26T12:01:31Z</time></trkpt><trkpt lat="47.887647620195715" lon="-0.7640213986350292"><ele>101.0</ele><time>2026-04-26T12:01:32Z</time></trkpt><trkpt lat="47.887700746669616" lon="-0.764074579127511"><ele>101.14285714285714</ele><time>2026-04-26T12:01:32.999Z</time></trkpt><trkpt lat="47.887754362251655" lon="-0.7641289538333442"><ele>101.28571428571428</ele><time>2026-04-26T12:01:33.999Z</time></trkpt><trkpt lat="47.88780738079461" lon="-0.7641845210085646"><ele>101.42857142857143</ele><time>2026-04-26T12:01:34.999Z</time></trkpt><trkpt lat="47.88786036498827" lon="-0.7642403314731467"><ele>101.57142857142857</ele><time>2026-04-26T12:01:35.999Z</time></trkpt><trkpt lat="47.88791278772665" lon="-0.7642944944236298"><ele>101.71428571428572</ele><time>2026-04-26T12:01:36.999Z</time></trkpt><trkpt lat="47.887966509345105" lon="-0.764350945510333"><ele>101.85714285714286</ele><time>2026-04-26T12:01:37.999Z</time></trkpt><trkpt lat="47.88801760582912" lon="-0.764407395524224"><ele>102.0</ele><time>2026-04-26T12:01:38.999Z</time></trkpt><trkpt lat="47.88807189841754" lon="-0.764464695231222"><ele>102.0</ele><time>2026-04-26T12:01:39.999Z</time></trkpt><trkpt lat="47.88812462678467" lon="-0.7645208037588048"><ele>102.0</ele><time>2026-04-26T12:01:40.999Z</time></trkpt><trkpt lat="47.88817834047636" lon="-0.7645803289521617"><ele>102.0</ele><time>2026-04-26T12:01:41.999Z</time></trkpt><trkpt lat="47.88823542092873" lon="-0.764638587042298"><ele>102.0</ele><time>2026-04-26T12:01:42.999Z</time></trkpt><trkpt lat="47.88829281050644" lon="-0.7646985471422146"><ele>102.0</ele><time>2026-04-26T12:01:43.999Z</time></trkpt><trkpt lat="47.888350922192856" lon="-0.7647619551721978"><ele>102.0</ele><time>2026-04-26T12:01:44.999Z</time></trkpt><trkpt lat="47.88841066968162" lon="-0.7648230480158417"><ele>102.0</ele><time>2026-04-26T12:01:45.999Z</time></trkpt><trkpt lat="47.8884707723769" lon="-0.7648882051146236"><ele>102.0</ele><time>2026-04-26T12:01:46.999Z</time></trkpt><trkpt lat="47.88853111599175" lon="-0.7649562107410663"><ele>102.0</ele><time>2026-04-26T12:01:47.999Z</time></trkpt><trkpt lat="47.88859381792621" lon="-0.7650203517507044"><ele>102.0</ele><time>2026-04-26T12:01:48.999Z</time></trkpt><trkpt lat="47.88865549924767" lon="-0.7650836919129477"><ele>102.0</ele><time>2026-04-26T12:01:49.999Z</time></trkpt><trkpt lat="47.888715566535666" lon="-0.7651475746015589"><ele>102.0</ele><time>2026-04-26T12:01:50.999Z</time></trkpt><trkpt lat="47.8887778788966" lon="-0.765210813915646"><ele>102.0</ele><time>2026-04-26T12:01:51.999Z</time></trkpt><trkpt lat="47.888838052071144" lon="-0.7652801077268792"><ele>102.16666666666667</ele><time>2026-04-26T12:01:52.999Z</time></trkpt><trkpt lat="47.88890068349464" lon="-0.7653448076315306"><ele>102.33333333333334</ele><time>2026-04-26T12:01:53.999Z</time></trkpt><trkpt lat="47.888965852055236" lon="-0.7654132669196639"><ele>102.5</ele><time>2026-04-26T12:01:54.999Z</time></trkpt><trkpt lat="47.88902739433079" lon="-0.7654786473569187"><ele>102.66666666666667</ele><time>2026-04-26T12:01:55.999Z</time></trkpt><trkpt lat="47.88909049230362" lon="-0.7655435028357803"><ele>102.83333333333334</ele><time>2026-04-26T12:01:56.999Z</time></trkpt><trkpt lat="47.88915430097383" lon="-0.7656104059316399"><ele>103.0</ele><time>2026-04-26T12:01:57.999Z</time></trkpt><trkpt lat="47.88922261974099" lon="-0.7656796769819929"><ele>102.66666666666667</ele><time>2026-04-26T12:01:58.999Z</time></trkpt><trkpt lat="47.8892880170209" lon="-0.7657482990166774"><ele>102.33333333333334</ele><time>2026-04-26T12:01:59.999Z</time></trkpt><trkpt lat="47.88935470333952" lon="-0.7658171839829873"><ele>102.0</ele><time>2026-04-26T12:02:00.999Z</time></trkpt><trkpt lat="47.88942018577644" lon="-0.7658887865394829"><ele>101.66666666666666</ele><time>2026-04-26T12:02:01.999Z</time></trkpt><trkpt lat="47.88948764996566" lon="-0.765958307214827"><ele>101.33333333333333</ele><time>2026-04-26T12:02:02.999Z</time></trkpt><trkpt lat="47.88955482630076" lon="-0.7660285672427689"><ele>101.0</ele><time>2026-04-26T12:02:03.999Z</time></trkpt><trkpt lat="47.889621138156656" lon="-0.7661030139777184"><ele>100.83333333333333</ele><time>2026-04-26T12:02:04.999Z</time></trkpt><trkpt lat="47.889689331306414" lon="-0.7661700292133027"><ele>100.66666666666666</ele><time>2026-04-26T12:02:05.999Z</time></trkpt><trkpt lat="47.88975527957746" lon="-0.766240748702635"><ele>100.5</ele><time>2026-04-26T12:02:06.999Z</time></trkpt><trkpt lat="47.88982422427356" lon="-0.7663138836295853"><ele>100.33333333333334</ele><time>2026-04-26T12:02:07.999Z</time></trkpt><trkpt lat="47.88989295098569" lon="-0.7663832167798805"><ele>100.16666666666667</ele><time>2026-04-26T12:02:08.999Z</time></trkpt><trkpt lat="47.88996047781391" lon="-0.7664564111129715"><ele>100.0</ele><time>2026-04-26T12:02:09.999Z</time></trkpt><trkpt lat="47.890029517444795" lon="-0.7665286494536553"><ele>100.00000000000001</ele><time>2026-04-26T12:02:10.999Z</time></trkpt><trkpt lat="47.89009910353599" lon="-0.7666001097415681"><ele>100.0</ele><time>2026-04-26T12:02:11.999Z</time></trkpt><trkpt lat="47.89016886122266" lon="-0.766674151834456"><ele>100.0</ele><time>2026-04-26T12:02:13Z</time></trkpt><trkpt lat="47.890238449569885" lon="-0.7667471146322119"><ele>100.0</ele><time>2026-04-26T12:02:14Z</time></trkpt><trkpt lat="47.890307671814995" lon="-0.766819980498596"><ele>100.00000000000001</ele><time>2026-04-26T12:02:15Z</time></trkpt><trkpt lat="47.890376997234284" lon="-0.7668938203636254"><ele>100.0</ele><time>2026-04-26T12:02:16Z</time></trkpt><trkpt lat="47.89044566007893" lon="-0.7669663493856512"><ele>100.16666666666667</ele><time>2026-04-26T12:02:17Z</time></trkpt><trkpt lat="47.89051323210918" lon="-0.7670406585448362"><ele>100.33333333333334</ele><time>2026-04-26T12:02:18Z</time></trkpt><trkpt lat="47.89058087201123" lon="-0.767113889526781"><ele>100.5</ele><time>2026-04-26T12:02:19Z</time></trkpt><trkpt lat="47.8906506485663" lon="-0.7671862793875289"><ele>100.66666666666666</ele><time>2026-04-26T12:02:20Z</time></trkpt><trkpt lat="47.890720708919936" lon="-0.7672568895875015"><ele>100.83333333333333</ele><time>2026-04-26T12:02:21Z</time></trkpt><trkpt lat="47.8907877605547" lon="-0.7673294753014459"><ele>101.0</ele><time>2026-04-26T12:02:22Z</time></trkpt><trkpt lat="47.89085692016535" lon="-0.7674012428757898"><ele>100.83333333333333</ele><time>2026-04-26T12:02:23Z</time></trkpt><trkpt lat="47.890924830048576" lon="-0.7674763040246577"><ele>100.66666666666666</ele><time>2026-04-26T12:02:24Z</time></trkpt><trkpt lat="47.89099265486394" lon="-0.7675489212941308"><ele>100.5</ele><time>2026-04-26T12:02:25Z</time></trkpt><trkpt lat="47.89106023656019" lon="-0.7676175051494553"><ele>100.33333333333334</ele><time>2026-04-26T12:02:26Z</time></trkpt><trkpt lat="47.89112775142542" lon="-0.7676875639056572"><ele>100.16666666666667</ele><time>2026-04-26T12:02:27Z</time></trkpt><trkpt lat="47.89119622434504" lon="-0.7677589191389945"><ele>100.0</ele><time>2026-04-26T12:02:28Z</time></trkpt><trkpt lat="47.89126482496257" lon="-0.7678345148893754"><ele>100.00000000000001</ele><time>2026-04-26T12:02:29Z</time></trkpt><trkpt lat="47.89133130636545" lon="-0.7679077891210543"><ele>100.0</ele><time>2026-04-26T12:02:30Z</time></trkpt><trkpt lat="47.89139941583614" lon="-0.7679781104924096"><ele>100.0</ele><time>2026-04-26T12:02:31Z</time></trkpt><trkpt lat="47.891466134988875" lon="-0.7680504172049639"><ele>100.0</ele><time>2026-04-26T12:02:32Z</time></trkpt><trkpt lat="47.89153567999812" lon="-0.7681206318708874"><ele>100.00000000000001</ele><time>2026-04-26T12:02:33Z</time></trkpt><trkpt lat="47.8916036559181" lon="-0.7681915705492572"><ele>100.0</ele><time>2026-04-26T12:02:34Z</time></trkpt><trkpt lat="47.89167046450114" lon="-0.7682639296417664"><ele>100.00000000000001</ele><time>2026-04-26T12:02:35Z</time></trkpt><trkpt lat="47.891738432459725" lon="-0.7683361419324033"><ele>100.0</ele><time>2026-04-26T12:02:36Z</time></trkpt><trkpt lat="47.89180553145665" lon="-0.7684074912469283"><ele>100.0</ele><time>2026-04-26T12:02:37Z</time></trkpt><trkpt lat="47.8918740380263" lon="-0.7684771816833589"><ele>100.0</ele><time>2026-04-26T12:02:38Z</time></trkpt><trkpt lat="47.891941238880804" lon="-0.7685479558081892"><ele>100.00000000000001</ele><time>2026-04-26T12:02:39Z</time></trkpt><trkpt lat="47.89200799055836" lon="-0.768622012218835"><ele>100.0</ele><time>2026-04-26T12:02:40Z</time></trkpt><trkpt lat="47.89207511842891" lon="-0.7686919291568429"><ele>99.66666666666667</ele><time>2026-04-26T12:02:41Z</time></trkpt><trkpt lat="47.89214217059975" lon="-0.7687618452169613"><ele>99.33333333333334</ele><time>2026-04-26T12:02:42Z</time></trkpt><trkpt lat="47.892212078357296" lon="-0.7688323278359586"><ele>99.0</ele><time>2026-04-26T12:02:43Z</time></trkpt><trkpt lat="47.89228028589332" lon="-0.7689068767703222"><ele>98.66666666666666</ele><time>2026-04-26T12:02:44Z</time></trkpt><trkpt lat="47.892347678495625" lon="-0.768981788126925"><ele>98.33333333333333</ele><time>2026-04-26T12:02:45Z</time></trkpt><trkpt lat="47.89241521435738" lon="-0.7690531778544285"><ele>98.0</ele><time>2026-04-26T12:02:46Z</time></trkpt><trkpt lat="47.892482866735584" lon="-0.7691247439597182"><ele>97.99999999999999</ele><time>2026-04-26T12:02:47Z</time></trkpt><trkpt lat="47.89255040926439" lon="-0.7691979127014351"><ele>98.0</ele><time>2026-04-26T12:02:48Z</time></trkpt><trkpt lat="47.89261816304633" lon="-0.7692683162291929"><ele>98.0</ele><time>2026-04-26T12:02:49Z</time></trkpt><trkpt lat="47.892683617658946" lon="-0.7693376914066462"><ele>98.0</ele><time>2026-04-26T12:02:50Z</time></trkpt><trkpt lat="47.89274988368693" lon="-0.7694060960975099"><ele>97.99999999999999</ele><time>2026-04-26T12:02:51Z</time></trkpt><trkpt lat="47.89281409512147" lon="-0.769476875594783"><ele>98.0</ele><time>2026-04-26T12:02:52Z</time></trkpt><trkpt lat="47.89287764490215" lon="-0.7695451800741421"><ele>98.16666666666666</ele><time>2026-04-26T12:02:53Z</time></trkpt><trkpt lat="47.89294339339807" lon="-0.769607086632696"><ele>98.33333333333333</ele><time>2026-04-26T12:02:54Z</time></trkpt><trkpt lat="47.89300489507671" lon="-0.7696750932046936"><ele>98.5</ele><time>2026-04-26T12:02:55Z</time></trkpt><trkpt lat="47.89306621905333" lon="-0.76974448485166"><ele>98.66666666666666</ele><time>2026-04-26T12:02:55.999Z</time></trkpt><trkpt lat="47.8931278662995" lon="-0.7698083968206373"><ele>98.83333333333333</ele><time>2026-04-26T12:02:56.999Z</time></trkpt><trkpt lat="47.893190709620654" lon="-0.769871552972264"><ele>99.0</ele><time>2026-04-26T12:02:57.999Z</time></trkpt><trkpt lat="47.89325370580189" lon="-0.7699354638596355"><ele>99.0</ele><time>2026-04-26T12:02:58.999Z</time></trkpt><trkpt lat="47.89331398384696" lon="-0.770001355751444"><ele>99.0</ele><time>2026-04-26T12:02:59.999Z</time></trkpt><trkpt lat="47.89337260224267" lon="-0.7700678857998684"><ele>99.0</ele><time>2026-04-26T12:03:00.999Z</time></trkpt><trkpt lat="47.89343210700512" lon="-0.7701299923338436"><ele>99.0</ele><time>2026-04-26T12:03:01.999Z</time></trkpt><trkpt lat="47.893490211405016" lon="-0.7701906764829708"><ele>99.0</ele><time>2026-04-26T12:03:02.999Z</time></trkpt><trkpt lat="47.89355140504756" lon="-0.7702544945305977"><ele>99.0</ele><time>2026-04-26T12:03:03.999Z</time></trkpt><trkpt lat="47.89361142025303" lon="-0.7703163364222104"><ele>99.0</ele><time>2026-04-26T12:03:04.999Z</time></trkpt><trkpt lat="47.89366772361299" lon="-0.7703766781175665"><ele>99.28571428571429</ele><time>2026-04-26T12:03:05.999Z</time></trkpt><trkpt lat="47.89372348838833" lon="-0.7704360303983953"><ele>99.57142857142857</ele><time>2026-04-26T12:03:06.999Z</time></trkpt><trkpt lat="47.893779334391894" lon="-0.7704968536130273"><ele>99.85714285714286</ele><time>2026-04-26T12:03:07.999Z</time></trkpt><trkpt lat="47.893835722846305" lon="-0.770555829014642"><ele>100.14285714285714</ele><time>2026-04-26T12:03:08.999Z</time></trkpt><trkpt lat="47.893890106798" lon="-0.7706170259493994"><ele>100.42857142857142</ele><time>2026-04-26T12:03:09.999Z</time></trkpt><trkpt lat="47.89394533206137" lon="-0.7706737322414742"><ele>100.71428571428571</ele><time>2026-04-26T12:03:10.999Z</time></trkpt><trkpt lat="47.89400270685105" lon="-0.7707322488853631"><ele>101.0</ele><time>2026-04-26T12:03:11.999Z</time></trkpt><trkpt lat="47.89405939871003" lon="-0.770790629139156"><ele>101.0</ele><time>2026-04-26T12:03:12.999Z</time></trkpt><trkpt lat="47.89411231406487" lon="-0.7708492073682233"><ele>101.0</ele><time>2026-04-26T12:03:13.999Z</time></trkpt><trkpt lat="47.894168123241755" lon="-0.7709086870069821"><ele>101.0</ele><time>2026-04-26T12:03:14.999Z</time></trkpt><trkpt lat="47.89422445192074" lon="-0.7709673324233157"><ele>101.0</ele><time>2026-04-26T12:03:15.999Z</time></trkpt><trkpt lat="47.894279086544195" lon="-0.7710252537463613"><ele>101.0</ele><time>2026-04-26T12:03:16.999Z</time></trkpt><trkpt lat="47.8943335413123" lon="-0.7710847270889518"><ele>101.0</ele><time>2026-04-26T12:03:17.999Z</time></trkpt><trkpt lat="47.89438867789833" lon="-0.7711411116098293"><ele>101.0</ele><time>2026-04-26T12:03:18.999Z</time></trkpt><trkpt lat="47.89444334446856" lon="-0.7711994955839636"><ele>101.49999999999999</ele><time>2026-04-26T12:03:19.999Z</time></trkpt><trkpt lat="47.89449562103674" lon="-0.7712576098362804"><ele>102.0</ele><time>2026-04-26T12:03:20.999Z</time></trkpt><trkpt lat="47.89455179231049" lon="-0.7713117517912401"><ele>102.5</ele><time>2026-04-26T12:03:21.999Z</time></trkpt><trkpt lat="47.89460371266189" lon="-0.7713667884627354"><ele>103.0</ele><time>2026-04-26T12:03:22.999Z</time></trkpt><trkpt lat="47.89465551484055" lon="-0.7714218325551515"><ele>103.49999999999999</ele><time>2026-04-26T12:03:23.999Z</time></trkpt><trkpt lat="47.89475860341878" lon="-0.7715288078245296"><ele>104.0</ele><time>2026-04-26T12:03:25.999Z</time></trkpt><trkpt lat="47.89485890118442" lon="-0.7716323727188463"><ele>104.0</ele><time>2026-04-26T12:03:27.999Z</time></trkpt><trkpt lat="47.89495656863244" lon="-0.7717442044938292"><ele>104.0</ele><time>2026-04-26T12:03:29.999Z</time></trkpt><trkpt lat="47.895054657010355" lon="-0.7718507011442085"><ele>104.0</ele><time>2026-04-26T12:03:31.999Z</time></trkpt><trkpt lat="47.89510891636514" lon="-0.7719028588126776"><ele>104.0</ele><time>2026-04-26T12:03:32.999Z</time></trkpt><trkpt lat="47.8952120526889" lon="-0.7720103094898535"><ele>104.0</ele><time>2026-04-26T12:03:34.999Z</time></trkpt><trkpt lat="47.89526421231497" lon="-0.7720652783618995"><ele>103.71428571428571</ele><time>2026-04-26T12:03:35.999Z</time></trkpt><trkpt lat="47.895315887827756" lon="-0.7721201755499809"><ele>103.42857142857143</ele><time>2026-04-26T12:03:36.999Z</time></trkpt><trkpt lat="47.895369582321806" lon="-0.7721764364907516"><ele>103.14285714285714</ele><time>2026-04-26T12:03:37.999Z</time></trkpt><trkpt lat="47.895422188297495" lon="-0.7722340126066659"><ele>102.85714285714286</ele><time>2026-04-26T12:03:38.999Z</time></trkpt><trkpt lat="47.89547447100061" lon="-0.7722917289314659"><ele>102.57142857142858</ele><time>2026-04-26T12:03:39.999Z</time></trkpt><trkpt lat="47.89552934352853" lon="-0.7723448600357439"><ele>102.28571428571429</ele><time>2026-04-26T12:03:40.999Z</time></trkpt><trkpt lat="47.89558261256539" lon="-0.7723968584245725"><ele>102.0</ele><time>2026-04-26T12:03:41.999Z</time></trkpt><trkpt lat="47.89563833037663" lon="-0.7724587556772184"><ele>102.0</ele><time>2026-04-26T12:03:42.999Z</time></trkpt><trkpt lat="47.89569508602325" lon="-0.7725165475376552"><ele>102.0</ele><time>2026-04-26T12:03:43.999Z</time></trkpt><trkpt lat="47.89574941973011" lon="-0.7725765349128266"><ele>102.0</ele><time>2026-04-26T12:03:44.999Z</time></trkpt><trkpt lat="47.89580424371774" lon="-0.772635421030703"><ele>102.0</ele><time>2026-04-26T12:03:45.999Z</time></trkpt><trkpt lat="47.89586128955578" lon="-0.7726902520018508"><ele>102.0</ele><time>2026-04-26T12:03:46.999Z</time></trkpt><trkpt lat="47.89591765333532" lon="-0.772750765906011"><ele>102.0</ele><time>2026-04-26T12:03:47.999Z</time></trkpt><trkpt lat="47.89597252886753" lon="-0.7728135921197348"><ele>102.0</ele><time>2026-04-26T12:03:48.999Z</time></trkpt><trkpt lat="47.896030202295755" lon="-0.7728742980910647"><ele>102.14285714285714</ele><time>2026-04-26T12:03:49.999Z</time></trkpt><trkpt lat="47.896086613388135" lon="-0.7729330530453908"><ele>102.28571428571429</ele><time>2026-04-26T12:03:50.999Z</time></trkpt><trkpt lat="47.896143490269736" lon="-0.772994651642962"><ele>102.42857142857142</ele><time>2026-04-26T12:03:51.999Z</time></trkpt><trkpt lat="47.89620113328829" lon="-0.7730541252283571"><ele>102.57142857142857</ele><time>2026-04-26T12:03:52.999Z</time></trkpt><trkpt lat="47.89625893647936" lon="-0.7731129941855356"><ele>102.71428571428571</ele><time>2026-04-26T12:03:53.999Z</time></trkpt><trkpt lat="47.89631705531386" lon="-0.7731732413264192"><ele>102.85714285714285</ele><time>2026-04-26T12:03:54.999Z</time></trkpt><trkpt lat="47.896371823496324" lon="-0.7732342280618858"><ele>103.0</ele><time>2026-04-26T12:03:55.999Z</time></trkpt><trkpt lat="47.896427397504354" lon="-0.7732951330031768"><ele>102.99999999999999</ele><time>2026-04-26T12:03:56.999Z</time></trkpt><trkpt lat="47.896483727218666" lon="-0.7733563932351005"><ele>103.0</ele><time>2026-04-26T12:03:57.999Z</time></trkpt><trkpt lat="47.89653965260987" lon="-0.7734143127430487"><ele>103.0</ele><time>2026-04-26T12:03:58.999Z</time></trkpt><trkpt lat="47.89659455221771" lon="-0.7734732260169896"><ele>103.0</ele><time>2026-04-26T12:03:59.999Z</time></trkpt><trkpt lat="47.89665115932613" lon="-0.7735307183767617"><ele>103.0</ele><time>2026-04-26T12:04:00.999Z</time></trkpt><trkpt lat="47.89670819753251" lon="-0.7735891209426148"><ele>102.99999999999999</ele><time>2026-04-26T12:04:01.999Z</time></trkpt><trkpt lat="47.89676530213902" lon="-0.7736459525746882"><ele>103.0</ele><time>2026-04-26T12:04:02.999Z</time></trkpt><trkpt lat="47.8968195885041" lon="-0.7737048143160186"><ele>103.14285714285714</ele><time>2026-04-26T12:04:03.999Z</time></trkpt><trkpt lat="47.89687396273132" lon="-0.7737664122695266"><ele>103.28571428571428</ele><time>2026-04-26T12:04:04.999Z</time></trkpt><trkpt lat="47.89692953114198" lon="-0.7738256228912239"><ele>103.42857142857142</ele><time>2026-04-26T12:04:05.999Z</time></trkpt><trkpt lat="47.89698359710923" lon="-0.7738820526089607"><ele>103.57142857142857</ele><time>2026-04-26T12:04:06.999Z</time></trkpt><trkpt lat="47.89703924548196" lon="-0.773941907382851"><ele>103.71428571428572</ele><time>2026-04-26T12:04:07.999Z</time></trkpt><trkpt lat="47.8970979872275" lon="-0.7740062009208325"><ele>103.85714285714285</ele><time>2026-04-26T12:04:08.999Z</time></trkpt><trkpt lat="47.89715365785783" lon="-0.7740610243758351"><ele>104.0</ele><time>2026-04-26T12:04:09.999Z</time></trkpt><trkpt lat="47.89721082288314" lon="-0.7741213103443317"><ele>104.0</ele><time>2026-04-26T12:04:10.999Z</time></trkpt><trkpt lat="47.897265256964765" lon="-0.7741809440240887"><ele>104.0</ele><time>2026-04-26T12:04:11.999Z</time></trkpt><trkpt lat="47.89731952740142" lon="-0.7742388379289153"><ele>104.0</ele><time>2026-04-26T12:04:12.999Z</time></trkpt><trkpt lat="47.89737389411623" lon="-0.774296009939922"><ele>104.0</ele><time>2026-04-26T12:04:13.999Z</time></trkpt><trkpt lat="47.89742958576348" lon="-0.774350948594353"><ele>104.0</ele><time>2026-04-26T12:04:14.999Z</time></trkpt><trkpt lat="47.89748403433446" lon="-0.7744077007749504"><ele>104.0</ele><time>2026-04-26T12:04:15.999Z</time></trkpt><trkpt lat="47.89753883568172" lon="-0.7744655017995331"><ele>104.0</ele><time>2026-04-26T12:04:16.999Z</time></trkpt><trkpt lat="47.897593881627216" lon="-0.7745254464124562"><ele>103.85714285714285</ele><time>2026-04-26T12:04:17.999Z</time></trkpt><trkpt lat="47.897650126477174" lon="-0.7745828318453248"><ele>103.71428571428572</ele><time>2026-04-26T12:04:19Z</time></trkpt><trkpt lat="47.89770626898269" lon="-0.7746440728586931"><ele>103.57142857142857</ele><time>2026-04-26T12:04:20Z</time></trkpt><trkpt lat="47.89776064005337" lon="-0.7747040098758157"><ele>103.42857142857142</ele><time>2026-04-26T12:04:21Z</time></trkpt><trkpt lat="47.897816336644894" lon="-0.7747642212768089"><ele>103.28571428571428</ele><time>2026-04-26T12:04:22Z</time></trkpt><trkpt lat="47.89787320575581" lon="-0.774823670951888"><ele>103.14285714285714</ele><time>2026-04-26T12:04:23Z</time></trkpt><trkpt lat="47.89793153349752" lon="-0.7748830030275673"><ele>103.0</ele><time>2026-04-26T12:04:24Z</time></trkpt><trkpt lat="47.89798841642041" lon="-0.7749441445204817"><ele>102.99999999999999</ele><time>2026-04-26T12:04:25Z</time></trkpt><trkpt lat="47.89804655180841" lon="-0.7750061210369771"><ele>103.0</ele><time>2026-04-26T12:04:26Z</time></trkpt><trkpt lat="47.89810461488785" lon="-0.7750685128423614"><ele>103.0</ele><time>2026-04-26T12:04:27Z</time></trkpt><trkpt lat="47.89816390180758" lon="-0.7751307847886092"><ele>103.0</ele><time>2026-04-26T12:04:28Z</time></trkpt><trkpt lat="47.898221811976896" lon="-0.7751925901187394"><ele>103.0</ele><time>2026-04-26T12:04:29Z</time></trkpt><trkpt lat="47.89828165659282" lon="-0.7752539952311183"><ele>102.99999999999999</ele><time>2026-04-26T12:04:30Z</time></trkpt><trkpt lat="47.89834204683803" lon="-0.7753207686020772"><ele>103.0</ele><time>2026-04-26T12:04:31Z</time></trkpt><trkpt lat="47.898401500099396" lon="-0.7753853306942604"><ele>102.83333333333334</ele><time>2026-04-26T12:04:32Z</time></trkpt><trkpt lat="47.89846590920225" lon="-0.7754451066830317"><ele>102.66666666666667</ele><time>2026-04-26T12:04:33Z</time></trkpt><trkpt lat="47.898526909073134" lon="-0.7755119003113509"><ele>102.5</ele><time>2026-04-26T12:04:34Z</time></trkpt><trkpt lat="47.89858789933899" lon="-0.7755802475703151"><ele>102.33333333333334</ele><time>2026-04-26T12:04:35Z</time></trkpt><trkpt lat="47.89864791369253" lon="-0.7756464424745112"><ele>102.16666666666667</ele><time>2026-04-26T12:04:36Z</time></trkpt><trkpt lat="47.89876357479684" lon="-0.7757795281519408"><ele>102.0</ele><time>2026-04-26T12:04:38Z</time></trkpt><trkpt lat="47.89882697880731" lon="-0.7758378495356092"><ele>102.0</ele><time>2026-04-26T12:04:39Z</time></trkpt><trkpt lat="47.8988889693473" lon="-0.775895202754798"><ele>102.0</ele><time>2026-04-26T12:04:40Z</time></trkpt><trkpt lat="47.89895173155049" lon="-0.7759563960285524"><ele>102.0</ele><time>2026-04-26T12:04:41Z</time></trkpt><trkpt lat="47.89901154036576" lon="-0.7760214735113754"><ele>102.0</ele><time>2026-04-26T12:04:42Z</time></trkpt><trkpt lat="47.89906869682259" lon="-0.776088475848792"><ele>102.0</ele><time>2026-04-26T12:04:43Z</time></trkpt><trkpt lat="47.899128099370216" lon="-0.776151671207242"><ele>102.0</ele><time>2026-04-26T12:04:44Z</time></trkpt><trkpt lat="47.899191958493816" lon="-0.7762125126928607"><ele>102.0</ele><time>2026-04-26T12:04:45Z</time></trkpt><trkpt lat="47.89925199467398" lon="-0.776277829507133"><ele>101.83333333333333</ele><time>2026-04-26T12:04:46Z</time></trkpt><trkpt lat="47.89930958782996" lon="-0.7763465737374513"><ele>101.66666666666666</ele><time>2026-04-26T12:04:47Z</time></trkpt><trkpt lat="47.89936904125014" lon="-0.7764116036624558"><ele>101.5</ele><time>2026-04-26T12:04:48Z</time></trkpt><trkpt lat="47.8994334228114" lon="-0.7764748520924795"><ele>101.33333333333333</ele><time>2026-04-26T12:04:49Z</time></trkpt><trkpt lat="47.89949538038173" lon="-0.7765339914036757"><ele>101.16666666666666</ele><time>2026-04-26T12:04:50Z</time></trkpt><trkpt lat="47.8995582104166" lon="-0.7765964241962543"><ele>101.0</ele><time>2026-04-26T12:04:51Z</time></trkpt><trkpt lat="47.8996196229178" lon="-0.7766717558000507"><ele>100.99999999999999</ele><time>2026-04-26T12:04:52Z</time></trkpt><trkpt lat="47.8996816081203" lon="-0.7767380017025576"><ele>101.0</ele><time>2026-04-26T12:04:53Z</time></trkpt><trkpt lat="47.89974607244283" lon="-0.7768034302777584"><ele>101.0</ele><time>2026-04-26T12:04:54Z</time></trkpt><trkpt lat="47.89981073933489" lon="-0.7768703965067616"><ele>101.0</ele><time>2026-04-26T12:04:55Z</time></trkpt><trkpt lat="47.89987784900967" lon="-0.776941021502559"><ele>100.99999999999999</ele><time>2026-04-26T12:04:56Z</time></trkpt><trkpt lat="47.89994177655258" lon="-0.7770088285890855"><ele>101.0</ele><time>2026-04-26T12:04:57Z</time></trkpt><trkpt lat="47.900008954145235" lon="-0.7770799825547264"><ele>101.16666666666666</ele><time>2026-04-26T12:04:58Z</time></trkpt><trkpt lat="47.90007444627984" lon="-0.7771503888827276"><ele>101.33333333333333</ele><time>2026-04-26T12:04:59Z</time></trkpt><trkpt lat="47.900141154333845" lon="-0.7772205223607469"><ele>101.5</ele><time>2026-04-26T12:05:00Z</time></trkpt><trkpt lat="47.900208587877515" lon="-0.7772904017645471"><ele>101.66666666666666</ele><time>2026-04-26T12:05:01Z</time></trkpt><trkpt lat="47.90027407163425" lon="-0.7773634521002035"><ele>101.83333333333333</ele><time>2026-04-26T12:05:02Z</time></trkpt><trkpt lat="47.90034301146025" lon="-0.7774354400037999"><ele>102.0</ele><time>2026-04-26T12:05:03Z</time></trkpt><trkpt lat="47.90041057420359" lon="-0.7775067998915832"><ele>101.5</ele><time>2026-04-26T12:05:04Z</time></trkpt><trkpt lat="47.90047896019395" lon="-0.7775772651346212"><ele>101.0</ele><time>2026-04-26T12:05:05Z</time></trkpt><trkpt lat="47.900547429392184" lon="-0.777647898958596"><ele>100.5</ele><time>2026-04-26T12:05:06Z</time></trkpt><trkpt lat="47.900615483162696" lon="-0.7777188688485003"><ele>100.0</ele><time>2026-04-26T12:05:06.999Z</time></trkpt><trkpt lat="47.90068114459162" lon="-0.7777912019337012"><ele>99.5</ele><time>2026-04-26T12:05:07.999Z</time></trkpt><trkpt lat="47.90074947256962" lon="-0.7778610303897807"><ele>99.0</ele><time>2026-04-26T12:05:08.999Z</time></trkpt><trkpt lat="47.90081651048593" lon="-0.7779309359192121"><ele>99.0</ele><time>2026-04-26T12:05:09.999Z</time></trkpt><trkpt lat="47.90088254972933" lon="-0.778003635374554"><ele>99.0</ele><time>2026-04-26T12:05:10.999Z</time></trkpt><trkpt lat="47.90094680119994" lon="-0.7780754831300751"><ele>99.0</ele><time>2026-04-26T12:05:11.999Z</time></trkpt><trkpt lat="47.90101505568038" lon="-0.7781422475815744"><ele>99.0</ele><time>2026-04-26T12:05:12.999Z</time></trkpt><trkpt lat="47.901083113370056" lon="-0.7782140068996027"><ele>99.0</ele><time>2026-04-26T12:05:13.999Z</time></trkpt><trkpt lat="47.9011536797715" lon="-0.7782888946547094"><ele>99.0</ele><time>2026-04-26T12:05:14.999Z</time></trkpt><trkpt lat="47.90122108742682" lon="-0.7783595612675176"><ele>98.66666666666667</ele><time>2026-04-26T12:05:15.999Z</time></trkpt><trkpt lat="47.901291422065555" lon="-0.7784366054487846"><ele>98.33333333333334</ele><time>2026-04-26T12:05:16.999Z</time></trkpt><trkpt lat="47.90135913168109" lon="-0.7785103241807264"><ele>98.0</ele><time>2026-04-26T12:05:17.999Z</time></trkpt><trkpt lat="47.90142985251817" lon="-0.7785841726870952"><ele>97.66666666666667</ele><time>2026-04-26T12:05:18.999Z</time></trkpt><trkpt lat="47.90149992147511" lon="-0.7786540257876576"><ele>97.33333333333334</ele><time>2026-04-26T12:05:19.999Z</time></trkpt><trkpt lat="47.90157046225099" lon="-0.7787294253886482"><ele>97.0</ele><time>2026-04-26T12:05:20.999Z</time></trkpt><trkpt lat="47.9016383670019" lon="-0.7788020210843457"><ele>97.00000000000001</ele><time>2026-04-26T12:05:21.999Z</time></trkpt><trkpt lat="47.9017074087619" lon="-0.7788708703064896"><ele>97.0</ele><time>2026-04-26T12:05:22.999Z</time></trkpt><trkpt lat="47.901774867559745" lon="-0.7789450105588569"><ele>97.0</ele><time>2026-04-26T12:05:23.999Z</time></trkpt><trkpt lat="47.90184252098474" lon="-0.7790138902883936"><ele>97.0</ele><time>2026-04-26T12:05:24.999Z</time></trkpt><trkpt lat="47.90190973283825" lon="-0.7790865185358796"><ele>97.00000000000001</ele><time>2026-04-26T12:05:25.999Z</time></trkpt><trkpt lat="47.90197583740159" lon="-0.7791610366650349"><ele>97.0</ele><time>2026-04-26T12:05:26.999Z</time></trkpt><trkpt lat="47.90204204916005" lon="-0.7792309579054235"><ele>97.00000000000001</ele><time>2026-04-26T12:05:27.999Z</time></trkpt><trkpt lat="47.90211107618531" lon="-0.7793011064549891"><ele>97.0</ele><time>2026-04-26T12:05:28.999Z</time></trkpt><trkpt lat="47.90217800902345" lon="-0.7793742337706778"><ele>97.0</ele><time>2026-04-26T12:05:29.999Z</time></trkpt><trkpt lat="47.90224539991252" lon="-0.7794466561610521"><ele>97.0</ele><time>2026-04-26T12:05:30.999Z</time></trkpt><trkpt lat="47.90231384026792" lon="-0.7795182241059235"><ele>97.00000000000001</ele><time>2026-04-26T12:05:31.999Z</time></trkpt><trkpt lat="47.902382615067516" lon="-0.7795884674614029"><ele>97.0</ele><time>2026-04-26T12:05:32.999Z</time></trkpt><trkpt lat="47.902450389832545" lon="-0.7796598483872609"><ele>97.00000000000001</ele><time>2026-04-26T12:05:33.999Z</time></trkpt><trkpt lat="47.90251527879466" lon="-0.7797340134132215"><ele>97.0</ele><time>2026-04-26T12:05:34.999Z</time></trkpt><trkpt lat="47.90258214302592" lon="-0.7798066381393948"><ele>97.0</ele><time>2026-04-26T12:05:35.999Z</time></trkpt><trkpt lat="47.90264914822714" lon="-0.7798748859719907"><ele>97.0</ele><time>2026-04-26T12:05:36.999Z</time></trkpt><trkpt lat="47.902718133535174" lon="-0.7799475191700368"><ele>97.00000000000001</ele><time>2026-04-26T12:05:37.999Z</time></trkpt><trkpt lat="47.90278380656049" lon="-0.7800150067372064"><ele>97.0</ele><time>2026-04-26T12:05:38.999Z</time></trkpt><trkpt lat="47.90285095294469" lon="-0.7800850622466698"><ele>96.83333333333334</ele><time>2026-04-26T12:05:39.999Z</time></trkpt><trkpt lat="47.90291755994276" lon="-0.7801557408868843"><ele>96.66666666666667</ele><time>2026-04-26T12:05:40.999Z</time></trkpt><trkpt lat="47.902983833903285" lon="-0.7802297687680859"><ele>96.5</ele><time>2026-04-26T12:05:41.999Z</time></trkpt><trkpt lat="47.903051070030976" lon="-0.7802979117184974"><ele>96.33333333333334</ele><time>2026-04-26T12:05:42.999Z</time></trkpt><trkpt lat="47.90311897429154" lon="-0.7803679011645223"><ele>96.16666666666667</ele><time>2026-04-26T12:05:43.999Z</time></trkpt><trkpt lat="47.90318695924756" lon="-0.780440997180574"><ele>96.0</ele><time>2026-04-26T12:05:44.999Z</time></trkpt><trkpt lat="47.90325227811306" lon="-0.7805174164489574"><ele>96.0</ele><time>2026-04-26T12:05:45.999Z</time></trkpt><trkpt lat="47.90331955004004" lon="-0.7805892600922161"><ele>96.0</ele><time>2026-04-26T12:05:46.999Z</time></trkpt><trkpt lat="47.90338721785124" lon="-0.7806568451528781"><ele>96.0</ele><time>2026-04-26T12:05:47.999Z</time></trkpt><trkpt lat="47.90345506560227" lon="-0.7807238546701234"><ele>96.0</ele><time>2026-04-26T12:05:48.999Z</time></trkpt><trkpt lat="47.903524458926285" lon="-0.7807926190499471"><ele>96.0</ele><time>2026-04-26T12:05:49.999Z</time></trkpt><trkpt lat="47.90359135338989" lon="-0.7808659225119492"><ele>96.0</ele><time>2026-04-26T12:05:50.999Z</time></trkpt><trkpt lat="47.90365755024421" lon="-0.7809387170232515"><ele>96.0</ele><time>2026-04-26T12:05:51.999Z</time></trkpt><trkpt lat="47.90372129577893" lon="-0.781008712229548"><ele>96.0</ele><time>2026-04-26T12:05:52.999Z</time></trkpt><trkpt lat="47.903786784565" lon="-0.7810805358185742"><ele>96.0</ele><time>2026-04-26T12:05:53.999Z</time></trkpt><trkpt lat="47.90385299630419" lon="-0.781145504275868"><ele>96.0</ele><time>2026-04-26T12:05:54.999Z</time></trkpt><trkpt lat="47.90391929613632" lon="-0.7812132492842337"><ele>96.0</ele><time>2026-04-26T12:05:55.999Z</time></trkpt><trkpt lat="47.903982726021326" lon="-0.7812815780500786"><ele>96.0</ele><time>2026-04-26T12:05:56.999Z</time></trkpt><trkpt lat="47.904048357931856" lon="-0.7813466882134134"><ele>95.83333333333333</ele><time>2026-04-26T12:05:57.999Z</time></trkpt><trkpt lat="47.90411100305827" lon="-0.7814137153334894"><ele>95.66666666666667</ele><time>2026-04-26T12:05:58.999Z</time></trkpt><trkpt lat="47.904172741109704" lon="-0.7814809839777865"><ele>95.5</ele><time>2026-04-26T12:05:59.999Z</time></trkpt><trkpt lat="47.904237663937785" lon="-0.7815491147828048"><ele>95.33333333333334</ele><time>2026-04-26T12:06:00.999Z</time></trkpt><trkpt lat="47.90430326289336" lon="-0.7816153344533269"><ele>95.16666666666667</ele><time>2026-04-26T12:06:01.999Z</time></trkpt><trkpt lat="47.904366430768455" lon="-0.7816868290014405"><ele>95.0</ele><time>2026-04-26T12:06:02.999Z</time></trkpt><trkpt lat="47.90442824210946" lon="-0.7817553742473989"><ele>94.83333333333334</ele><time>2026-04-26T12:06:03.999Z</time></trkpt><trkpt lat="47.90449093448048" lon="-0.781819986115535"><ele>94.66666666666667</ele><time>2026-04-26T12:06:04.999Z</time></trkpt><trkpt lat="47.90455543813013" lon="-0.7818849645078243"><ele>94.5</ele><time>2026-04-26T12:06:05.999Z</time></trkpt><trkpt lat="47.90461838943851" lon="-0.7819548174776575"><ele>94.33333333333333</ele><time>2026-04-26T12:06:06.999Z</time></trkpt><trkpt lat="47.9046796328092" lon="-0.7820207402283159"><ele>94.16666666666666</ele><time>2026-04-26T12:06:07.999Z</time></trkpt><trkpt lat="47.9047404208035" lon="-0.7820850194172576"><ele>94.0</ele><time>2026-04-26T12:06:08.999Z</time></trkpt><trkpt lat="47.904801881325064" lon="-0.7821491263204634"><ele>93.83333333333333</ele><time>2026-04-26T12:06:09.999Z</time></trkpt><trkpt lat="47.90486289732096" lon="-0.7822129611635307"><ele>93.66666666666666</ele><time>2026-04-26T12:06:10.999Z</time></trkpt><trkpt lat="47.90492396515186" lon="-0.7822773706525152"><ele>93.5</ele><time>2026-04-26T12:06:11.999Z</time></trkpt><trkpt lat="47.90498476251606" lon="-0.7823412888234343"><ele>93.33333333333333</ele><time>2026-04-26T12:06:12.999Z</time></trkpt><trkpt lat="47.90504633279798" lon="-0.7824069110829602"><ele>93.16666666666667</ele><time>2026-04-26T12:06:13.999Z</time></trkpt><trkpt lat="47.90510981011824" lon="-0.782472643738901"><ele>93.0</ele><time>2026-04-26T12:06:14.999Z</time></trkpt><trkpt lat="47.905175234795834" lon="-0.7825401753652936"><ele>93.0</ele><time>2026-04-26T12:06:15.999Z</time></trkpt><trkpt lat="47.9052361550857" lon="-0.7826093293869872"><ele>93.0</ele><time>2026-04-26T12:06:16.999Z</time></trkpt><trkpt lat="47.90530598173845" lon="-0.7826792666266797"><ele>93.0</ele><time>2026-04-26T12:06:17.999Z</time></trkpt><trkpt lat="47.90536744958038" lon="-0.7827430249562831"><ele>93.0</ele><time>2026-04-26T12:06:18.999Z</time></trkpt><trkpt lat="47.905431279819965" lon="-0.7828105778256381"><ele>93.0</ele><time>2026-04-26T12:06:19.999Z</time></trkpt><trkpt lat="47.905496157516396" lon="-0.7828816611957677"><ele>93.0</ele><time>2026-04-26T12:06:20.999Z</time></trkpt><trkpt lat="47.90556024802326" lon="-0.7829476836275423"><ele>92.83333333333333</ele><time>2026-04-26T12:06:21.999Z</time></trkpt><trkpt lat="47.90562557664399" lon="-0.7830165650665672"><ele>92.66666666666667</ele><time>2026-04-26T12:06:22.999Z</time></trkpt><trkpt lat="47.90569152106059" lon="-0.783084897186081"><ele>92.5</ele><time>2026-04-26T12:06:23.999Z</time></trkpt><trkpt lat="47.90575649148193" lon="-0.7831548733913274"><ele>92.33333333333334</ele><time>2026-04-26T12:06:25Z</time></trkpt><trkpt lat="47.90582191336452" lon="-0.7832261322987676"><ele>92.16666666666667</ele><time>2026-04-26T12:06:26Z</time></trkpt><trkpt lat="47.905889503582806" lon="-0.7832952179253936"><ele>92.0</ele><time>2026-04-26T12:06:27Z</time></trkpt><trkpt lat="47.905958424494344" lon="-0.7833651983954846"><ele>91.39999999999999</ele><time>2026-04-26T12:06:28Z</time></trkpt><trkpt lat="47.90602665144274" lon="-0.783442907161538"><ele>90.8</ele><time>2026-04-26T12:06:29Z</time></trkpt><trkpt lat="47.90609916643466" lon="-0.7835176383187497"><ele>90.2</ele><time>2026-04-26T12:06:30Z</time></trkpt><trkpt lat="47.90617511832724" lon="-0.7835970341780689"><ele>89.6</ele><time>2026-04-26T12:06:31Z</time></trkpt><trkpt lat="47.906251415116174" lon="-0.7836775422584498"><ele>89.0</ele><time>2026-04-26T12:06:32Z</time></trkpt><trkpt lat="47.90632877870821" lon="-0.78376113260796"><ele>88.80000000000001</ele><time>2026-04-26T12:06:33Z</time></trkpt><trkpt lat="47.90640629896525" lon="-0.7838467962041876"><ele>88.60000000000001</ele><time>2026-04-26T12:06:34Z</time></trkpt><trkpt lat="47.906487325263235" lon="-0.7839343059254908"><ele>88.4</ele><time>2026-04-26T12:06:35Z</time></trkpt><trkpt lat="47.9065714192374" lon="-0.784020323163914"><ele>88.2</ele><time>2026-04-26T12:06:36Z</time></trkpt><trkpt lat="47.906654225997144" lon="-0.7841063797902793"><ele>88.0</ele><time>2026-04-26T12:06:37Z</time></trkpt><trkpt lat="47.906736079751134" lon="-0.7841944269874831"><ele>87.80000000000001</ele><time>2026-04-26T12:06:38Z</time></trkpt><trkpt lat="47.90681973018834" lon="-0.784283987106145"><ele>87.6</ele><time>2026-04-26T12:06:39Z</time></trkpt><trkpt lat="47.90690496903751" lon="-0.7843705376753671"><ele>87.4</ele><time>2026-04-26T12:06:40Z</time></trkpt><trkpt lat="47.90699068462552" lon="-0.7844609447211663"><ele>87.19999999999999</ele><time>2026-04-26T12:06:41Z</time></trkpt><trkpt lat="47.90707549437889" lon="-0.7845534590171325"><ele>87.0</ele><time>2026-04-26T12:06:42Z</time></trkpt><trkpt lat="47.90716236831719" lon="-0.784645677405557"><ele>86.8</ele><time>2026-04-26T12:06:43Z</time></trkpt><trkpt lat="47.90725052925315" lon="-0.7847354117677199"><ele>86.6</ele><time>2026-04-26T12:06:44Z</time></trkpt><trkpt lat="47.90733580038169" lon="-0.7848252833204198"><ele>86.39999999999999</ele><time>2026-04-26T12:06:45Z</time></trkpt><trkpt lat="47.907422473739615" lon="-0.7849173528401752"><ele>86.19999999999999</ele><time>2026-04-26T12:06:46Z</time></trkpt><trkpt lat="47.907507121269944" lon="-0.7850048414265316"><ele>86.0</ele><time>2026-04-26T12:06:47Z</time></trkpt><trkpt lat="47.90759173495908" lon="-0.785095245905238"><ele>85.4</ele><time>2026-04-26T12:06:48Z</time></trkpt><trkpt lat="47.90767718782505" lon="-0.7851866059023713"><ele>84.8</ele><time>2026-04-26T12:06:48.999Z</time></trkpt><trkpt lat="47.90775859662464" lon="-0.7852756375959953"><ele>84.2</ele><time>2026-04-26T12:06:49.999Z</time></trkpt><trkpt lat="47.90784264857188" lon="-0.7853626513528488"><ele>83.60000000000001</ele><time>2026-04-26T12:06:50.999Z</time></trkpt><trkpt lat="47.907923432630874" lon="-0.7854451372480391"><ele>83.0</ele><time>2026-04-26T12:06:51.999Z</time></trkpt><trkpt lat="47.908004549728304" lon="-0.7855331779939072"><ele>83.0</ele><time>2026-04-26T12:06:52.999Z</time></trkpt><trkpt lat="47.908087219929186" lon="-0.7856213583994348"><ele>83.0</ele><time>2026-04-26T12:06:53.999Z</time></trkpt><trkpt lat="47.90816555732123" lon="-0.7857062730683775"><ele>83.0</ele><time>2026-04-26T12:06:54.999Z</time></trkpt><trkpt lat="47.90824584463069" lon="-0.7857904420665488"><ele>83.0</ele><time>2026-04-26T12:06:55.999Z</time></trkpt><trkpt lat="47.90832321759025" lon="-0.7858728495960022"><ele>83.0</ele><time>2026-04-26T12:06:56.999Z</time></trkpt><trkpt lat="47.908400257420595" lon="-0.7859471246606643"><ele>82.4</ele><time>2026-04-26T12:06:57.999Z</time></trkpt><trkpt lat="47.90847665877831" lon="-0.7860264347166314"><ele>81.80000000000001</ele><time>2026-04-26T12:06:58.999Z</time></trkpt><trkpt lat="47.908551300206916" lon="-0.7861073141121858"><ele>81.2</ele><time>2026-04-26T12:06:59.999Z</time></trkpt><trkpt lat="47.90862731219187" lon="-0.786188832509011"><ele>80.6</ele><time>2026-04-26T12:07:00.999Z</time></trkpt><trkpt lat="47.90870025430068" lon="-0.7862678743510073"><ele>80.0</ele><time>2026-04-26T12:07:01.999Z</time></trkpt><trkpt lat="47.908776626232346" lon="-0.7863494912918535"><ele>80.0</ele><time>2026-04-26T12:07:02.999Z</time></trkpt><trkpt lat="47.9088538487235" lon="-0.7864296902708621"><ele>80.0</ele><time>2026-04-26T12:07:03.999Z</time></trkpt><trkpt lat="47.9089294823611" lon="-0.7865106159681748"><ele>80.0</ele><time>2026-04-26T12:07:04.999Z</time></trkpt><trkpt lat="47.90900579741474" lon="-0.7865905930004359"><ele>80.0</ele><time>2026-04-26T12:07:05.999Z</time></trkpt><trkpt lat="47.9090823051279" lon="-0.7866693342493926"><ele>80.0</ele><time>2026-04-26T12:07:06.999Z</time></trkpt><trkpt lat="47.90915911521709" lon="-0.7867497627842236"><ele>80.0</ele><time>2026-04-26T12:07:07.999Z</time></trkpt><trkpt lat="47.90923636284758" lon="-0.7868286595265894"><ele>80.0</ele><time>2026-04-26T12:07:08.999Z</time></trkpt><trkpt lat="47.909313320358514" lon="-0.7869100481703004"><ele>80.0</ele><time>2026-04-26T12:07:09.999Z</time></trkpt><trkpt lat="47.909390135798276" lon="-0.7869917881494513"><ele>80.0</ele><time>2026-04-26T12:07:10.999Z</time></trkpt><trkpt lat="47.90946716092493" lon="-0.7870765692769954"><ele>80.0</ele><time>2026-04-26T12:07:11.999Z</time></trkpt><trkpt lat="47.90954538407589" lon="-0.7871575017905866"><ele>80.2</ele><time>2026-04-26T12:07:12.999Z</time></trkpt><trkpt lat="47.909622336432925" lon="-0.7872380341543467"><ele>80.4</ele><time>2026-04-26T12:07:13.999Z</time></trkpt><trkpt lat="47.90970047552359" lon="-0.7873183761844325"><ele>80.6</ele><time>2026-04-26T12:07:14.999Z</time></trkpt><trkpt lat="47.909775477286736" lon="-0.7873976972851239"><ele>80.8</ele><time>2026-04-26T12:07:15.999Z</time></trkpt><trkpt lat="47.90984915788297" lon="-0.787476022491921"><ele>81.0</ele><time>2026-04-26T12:07:16.999Z</time></trkpt><trkpt lat="47.90992013982185" lon="-0.787552987672198"><ele>81.0</ele><time>2026-04-26T12:07:17.999Z</time></trkpt><trkpt lat="47.909987870985795" lon="-0.7876275675058972"><ele>81.0</ele><time>2026-04-26T12:07:18.999Z</time></trkpt><trkpt lat="47.910057654892356" lon="-0.7877002270800041"><ele>81.0</ele><time>2026-04-26T12:07:19.999Z</time></trkpt><trkpt lat="47.910127492873826" lon="-0.787766896229326"><ele>81.0</ele><time>2026-04-26T12:07:20.999Z</time></trkpt><trkpt lat="47.91019224278456" lon="-0.7878366417502527"><ele>81.0</ele><time>2026-04-26T12:07:21.999Z</time></trkpt><trkpt lat="47.91025560892985" lon="-0.7879036254288587"><ele>81.0</ele><time>2026-04-26T12:07:22.999Z</time></trkpt><trkpt lat="47.91031634811265" lon="-0.7879690585518786"><ele>81.42857142857143</ele><time>2026-04-26T12:07:23.999Z</time></trkpt><trkpt lat="47.9103736181701" lon="-0.7880313964785682"><ele>81.85714285714286</ele><time>2026-04-26T12:07:24.999Z</time></trkpt><trkpt lat="47.9104297269361" lon="-0.7880902751058647"><ele>82.28571428571428</ele><time>2026-04-26T12:07:25.999Z</time></trkpt><trkpt lat="47.91048370082067" lon="-0.7881519373671126"><ele>82.71428571428572</ele><time>2026-04-26T12:07:26.999Z</time></trkpt><trkpt lat="47.91053783176588" lon="-0.7882074248172488"><ele>83.14285714285714</ele><time>2026-04-26T12:07:27.999Z</time></trkpt><trkpt lat="47.91059110702908" lon="-0.7882635880259905"><ele>83.57142857142857</ele><time>2026-04-26T12:07:28.999Z</time></trkpt><trkpt lat="47.91064365210107" lon="-0.7883166853507683"><ele>84.0</ele><time>2026-04-26T12:07:29.999Z</time></trkpt><trkpt lat="47.91074077140712" lon="-0.7884226908438734"><ele>84.2</ele><time>2026-04-26T12:07:31.999Z</time></trkpt><trkpt lat="47.91083260916098" lon="-0.7885173150363218"><ele>84.4</ele><time>2026-04-26T12:07:33.999Z</time></trkpt><trkpt lat="47.91092227523428" lon="-0.7886126800210377"><ele>84.6</ele><time>2026-04-26T12:07:35.999Z</time></trkpt><trkpt lat="47.91100933278351" lon="-0.7886988808508657"><ele>84.8</ele><time>2026-04-26T12:07:37.999Z</time></trkpt><trkpt lat="47.911090845027005" lon="-0.7887881882489326"><ele>85.0</ele><time>2026-04-26T12:07:39.999Z</time></trkpt><trkpt lat="47.91116793492437" lon="-0.7888711164833847"><ele>85.6</ele><time>2026-04-26T12:07:41.999Z</time></trkpt><trkpt lat="47.91124539206095" lon="-0.7889520797173525"><ele>86.2</ele><time>2026-04-26T12:07:43.999Z</time></trkpt><trkpt lat="47.91132010937628" lon="-0.789029247731213"><ele>86.80000000000001</ele><time>2026-04-26T12:07:45.999Z</time></trkpt><trkpt lat="47.911397536372085" lon="-0.7891138807740671"><ele>87.4</ele><time>2026-04-26T12:07:47.999Z</time></trkpt><trkpt lat="47.91148118285635" lon="-0.7892083214205161"><ele>88.0</ele><time>2026-04-26T12:07:49.999Z</time></trkpt><trkpt lat="47.91156112235611" lon="-0.7892841026221338"><ele>88.16666666666666</ele><time>2026-04-26T12:07:51.999Z</time></trkpt><trkpt lat="47.91163523333312" lon="-0.7893644171604536"><ele>88.33333333333333</ele><time>2026-04-26T12:07:53.999Z</time></trkpt><trkpt lat="47.911704910295775" lon="-0.7894351245014941"><ele>88.5</ele><time>2026-04-26T12:07:55.999Z</time></trkpt><trkpt lat="47.91177156117583" lon="-0.7895068102467822"><ele>88.66666666666667</ele><time>2026-04-26T12:07:57.999Z</time></trkpt><trkpt lat="47.91183718357844" lon="-0.7895779460313673"><ele>88.83333333333334</ele><time>2026-04-26T12:07:59.999Z</time></trkpt><trkpt lat="47.91190373581158" lon="-0.7896482698208499"><ele>89.0</ele><time>2026-04-26T12:08:01.999Z</time></trkpt><trkpt lat="47.91196903373172" lon="-0.7897139154606769"><ele>89.0</ele><time>2026-04-26T12:08:03.999Z</time></trkpt><trkpt lat="47.91203729367452" lon="-0.7897899071585603"><ele>89.0</ele><time>2026-04-26T12:08:05.999Z</time></trkpt><trkpt lat="47.912110969843795" lon="-0.7898684139400721"><ele>89.0</ele><time>2026-04-26T12:08:07.999Z</time></trkpt><trkpt lat="47.912187531166005" lon="-0.7899485032898527"><ele>89.0</ele><time>2026-04-26T12:08:09.999Z</time></trkpt><trkpt lat="47.91226630479878" lon="-0.7900298202251286"><ele>89.0</ele><time>2026-04-26T12:08:11.999Z</time></trkpt><trkpt lat="47.912345964034" lon="-0.7901177290517689"><ele>89.2</ele><time>2026-04-26T12:08:13.999Z</time></trkpt><trkpt lat="47.912426862399606" lon="-0.7902023092983069"><ele>89.4</ele><time>2026-04-26T12:08:15.999Z</time></trkpt><trkpt lat="47.91250744602121" lon="-0.7902861669135463"><ele>89.6</ele><time>2026-04-26T12:08:17.999Z</time></trkpt><trkpt lat="47.91259055081147" lon="-0.7903706041112379"><ele>89.8</ele><time>2026-04-26T12:08:19.999Z</time></trkpt><trkpt lat="47.91267151412368" lon="-0.7904607599835942"><ele>90.0</ele><time>2026-04-26T12:08:21.999Z</time></trkpt><trkpt lat="47.912752477814266" lon="-0.7905457359475195"><ele>90.0</ele><time>2026-04-26T12:08:23.999Z</time></trkpt><trkpt lat="47.91283264378802" lon="-0.7906259629631989"><ele>90.0</ele><time>2026-04-26T12:08:25.999Z</time></trkpt><trkpt lat="47.91291251147724" lon="-0.7907120567772755"><ele>90.0</ele><time>2026-04-26T12:08:27.999Z</time></trkpt><trkpt lat="47.91299340661101" lon="-0.7907969764310502"><ele>90.0</ele><time>2026-04-26T12:08:29.999Z</time></trkpt><trkpt lat="47.91307505299394" lon="-0.790886794512589"><ele>90.0</ele><time>2026-04-26T12:08:32Z</time></trkpt><trkpt lat="47.91316000920928" lon="-0.7909740153736913"><ele>90.2</ele><time>2026-04-26T12:08:34Z</time></trkpt><trkpt lat="47.91324549252006" lon="-0.7910645759760123"><ele>90.4</ele><time>2026-04-26T12:08:36Z</time></trkpt><trkpt lat="47.913330953607584" lon="-0.7911555255178018"><ele>90.6</ele><time>2026-04-26T12:08:38Z</time></trkpt><trkpt lat="47.913416839539515" lon="-0.7912462155390885"><ele>90.8</ele><time>2026-04-26T12:08:40Z</time></trkpt><trkpt lat="47.913503748402164" lon="-0.791338645491973"><ele>91.0</ele><time>2026-04-26T12:08:42Z</time></trkpt><trkpt lat="47.91359344750522" lon="-0.791431967857913"><ele>91.0</ele><time>2026-04-26T12:08:44Z</time></trkpt><trkpt lat="47.91368281113852" lon="-0.791525636506896"><ele>91.0</ele><time>2026-04-26T12:08:46Z</time></trkpt><trkpt lat="47.913775928702194" lon="-0.7916288831559541"><ele>91.0</ele><time>2026-04-26T12:08:48Z</time></trkpt><trkpt lat="47.913870027558126" lon="-0.7917287265557905"><ele>91.0</ele><time>2026-04-26T12:08:50Z</time></trkpt><trkpt lat="47.913970286363394" lon="-0.791832907208569"><ele>91.0</ele><time>2026-04-26T12:08:52Z</time></trkpt><trkpt lat="47.914071051438015" lon="-0.791940106437858"><ele>91.0</ele><time>2026-04-26T12:08:54Z</time></trkpt><trkpt lat="47.91412515829871" lon="-0.7919940124645537"><ele>91.0</ele><time>2026-04-26T12:08:55Z</time></trkpt><trkpt lat="47.91417710863189" lon="-0.7920484650525811"><ele>91.0</ele><time>2026-04-26T12:08:56Z</time></trkpt><trkpt lat="47.91428150653457" lon="-0.7921620604422404"><ele>91.0</ele><time>2026-04-26T12:08:58Z</time></trkpt><trkpt lat="47.914335370590074" lon="-0.7922186771939904"><ele>91.0</ele><time>2026-04-26T12:08:59Z</time></trkpt><trkpt lat="47.91438849609859" lon="-0.7922747789444179"><ele>90.85714285714286</ele><time>2026-04-26T12:09:00Z</time></trkpt><trkpt lat="47.914442213814034" lon="-0.7923370388601343"><ele>90.71428571428572</ele><time>2026-04-26T12:09:01Z</time></trkpt><trkpt lat="47.914496458244486" lon="-0.7923941777150169"><ele>90.57142857142857</ele><time>2026-04-26T12:09:02Z</time></trkpt><trkpt lat="47.91455105667966" lon="-0.7924535185734186"><ele>90.42857142857143</ele><time>2026-04-26T12:09:02.999Z</time></trkpt><trkpt lat="47.91460731761836" lon="-0.7925145472619263"><ele>90.28571428571429</ele><time>2026-04-26T12:09:03.999Z</time></trkpt><trkpt lat="47.91466749511703" lon="-0.7925752614514363"><ele>90.14285714285714</ele><time>2026-04-26T12:09:04.999Z</time></trkpt><trkpt lat="47.9147254942066" lon="-0.7926336126094867"><ele>90.0</ele><time>2026-04-26T12:09:05.999Z</time></trkpt><trkpt lat="47.91478543905104" lon="-0.7926962155260874"><ele>90.0</ele><time>2026-04-26T12:09:06.999Z</time></trkpt><trkpt lat="47.914843534902694" lon="-0.7927599072671808"><ele>90.0</ele><time>2026-04-26T12:09:07.999Z</time></trkpt><trkpt lat="47.9149044511304" lon="-0.792826554505807"><ele>90.0</ele><time>2026-04-26T12:09:08.999Z</time></trkpt><trkpt lat="47.91496564885117" lon="-0.7928937999990742"><ele>90.0</ele><time>2026-04-26T12:09:09.999Z</time></trkpt><trkpt lat="47.91502859959409" lon="-0.7929593166085214"><ele>90.0</ele><time>2026-04-26T12:09:10.999Z</time></trkpt><trkpt lat="47.91509261649" lon="-0.7930249468946392"><ele>90.0</ele><time>2026-04-26T12:09:11.999Z</time></trkpt><trkpt lat="47.91515706712992" lon="-0.793091578837001"><ele>90.0</ele><time>2026-04-26T12:09:12.999Z</time></trkpt><trkpt lat="47.9152200326544" lon="-0.7931579663098569"><ele>90.0</ele><time>2026-04-26T12:09:13.999Z</time></trkpt><trkpt lat="47.91528380798974" lon="-0.7932225666499905"><ele>90.0</ele><time>2026-04-26T12:09:14.999Z</time></trkpt><trkpt lat="47.91534356017672" lon="-0.7932883236350715"><ele>90.0</ele><time>2026-04-26T12:09:15.999Z</time></trkpt><trkpt lat="47.91540581444594" lon="-0.7933551905643244"><ele>90.0</ele><time>2026-04-26T12:09:16.999Z</time></trkpt><trkpt lat="47.91546943938124" lon="-0.7934219180611969"><ele>90.0</ele><time>2026-04-26T12:09:17.999Z</time></trkpt><trkpt lat="47.915529045678724" lon="-0.7934846807823429"><ele>89.71428571428571</ele><time>2026-04-26T12:09:18.999Z</time></trkpt><trkpt lat="47.91558779327504" lon="-0.7935470714958827"><ele>89.42857142857143</ele><time>2026-04-26T12:09:19.999Z</time></trkpt><trkpt lat="47.915648671510155" lon="-0.7936106408542758"><ele>89.14285714285714</ele><time>2026-04-26T12:09:20.999Z</time></trkpt><trkpt lat="47.91570878573177" lon="-0.7936722538411763"><ele>88.85714285714286</ele><time>2026-04-26T12:09:21.999Z</time></trkpt><trkpt lat="47.91576614911399" lon="-0.7937315809512271"><ele>88.57142857142857</ele><time>2026-04-26T12:09:22.999Z</time></trkpt><trkpt lat="47.915821904663545" lon="-0.7937946508113805"><ele>88.28571428571429</ele><time>2026-04-26T12:09:23.999Z</time></trkpt><trkpt lat="47.915876101612554" lon="-0.793854810715549"><ele>88.0</ele><time>2026-04-26T12:09:24.999Z</time></trkpt><trkpt lat="47.9159310949347" lon="-0.7939125147061818"><ele>88.57142857142857</ele><time>2026-04-26T12:09:25.999Z</time></trkpt><trkpt lat="47.91598536946577" lon="-0.7939680148151779"><ele>89.14285714285714</ele><time>2026-04-26T12:09:26.999Z</time></trkpt><trkpt lat="47.91603990328119" lon="-0.7940268071546079"><ele>89.71428571428572</ele><time>2026-04-26T12:09:27.999Z</time></trkpt><trkpt lat="47.91609321187727" lon="-0.7940853845458384"><ele>90.28571428571428</ele><time>2026-04-26T12:09:28.999Z</time></trkpt><trkpt lat="47.91614598465169" lon="-0.7941444624689973"><ele>90.85714285714285</ele><time>2026-04-26T12:09:29.999Z</time></trkpt><trkpt lat="47.916201621628666" lon="-0.7941997516318623"><ele>91.42857142857143</ele><time>2026-04-26T12:09:30.999Z</time></trkpt><trkpt lat="47.91625350236763" lon="-0.7942541895789366"><ele>92.0</ele><time>2026-04-26T12:09:31.999Z</time></trkpt><trkpt lat="47.91630696630793" lon="-0.7943131014933493"><ele>91.85714285714286</ele><time>2026-04-26T12:09:32.999Z</time></trkpt><trkpt lat="47.91636070251667" lon="-0.7943641450246908"><ele>91.71428571428571</ele><time>2026-04-26T12:09:33.999Z</time></trkpt><trkpt lat="47.916413293411914" lon="-0.7944241441623506"><ele>91.57142857142857</ele><time>2026-04-26T12:09:34.999Z</time></trkpt><trkpt lat="47.916467961265" lon="-0.7944801732164056"><ele>91.42857142857143</ele><time>2026-04-26T12:09:35.999Z</time></trkpt><trkpt lat="47.91651932866997" lon="-0.7945361240170152"><ele>91.28571428571428</ele><time>2026-04-26T12:09:36.999Z</time></trkpt><trkpt lat="47.91657166473441" lon="-0.7945906213694102"><ele>91.14285714285714</ele><time>2026-04-26T12:09:37.999Z</time></trkpt><trkpt lat="47.91662545327607" lon="-0.7946415645968148"><ele>91.0</ele><time>2026-04-26T12:09:38.999Z</time></trkpt><trkpt lat="47.91672634903249" lon="-0.794749945851936"><ele>91.28571428571429</ele><time>2026-04-26T12:09:40.999Z</time></trkpt><trkpt lat="47.91677938746255" lon="-0.7948057323231111"><ele>91.57142857142857</ele><time>2026-04-26T12:09:41.999Z</time></trkpt><trkpt lat="47.9168315032319" lon="-0.7948608895176781"><ele>91.85714285714286</ele><time>2026-04-26T12:09:42.999Z</time></trkpt><trkpt lat="47.916882210504724" lon="-0.7949168147703797"><ele>92.14285714285714</ele><time>2026-04-26T12:09:43.999Z</time></trkpt><trkpt lat="47.91698660457974" lon="-0.7950261319000869"><ele>92.42857142857143</ele><time>2026-04-26T12:09:45.999Z</time></trkpt><trkpt lat="47.91703951387403" lon="-0.795081437051599"><ele>92.71428571428572</ele><time>2026-04-26T12:09:46.999Z</time></trkpt><trkpt lat="47.917093576038795" lon="-0.7951334226152517"><ele>93.0</ele><time>2026-04-26T12:09:47.999Z</time></trkpt><trkpt lat="47.91714630319682" lon="-0.7951900319412525"><ele>93.00000000000001</ele><time>2026-04-26T12:09:48.999Z</time></trkpt><trkpt lat="47.91719903590911" lon="-0.7952481670501472"><ele>93.0</ele><time>2026-04-26T12:09:49.999Z</time></trkpt><trkpt lat="47.91725076130274" lon="-0.795304002739927"><ele>93.0</ele><time>2026-04-26T12:09:50.999Z</time></trkpt><trkpt lat="47.91730596960915" lon="-0.7953627183773241"><ele>93.0</ele><time>2026-04-26T12:09:51.999Z</time></trkpt><trkpt lat="47.91736032831788" lon="-0.7954179626938104"><ele>93.0</ele><time>2026-04-26T12:09:52.999Z</time></trkpt><trkpt lat="47.91741546636215" lon="-0.7954711140954164"><ele>93.00000000000001</ele><time>2026-04-26T12:09:53.999Z</time></trkpt><trkpt lat="47.91747012302234" lon="-0.7955269779185634"><ele>93.0</ele><time>2026-04-26T12:09:54.999Z</time></trkpt><trkpt lat="47.91757342303577" lon="-0.7956411863323027"><ele>93.28571428571429</ele><time>2026-04-26T12:09:56.999Z</time></trkpt><trkpt lat="47.917625612594385" lon="-0.7956952384816794"><ele>93.57142857142857</ele><time>2026-04-26T12:09:57.999Z</time></trkpt><trkpt lat="47.91767908864573" lon="-0.7957495748740324"><ele>93.85714285714286</ele><time>2026-04-26T12:09:58.999Z</time></trkpt><trkpt lat="47.91773195503995" lon="-0.7958051057008892"><ele>94.14285714285714</ele><time>2026-04-26T12:09:59.999Z</time></trkpt><trkpt lat="47.91778398195476" lon="-0.7958640658870153"><ele>94.42857142857143</ele><time>2026-04-26T12:10:00.999Z</time></trkpt><trkpt lat="47.91783765172067" lon="-0.7959264092625773"><ele>94.71428571428572</ele><time>2026-04-26T12:10:01.999Z</time></trkpt><trkpt lat="47.917889191680636" lon="-0.7959842251331564"><ele>95.0</ele><time>2026-04-26T12:10:02.999Z</time></trkpt><trkpt lat="47.91794483010516" lon="-0.7960437617809106"><ele>95.0</ele><time>2026-04-26T12:10:03.999Z</time></trkpt><trkpt lat="47.91799998746956" lon="-0.7960989977366455"><ele>95.0</ele><time>2026-04-26T12:10:04.999Z</time></trkpt><trkpt lat="47.918054542576215" lon="-0.7961555748637837"><ele>95.0</ele><time>2026-04-26T12:10:05.999Z</time></trkpt><trkpt lat="47.91810846640535" lon="-0.7962118260235512"><ele>95.0</ele><time>2026-04-26T12:10:06.999Z</time></trkpt><trkpt lat="47.91816064811993" lon="-0.7962701189913672"><ele>95.0</ele><time>2026-04-26T12:10:07.999Z</time></trkpt><trkpt lat="47.918212810441204" lon="-0.7963257561846541"><ele>95.0</ele><time>2026-04-26T12:10:08.999Z</time></trkpt><trkpt lat="47.9182671378914" lon="-0.7963766130343156"><ele>95.0</ele><time>2026-04-26T12:10:09.999Z</time></trkpt><trkpt lat="47.918364961527175" lon="-0.7964786927058258"><ele>95.75</ele><time>2026-04-26T12:10:11.999Z</time></trkpt><trkpt lat="47.91846092979264" lon="-0.796581506921066"><ele>96.5</ele><time>2026-04-26T12:10:13.999Z</time></trkpt><trkpt lat="47.918555917857795" lon="-0.7966819458747781"><ele>97.25</ele><time>2026-04-26T12:10:15.999Z</time></trkpt><trkpt lat="47.91865037086615" lon="-0.7967814704166005"><ele>98.0</ele><time>2026-04-26T12:10:17.999Z</time></trkpt><trkpt lat="47.91874399559267" lon="-0.79688140296736"><ele>98.0</ele><time>2026-04-26T12:10:19.999Z</time></trkpt><trkpt lat="47.91883509137235" lon="-0.7969776633484204"><ele>98.0</ele><time>2026-04-26T12:10:21.999Z</time></trkpt><trkpt lat="47.91892629920077" lon="-0.7970697931965126"><ele>98.0</ele><time>2026-04-26T12:10:23.999Z</time></trkpt><trkpt lat="47.91901332275544" lon="-0.7971658990445575"><ele>98.0</ele><time>2026-04-26T12:10:25.999Z</time></trkpt><trkpt lat="47.91910237440699" lon="-0.7972610294046653"><ele>98.0</ele><time>2026-04-26T12:10:27.999Z</time></trkpt><trkpt lat="47.919189862094036" lon="-0.7973568249517394"><ele>97.75</ele><time>2026-04-26T12:10:29.999Z</time></trkpt><trkpt lat="47.91928126034339" lon="-0.7974512022495527"><ele>97.5</ele><time>2026-04-26T12:10:31.999Z</time></trkpt><trkpt lat="47.91937233702402" lon="-0.7975471637280471"><ele>97.25</ele><time>2026-04-26T12:10:33.999Z</time></trkpt><trkpt lat="47.91946465716214" lon="-0.797653029062098"><ele>97.0</ele><time>2026-04-26T12:10:35.999Z</time></trkpt><trkpt lat="47.91955021320416" lon="-0.797769663933891"><ele>96.75</ele><time>2026-04-26T12:10:38Z</time></trkpt><trkpt lat="47.91963553683382" lon="-0.7978969860317253"><ele>96.5</ele><time>2026-04-26T12:10:40Z</time></trkpt><trkpt lat="47.91971266832984" lon="-0.7980385946530956"><ele>96.25</ele><time>2026-04-26T12:10:42Z</time></trkpt><trkpt lat="47.91981504763865" lon="-0.7981401139659426"><ele>96.0</ele><time>2026-04-26T12:10:44Z</time></trkpt><trkpt lat="47.91993011686933" lon="-0.7982041050773242"><ele>96.0</ele><time>2026-04-26T12:10:46Z</time></trkpt><trkpt lat="47.92004068045369" lon="-0.798259250125215"><ele>96.0</ele><time>2026-04-26T12:10:48Z</time></trkpt><trkpt lat="47.9200991994551" lon="-0.7983038023872664"><ele>96.0</ele><time>2026-04-26T12:10:49Z</time></trkpt><trkpt lat="47.920230838015904" lon="-0.798474338682295"><ele>96.0</ele><time>2026-04-26T12:10:52Z</time></trkpt><trkpt lat="47.92033715339324" lon="-0.7985604393021375"><ele>95.83333333333333</ele><time>2026-04-26T12:10:54Z</time></trkpt><trkpt lat="47.92043284588503" lon="-0.7986633107858069"><ele>95.66666666666667</ele><time>2026-04-26T12:10:56Z</time></trkpt><trkpt lat="47.92053276191592" lon="-0.7987680598257981"><ele>95.5</ele><time>2026-04-26T12:10:58Z</time></trkpt><trkpt lat="47.9205747599772" lon="-0.7988405120386346"><ele>95.33333333333334</ele><time>2026-04-26T12:10:59Z</time></trkpt><trkpt lat="47.92063381429966" lon="-0.7988740001610528"><ele>95.16666666666667</ele><time>2026-04-26T12:11:00Z</time></trkpt><trkpt lat="47.92067635783886" lon="-0.7989475130615337"><ele>95.0</ele><time>2026-04-26T12:11:01Z</time></trkpt><trkpt lat="47.92078335584118" lon="-0.7990307751376348"><ele>95.0</ele><time>2026-04-26T12:11:03Z</time></trkpt><trkpt lat="47.92088432202099" lon="-0.7991367253913361"><ele>95.0</ele><time>2026-04-26T12:11:05Z</time></trkpt><trkpt lat="47.92092485081409" lon="-0.7992094483017506"><ele>95.0</ele><time>2026-04-26T12:11:06Z</time></trkpt><trkpt lat="47.92098442971347" lon="-0.7992418361101125"><ele>95.0</ele><time>2026-04-26T12:11:07Z</time></trkpt><trkpt lat="47.921083020057196" lon="-0.7993453550017876"><ele>95.0</ele><time>2026-04-26T12:11:08.999Z</time></trkpt><trkpt lat="47.921180033621106" lon="-0.7994477392876023"><ele>94.83333333333334</ele><time>2026-04-26T12:11:10.999Z</time></trkpt><trkpt lat="47.92127803243602" lon="-0.7995525649789922"><ele>94.66666666666667</ele><time>2026-04-26T12:11:12.999Z</time></trkpt><trkpt lat="47.921380253314894" lon="-0.7996619081799436"><ele>94.5</ele><time>2026-04-26T12:11:14.999Z</time></trkpt><trkpt lat="47.92143164563527" lon="-0.7997164033356251"><ele>94.33333333333333</ele><time>2026-04-26T12:11:15.999Z</time></trkpt><trkpt lat="47.92148478122665" lon="-0.7997729830722499"><ele>94.16666666666666</ele><time>2026-04-26T12:11:16.999Z</time></trkpt><trkpt lat="47.921539234055594" lon="-0.7998309654359455"><ele>94.0</ele><time>2026-04-26T12:11:17.999Z</time></trkpt><trkpt lat="47.92159742590736" lon="-0.7998929291954852"><ele>94.0</ele><time>2026-04-26T12:11:18.999Z</time></trkpt><trkpt lat="47.92165282353332" lon="-0.7999519183992675"><ele>94.0</ele><time>2026-04-26T12:11:19.999Z</time></trkpt><trkpt lat="47.92170766523646" lon="-0.8000098109070525"><ele>94.0</ele><time>2026-04-26T12:11:20.999Z</time></trkpt><trkpt lat="47.92176394172991" lon="-0.8000689119617718"><ele>94.0</ele><time>2026-04-26T12:11:21.999Z</time></trkpt><trkpt lat="47.92181972292873" lon="-0.8001274549821725"><ele>94.0</ele><time>2026-04-26T12:11:22.999Z</time></trkpt><trkpt lat="47.921876604766275" lon="-0.800187153065114"><ele>94.0</ele><time>2026-04-26T12:11:23.999Z</time></trkpt><trkpt lat="47.921931933919744" lon="-0.8002452216066368"><ele>94.0</ele><time>2026-04-26T12:11:24.999Z</time></trkpt><trkpt lat="47.92198896654013" lon="-0.8003050779975165"><ele>94.0</ele><time>2026-04-26T12:11:25.999Z</time></trkpt><trkpt lat="47.922035732386384" lon="-0.8003837297764133"><ele>94.0</ele><time>2026-04-26T12:11:26.999Z</time></trkpt><trkpt lat="47.92209193959808" lon="-0.800444300304128"><ele>94.0</ele><time>2026-04-26T12:11:27.999Z</time></trkpt><trkpt lat="47.922147283349155" lon="-0.8005027660829608"><ele>94.0</ele><time>2026-04-26T12:11:28.999Z</time></trkpt><trkpt lat="47.92220189058836" lon="-0.8005615255360282"><ele>94.0</ele><time>2026-04-26T12:11:29.999Z</time></trkpt><trkpt lat="47.92225942402039" lon="-0.80061919545658"><ele>94.0</ele><time>2026-04-26T12:11:30.999Z</time></trkpt><trkpt lat="47.92231609965764" lon="-0.8006794991667194"><ele>94.0</ele><time>2026-04-26T12:11:31.999Z</time></trkpt><trkpt lat="47.92237045651649" lon="-0.8007387418073482"><ele>94.0</ele><time>2026-04-26T12:11:32.999Z</time></trkpt><trkpt lat="47.92243504736761" lon="-0.8007807417406759"><ele>94.0</ele><time>2026-04-26T12:11:33.999Z</time></trkpt><trkpt lat="47.922491011063165" lon="-0.8008388966814846"><ele>94.0</ele><time>2026-04-26T12:11:34.999Z</time></trkpt><trkpt lat="47.9225364264135" lon="-0.8009154116659696"><ele>94.0</ele><time>2026-04-26T12:11:35.999Z</time></trkpt><trkpt lat="47.92259636196744" lon="-0.8009634999087354"><ele>94.0</ele><time>2026-04-26T12:11:36.999Z</time></trkpt><trkpt lat="47.92265577780701" lon="-0.8010009453005217"><ele>94.0</ele><time>2026-04-26T12:11:37.999Z</time></trkpt><trkpt lat="47.922716347186835" lon="-0.8010555170516875"><ele>94.0</ele><time>2026-04-26T12:11:38.999Z</time></trkpt><trkpt lat="47.922769555053776" lon="-0.8011203328588091"><ele>94.28571428571428</ele><time>2026-04-26T12:11:39.999Z</time></trkpt><trkpt lat="47.92282470058561" lon="-0.8011820425754406"><ele>94.57142857142857</ele><time>2026-04-26T12:11:40.999Z</time></trkpt><trkpt lat="47.922879705898616" lon="-0.8012415875333495"><ele>94.85714285714286</ele><time>2026-04-26T12:11:41.999Z</time></trkpt><trkpt lat="47.92293353442613" lon="-0.8013014665603957"><ele>95.14285714285714</ele><time>2026-04-26T12:11:42.999Z</time></trkpt><trkpt lat="47.92299126368637" lon="-0.801361520722507"><ele>95.42857142857143</ele><time>2026-04-26T12:11:43.999Z</time></trkpt><trkpt lat="47.92304523944171" lon="-0.8014205130357556"><ele>95.71428571428571</ele><time>2026-04-26T12:11:44.999Z</time></trkpt><trkpt lat="47.92310033946252" lon="-0.8014810612371499"><ele>96.0</ele><time>2026-04-26T12:11:45.999Z</time></trkpt><trkpt lat="47.92315574933012" lon="-0.8015408087153609"><ele>95.99999999999999</ele><time>2026-04-26T12:11:46.999Z</time></trkpt><trkpt lat="47.9232107141612" lon="-0.8015988967506986"><ele>96.0</ele><time>2026-04-26T12:11:47.999Z</time></trkpt><trkpt lat="47.92326251773645" lon="-0.8016571119794318"><ele>96.0</ele><time>2026-04-26T12:11:48.999Z</time></trkpt><trkpt lat="47.92331487563049" lon="-0.8017106700124058"><ele>96.0</ele><time>2026-04-26T12:11:49.999Z</time></trkpt><trkpt lat="47.92336588039485" lon="-0.8017657869003735"><ele>96.0</ele><time>2026-04-26T12:11:50.999Z</time></trkpt><trkpt lat="47.923464217355615" lon="-0.8018782900609629"><ele>95.99999999999999</ele><time>2026-04-26T12:11:52.999Z</time></trkpt><trkpt lat="47.923510432386585" lon="-0.8019464890543162"><ele>96.0</ele><time>2026-04-26T12:11:53.999Z</time></trkpt><trkpt lat="47.923696275065126" lon="-0.8019750985939477"><ele>95.8</ele><time>2026-04-26T12:11:56.999Z</time></trkpt><trkpt lat="47.923816801644335" lon="-0.8019448202170211"><ele>95.6</ele><time>2026-04-26T12:11:58.999Z</time></trkpt><trkpt lat="47.923930670798605" lon="-0.8019074259918879"><ele>95.4</ele><time>2026-04-26T12:12:00.999Z</time></trkpt><trkpt lat="47.924049510653845" lon="-0.8018907949862364"><ele>95.2</ele><time>2026-04-26T12:12:02.999Z</time></trkpt><trkpt lat="47.924100799947006" lon="-0.801969134610389"><ele>95.0</ele><time>2026-04-26T12:12:03.999Z</time></trkpt><trkpt lat="47.92418740075769" lon="-0.8020948123929508"><ele>94.5</ele><time>2026-04-26T12:12:05.999Z</time></trkpt><trkpt lat="47.924276962221434" lon="-0.8022083201440706"><ele>94.0</ele><time>2026-04-26T12:12:07.999Z</time></trkpt><trkpt lat="47.92436423090169" lon="-0.8023311874491358"><ele>93.5</ele><time>2026-04-26T12:12:09.999Z</time></trkpt><trkpt lat="47.924431418804566" lon="-0.8024796571047478"><ele>93.0</ele><time>2026-04-26T12:12:11.999Z</time></trkpt><trkpt lat="47.924502868026515" lon="-0.8026245947925078"><ele>93.00000000000001</ele><time>2026-04-26T12:12:13.999Z</time></trkpt><trkpt lat="47.92456329509303" lon="-0.8026512970093775"><ele>93.0</ele><time>2026-04-26T12:12:14.999Z</time></trkpt><trkpt lat="47.924619215820904" lon="-0.8027053122718162"><ele>93.0</ele><time>2026-04-26T12:12:15.999Z</time></trkpt><trkpt lat="47.92466492014947" lon="-0.802782405568566"><ele>93.0</ele><time>2026-04-26T12:12:16.999Z</time></trkpt><trkpt lat="47.924717835957395" lon="-0.8028453247481854"><ele>93.0</ele><time>2026-04-26T12:12:17.999Z</time></trkpt><trkpt lat="47.92475906958068" lon="-0.8029263413958788"><ele>93.00000000000001</ele><time>2026-04-26T12:12:18.999Z</time></trkpt><trkpt lat="47.92479262736213" lon="-0.8030136427943582"><ele>93.0</ele><time>2026-04-26T12:12:19.999Z</time></trkpt><trkpt lat="47.92482153444812" lon="-0.8031075528056676"><ele>93.0</ele><time>2026-04-26T12:12:20.999Z</time></trkpt><trkpt lat="47.92486701264764" lon="-0.8031866639577787"><ele>93.0</ele><time>2026-04-26T12:12:21.999Z</time></trkpt><trkpt lat="47.92489879708364" lon="-0.8032787152261759"><ele>93.0</ele><time>2026-04-26T12:12:22.999Z</time></trkpt><trkpt lat="47.924931707220225" lon="-0.8033740261734621"><ele>93.0</ele><time>2026-04-26T12:12:23.999Z</time></trkpt><trkpt lat="47.92496307638191" lon="-0.8034693723708677"><ele>93.0</ele><time>2026-04-26T12:12:24.999Z</time></trkpt><trkpt lat="47.925003824900145" lon="-0.8035476750910582"><ele>93.0</ele><time>2026-04-26T12:12:25.999Z</time></trkpt><trkpt lat="47.925159082760736" lon="-0.8034890178803739"><ele>92.16666666666667</ele><time>2026-04-26T12:12:27.999Z</time></trkpt><trkpt lat="47.92522691220518" lon="-0.8034431949968537"><ele>91.33333333333333</ele><time>2026-04-26T12:12:28.999Z</time></trkpt><trkpt lat="47.925297736792736" lon="-0.8034167101963388"><ele>90.5</ele><time>2026-04-26T12:12:29.999Z</time></trkpt><trkpt lat="47.9253714140764" lon="-0.8033930536788394"><ele>89.66666666666666</ele><time>2026-04-26T12:12:30.999Z</time></trkpt><trkpt lat="47.92544859443666" lon="-0.8033715989014609"><ele>88.83333333333333</ele><time>2026-04-26T12:12:31.999Z</time></trkpt><trkpt lat="47.92552302798982" lon="-0.8033436699736639"><ele>88.0</ele><time>2026-04-26T12:12:32.999Z</time></trkpt><trkpt lat="47.92560014979636" lon="-0.8033241444991959"><ele>88.0</ele><time>2026-04-26T12:12:33.999Z</time></trkpt><trkpt lat="47.92567848761447" lon="-0.8033022987380913"><ele>88.0</ele><time>2026-04-26T12:12:34.999Z</time></trkpt><trkpt lat="47.92576043815216" lon="-0.8032810974765524"><ele>88.0</ele><time>2026-04-26T12:12:35.999Z</time></trkpt><trkpt lat="47.92583286749757" lon="-0.8032479944402711"><ele>88.0</ele><time>2026-04-26T12:12:36.999Z</time></trkpt><trkpt lat="47.925910438853194" lon="-0.8032262818541577"><ele>88.0</ele><time>2026-04-26T12:12:37.999Z</time></trkpt><trkpt lat="47.92599432150053" lon="-0.8032031752334847"><ele>88.0</ele><time>2026-04-26T12:12:38.999Z</time></trkpt><trkpt lat="47.926078904619985" lon="-0.803179326900884"><ele>87.66666666666666</ele><time>2026-04-26T12:12:39.999Z</time></trkpt><trkpt lat="47.9261629752683" lon="-0.8031507292451115"><ele>87.33333333333333</ele><time>2026-04-26T12:12:40.999Z</time></trkpt><trkpt lat="47.926246995402025" lon="-0.8031235070203162"><ele>87.0</ele><time>2026-04-26T12:12:41.999Z</time></trkpt><trkpt lat="47.926330601290466" lon="-0.8030944822813028"><ele>86.66666666666667</ele><time>2026-04-26T12:12:42.999Z</time></trkpt><trkpt lat="47.926415198995485" lon="-0.8030672240174336"><ele>86.33333333333334</ele><time>2026-04-26T12:12:43.999Z</time></trkpt><trkpt lat="47.92649690451754" lon="-0.8030402551915262"><ele>86.0</ele><time>2026-04-26T12:12:44.999Z</time></trkpt><trkpt lat="47.92657851688635" lon="-0.8030165165204618"><ele>86.0</ele><time>2026-04-26T12:12:45.999Z</time></trkpt><trkpt lat="47.926660147774925" lon="-0.8029911472848854"><ele>86.0</ele><time>2026-04-26T12:12:46.999Z</time></trkpt><trkpt lat="47.92673390637543" lon="-0.8029400327054194"><ele>86.0</ele><time>2026-04-26T12:12:47.999Z</time></trkpt><trkpt lat="47.92680593908708" lon="-0.8028826637670204"><ele>86.0</ele><time>2026-04-26T12:12:48.999Z</time></trkpt><trkpt lat="47.926889711004534" lon="-0.8028739579026135"><ele>86.0</ele><time>2026-04-26T12:12:49.999Z</time></trkpt><trkpt lat="47.92697077842427" lon="-0.8028570466343011"><ele>86.0</ele><time>2026-04-26T12:12:50.999Z</time></trkpt><trkpt lat="47.92704687841415" lon="-0.8028252621025869"><ele>86.0</ele><time>2026-04-26T12:12:51.999Z</time></trkpt><trkpt lat="47.927124199954314" lon="-0.8028008045536592"><ele>86.0</ele><time>2026-04-26T12:12:52.999Z</time></trkpt><trkpt lat="47.92719748563477" lon="-0.8027751852215902"><ele>86.0</ele><time>2026-04-26T12:12:53.999Z</time></trkpt><trkpt lat="47.92727090982007" lon="-0.8027490359100309"><ele>86.0</ele><time>2026-04-26T12:12:54.999Z</time></trkpt><trkpt lat="47.9274143378147" lon="-0.8027011799111304"><ele>86.0</ele><time>2026-04-26T12:12:56.999Z</time></trkpt><trkpt lat="47.927484892838045" lon="-0.8026780308266377"><ele>86.0</ele><time>2026-04-26T12:12:57.999Z</time></trkpt><trkpt lat="47.92755515313227" lon="-0.8026544821692377"><ele>85.71428571428572</ele><time>2026-04-26T12:12:58.999Z</time></trkpt><trkpt lat="47.927626702796736" lon="-0.8026337194968235"><ele>85.42857142857143</ele><time>2026-04-26T12:12:59.999Z</time></trkpt><trkpt lat="47.927695075319534" lon="-0.8026108618883233"><ele>85.14285714285714</ele><time>2026-04-26T12:13:00.999Z</time></trkpt><trkpt lat="47.92776268938407" lon="-0.8025893183012823"><ele>84.85714285714286</ele><time>2026-04-26T12:13:01.999Z</time></trkpt><trkpt lat="47.92782980664682" lon="-0.8025674893283665"><ele>84.57142857142857</ele><time>2026-04-26T12:13:02.999Z</time></trkpt><trkpt lat="47.92789661863396" lon="-0.8025501440629403"><ele>84.28571428571429</ele><time>2026-04-26T12:13:03.999Z</time></trkpt><trkpt lat="47.927963703936065" lon="-0.8025335606819665"><ele>84.0</ele><time>2026-04-26T12:13:04.999Z</time></trkpt><trkpt lat="47.9280277849139" lon="-0.8025104370655777"><ele>84.0</ele><time>2026-04-26T12:13:05.999Z</time></trkpt><trkpt lat="47.928096041958" lon="-0.8024891576978369"><ele>84.0</ele><time>2026-04-26T12:13:06.999Z</time></trkpt><trkpt lat="47.92816245673647" lon="-0.8024707290907362"><ele>84.0</ele><time>2026-04-26T12:13:07.999Z</time></trkpt><trkpt lat="47.92822900704683" lon="-0.8024536131916455"><ele>84.0</ele><time>2026-04-26T12:13:08.999Z</time></trkpt><trkpt lat="47.92829609229283" lon="-0.8024540488841735"><ele>84.0</ele><time>2026-04-26T12:13:09.999Z</time></trkpt><trkpt lat="47.92836268667458" lon="-0.8024161583572396"><ele>84.0</ele><time>2026-04-26T12:13:10.999Z</time></trkpt><trkpt lat="47.92842789601367" lon="-0.8023985452644398"><ele>84.0</ele><time>2026-04-26T12:13:11.999Z</time></trkpt><trkpt lat="47.928498393723345" lon="-0.8023795037872636"><ele>83.85714285714286</ele><time>2026-04-26T12:13:12.999Z</time></trkpt><trkpt lat="47.9285688408762" lon="-0.8023604759614965"><ele>83.71428571428572</ele><time>2026-04-26T12:13:13.999Z</time></trkpt><trkpt lat="47.92864094997101" lon="-0.8023409992430661"><ele>83.57142857142857</ele><time>2026-04-26T12:13:14.999Z</time></trkpt><trkpt lat="47.92871244568391" lon="-0.802321688198684"><ele>83.42857142857143</ele><time>2026-04-26T12:13:15.999Z</time></trkpt><trkpt lat="47.92878476757761" lon="-0.8023021540015255"><ele>83.28571428571429</ele><time>2026-04-26T12:13:16.999Z</time></trkpt><trkpt lat="47.928856543714005" lon="-0.8022827672118108"><ele>83.14285714285714</ele><time>2026-04-26T12:13:17.999Z</time></trkpt><trkpt lat="47.92892768007722" lon="-0.8022639471895788"><ele>83.0</ele><time>2026-04-26T12:13:18.999Z</time></trkpt><trkpt lat="47.92900145677464" lon="-0.8022446866468399"><ele>83.0</ele><time>2026-04-26T12:13:19.999Z</time></trkpt><trkpt lat="47.929076070416066" lon="-0.8022252075908385"><ele>83.0</ele><time>2026-04-26T12:13:20.999Z</time></trkpt><trkpt lat="47.9291528589869" lon="-0.8022269510049784"><ele>83.0</ele><time>2026-04-26T12:13:21.999Z</time></trkpt><trkpt lat="47.9292269276112" lon="-0.8022004234979684"><ele>83.0</ele><time>2026-04-26T12:13:22.999Z</time></trkpt><trkpt lat="47.929301573516476" lon="-0.8021801216975865"><ele>83.0</ele><time>2026-04-26T12:13:23.999Z</time></trkpt><trkpt lat="47.92937477348721" lon="-0.8021633997497777"><ele>83.0</ele><time>2026-04-26T12:13:24.999Z</time></trkpt><trkpt lat="47.92944881027705" lon="-0.8021400408806217"><ele>82.16666666666667</ele><time>2026-04-26T12:13:25.999Z</time></trkpt><trkpt lat="47.92952349821856" lon="-0.8021181144663742"><ele>81.33333333333334</ele><time>2026-04-26T12:13:26.999Z</time></trkpt><trkpt lat="47.92959935077593" lon="-0.8021016027094907"><ele>80.5</ele><time>2026-04-26T12:13:27.999Z</time></trkpt><trkpt lat="47.92967396420213" lon="-0.8020822856302161"><ele>79.66666666666667</ele><time>2026-04-26T12:13:28.999Z</time></trkpt><trkpt lat="47.92974975946789" lon="-0.8020567897658899"><ele>78.83333333333333</ele><time>2026-04-26T12:13:29.999Z</time></trkpt><trkpt lat="47.92982335957586" lon="-0.802011247477225"><ele>78.0</ele><time>2026-04-26T12:13:30.999Z</time></trkpt><trkpt lat="47.92988239197342" lon="-0.8019304296515096"><ele>78.0</ele><time>2026-04-26T12:13:32Z</time></trkpt><trkpt lat="47.929965661442935" lon="-0.8019189163294791"><ele>78.0</ele><time>2026-04-26T12:13:33Z</time></trkpt><trkpt lat="47.93004697063133" lon="-0.8019179957281697"><ele>78.0</ele><time>2026-04-26T12:13:34Z</time></trkpt><trkpt lat="47.93012434429142" lon="-0.801944500622271"><ele>78.0</ele><time>2026-04-26T12:13:35Z</time></trkpt><trkpt lat="47.930206972209454" lon="-0.8019454194807659"><ele>78.0</ele><time>2026-04-26T12:13:36Z</time></trkpt><trkpt lat="47.93028958341516" lon="-0.8019298098570667"><ele>78.0</ele><time>2026-04-26T12:13:37Z</time></trkpt><trkpt lat="47.93037475922144" lon="-0.8019071107199679"><ele>77.2</ele><time>2026-04-26T12:13:38Z</time></trkpt><trkpt lat="47.93046019044146" lon="-0.8018800617343893"><ele>76.4</ele><time>2026-04-26T12:13:39Z</time></trkpt><trkpt lat="47.93054989714926" lon="-0.8018556904512271"><ele>75.60000000000001</ele><time>2026-04-26T12:13:40Z</time></trkpt><trkpt lat="47.93064096940553" lon="-0.8018296192157709"><ele>74.8</ele><time>2026-04-26T12:13:41Z</time></trkpt><trkpt lat="47.93073409098583" lon="-0.801797816575357"><ele>74.0</ele><time>2026-04-26T12:13:42Z</time></trkpt><trkpt lat="47.93092908493288" lon="-0.8017381153140329"><ele>73.4</ele><time>2026-04-26T12:13:44Z</time></trkpt><trkpt lat="47.931028957799086" lon="-0.8017104956376571"><ele>72.80000000000001</ele><time>2026-04-26T12:13:45Z</time></trkpt><trkpt lat="47.93113103470883" lon="-0.8016854012812452"><ele>72.19999999999999</ele><time>2026-04-26T12:13:46Z</time></trkpt><trkpt lat="47.9312303943353" lon="-0.8016619713765883"><ele>71.6</ele><time>2026-04-26T12:13:47Z</time></trkpt><trkpt lat="47.931327773321925" lon="-0.8016391586861112"><ele>71.0</ele><time>2026-04-26T12:13:48Z</time></trkpt><trkpt lat="47.93142112019229" lon="-0.8016133995607634"><ele>71.0</ele><time>2026-04-26T12:13:49Z</time></trkpt><trkpt lat="47.931513757677614" lon="-0.8015874468352578"><ele>71.0</ele><time>2026-04-26T12:13:50Z</time></trkpt><trkpt lat="47.93160469275579" lon="-0.801557517723563"><ele>71.0</ele><time>2026-04-26T12:13:51Z</time></trkpt><trkpt lat="47.931695629978094" lon="-0.8015342250626681"><ele>71.0</ele><time>2026-04-26T12:13:52Z</time></trkpt><trkpt lat="47.931863668035824" lon="-0.8014940064410447"><ele>71.83333333333334</ele><time>2026-04-26T12:13:54Z</time></trkpt><trkpt lat="47.93193985769607" lon="-0.8014758412872994"><ele>72.66666666666667</ele><time>2026-04-26T12:13:55Z</time></trkpt><trkpt lat="47.93200610162772" lon="-0.8014552910490884"><ele>73.5</ele><time>2026-04-26T12:13:56Z</time></trkpt><trkpt lat="47.93207404248695" lon="-0.8014340790645431"><ele>74.33333333333333</ele><time>2026-04-26T12:13:57Z</time></trkpt><trkpt lat="47.93213871475259" lon="-0.8014136912825762"><ele>75.16666666666666</ele><time>2026-04-26T12:13:58Z</time></trkpt><trkpt lat="47.93225359970852" lon="-0.801377117766834"><ele>76.0</ele><time>2026-04-26T12:14:00Z</time></trkpt><trkpt lat="47.93235556983812" lon="-0.8013456599020246"><ele>76.0</ele><time>2026-04-26T12:14:02Z</time></trkpt><trkpt lat="47.93245337209106" lon="-0.8013293945571431"><ele>76.0</ele><time>2026-04-26T12:14:04Z</time></trkpt><trkpt lat="47.93254076921117" lon="-0.8013003755428537"><ele>76.0</ele><time>2026-04-26T12:14:06Z</time></trkpt><trkpt lat="47.932624691043266" lon="-0.8012774395840238"><ele>76.0</ele><time>2026-04-26T12:14:08Z</time></trkpt><trkpt lat="47.93270601898048" lon="-0.8012557726037902"><ele>76.0</ele><time>2026-04-26T12:14:10Z</time></trkpt><trkpt lat="47.932776601211046" lon="-0.8012329387710252"><ele>76.0</ele><time>2026-04-26T12:14:12Z</time></trkpt><trkpt lat="47.93286703286161" lon="-0.8012116981369517"><ele>76.57142857142857</ele><time>2026-04-26T12:14:15Z</time></trkpt><trkpt lat="47.932929679001475" lon="-0.8011976626181732"><ele>77.14285714285715</ele><time>2026-04-26T12:14:17Z</time></trkpt><trkpt lat="47.93299490886759" lon="-0.8011800644491173"><ele>77.71428571428572</ele><time>2026-04-26T12:14:19Z</time></trkpt><trkpt lat="47.933059713903305" lon="-0.8011634862190123"><ele>78.28571428571428</ele><time>2026-04-26T12:14:21Z</time></trkpt><trkpt lat="47.933123769990935" lon="-0.8011466759850528"><ele>78.85714285714286</ele><time>2026-04-26T12:14:23Z</time></trkpt><trkpt lat="47.93318633353288" lon="-0.8011293972216511"><ele>79.42857142857143</ele><time>2026-04-26T12:14:25Z</time></trkpt><trkpt lat="47.93327799500727" lon="-0.8011054507017092"><ele>80.0</ele><time>2026-04-26T12:14:28Z</time></trkpt><trkpt lat="47.93336829226205" lon="-0.8010786533118922"><ele>80.8</ele><time>2026-04-26T12:14:30.999Z</time></trkpt><trkpt lat="47.93346142780712" lon="-0.8010565806127211"><ele>81.6</ele><time>2026-04-26T12:14:33.999Z</time></trkpt><trkpt lat="47.933552185207084" lon="-0.8010319524577744"><ele>82.4</ele><time>2026-04-26T12:14:36.999Z</time></trkpt><trkpt lat="47.93363998418456" lon="-0.8010067537942137"><ele>83.2</ele><time>2026-04-26T12:14:39.999Z</time></trkpt><trkpt lat="47.933727035777" lon="-0.8009831777404007"><ele>84.0</ele><time>2026-04-26T12:14:42.999Z</time></trkpt><trkpt lat="47.93381534451541" lon="-0.8009630566185227"><ele>84.0</ele><time>2026-04-26T12:14:45.999Z</time></trkpt><trkpt lat="47.933903107733194" lon="-0.8009439312641305"><ele>84.0</ele><time>2026-04-26T12:14:49Z</time></trkpt><trkpt lat="47.93396664029118" lon="-0.8009227568340812"><ele>84.0</ele><time>2026-04-26T12:14:51Z</time></trkpt><trkpt lat="47.93405868606497" lon="-0.8008964648113951"><ele>84.0</ele><time>2026-04-26T12:14:54Z</time></trkpt><trkpt lat="47.93415260629126" lon="-0.800873985146615"><ele>84.0</ele><time>2026-04-26T12:14:57Z</time></trkpt><trkpt lat="47.9342171195749" lon="-0.8008567316102845"><ele>84.0</ele><time>2026-04-26T12:14:59Z</time></trkpt><trkpt lat="47.93427940892059" lon="-0.8008363868795337"><ele>84.42857142857143</ele><time>2026-04-26T12:15:01Z</time></trkpt><trkpt lat="47.934341596650924" lon="-0.8008204201448965"><ele>84.85714285714286</ele><time>2026-04-26T12:15:03Z</time></trkpt><trkpt lat="47.93443306044601" lon="-0.8007958689073297"><ele>85.28571428571428</ele><time>2026-04-26T12:15:06Z</time></trkpt><trkpt lat="47.93449549698965" lon="-0.8007826701157771"><ele>85.71428571428572</ele><time>2026-04-26T12:15:08Z</time></trkpt><trkpt lat="47.934557361596404" lon="-0.8007640887128993"><ele>86.14285714285714</ele><time>2026-04-26T12:15:10Z</time></trkpt><trkpt lat="47.93462156491066" lon="-0.8007493573779824"><ele>86.57142857142857</ele><time>2026-04-26T12:15:12Z</time></trkpt><trkpt lat="47.93468489159033" lon="-0.8007321164559636"><ele>87.0</ele><time>2026-04-26T12:15:14Z</time></trkpt><trkpt lat="47.934749373626275" lon="-0.800715537886191"><ele>87.0</ele><time>2026-04-26T12:15:16Z</time></trkpt><trkpt lat="47.934814393795946" lon="-0.8006955352986441"><ele>87.0</ele><time>2026-04-26T12:15:18Z</time></trkpt><trkpt lat="47.93488083680408" lon="-0.8006774180179218"><ele>87.0</ele><time>2026-04-26T12:15:20Z</time></trkpt><trkpt lat="47.934947808322406" lon="-0.8006602930425719"><ele>87.0</ele><time>2026-04-26T12:15:22Z</time></trkpt><trkpt lat="47.935016790001406" lon="-0.8006440922290715"><ele>87.0</ele><time>2026-04-26T12:15:24Z</time></trkpt><trkpt lat="47.935090176667835" lon="-0.8006190636132764"><ele>87.0</ele><time>2026-04-26T12:15:26Z</time></trkpt><trkpt lat="47.93516866728142" lon="-0.8006007778977211"><ele>87.0</ele><time>2026-04-26T12:15:28Z</time></trkpt><trkpt lat="47.935250889677896" lon="-0.8005760375869905"><ele>87.0</ele><time>2026-04-26T12:15:30Z</time></trkpt><trkpt lat="47.93534233568249" lon="-0.8005537104295251"><ele>87.0</ele><time>2026-04-26T12:15:32Z</time></trkpt><trkpt lat="47.93544197914139" lon="-0.8005276588432236"><ele>87.0</ele><time>2026-04-26T12:15:34Z</time></trkpt><trkpt lat="47.93554945803702" lon="-0.8005009810085693"><ele>87.0</ele><time>2026-04-26T12:15:36Z</time></trkpt><trkpt lat="47.93566376094588" lon="-0.8004732161093373"><ele>87.0</ele><time>2026-04-26T12:15:38Z</time></trkpt><trkpt lat="47.935786949424006" lon="-0.8004409350762431"><ele>87.0</ele><time>2026-04-26T12:15:40Z</time></trkpt><trkpt lat="47.93585154027343" lon="-0.8004202281832917"><ele>87.0</ele><time>2026-04-26T12:15:41Z</time></trkpt><trkpt lat="47.935918260017054" lon="-0.8003988406067971"><ele>87.0</ele><time>2026-04-26T12:15:42Z</time></trkpt><trkpt lat="47.93598697029953" lon="-0.8003799414457057"><ele>87.0</ele><time>2026-04-26T12:15:43Z</time></trkpt><trkpt lat="47.936057426959074" lon="-0.8003626491186061"><ele>87.0</ele><time>2026-04-26T12:15:44Z</time></trkpt><trkpt lat="47.936130357364654" lon="-0.8003448956769206"><ele>87.0</ele><time>2026-04-26T12:15:45Z</time></trkpt><trkpt lat="47.936205297411774" lon="-0.8003232272475663"><ele>87.0</ele><time>2026-04-26T12:15:46Z</time></trkpt><trkpt lat="47.936280159152744" lon="-0.8002988931574656"><ele>86.5</ele><time>2026-04-26T12:15:47Z</time></trkpt><trkpt lat="47.93635802561546" lon="-0.8002830961092227"><ele>86.0</ele><time>2026-04-26T12:15:48Z</time></trkpt><trkpt lat="47.93643668422417" lon="-0.8002684628318568"><ele>85.5</ele><time>2026-04-26T12:15:49Z</time></trkpt><trkpt lat="47.93651758699209" lon="-0.8002478988553777"><ele>85.0</ele><time>2026-04-26T12:15:50Z</time></trkpt><trkpt lat="47.93659834965041" lon="-0.800221088302494"><ele>84.5</ele><time>2026-04-26T12:15:51Z</time></trkpt><trkpt lat="47.93668345670889" lon="-0.8001952384908348"><ele>84.0</ele><time>2026-04-26T12:15:52Z</time></trkpt><trkpt lat="47.93676975954132" lon="-0.8001717083957303"><ele>82.8</ele><time>2026-04-26T12:15:53Z</time></trkpt><trkpt lat="47.93685926983021" lon="-0.800148176824429"><ele>81.60000000000001</ele><time>2026-04-26T12:15:54Z</time></trkpt><trkpt lat="47.936948595676036" lon="-0.8001250629546125"><ele>80.4</ele><time>2026-04-26T12:15:55Z</time></trkpt><trkpt lat="47.93703922036117" lon="-0.8001000046354696"><ele>79.2</ele><time>2026-04-26T12:15:56Z</time></trkpt><trkpt lat="47.93713008024279" lon="-0.8000781693762156"><ele>78.0</ele><time>2026-04-26T12:15:57Z</time></trkpt><trkpt lat="47.93721948412558" lon="-0.8000576346353373"><ele>78.0</ele><time>2026-04-26T12:15:58Z</time></trkpt><trkpt lat="47.93730816437509" lon="-0.8000353515499978"><ele>78.0</ele><time>2026-04-26T12:15:59Z</time></trkpt><trkpt lat="47.93739547618776" lon="-0.8000093811287446"><ele>78.0</ele><time>2026-04-26T12:16:00Z</time></trkpt><trkpt lat="47.93747991033261" lon="-0.799985046746324"><ele>78.0</ele><time>2026-04-26T12:16:01Z</time></trkpt><trkpt lat="47.937561884436015" lon="-0.7999650009065985"><ele>78.0</ele><time>2026-04-26T12:16:02Z</time></trkpt><trkpt lat="47.937641924141154" lon="-0.7999428087101301"><ele>78.0</ele><time>2026-04-26T12:16:03Z</time></trkpt><trkpt lat="47.937721955141875" lon="-0.7999205411311325"><ele>78.16666666666667</ele><time>2026-04-26T12:16:04Z</time></trkpt><trkpt lat="47.93780083027145" lon="-0.7998981349828027"><ele>78.33333333333333</ele><time>2026-04-26T12:16:05Z</time></trkpt><trkpt lat="47.93787668225728" lon="-0.7998782454779918"><ele>78.5</ele><time>2026-04-26T12:16:06Z</time></trkpt><trkpt lat="47.93795257452092" lon="-0.7998572871986234"><ele>78.66666666666666</ele><time>2026-04-26T12:16:07Z</time></trkpt><trkpt lat="47.93802824752179" lon="-0.7998402102248153"><ele>78.83333333333333</ele><time>2026-04-26T12:16:08Z</time></trkpt><trkpt lat="47.93810433770143" lon="-0.7998226173352971"><ele>79.0</ele><time>2026-04-26T12:16:09Z</time></trkpt><trkpt lat="47.938176591617726" lon="-0.7998033767878854"><ele>79.00000000000001</ele><time>2026-04-26T12:16:10Z</time></trkpt><trkpt lat="47.93824787793252" lon="-0.7997817713610905"><ele>79.0</ele><time>2026-04-26T12:16:11Z</time></trkpt><trkpt lat="47.93831672213464" lon="-0.7997606435499663"><ele>79.0</ele><time>2026-04-26T12:16:12Z</time></trkpt><trkpt lat="47.93838455495691" lon="-0.7997435999375262"><ele>79.0</ele><time>2026-04-26T12:16:13Z</time></trkpt><trkpt lat="47.93845356108301" lon="-0.7997279849663557"><ele>79.0</ele><time>2026-04-26T12:16:14Z</time></trkpt><trkpt lat="47.93851922392418" lon="-0.7997133762629982"><ele>79.00000000000001</ele><time>2026-04-26T12:16:15Z</time></trkpt><trkpt lat="47.9385839660269" lon="-0.7996957550132321"><ele>79.0</ele><time>2026-04-26T12:16:16Z</time></trkpt><trkpt lat="47.938647651106244" lon="-0.7996759579550426"><ele>79.4</ele><time>2026-04-26T12:16:17Z</time></trkpt><trkpt lat="47.93870967974052" lon="-0.7996592278206759"><ele>79.80000000000001</ele><time>2026-04-26T12:16:18Z</time></trkpt><trkpt lat="47.93882728243182" lon="-0.7996283559058266"><ele>80.19999999999999</ele><time>2026-04-26T12:16:20Z</time></trkpt><trkpt lat="47.93893454406499" lon="-0.7995991840940085"><ele>80.6</ele><time>2026-04-26T12:16:22Z</time></trkpt><trkpt lat="47.939023608496704" lon="-0.7995768196511579"><ele>81.0</ele><time>2026-04-26T12:16:24Z</time></trkpt><trkpt lat="47.93910118276714" lon="-0.7995524931615688"><ele>81.0</ele><time>2026-04-26T12:16:26Z</time></trkpt><trkpt lat="47.93916982188038" lon="-0.799534363506128"><ele>81.0</ele><time>2026-04-26T12:16:28Z</time></trkpt><trkpt lat="47.939237039684215" lon="-0.7995193962209706"><ele>81.0</ele><time>2026-04-26T12:16:30Z</time></trkpt><trkpt lat="47.93930406827874" lon="-0.799501719650901"><ele>81.0</ele><time>2026-04-26T12:16:32Z</time></trkpt><trkpt lat="47.93936715574068" lon="-0.7994809577147085"><ele>81.0</ele><time>2026-04-26T12:16:34Z</time></trkpt><trkpt lat="47.93945958801711" lon="-0.7994581123169997"><ele>81.0</ele><time>2026-04-26T12:16:37Z</time></trkpt><trkpt lat="47.939522923223144" lon="-0.7994421575117665"><ele>81.0</ele><time>2026-04-26T12:16:39Z</time></trkpt><trkpt lat="47.93958835936071" lon="-0.7994215507180721"><ele>81.57142857142857</ele><time>2026-04-26T12:16:41Z</time></trkpt><trkpt lat="47.93965530239962" lon="-0.7994039041890657"><ele>82.14285714285714</ele><time>2026-04-26T12:16:43Z</time></trkpt><trkpt lat="47.9397195468506" lon="-0.7993856600194464"><ele>82.71428571428572</ele><time>2026-04-26T12:16:45Z</time></trkpt><trkpt lat="47.93978379373626" lon="-0.7993681125502381"><ele>83.28571428571428</ele><time>2026-04-26T12:16:47Z</time></trkpt><trkpt lat="47.93987699748615" lon="-0.7993493221884249"><ele>83.85714285714285</ele><time>2026-04-26T12:16:50Z</time></trkpt><trkpt lat="47.93993866265968" lon="-0.7993257741049961"><ele>84.42857142857143</ele><time>2026-04-26T12:16:52Z</time></trkpt><trkpt lat="47.94000127790425" lon="-0.7993108478135454"><ele>85.0</ele><time>2026-04-26T12:16:54Z</time></trkpt><trkpt lat="47.94006330487583" lon="-0.7992937648689485"><ele>86.5</ele><time>2026-04-26T12:16:56.001Z</time></trkpt><trkpt lat="47.9401563330367" lon="-0.7992693958095635"><ele>88.0</ele><time>2026-04-26T12:16:59Z</time></trkpt><trkpt lat="47.94021942135943" lon="-0.7992495591175596"><ele>89.5</ele><time>2026-04-26T12:17:01Z</time></trkpt><trkpt lat="47.94028177813641" lon="-0.7992356951196586"><ele>91.0</ele><time>2026-04-26T12:17:03Z</time></trkpt><trkpt lat="47.9403729752118" lon="-0.7992124486337775"><ele>92.5</ele><time>2026-04-26T12:17:06Z</time></trkpt><trkpt lat="47.94046160854458" lon="-0.7991877681445477"><ele>94.0</ele><time>2026-04-26T12:17:09Z</time></trkpt><trkpt lat="47.94055229679711" lon="-0.799163654916895"><ele>94.0</ele><time>2026-04-26T12:17:12Z</time></trkpt><trkpt lat="47.94063968680975" lon="-0.7991388270335237"><ele>94.0</ele><time>2026-04-26T12:17:15Z</time></trkpt><trkpt lat="47.94072943614207" lon="-0.7991152967209071"><ele>94.0</ele><time>2026-04-26T12:17:18Z</time></trkpt><trkpt lat="47.94081857498368" lon="-0.7990859200342252"><ele>94.0</ele><time>2026-04-26T12:17:21Z</time></trkpt><trkpt lat="47.940908486869404" lon="-0.7990615813517429"><ele>94.0</ele><time>2026-04-26T12:17:24Z</time></trkpt><trkpt lat="47.94099841724343" lon="-0.7990312997592973"><ele>94.33333333333333</ele><time>2026-04-26T12:17:27Z</time></trkpt><trkpt lat="47.94108526441041" lon="-0.7989975506425646"><ele>94.66666666666666</ele><time>2026-04-26T12:17:30Z</time></trkpt><trkpt lat="47.941171014088724" lon="-0.7989555729049991"><ele>95.0</ele><time>2026-04-26T12:17:33Z</time></trkpt><trkpt lat="47.941257424978375" lon="-0.7989224129698539"><ele>95.33333333333333</ele><time>2026-04-26T12:17:36Z</time></trkpt><trkpt lat="47.94134278038621" lon="-0.7988813333310869"><ele>95.66666666666667</ele><time>2026-04-26T12:17:39Z</time></trkpt><trkpt lat="47.94140348791747" lon="-0.7988532568940746"><ele>96.0</ele><time>2026-04-26T12:17:41Z</time></trkpt><trkpt lat="47.94146358077398" lon="-0.7988197749267111"><ele>95.99999999999999</ele><time>2026-04-26T12:17:43Z</time></trkpt><trkpt lat="47.94152636802716" lon="-0.7987959784068839"><ele>96.0</ele><time>2026-04-26T12:17:45Z</time></trkpt><trkpt lat="47.94158798280216" lon="-0.798766948383903"><ele>96.0</ele><time>2026-04-26T12:17:47Z</time></trkpt><trkpt lat="47.94164856909586" lon="-0.7987393845001362"><ele>96.0</ele><time>2026-04-26T12:17:49Z</time></trkpt><trkpt lat="47.941712984378164" lon="-0.7987108736982443"><ele>96.0</ele><time>2026-04-26T12:17:51Z</time></trkpt><trkpt lat="47.94177684326835" lon="-0.7986874201645948"><ele>95.99999999999999</ele><time>2026-04-26T12:17:53Z</time></trkpt><trkpt lat="47.94183854463218" lon="-0.7986552585709431"><ele>96.0</ele><time>2026-04-26T12:17:55Z</time></trkpt><trkpt lat="47.94190346384104" lon="-0.798626123288748"><ele>95.99999999999999</ele><time>2026-04-26T12:17:57Z</time></trkpt><trkpt lat="47.941969013853466" lon="-0.798594596380989"><ele>96.0</ele><time>2026-04-26T12:17:59Z</time></trkpt><trkpt lat="47.942036192948336" lon="-0.7985670513141616"><ele>96.0</ele><time>2026-04-26T12:18:01Z</time></trkpt><trkpt lat="47.942104869959174" lon="-0.7985370641319417"><ele>96.0</ele><time>2026-04-26T12:18:03Z</time></trkpt><trkpt lat="47.9421772492153" lon="-0.798503168449748"><ele>96.0</ele><time>2026-04-26T12:18:05Z</time></trkpt><trkpt lat="47.94225209545867" lon="-0.7984694794909768"><ele>95.99999999999999</ele><time>2026-04-26T12:18:07Z</time></trkpt><trkpt lat="47.94233376788922" lon="-0.798440484986454"><ele>96.0</ele><time>2026-04-26T12:18:09Z</time></trkpt><trkpt lat="47.942423012456565" lon="-0.7984020725048944"><ele>96.0</ele><time>2026-04-26T12:18:11Z</time></trkpt><trkpt lat="47.94251748863182" lon="-0.7983520708390363"><ele>96.0</ele><time>2026-04-26T12:18:13Z</time></trkpt><trkpt lat="47.94262432306969" lon="-0.7983041786285643"><ele>96.0</ele><time>2026-04-26T12:18:15Z</time></trkpt><trkpt lat="47.94274108616461" lon="-0.798250378464579"><ele>96.0</ele><time>2026-04-26T12:18:17Z</time></trkpt><trkpt lat="47.94280584595513" lon="-0.7982213643947333"><ele>96.0</ele><time>2026-04-26T12:18:18Z</time></trkpt><trkpt lat="47.942870324332695" lon="-0.7981931878529078"><ele>95.33333333333333</ele><time>2026-04-26T12:18:19Z</time></trkpt><trkpt lat="47.94293984079806" lon="-0.7981628209023051"><ele>94.66666666666667</ele><time>2026-04-26T12:18:20Z</time></trkpt><trkpt lat="47.943010886966405" lon="-0.7981299583878564"><ele>94.0</ele><time>2026-04-26T12:18:21Z</time></trkpt><trkpt lat="47.94308493847006" lon="-0.7980960238038887"><ele>93.33333333333334</ele><time>2026-04-26T12:18:22Z</time></trkpt><trkpt lat="47.94316048187762" lon="-0.7980623528531602"><ele>92.66666666666667</ele><time>2026-04-26T12:18:23Z</time></trkpt><trkpt lat="47.94323836637433" lon="-0.7980263498517731"><ele>92.0</ele><time>2026-04-26T12:18:24Z</time></trkpt><trkpt lat="47.94332067690966" lon="-0.797991792131511"><ele>91.33333333333334</ele><time>2026-04-26T12:18:25Z</time></trkpt><trkpt lat="47.94340349723715" lon="-0.7979534556295752"><ele>90.66666666666667</ele><time>2026-04-26T12:18:26Z</time></trkpt><trkpt lat="47.943487384949364" lon="-0.7979148956102018"><ele>90.0</ele><time>2026-04-26T12:18:27Z</time></trkpt><trkpt lat="47.943573431218596" lon="-0.7978780664689391"><ele>89.33333333333333</ele><time>2026-04-26T12:18:28Z</time></trkpt><trkpt lat="47.94366036560713" lon="-0.7978390809266318"><ele>88.66666666666666</ele><time>2026-04-26T12:18:29Z</time></trkpt><trkpt lat="47.9437483325651" lon="-0.7978024164307445"><ele>88.0</ele><time>2026-04-26T12:18:30Z</time></trkpt><trkpt lat="47.94383658363237" lon="-0.7977623557207045"><ele>88.0</ele><time>2026-04-26T12:18:31Z</time></trkpt><trkpt lat="47.943921924159426" lon="-0.7977219883354666"><ele>88.0</ele><time>2026-04-26T12:18:32Z</time></trkpt><trkpt lat="47.94400538665009" lon="-0.7976891750130556"><ele>88.0</ele><time>2026-04-26T12:18:33Z</time></trkpt><trkpt lat="47.94408815009867" lon="-0.7976529626479263"><ele>88.0</ele><time>2026-04-26T12:18:34Z</time></trkpt><trkpt lat="47.94416746002305" lon="-0.7976143670640748"><ele>88.0</ele><time>2026-04-26T12:18:35Z</time></trkpt><trkpt lat="47.9442461360255" lon="-0.7975825239170469"><ele>88.0</ele><time>2026-04-26T12:18:36Z</time></trkpt><trkpt lat="47.944321668565614" lon="-0.797548190827238"><ele>88.71428571428572</ele><time>2026-04-26T12:18:37Z</time></trkpt><trkpt lat="47.94439321286045" lon="-0.7975112340829832"><ele>89.42857142857143</ele><time>2026-04-26T12:18:38Z</time></trkpt><trkpt lat="47.94446455228972" lon="-0.7974805572361816"><ele>90.14285714285714</ele><time>2026-04-26T12:18:39Z</time></trkpt><trkpt lat="47.94453513451231" lon="-0.7974491198374329"><ele>90.85714285714286</ele><time>2026-04-26T12:18:40Z</time></trkpt><trkpt lat="47.944603223008535" lon="-0.797419128135883"><ele>91.57142857142857</ele><time>2026-04-26T12:18:41Z</time></trkpt><trkpt lat="47.94467132632737" lon="-0.7973915881808061"><ele>92.28571428571429</ele><time>2026-04-26T12:18:42Z</time></trkpt><trkpt lat="47.94473586827504" lon="-0.7973587729027823"><ele>93.0</ele><time>2026-04-26T12:18:43Z</time></trkpt><trkpt lat="47.944801389635664" lon="-0.7973290371763827"><ele>93.00000000000001</ele><time>2026-04-26T12:18:44Z</time></trkpt><trkpt lat="47.944867411640985" lon="-0.7972982423462115"><ele>93.0</ele><time>2026-04-26T12:18:45Z</time></trkpt><trkpt lat="47.94493703405807" lon="-0.7972649184749991"><ele>93.0</ele><time>2026-04-26T12:18:46Z</time></trkpt><trkpt lat="47.94500662299324" lon="-0.7972346435347368"><ele>93.0</ele><time>2026-04-26T12:18:47Z</time></trkpt><trkpt lat="47.945074904098256" lon="-0.7972032831625494"><ele>93.0</ele><time>2026-04-26T12:18:48Z</time></trkpt><trkpt lat="47.9451459024654" lon="-0.7971727309437852"><ele>93.00000000000001</ele><time>2026-04-26T12:18:49Z</time></trkpt><trkpt lat="47.94521788063045" lon="-0.797142927814484"><ele>93.0</ele><time>2026-04-26T12:18:50Z</time></trkpt><trkpt lat="47.94528764462893" lon="-0.7971100706289318"><ele>93.14285714285715</ele><time>2026-04-26T12:18:51Z</time></trkpt><trkpt lat="47.94535957084824" lon="-0.7970778984620146"><ele>93.28571428571429</ele><time>2026-04-26T12:18:52Z</time></trkpt><trkpt lat="47.945431940158" lon="-0.7970464643213945"><ele>93.42857142857143</ele><time>2026-04-26T12:18:53Z</time></trkpt><trkpt lat="47.945503972065204" lon="-0.7970147594246145"><ele>93.57142857142858</ele><time>2026-04-26T12:18:54Z</time></trkpt><trkpt lat="47.94557501193904" lon="-0.7969846929390815"><ele>93.71428571428571</ele><time>2026-04-26T12:18:55Z</time></trkpt><trkpt lat="47.94564734020825" lon="-0.7969540042704258"><ele>93.85714285714286</ele><time>2026-04-26T12:18:56Z</time></trkpt><trkpt lat="47.9457190306573" lon="-0.7969216091679908"><ele>94.0</ele><time>2026-04-26T12:18:57Z</time></trkpt><trkpt lat="47.945789020247965" lon="-0.7968910314934641"><ele>94.0</ele><time>2026-04-26T12:18:58Z</time></trkpt><trkpt lat="47.945860326967015" lon="-0.7968586498157134"><ele>94.0</ele><time>2026-04-26T12:18:59Z</time></trkpt><trkpt lat="47.94593142560107" lon="-0.7968270556466044"><ele>94.0</ele><time>2026-04-26T12:19:00.001Z</time></trkpt><trkpt lat="47.94600075383759" lon="-0.7967927530565231"><ele>94.0</ele><time>2026-04-26T12:19:01.001Z</time></trkpt><trkpt lat="47.94607021168681" lon="-0.7967630787765032"><ele>94.0</ele><time>2026-04-26T12:19:02.001Z</time></trkpt><trkpt lat="47.94613970353418" lon="-0.7967369710896781"><ele>94.0</ele><time>2026-04-26T12:19:03.001Z</time></trkpt><trkpt lat="47.9462073992184" lon="-0.7967073383594769"><ele>94.0</ele><time>2026-04-26T12:19:04.001Z</time></trkpt><trkpt lat="47.94627430560693" lon="-0.7966758815502333"><ele>94.28571428571428</ele><time>2026-04-26T12:19:05.001Z</time></trkpt><trkpt lat="47.946341083027804" lon="-0.7966464453201437"><ele>94.57142857142857</ele><time>2026-04-26T12:19:06.001Z</time></trkpt><trkpt lat="47.94640664171544" lon="-0.7966168635119883"><ele>94.85714285714286</ele><time>2026-04-26T12:19:07.001Z</time></trkpt><trkpt lat="47.946471187902496" lon="-0.7965872339831911"><ele>95.14285714285714</ele><time>2026-04-26T12:19:08.001Z</time></trkpt><trkpt lat="47.94653604033336" lon="-0.796558966477485"><ele>95.42857142857143</ele><time>2026-04-26T12:19:09.001Z</time></trkpt><trkpt lat="47.94660005768003" lon="-0.7965315093366852"><ele>95.71428571428571</ele><time>2026-04-26T12:19:10.001Z</time></trkpt><trkpt lat="47.946663557475375" lon="-0.7965032318530013"><ele>96.0</ele><time>2026-04-26T12:19:11.001Z</time></trkpt><trkpt lat="47.94672570961682" lon="-0.7964765650894922"><ele>96.16666666666667</ele><time>2026-04-26T12:19:12.001Z</time></trkpt><trkpt lat="47.94678692387539" lon="-0.7964486250611549"><ele>96.33333333333334</ele><time>2026-04-26T12:19:13.001Z</time></trkpt><trkpt lat="47.9468476063271" lon="-0.7964201462202282"><ele>96.5</ele><time>2026-04-26T12:19:14.001Z</time></trkpt><trkpt lat="47.94690817449535" lon="-0.7963931253050749"><ele>96.66666666666667</ele><time>2026-04-26T12:19:15.001Z</time></trkpt><trkpt lat="47.9469690630293" lon="-0.7963650369079376"><ele>96.83333333333334</ele><time>2026-04-26T12:19:16Z</time></trkpt><trkpt lat="47.9470903912381" lon="-0.7963170038905996"><ele>97.0</ele><time>2026-04-26T12:19:18Z</time></trkpt><trkpt lat="47.94720480764581" lon="-0.7962688448471767"><ele>97.0</ele><time>2026-04-26T12:19:20Z</time></trkpt><trkpt lat="47.94731751291108" lon="-0.7962191017660635"><ele>97.0</ele><time>2026-04-26T12:19:22Z</time></trkpt><trkpt lat="47.94742811372325" lon="-0.7961722556029832"><ele>97.0</ele><time>2026-04-26T12:19:24Z</time></trkpt><trkpt lat="47.94753430786169" lon="-0.7961226288984367"><ele>97.0</ele><time>2026-04-26T12:19:26Z</time></trkpt><trkpt lat="47.9476387889081" lon="-0.7960792761566008"><ele>97.39999999999999</ele><time>2026-04-26T12:19:28Z</time></trkpt><trkpt lat="47.94773932679785" lon="-0.7960391832617263"><ele>97.8</ele><time>2026-04-26T12:19:30Z</time></trkpt><trkpt lat="47.94783770856131" lon="-0.7959926169613334"><ele>98.2</ele><time>2026-04-26T12:19:32Z</time></trkpt><trkpt lat="47.947938823233685" lon="-0.7959490496170961"><ele>98.6</ele><time>2026-04-26T12:19:34Z</time></trkpt><trkpt lat="47.94804150608855" lon="-0.7959095052315638"><ele>99.0</ele><time>2026-04-26T12:19:36Z</time></trkpt><trkpt lat="47.948144279352505" lon="-0.7958619033225962"><ele>99.4</ele><time>2026-04-26T12:19:38Z</time></trkpt><trkpt lat="47.94825012823415" lon="-0.7958255342559981"><ele>99.80000000000001</ele><time>2026-04-26T12:19:40Z</time></trkpt><trkpt lat="47.948356194555735" lon="-0.7957798582118001"><ele>100.19999999999999</ele><time>2026-04-26T12:19:42Z</time></trkpt><trkpt lat="47.94846144917543" lon="-0.7957316084403132"><ele>100.6</ele><time>2026-04-26T12:19:44Z</time></trkpt><trkpt lat="47.948568320547786" lon="-0.7956894592629957"><ele>101.0</ele><time>2026-04-26T12:19:46Z</time></trkpt><trkpt lat="47.94867502163276" lon="-0.7956427567928391"><ele>101.19999999999999</ele><time>2026-04-26T12:19:48Z</time></trkpt><trkpt lat="47.94877908623076" lon="-0.7956028457303275"><ele>101.39999999999999</ele><time>2026-04-26T12:19:50Z</time></trkpt><trkpt lat="47.94888003507204" lon="-0.795558992617289"><ele>101.6</ele><time>2026-04-26T12:19:52Z</time></trkpt><trkpt lat="47.94898058568868" lon="-0.7955150174346064"><ele>101.8</ele><time>2026-04-26T12:19:54Z</time></trkpt><trkpt lat="47.949079401012064" lon="-0.7954757281897387"><ele>102.0</ele><time>2026-04-26T12:19:56Z</time></trkpt><trkpt lat="47.94917754903338" lon="-0.7954361526924703"><ele>102.39999999999999</ele><time>2026-04-26T12:19:58Z</time></trkpt><trkpt lat="47.949274721584686" lon="-0.7953954829721636"><ele>102.8</ele><time>2026-04-26T12:20:00Z</time></trkpt><trkpt lat="47.94937256727709" lon="-0.7953557463541785"><ele>103.2</ele><time>2026-04-26T12:20:02Z</time></trkpt><trkpt lat="47.94946958241846" lon="-0.79531852776601"><ele>103.6</ele><time>2026-04-26T12:20:04Z</time></trkpt><trkpt lat="47.949562846767904" lon="-0.7952765106430844"><ele>104.0</ele><time>2026-04-26T12:20:06Z</time></trkpt><trkpt lat="47.949657376738806" lon="-0.7952360915519376"><ele>104.0</ele><time>2026-04-26T12:20:08Z</time></trkpt><trkpt lat="47.949750758142365" lon="-0.7952030236613273"><ele>104.0</ele><time>2026-04-26T12:20:10Z</time></trkpt><trkpt lat="47.949841826128086" lon="-0.7951649349699279"><ele>104.0</ele><time>2026-04-26T12:20:12Z</time></trkpt><trkpt lat="47.94992993024305" lon="-0.7951288336803526"><ele>104.0</ele><time>2026-04-26T12:20:14Z</time></trkpt><trkpt lat="47.950020501715" lon="-0.7950924060241923"><ele>104.0</ele><time>2026-04-26T12:20:16Z</time></trkpt><trkpt lat="47.95011198436784" lon="-0.7950582779525424"><ele>103.6</ele><time>2026-04-26T12:20:18Z</time></trkpt><trkpt lat="47.95020296641614" lon="-0.795025323544469"><ele>103.2</ele><time>2026-04-26T12:20:20Z</time></trkpt><trkpt lat="47.950294293181734" lon="-0.7949923923479981"><ele>102.8</ele><time>2026-04-26T12:20:22Z</time></trkpt><trkpt lat="47.950383213481935" lon="-0.7949608218534328"><ele>102.39999999999999</ele><time>2026-04-26T12:20:24Z</time></trkpt><trkpt lat="47.95047383449861" lon="-0.7949246110505894"><ele>102.0</ele><time>2026-04-26T12:20:26Z</time></trkpt><trkpt lat="47.9505673964096" lon="-0.7948899125134591"><ele>102.0</ele><time>2026-04-26T12:20:28Z</time></trkpt><trkpt lat="47.95066288101297" lon="-0.7948530133997891"><ele>102.0</ele><time>2026-04-26T12:20:30Z</time></trkpt><trkpt lat="47.95076019014111" lon="-0.7948215943396238"><ele>102.0</ele><time>2026-04-26T12:20:32Z</time></trkpt><trkpt lat="47.95085743590483" lon="-0.7947845161978235"><ele>102.0</ele><time>2026-04-26T12:20:34Z</time></trkpt><trkpt lat="47.9509537293052" lon="-0.7947506381671662"><ele>102.0</ele><time>2026-04-26T12:20:36Z</time></trkpt><trkpt lat="47.951051261062126" lon="-0.7947147846483985"><ele>102.19999999999999</ele><time>2026-04-26T12:20:38Z</time></trkpt><trkpt lat="47.951149689165206" lon="-0.7946801738700169"><ele>102.4</ele><time>2026-04-26T12:20:40Z</time></trkpt><trkpt lat="47.951248578861424" lon="-0.7946466023688266"><ele>102.6</ele><time>2026-04-26T12:20:42Z</time></trkpt><trkpt lat="47.951350247210414" lon="-0.7946095883068378"><ele>102.80000000000001</ele><time>2026-04-26T12:20:44Z</time></trkpt><trkpt lat="47.95145141789454" lon="-0.7945722787138237"><ele>103.0</ele><time>2026-04-26T12:20:46Z</time></trkpt><trkpt lat="47.951552682358916" lon="-0.7945297667913221"><ele>103.0</ele><time>2026-04-26T12:20:48Z</time></trkpt><trkpt lat="47.9516564731609" lon="-0.7944955715619919"><ele>103.0</ele><time>2026-04-26T12:20:50Z</time></trkpt><trkpt lat="47.95175842232052" lon="-0.794457948528815"><ele>103.0</ele><time>2026-04-26T12:20:52Z</time></trkpt><trkpt lat="47.95186081731379" lon="-0.7944253028302781"><ele>103.0</ele><time>2026-04-26T12:20:54Z</time></trkpt><trkpt lat="47.951963325477735" lon="-0.7943861681438303"><ele>103.0</ele><time>2026-04-26T12:20:56Z</time></trkpt><trkpt lat="47.95206787047808" lon="-0.7943519043754901"><ele>103.4</ele><time>2026-04-26T12:20:58Z</time></trkpt><trkpt lat="47.95217113912617" lon="-0.7943037067157784"><ele>103.80000000000001</ele><time>2026-04-26T12:21:00Z</time></trkpt><trkpt lat="47.95227573249596" lon="-0.7942657302499113"><ele>104.2</ele><time>2026-04-26T12:21:02Z</time></trkpt><trkpt lat="47.95237926960921" lon="-0.7942302159525354"><ele>104.6</ele><time>2026-04-26T12:21:04Z</time></trkpt><trkpt lat="47.9524808831416" lon="-0.7941954754089715"><ele>105.0</ele><time>2026-04-26T12:21:06.001Z</time></trkpt><trkpt lat="47.95258433206458" lon="-0.794160036823178"><ele>105.2</ele><time>2026-04-26T12:21:08.001Z</time></trkpt><trkpt lat="47.95268765610891" lon="-0.7941240331842324"><ele>105.4</ele><time>2026-04-26T12:21:10.001Z</time></trkpt><trkpt lat="47.95279011753042" lon="-0.794086294044293"><ele>105.6</ele><time>2026-04-26T12:21:12.001Z</time></trkpt><trkpt lat="47.95289586896977" lon="-0.7940494074588602"><ele>105.8</ele><time>2026-04-26T12:21:14.001Z</time></trkpt><trkpt lat="47.95300320161952" lon="-0.7940106788578523"><ele>106.0</ele><time>2026-04-26T12:21:16.001Z</time></trkpt><trkpt lat="47.95311242455792" lon="-0.7939716928122125"><ele>106.0</ele><time>2026-04-26T12:21:18.001Z</time></trkpt><trkpt lat="47.95322450592106" lon="-0.7939321108104296"><ele>106.0</ele><time>2026-04-26T12:21:20.001Z</time></trkpt><trkpt lat="47.953338235109555" lon="-0.7938929322841669"><ele>106.0</ele><time>2026-04-26T12:21:22.001Z</time></trkpt><trkpt lat="47.95345162255711" lon="-0.7938500701416976"><ele>106.0</ele><time>2026-04-26T12:21:24.001Z</time></trkpt><trkpt lat="47.95356383949446" lon="-0.7938128622494485"><ele>105.75</ele><time>2026-04-26T12:21:26.001Z</time></trkpt><trkpt lat="47.953677671468505" lon="-0.7937761252338793"><ele>105.5</ele><time>2026-04-26T12:21:28.001Z</time></trkpt><trkpt lat="47.953789888863874" lon="-0.7937386504397484"><ele>105.25</ele><time>2026-04-26T12:21:30.001Z</time></trkpt><trkpt lat="47.95390035634383" lon="-0.7937004560589114"><ele>105.0</ele><time>2026-04-26T12:21:32.001Z</time></trkpt><trkpt lat="47.95401401520626" lon="-0.7936610551531732"><ele>105.0</ele><time>2026-04-26T12:21:34.001Z</time></trkpt><trkpt lat="47.95412935835487" lon="-0.7936164971805858"><ele>105.0</ele><time>2026-04-26T12:21:36Z</time></trkpt><trkpt lat="47.95424627807671" lon="-0.7935771235568677"><ele>105.0</ele><time>2026-04-26T12:21:38Z</time></trkpt><trkpt lat="47.95436417934402" lon="-0.7935331375585551"><ele>105.0</ele><time>2026-04-26T12:21:40Z</time></trkpt><trkpt lat="47.95442645533415" lon="-0.7935097057261409"><ele>105.0</ele><time>2026-04-26T12:21:41Z</time></trkpt><trkpt lat="47.95448956110829" lon="-0.7934873545689644"><ele>105.14285714285714</ele><time>2026-04-26T12:21:42Z</time></trkpt><trkpt lat="47.95455377465913" lon="-0.7934664504225983"><ele>105.28571428571428</ele><time>2026-04-26T12:21:43Z</time></trkpt><trkpt lat="47.95461926456651" lon="-0.7934452448567836"><ele>105.42857142857143</ele><time>2026-04-26T12:21:44Z</time></trkpt><trkpt lat="47.95468673438073" lon="-0.7934195058787038"><ele>105.57142857142857</ele><time>2026-04-26T12:21:45Z</time></trkpt><trkpt lat="47.95475429842273" lon="-0.793395953339546"><ele>105.71428571428571</ele><time>2026-04-26T12:21:46Z</time></trkpt><trkpt lat="47.95482175978007" lon="-0.7933751390279631"><ele>105.85714285714286</ele><time>2026-04-26T12:21:47Z</time></trkpt><trkpt lat="47.95488820157157" lon="-0.7933506761496293"><ele>106.0</ele><time>2026-04-26T12:21:48Z</time></trkpt><trkpt lat="47.95495396368914" lon="-0.7933221676396179"><ele>106.0</ele><time>2026-04-26T12:21:49Z</time></trkpt><trkpt lat="47.955018790182564" lon="-0.7933007472409468"><ele>106.0</ele><time>2026-04-26T12:21:50Z</time></trkpt><trkpt lat="47.955082505353104" lon="-0.793282497098225"><ele>106.0</ele><time>2026-04-26T12:21:51Z</time></trkpt><trkpt lat="47.95514549926183" lon="-0.7932634039208112"><ele>106.0</ele><time>2026-04-26T12:21:52Z</time></trkpt><trkpt lat="47.9552691331699" lon="-0.7932219850136285"><ele>106.0</ele><time>2026-04-26T12:21:54Z</time></trkpt><trkpt lat="47.955330450875685" lon="-0.793199451624068"><ele>106.0</ele><time>2026-04-26T12:21:55Z</time></trkpt><trkpt lat="47.955391984161906" lon="-0.793177829010164"><ele>106.0</ele><time>2026-04-26T12:21:56Z</time></trkpt><trkpt lat="47.95545346897805" lon="-0.7931543820530125"><ele>105.19999999999999</ele><time>2026-04-26T12:21:57Z</time></trkpt><trkpt lat="47.955574934783634" lon="-0.7931124786977836"><ele>104.39999999999999</ele><time>2026-04-26T12:21:59Z</time></trkpt><trkpt lat="47.95569857032273" lon="-0.7930750758252171"><ele>103.6</ele><time>2026-04-26T12:22:01Z</time></trkpt><trkpt lat="47.955763608700906" lon="-0.7930492785498536"><ele>102.8</ele><time>2026-04-26T12:22:02Z</time></trkpt><trkpt lat="47.95582886996285" lon="-0.7930209430908564"><ele>102.0</ele><time>2026-04-26T12:22:03Z</time></trkpt><trkpt lat="47.955901000864124" lon="-0.7930017303330952"><ele>101.83333333333333</ele><time>2026-04-26T12:22:04Z</time></trkpt><trkpt lat="47.95597369659838" lon="-0.792975693013428"><ele>101.66666666666666</ele><time>2026-04-26T12:22:05Z</time></trkpt><trkpt lat="47.956049873949326" lon="-0.7929506756691687"><ele>101.5</ele><time>2026-04-26T12:22:06Z</time></trkpt><trkpt lat="47.9561295540786" lon="-0.7929246762972052"><ele>101.33333333333333</ele><time>2026-04-26T12:22:07Z</time></trkpt><trkpt lat="47.95621108497917" lon="-0.7928928721421938"><ele>101.16666666666666</ele><time>2026-04-26T12:22:08Z</time></trkpt><trkpt lat="47.956294138274195" lon="-0.7928626891932201"><ele>101.0</ele><time>2026-04-26T12:22:09Z</time></trkpt><trkpt lat="47.95637890352204" lon="-0.7928338351286564"><ele>100.99999999999999</ele><time>2026-04-26T12:22:10Z</time></trkpt><trkpt lat="47.95646563617596" lon="-0.7928062688712659"><ele>101.0</ele><time>2026-04-26T12:22:11Z</time></trkpt><trkpt lat="47.95655123361082" lon="-0.7927768114780374"><ele>101.0</ele><time>2026-04-26T12:22:12Z</time></trkpt><trkpt lat="47.95663727431647" lon="-0.7927481517272846"><ele>101.0</ele><time>2026-04-26T12:22:13Z</time></trkpt><trkpt lat="47.9567221984456" lon="-0.7927163400781233"><ele>100.99999999999999</ele><time>2026-04-26T12:22:14Z</time></trkpt><trkpt lat="47.95680732751435" lon="-0.7926886254454623"><ele>101.0</ele><time>2026-04-26T12:22:15Z</time></trkpt><trkpt lat="47.956891987164006" lon="-0.792660445110654"><ele>100.6</ele><time>2026-04-26T12:22:16Z</time></trkpt><trkpt lat="47.95697725512779" lon="-0.7926292094151458"><ele>100.19999999999999</ele><time>2026-04-26T12:22:17Z</time></trkpt><trkpt lat="47.957063715946106" lon="-0.7926040375778898"><ele>99.80000000000001</ele><time>2026-04-26T12:22:18Z</time></trkpt><trkpt lat="47.95715040985536" lon="-0.7925710415821767"><ele>99.4</ele><time>2026-04-26T12:22:19Z</time></trkpt><trkpt lat="47.95723952484237" lon="-0.7925387843810842"><ele>99.0</ele><time>2026-04-26T12:22:20Z</time></trkpt><trkpt lat="47.957335321526834" lon="-0.7925106658359379"><ele>99.0</ele><time>2026-04-26T12:22:21Z</time></trkpt><trkpt lat="47.95743212300485" lon="-0.7924736853255796"><ele>99.0</ele><time>2026-04-26T12:22:22Z</time></trkpt><trkpt lat="47.957532697947734" lon="-0.7924398194849691"><ele>99.0</ele><time>2026-04-26T12:22:23Z</time></trkpt><trkpt lat="47.95763912219889" lon="-0.7924032810836438"><ele>99.0</ele><time>2026-04-26T12:22:24Z</time></trkpt><trkpt lat="47.95774769741809" lon="-0.7923709301860534"><ele>99.0</ele><time>2026-04-26T12:22:25Z</time></trkpt><trkpt lat="47.95785812938167" lon="-0.7923354537610361"><ele>97.5</ele><time>2026-04-26T12:22:26Z</time></trkpt><trkpt lat="47.95797308559394" lon="-0.7922939317025957"><ele>96.0</ele><time>2026-04-26T12:22:27Z</time></trkpt><trkpt lat="47.958087642364774" lon="-0.7922522139258794"><ele>94.5</ele><time>2026-04-26T12:22:28Z</time></trkpt><trkpt lat="47.958207775997174" lon="-0.7922140163583863"><ele>93.0</ele><time>2026-04-26T12:22:29Z</time></trkpt><trkpt lat="47.95832936181384" lon="-0.7921746586020592"><ele>92.5</ele><time>2026-04-26T12:22:30Z</time></trkpt><trkpt lat="47.958454571219086" lon="-0.7921317862821821"><ele>92.0</ele><time>2026-04-26T12:22:31Z</time></trkpt><trkpt lat="47.958580420107076" lon="-0.7920883124494026"><ele>91.5</ele><time>2026-04-26T12:22:32Z</time></trkpt><trkpt lat="47.95870885161632" lon="-0.7920428504440278"><ele>91.0</ele><time>2026-04-26T12:22:33Z</time></trkpt><trkpt lat="47.958843610017794" lon="-0.7920016381195201"><ele>91.0</ele><time>2026-04-26T12:22:34Z</time></trkpt><trkpt lat="47.95897795715654" lon="-0.7919540914080819"><ele>91.0</ele><time>2026-04-26T12:22:35Z</time></trkpt><trkpt lat="47.95911295681831" lon="-0.7919103889093833"><ele>91.0</ele><time>2026-04-26T12:22:36Z</time></trkpt><trkpt lat="47.95924508645965" lon="-0.7918669729509042"><ele>91.0</ele><time>2026-04-26T12:22:37Z</time></trkpt><trkpt lat="47.95936998677197" lon="-0.791825047695954"><ele>90.5</ele><time>2026-04-26T12:22:38Z</time></trkpt><trkpt lat="47.959492304139374" lon="-0.791785740029825"><ele>90.0</ele><time>2026-04-26T12:22:39Z</time></trkpt><trkpt lat="47.95960970279845" lon="-0.7917432954133786"><ele>89.5</ele><time>2026-04-26T12:22:40Z</time></trkpt><trkpt lat="47.95972540137252" lon="-0.7917048857145763"><ele>89.0</ele><time>2026-04-26T12:22:41Z</time></trkpt><trkpt lat="47.9598386533091" lon="-0.7916702818155018"><ele>89.0</ele><time>2026-04-26T12:22:42Z</time></trkpt><trkpt lat="47.95994834635102" lon="-0.7916320679748008"><ele>89.0</ele><time>2026-04-26T12:22:43Z</time></trkpt><trkpt lat="47.96005627522345" lon="-0.7915974727373478"><ele>89.0</ele><time>2026-04-26T12:22:44Z</time></trkpt><trkpt lat="47.96016135347857" lon="-0.7915635620817386"><ele>89.0</ele><time>2026-04-26T12:22:45Z</time></trkpt><trkpt lat="47.96026455747095" lon="-0.7915295091148394"><ele>89.0</ele><time>2026-04-26T12:22:46Z</time></trkpt><trkpt lat="47.960364692234144" lon="-0.7914904871874563"><ele>88.80000000000001</ele><time>2026-04-26T12:22:47Z</time></trkpt><trkpt lat="47.960463469641454" lon="-0.791458256441709"><ele>88.60000000000001</ele><time>2026-04-26T12:22:48Z</time></trkpt><trkpt lat="47.960559232566524" lon="-0.791422931480546"><ele>88.4</ele><time>2026-04-26T12:22:49Z</time></trkpt><trkpt lat="47.960656116745824" lon="-0.7913832263135647"><ele>88.2</ele><time>2026-04-26T12:22:50Z</time></trkpt><trkpt lat="47.96075522240977" lon="-0.7913550340854926"><ele>88.0</ele><time>2026-04-26T12:22:51Z</time></trkpt><trkpt lat="47.96085320457917" lon="-0.7913236488971993"><ele>87.80000000000001</ele><time>2026-04-26T12:22:52Z</time></trkpt><trkpt lat="47.96095138839707" lon="-0.7912946916836782"><ele>87.6</ele><time>2026-04-26T12:22:53Z</time></trkpt><trkpt lat="47.96105123644768" lon="-0.7912629856976056"><ele>87.4</ele><time>2026-04-26T12:22:54Z</time></trkpt><trkpt lat="47.96115015397869" lon="-0.7912332741931017"><ele>87.19999999999999</ele><time>2026-04-26T12:22:55Z</time></trkpt><trkpt lat="47.96124937971527" lon="-0.7911965941183194"><ele>87.0</ele><time>2026-04-26T12:22:56Z</time></trkpt><trkpt lat="47.961347881626935" lon="-0.7911579644217217"><ele>87.0</ele><time>2026-04-26T12:22:57Z</time></trkpt><trkpt lat="47.96144677603668" lon="-0.7911257394786027"><ele>87.0</ele><time>2026-04-26T12:22:58Z</time></trkpt><trkpt lat="47.96154605617691" lon="-0.791091894570377"><ele>87.0</ele><time>2026-04-26T12:22:59Z</time></trkpt><trkpt lat="47.96164488202589" lon="-0.7910642850261183"><ele>87.0</ele><time>2026-04-26T12:23:00Z</time></trkpt><trkpt lat="47.96174439983249" lon="-0.791034039088461"><ele>87.0</ele><time>2026-04-26T12:23:01Z</time></trkpt><trkpt lat="47.96184274910669" lon="-0.7909947085675884"><ele>86.6</ele><time>2026-04-26T12:23:02Z</time></trkpt><trkpt lat="47.96194142356179" lon="-0.7909636923928342"><ele>86.19999999999999</ele><time>2026-04-26T12:23:03Z</time></trkpt><trkpt lat="47.96204030087611" lon="-0.7909299776240478"><ele>85.8</ele><time>2026-04-26T12:23:04Z</time></trkpt><trkpt lat="47.962138586201895" lon="-0.7908980075844524"><ele>85.4</ele><time>2026-04-26T12:23:05Z</time></trkpt><trkpt lat="47.96223698491289" lon="-0.7908657686448306"><ele>85.0</ele><time>2026-04-26T12:23:06Z</time></trkpt><trkpt lat="47.962335559393686" lon="-0.7908346041028317"><ele>85.0</ele><time>2026-04-26T12:23:07Z</time></trkpt><trkpt lat="47.962434041059275" lon="-0.7908045947739233"><ele>85.0</ele><time>2026-04-26T12:23:08Z</time></trkpt><trkpt lat="47.96253066918653" lon="-0.7907726047593846"><ele>85.0</ele><time>2026-04-26T12:23:09Z</time></trkpt><trkpt lat="47.96262764228319" lon="-0.7907392789800332"><ele>85.0</ele><time>2026-04-26T12:23:10Z</time></trkpt><trkpt lat="47.962722892251016" lon="-0.7907078408396754"><ele>85.0</ele><time>2026-04-26T12:23:11Z</time></trkpt><trkpt lat="47.96281837078744" lon="-0.7906737053415569"><ele>84.6</ele><time>2026-04-26T12:23:12.001Z</time></trkpt><trkpt lat="47.96291309925192" lon="-0.7906425728341807"><ele>84.2</ele><time>2026-04-26T12:23:13.001Z</time></trkpt><trkpt lat="47.96300622463695" lon="-0.7906126371872682"><ele>83.80000000000001</ele><time>2026-04-26T12:23:14.001Z</time></trkpt><trkpt lat="47.9630984055008" lon="-0.7905808934822957"><ele>83.4</ele><time>2026-04-26T12:23:15.001Z</time></trkpt><trkpt lat="47.963189614045014" lon="-0.79055166035841"><ele>83.0</ele><time>2026-04-26T12:23:16.001Z</time></trkpt><trkpt lat="47.96327827410929" lon="-0.7905230660409458"><ele>82.66666666666667</ele><time>2026-04-26T12:23:17.001Z</time></trkpt><trkpt lat="47.9633659536035" lon="-0.7904956401012614"><ele>82.33333333333334</ele><time>2026-04-26T12:23:18.001Z</time></trkpt><trkpt lat="47.963451692338154" lon="-0.7904668897013385"><ele>82.0</ele><time>2026-04-26T12:23:19.001Z</time></trkpt><trkpt lat="47.963536757365375" lon="-0.7904405535032684"><ele>81.66666666666667</ele><time>2026-04-26T12:23:20.001Z</time></trkpt><trkpt lat="47.96361986813893" lon="-0.7904135865452737"><ele>81.33333333333333</ele><time>2026-04-26T12:23:21.001Z</time></trkpt><trkpt lat="47.96370300834338" lon="-0.7903819754461041"><ele>81.0</ele><time>2026-04-26T12:23:22.001Z</time></trkpt><trkpt lat="47.963784857092605" lon="-0.7903542210855267"><ele>81.0</ele><time>2026-04-26T12:23:23.001Z</time></trkpt><trkpt lat="47.963866867215444" lon="-0.7903282844131233"><ele>81.0</ele><time>2026-04-26T12:23:24.001Z</time></trkpt><trkpt lat="47.9639491280117" lon="-0.790299047878472"><ele>81.0</ele><time>2026-04-26T12:23:25.001Z</time></trkpt><trkpt lat="47.964031444302975" lon="-0.7902683336924577"><ele>81.0</ele><time>2026-04-26T12:23:26.001Z</time></trkpt><trkpt lat="47.96411367836942" lon="-0.7902426498019802"><ele>81.0</ele><time>2026-04-26T12:23:27.001Z</time></trkpt><trkpt lat="47.964195857838504" lon="-0.7902172172520133"><ele>81.0</ele><time>2026-04-26T12:23:28.001Z</time></trkpt><trkpt lat="47.96427762726721" lon="-0.790193145553634"><ele>81.16666666666667</ele><time>2026-04-26T12:23:29.001Z</time></trkpt><trkpt lat="47.96435814089526" lon="-0.7901658483588143"><ele>81.33333333333333</ele><time>2026-04-26T12:23:30.001Z</time></trkpt><trkpt lat="47.96443680620397" lon="-0.7901364092477804"><ele>81.5</ele><time>2026-04-26T12:23:31.001Z</time></trkpt><trkpt lat="47.964517313242794" lon="-0.7901115106273331"><ele>81.66666666666666</ele><time>2026-04-26T12:23:32.001Z</time></trkpt><trkpt lat="47.964595637679025" lon="-0.7900859379903133"><ele>81.83333333333333</ele><time>2026-04-26T12:23:33.001Z</time></trkpt><trkpt lat="47.96467435699928" lon="-0.7900608358887043"><ele>82.0</ele><time>2026-04-26T12:23:34.001Z</time></trkpt><trkpt lat="47.964752195302346" lon="-0.7900366214761305"><ele>82.0</ele><time>2026-04-26T12:23:35.001Z</time></trkpt><trkpt lat="47.96482904528163" lon="-0.7900140172016594"><ele>82.0</ele><time>2026-04-26T12:23:36.001Z</time></trkpt><trkpt lat="47.96490442206772" lon="-0.7899881298168275"><ele>82.0</ele><time>2026-04-26T12:23:37.001Z</time></trkpt><trkpt lat="47.96497943295377" lon="-0.7899603348389368"><ele>82.0</ele><time>2026-04-26T12:23:38.001Z</time></trkpt><trkpt lat="47.96505287629771" lon="-0.7899360417079151"><ele>82.0</ele><time>2026-04-26T12:23:39.001Z</time></trkpt><trkpt lat="47.965125473531" lon="-0.7899161541940702"><ele>82.0</ele><time>2026-04-26T12:23:40.001Z</time></trkpt><trkpt lat="47.96519836456049" lon="-0.789891976295139"><ele>82.16666666666666</ele><time>2026-04-26T12:23:41.001Z</time></trkpt><trkpt lat="47.965267572657346" lon="-0.7898644514832512"><ele>82.33333333333333</ele><time>2026-04-26T12:23:42.001Z</time></trkpt><trkpt lat="47.96533569690539" lon="-0.7898425561012848"><ele>82.5</ele><time>2026-04-26T12:23:43Z</time></trkpt><trkpt lat="47.9654033543904" lon="-0.7898202906921351"><ele>82.66666666666667</ele><time>2026-04-26T12:23:44Z</time></trkpt><trkpt lat="47.96546792229513" lon="-0.7898010000006687"><ele>82.83333333333334</ele><time>2026-04-26T12:23:45Z</time></trkpt><trkpt lat="47.96553016920919" lon="-0.7897809299956559"><ele>83.0</ele><time>2026-04-26T12:23:46Z</time></trkpt><trkpt lat="47.9656490495867" lon="-0.7897434421880754"><ele>83.0</ele><time>2026-04-26T12:23:48Z</time></trkpt><trkpt lat="47.9657599645382" lon="-0.7897040608146668"><ele>83.0</ele><time>2026-04-26T12:23:50Z</time></trkpt><trkpt lat="47.96586614779417" lon="-0.7896684219371553"><ele>83.0</ele><time>2026-04-26T12:23:52Z</time></trkpt><trkpt lat="47.96596830041342" lon="-0.7896368359206541"><ele>83.0</ele><time>2026-04-26T12:23:54Z</time></trkpt><trkpt lat="47.96606540482537" lon="-0.7896034582628664"><ele>83.0</ele><time>2026-04-26T12:23:56Z</time></trkpt><trkpt lat="47.96616165462131" lon="-0.789572825502368"><ele>83.4</ele><time>2026-04-26T12:23:58Z</time></trkpt><trkpt lat="47.96625860736174" lon="-0.789541843590994"><ele>83.80000000000001</ele><time>2026-04-26T12:24:00Z</time></trkpt><trkpt lat="47.96635417578233" lon="-0.7895085718183006"><ele>84.2</ele><time>2026-04-26T12:24:02Z</time></trkpt><trkpt lat="47.966448472273505" lon="-0.7894786509450805"><ele>84.6</ele><time>2026-04-26T12:24:04Z</time></trkpt><trkpt lat="47.96654260415304" lon="-0.7894452709590836"><ele>85.0</ele><time>2026-04-26T12:24:06Z</time></trkpt><trkpt lat="47.96663584548442" lon="-0.7894191329258912"><ele>85.6</ele><time>2026-04-26T12:24:08Z</time></trkpt><trkpt lat="47.966729167630675" lon="-0.7893890965808392"><ele>86.2</ele><time>2026-04-26T12:24:10Z</time></trkpt><trkpt lat="47.96682074908838" lon="-0.7893592054077069"><ele>86.80000000000001</ele><time>2026-04-26T12:24:12Z</time></trkpt><trkpt lat="47.966910894831344" lon="-0.7893279901366413"><ele>87.4</ele><time>2026-04-26T12:24:14Z</time></trkpt><trkpt lat="47.967004540530006" lon="-0.7892982440341156"><ele>88.0</ele><time>2026-04-26T12:24:16Z</time></trkpt><trkpt lat="47.96709410880339" lon="-0.789269002027998"><ele>88.0</ele><time>2026-04-26T12:24:18Z</time></trkpt><trkpt lat="47.96717801916635" lon="-0.7892417305410463"><ele>88.0</ele><time>2026-04-26T12:24:20Z</time></trkpt><trkpt lat="47.96726065668353" lon="-0.7892125712675456"><ele>88.0</ele><time>2026-04-26T12:24:22Z</time></trkpt><trkpt lat="47.96734063317024" lon="-0.7891857605594934"><ele>88.0</ele><time>2026-04-26T12:24:24Z</time></trkpt><trkpt lat="47.967421026117165" lon="-0.7891610934489494"><ele>88.0</ele><time>2026-04-26T12:24:26Z</time></trkpt><trkpt lat="47.967505067066114" lon="-0.7891316083228883"><ele>88.0</ele><time>2026-04-26T12:24:28Z</time></trkpt><trkpt lat="47.967591405717826" lon="-0.7891048343046484"><ele>88.0</ele><time>2026-04-26T12:24:30Z</time></trkpt><trkpt lat="47.96767695472383" lon="-0.7890757064765164"><ele>88.0</ele><time>2026-04-26T12:24:32Z</time></trkpt><trkpt lat="47.96775299367055" lon="-0.7890470002652358"><ele>88.0</ele><time>2026-04-26T12:24:34Z</time></trkpt><trkpt lat="47.967839702821195" lon="-0.7890316238956531"><ele>88.0</ele><time>2026-04-26T12:24:36Z</time></trkpt><trkpt lat="47.96793029093143" lon="-0.788995037574794"><ele>88.0</ele><time>2026-04-26T12:24:38Z</time></trkpt><trkpt lat="47.968029756784865" lon="-0.7889683505704593"><ele>88.0</ele><time>2026-04-26T12:24:40Z</time></trkpt><trkpt lat="47.968136488262004" lon="-0.7889335803025255"><ele>88.0</ele><time>2026-04-26T12:24:42Z</time></trkpt><trkpt lat="47.9682525982558" lon="-0.7888934631232902"><ele>88.0</ele><time>2026-04-26T12:24:44Z</time></trkpt><trkpt lat="47.96837401734391" lon="-0.7888505043133797"><ele>88.0</ele><time>2026-04-26T12:24:46Z</time></trkpt><trkpt lat="47.96843602663905" lon="-0.7888311273629721"><ele>88.0</ele><time>2026-04-26T12:24:47Z</time></trkpt><trkpt lat="47.968500271374175" lon="-0.78881371645755"><ele>88.0</ele><time>2026-04-26T12:24:48Z</time></trkpt><trkpt lat="47.96856498045066" lon="-0.7887944062187909"><ele>88.0</ele><time>2026-04-26T12:24:49Z</time></trkpt><trkpt lat="47.96862973898855" lon="-0.788771100513823"><ele>87.57142857142857</ele><time>2026-04-26T12:24:50Z</time></trkpt><trkpt lat="47.968696117867026" lon="-0.788747499181675"><ele>87.14285714285714</ele><time>2026-04-26T12:24:51Z</time></trkpt><trkpt lat="47.96876700142934" lon="-0.7887316857931038"><ele>86.71428571428572</ele><time>2026-04-26T12:24:52Z</time></trkpt><trkpt lat="47.96883700555823" lon="-0.7887059929542425"><ele>86.28571428571428</ele><time>2026-04-26T12:24:53Z</time></trkpt><trkpt lat="47.9689096460426" lon="-0.7886843353478522"><ele>85.85714285714285</ele><time>2026-04-26T12:24:54Z</time></trkpt><trkpt lat="47.96898351397587" lon="-0.7886633767642162"><ele>85.42857142857143</ele><time>2026-04-26T12:24:55Z</time></trkpt><trkpt lat="47.9690578582176" lon="-0.7886383513937081"><ele>85.0</ele><time>2026-04-26T12:24:56Z</time></trkpt><trkpt lat="47.969133411741105" lon="-0.7886100061026511"><ele>85.16666666666666</ele><time>2026-04-26T12:24:57Z</time></trkpt><trkpt lat="47.96921211633944" lon="-0.7885854589802825"><ele>85.33333333333333</ele><time>2026-04-26T12:24:58Z</time></trkpt><trkpt lat="47.96929005187977" lon="-0.7885612448140502"><ele>85.5</ele><time>2026-04-26T12:24:59Z</time></trkpt><trkpt lat="47.9693692758554" lon="-0.7885363933221572"><ele>85.66666666666667</ele><time>2026-04-26T12:25:00Z</time></trkpt><trkpt lat="47.96944460277202" lon="-0.7885103210530675"><ele>85.83333333333334</ele><time>2026-04-26T12:25:01Z</time></trkpt><trkpt lat="47.96951806644804" lon="-0.7884876910356329"><ele>86.0</ele><time>2026-04-26T12:25:02Z</time></trkpt><trkpt lat="47.969587429309456" lon="-0.7884663105292002"><ele>86.19999999999999</ele><time>2026-04-26T12:25:03Z</time></trkpt><trkpt lat="47.9696552786023" lon="-0.7884350803304501"><ele>86.39999999999999</ele><time>2026-04-26T12:25:04Z</time></trkpt><trkpt lat="47.96977937059359" lon="-0.7883950444069817"><ele>86.6</ele><time>2026-04-26T12:25:06Z</time></trkpt><trkpt lat="47.969896542616176" lon="-0.7883594334728226"><ele>86.8</ele><time>2026-04-26T12:25:08Z</time></trkpt><trkpt lat="47.97000688021564" lon="-0.7883251637147499"><ele>87.0</ele><time>2026-04-26T12:25:10Z</time></trkpt><trkpt lat="47.970112098302394" lon="-0.7882889254672384"><ele>87.0</ele><time>2026-04-26T12:25:12Z</time></trkpt><trkpt lat="47.970213360947255" lon="-0.7882557946758894"><ele>87.0</ele><time>2026-04-26T12:25:14Z</time></trkpt><trkpt lat="47.970311158952185" lon="-0.7882197351283181"><ele>87.0</ele><time>2026-04-26T12:25:16Z</time></trkpt><trkpt lat="47.97040811379304" lon="-0.7881911780049016"><ele>87.0</ele><time>2026-04-26T12:25:18.001Z</time></trkpt><trkpt lat="47.970501103748255" lon="-0.7881606000137572"><ele>87.0</ele><time>2026-04-26T12:25:20.001Z</time></trkpt><trkpt lat="47.970592487199596" lon="-0.7881322309286587"><ele>87.0</ele><time>2026-04-26T12:25:22.001Z</time></trkpt><trkpt lat="47.97067965079751" lon="-0.7881036841488847"><ele>87.0</ele><time>2026-04-26T12:25:24.001Z</time></trkpt><trkpt lat="47.970766356446774" lon="-0.788073956865154"><ele>87.0</ele><time>2026-04-26T12:25:26.001Z</time></trkpt><trkpt lat="47.9708538690878" lon="-0.7880463371896341"><ele>87.0</ele><time>2026-04-26T12:25:28.001Z</time></trkpt><trkpt lat="47.97094368750036" lon="-0.7880176562890696"><ele>87.0</ele><time>2026-04-26T12:25:30.001Z</time></trkpt><trkpt lat="47.97103838582386" lon="-0.7879859696054822"><ele>88.0</ele><time>2026-04-26T12:25:32.001Z</time></trkpt><trkpt lat="47.97113456647988" lon="-0.7879538820225251"><ele>89.0</ele><time>2026-04-26T12:25:34.001Z</time></trkpt><trkpt lat="47.971232868535964" lon="-0.7879235934623202"><ele>90.0</ele><time>2026-04-26T12:25:36.001Z</time></trkpt><trkpt lat="47.97133039430848" lon="-0.7878909894540065"><ele>91.0</ele><time>2026-04-26T12:25:38.001Z</time></trkpt><trkpt lat="47.971424567782734" lon="-0.7878590816008441"><ele>92.0</ele><time>2026-04-26T12:25:40.001Z</time></trkpt><trkpt lat="47.9715128364846" lon="-0.78783050124492"><ele>92.0</ele><time>2026-04-26T12:25:42.001Z</time></trkpt><trkpt lat="47.97160013920465" lon="-0.7878022911873643"><ele>92.0</ele><time>2026-04-26T12:25:44.001Z</time></trkpt><trkpt lat="47.97168600495365" lon="-0.7877716325009796"><ele>92.0</ele><time>2026-04-26T12:25:46.001Z</time></trkpt><trkpt lat="47.971771111094455" lon="-0.7877418311911006"><ele>92.0</ele><time>2026-04-26T12:25:48.001Z</time></trkpt><trkpt lat="47.971856065369536" lon="-0.7877161450463901"><ele>92.0</ele><time>2026-04-26T12:25:50.001Z</time></trkpt><trkpt lat="47.9719391205959" lon="-0.7876871558044084"><ele>92.0</ele><time>2026-04-26T12:25:52Z</time></trkpt><trkpt lat="47.97202570421648" lon="-0.7876594090995549"><ele>92.0</ele><time>2026-04-26T12:25:54Z</time></trkpt><trkpt lat="47.972117656431905" lon="-0.78762986011706"><ele>92.0</ele><time>2026-04-26T12:25:56Z</time></trkpt><trkpt lat="47.97220780564145" lon="-0.7876001611597576"><ele>92.0</ele><time>2026-04-26T12:25:58Z</time></trkpt><trkpt lat="47.97229601240616" lon="-0.7875735497492264"><ele>92.0</ele><time>2026-04-26T12:26:00Z</time></trkpt><trkpt lat="47.9723857142607" lon="-0.7875428463591139"><ele>92.0</ele><time>2026-04-26T12:26:02Z</time></trkpt><trkpt lat="47.97247653656922" lon="-0.7875102411738495"><ele>92.19999999999999</ele><time>2026-04-26T12:26:04Z</time></trkpt><trkpt lat="47.97257348127824" lon="-0.7874848490511667"><ele>92.4</ele><time>2026-04-26T12:26:06Z</time></trkpt><trkpt lat="47.97267332659289" lon="-0.7874503712453139"><ele>92.6</ele><time>2026-04-26T12:26:08Z</time></trkpt><trkpt lat="47.97277936332677" lon="-0.7874173283708549"><ele>92.80000000000001</ele><time>2026-04-26T12:26:10Z</time></trkpt><trkpt lat="47.972889317671545" lon="-0.787382725487173"><ele>93.0</ele><time>2026-04-26T12:26:12Z</time></trkpt><trkpt lat="47.97300250420978" lon="-0.7873473609376638"><ele>93.0</ele><time>2026-04-26T12:26:14Z</time></trkpt><trkpt lat="47.973118313022084" lon="-0.7873084484988859"><ele>93.0</ele><time>2026-04-26T12:26:16Z</time></trkpt><trkpt lat="47.97323917122288" lon="-0.7872702474556674"><ele>93.0</ele><time>2026-04-26T12:26:18Z</time></trkpt><trkpt lat="47.973301680991675" lon="-0.7872526729696926"><ele>93.0</ele><time>2026-04-26T12:26:19Z</time></trkpt><trkpt lat="47.97336507964371" lon="-0.7872331321913788"><ele>93.0</ele><time>2026-04-26T12:26:20Z</time></trkpt><trkpt lat="47.973427139980735" lon="-0.7872080738028029"><ele>93.0</ele><time>2026-04-26T12:26:21Z</time></trkpt><trkpt lat="47.973491440397446" lon="-0.7871868828590395"><ele>92.85714285714286</ele><time>2026-04-26T12:26:22Z</time></trkpt><trkpt lat="47.973556630701424" lon="-0.787167811088121"><ele>92.71428571428572</ele><time>2026-04-26T12:26:23Z</time></trkpt><trkpt lat="47.9736224153915" lon="-0.7871449026649993"><ele>92.57142857142858</ele><time>2026-04-26T12:26:24Z</time></trkpt><trkpt lat="47.97368901989505" lon="-0.7871229519385594"><ele>92.42857142857143</ele><time>2026-04-26T12:26:25Z</time></trkpt><trkpt lat="47.973756559351585" lon="-0.7871001433323025"><ele>92.28571428571428</ele><time>2026-04-26T12:26:26Z</time></trkpt><trkpt lat="47.97382738532444" lon="-0.7870791440436481"><ele>92.14285714285715</ele><time>2026-04-26T12:26:27Z</time></trkpt><trkpt lat="47.973897145281114" lon="-0.7870536345241206"><ele>92.0</ele><time>2026-04-26T12:26:28Z</time></trkpt><trkpt lat="47.97396878555445" lon="-0.7870280565023074"><ele>92.0</ele><time>2026-04-26T12:26:29Z</time></trkpt><trkpt lat="47.97404293811406" lon="-0.7870050923170792"><ele>92.0</ele><time>2026-04-26T12:26:30Z</time></trkpt><trkpt lat="47.97411768396938" lon="-0.7869820227767459"><ele>92.0</ele><time>2026-04-26T12:26:31Z</time></trkpt><trkpt lat="47.97419330469617" lon="-0.7869576495556957"><ele>92.0</ele><time>2026-04-26T12:26:32Z</time></trkpt><trkpt lat="47.97427191379615" lon="-0.7869315487743673"><ele>92.0</ele><time>2026-04-26T12:26:33Z</time></trkpt><trkpt lat="47.974352778304144" lon="-0.7869057711656721"><ele>92.0</ele><time>2026-04-26T12:26:34Z</time></trkpt><trkpt lat="47.97443669382528" lon="-0.7868803510733118"><ele>90.8</ele><time>2026-04-26T12:26:35Z</time></trkpt><trkpt lat="47.97452189298477" lon="-0.7868513774259605"><ele>89.6</ele><time>2026-04-26T12:26:36Z</time></trkpt><trkpt lat="47.974606615841466" lon="-0.7868215480154825"><ele>88.39999999999999</ele><time>2026-04-26T12:26:37Z</time></trkpt><trkpt lat="47.97469664490937" lon="-0.7867933354076471"><ele>87.19999999999999</ele><time>2026-04-26T12:26:38Z</time></trkpt><trkpt lat="47.9747895659483" lon="-0.7867645355850146"><ele>86.0</ele><time>2026-04-26T12:26:39Z</time></trkpt><trkpt lat="47.97488440667613" lon="-0.7867336996599213"><ele>86.0</ele><time>2026-04-26T12:26:40Z</time></trkpt><trkpt lat="47.97498084132669" lon="-0.7867032707859858"><ele>86.0</ele><time>2026-04-26T12:26:41Z</time></trkpt><trkpt lat="47.975078775285986" lon="-0.7866693574113633"><ele>86.0</ele><time>2026-04-26T12:26:42Z</time></trkpt><trkpt lat="47.97517796641551" lon="-0.7866382133019236"><ele>86.0</ele><time>2026-04-26T12:26:43Z</time></trkpt><trkpt lat="47.975279257883976" lon="-0.7866059161478872"><ele>86.0</ele><time>2026-04-26T12:26:44Z</time></trkpt><trkpt lat="47.975382758010824" lon="-0.7865721787644901"><ele>85.25</ele><time>2026-04-26T12:26:45Z</time></trkpt><trkpt lat="47.97549075345969" lon="-0.7865427991043226"><ele>84.5</ele><time>2026-04-26T12:26:46Z</time></trkpt><trkpt lat="47.97560175163387" lon="-0.7865078277139921"><ele>83.75</ele><time>2026-04-26T12:26:47Z</time></trkpt><trkpt lat="47.975713554187614" lon="-0.7864690156731112"><ele>83.0</ele><time>2026-04-26T12:26:48Z</time></trkpt><trkpt lat="47.97583089284078" lon="-0.7864279256123463"><ele>83.25</ele><time>2026-04-26T12:26:49Z</time></trkpt><trkpt lat="47.97595843525657" lon="-0.7863875578870549"><ele>83.5</ele><time>2026-04-26T12:26:50Z</time></trkpt><trkpt lat="47.97608948768456" lon="-0.7863439625343731"><ele>83.75</ele><time>2026-04-26T12:26:51Z</time></trkpt><trkpt lat="47.976217436798386" lon="-0.7863126405379945"><ele>84.0</ele><time>2026-04-26T12:26:52Z</time></trkpt><trkpt lat="47.976342387639825" lon="-0.7862740411447954"><ele>84.0</ele><time>2026-04-26T12:26:53Z</time></trkpt><trkpt lat="47.97646429128915" lon="-0.7862292819221312"><ele>84.0</ele><time>2026-04-26T12:26:54Z</time></trkpt><trkpt lat="47.97658216449826" lon="-0.7861805714331609"><ele>84.0</ele><time>2026-04-26T12:26:55Z</time></trkpt><trkpt lat="47.97670254887303" lon="-0.7861463308767913"><ele>84.0</ele><time>2026-04-26T12:26:56Z</time></trkpt><trkpt lat="47.97681294605342" lon="-0.7861050346457572"><ele>84.2</ele><time>2026-04-26T12:26:57Z</time></trkpt><trkpt lat="47.97692900954387" lon="-0.786072666332106"><ele>84.4</ele><time>2026-04-26T12:26:58Z</time></trkpt><trkpt lat="47.97703752963351" lon="-0.7860255078643368"><ele>84.6</ele><time>2026-04-26T12:26:59Z</time></trkpt><trkpt lat="47.977145990425534" lon="-0.7860004199374625"><ele>84.8</ele><time>2026-04-26T12:27:00Z</time></trkpt><trkpt lat="47.97724872088908" lon="-0.7859639235242998"><ele>85.0</ele><time>2026-04-26T12:27:01Z</time></trkpt><trkpt lat="47.97734376707187" lon="-0.7859311285231149"><ele>84.83333333333333</ele><time>2026-04-26T12:27:02Z</time></trkpt><trkpt lat="47.97743583801746" lon="-0.7859029632676191"><ele>84.66666666666666</ele><time>2026-04-26T12:27:03Z</time></trkpt><trkpt lat="47.9775240140792" lon="-0.7858717485007041"><ele>84.5</ele><time>2026-04-26T12:27:04Z</time></trkpt><trkpt lat="47.97760790302812" lon="-0.7858409278605701"><ele>84.33333333333333</ele><time>2026-04-26T12:27:05Z</time></trkpt><trkpt lat="47.977691673478596" lon="-0.7858136142190612"><ele>84.16666666666667</ele><time>2026-04-26T12:27:06Z</time></trkpt><trkpt lat="47.97777471766921" lon="-0.78578558787925"><ele>84.0</ele><time>2026-04-26T12:27:07Z</time></trkpt><trkpt lat="47.97785588120897" lon="-0.7857558065760799"><ele>84.0</ele><time>2026-04-26T12:27:08Z</time></trkpt><trkpt lat="47.97793763073817" lon="-0.7857337459016515"><ele>84.0</ele><time>2026-04-26T12:27:09Z</time></trkpt><trkpt lat="47.978020526766386" lon="-0.7857071506364067"><ele>84.0</ele><time>2026-04-26T12:27:10Z</time></trkpt><trkpt lat="47.978104426499186" lon="-0.7856813323709702"><ele>84.0</ele><time>2026-04-26T12:27:11Z</time></trkpt><trkpt lat="47.97818832553172" lon="-0.7856507124450882"><ele>84.0</ele><time>2026-04-26T12:27:12Z</time></trkpt><trkpt lat="47.97827547477625" lon="-0.7856221980295128"><ele>84.0</ele><time>2026-04-26T12:27:13Z</time></trkpt><trkpt lat="47.97836413395977" lon="-0.785594378995465"><ele>84.0</ele><time>2026-04-26T12:27:14Z</time></trkpt><trkpt lat="47.97845561089152" lon="-0.7855654830214761"><ele>84.0</ele><time>2026-04-26T12:27:15Z</time></trkpt><trkpt lat="47.97854888445957" lon="-0.7855361436486532"><ele>84.0</ele><time>2026-04-26T12:27:16Z</time></trkpt><trkpt lat="47.97864320986396" lon="-0.785504113904965"><ele>84.0</ele><time>2026-04-26T12:27:17Z</time></trkpt><trkpt lat="47.9787383926081" lon="-0.7854733329417891"><ele>84.0</ele><time>2026-04-26T12:27:18Z</time></trkpt><trkpt lat="47.97883402057447" lon="-0.7854432922817565"><ele>84.0</ele><time>2026-04-26T12:27:19Z</time></trkpt><trkpt lat="47.97892696355239" lon="-0.7854114288412671"><ele>84.0</ele><time>2026-04-26T12:27:20Z</time></trkpt><trkpt lat="47.979020916813596" lon="-0.7853829286157394"><ele>84.0</ele><time>2026-04-26T12:27:21Z</time></trkpt><trkpt lat="47.979111350167265" lon="-0.7853515488224279"><ele>84.0</ele><time>2026-04-26T12:27:22Z</time></trkpt><trkpt lat="47.97919945534829" lon="-0.7853227011118378"><ele>84.0</ele><time>2026-04-26T12:27:23Z</time></trkpt><trkpt lat="47.97928497852706" lon="-0.7852934483062705"><ele>83.83333333333333</ele><time>2026-04-26T12:27:24.001Z</time></trkpt><trkpt lat="47.979367520496474" lon="-0.7852649077191294"><ele>83.66666666666667</ele><time>2026-04-26T12:27:25.001Z</time></trkpt><trkpt lat="47.97944916152105" lon="-0.7852379191787355"><ele>83.5</ele><time>2026-04-26T12:27:26.001Z</time></trkpt><trkpt lat="47.97952846051537" lon="-0.7852106824606528"><ele>83.33333333333334</ele><time>2026-04-26T12:27:27.001Z</time></trkpt><trkpt lat="47.97960502688313" lon="-0.7851870561192135"><ele>83.16666666666667</ele><time>2026-04-26T12:27:28.001Z</time></trkpt><trkpt lat="47.97968231888957" lon="-0.7851623207357343"><ele>83.0</ele><time>2026-04-26T12:27:29.001Z</time></trkpt><trkpt lat="47.97975965976679" lon="-0.785135690664859"><ele>82.33333333333334</ele><time>2026-04-26T12:27:30.001Z</time></trkpt><trkpt lat="47.97983798265505" lon="-0.7851091095869264"><ele>81.66666666666667</ele><time>2026-04-26T12:27:31.001Z</time></trkpt><trkpt lat="47.97991917444974" lon="-0.7850837699534213"><ele>81.0</ele><time>2026-04-26T12:27:32.001Z</time></trkpt><trkpt lat="47.980004528955035" lon="-0.7850554291234659"><ele>80.33333333333333</ele><time>2026-04-26T12:27:33.001Z</time></trkpt><trkpt lat="47.980091172990555" lon="-0.7850258046381342"><ele>79.66666666666666</ele><time>2026-04-26T12:27:34.001Z</time></trkpt><trkpt lat="47.980177509592885" lon="-0.7849973928425342"><ele>79.0</ele><time>2026-04-26T12:27:35.001Z</time></trkpt><trkpt lat="47.98026567658743" lon="-0.7849676174756787"><ele>78.8</ele><time>2026-04-26T12:27:36.001Z</time></trkpt><trkpt lat="47.98035646308005" lon="-0.7849390884840569"><ele>78.60000000000001</ele><time>2026-04-26T12:27:37.001Z</time></trkpt><trkpt lat="47.98044761319597" lon="-0.7849098664884822"><ele>78.4</ele><time>2026-04-26T12:27:38.001Z</time></trkpt><trkpt lat="47.980540084472" lon="-0.7848792418500484"><ele>78.2</ele><time>2026-04-26T12:27:39.001Z</time></trkpt><trkpt lat="47.98063328604442" lon="-0.7848465313417979"><ele>78.0</ele><time>2026-04-26T12:27:40.001Z</time></trkpt><trkpt lat="47.98072861794765" lon="-0.7848150131939077"><ele>78.0</ele><time>2026-04-26T12:27:41.001Z</time></trkpt><trkpt lat="47.98082727633398" lon="-0.784782443376496"><ele>78.0</ele><time>2026-04-26T12:27:42.001Z</time></trkpt><trkpt lat="47.98092789843017" lon="-0.7847459804815481"><ele>78.0</ele><time>2026-04-26T12:27:43.001Z</time></trkpt><trkpt lat="47.981029725432286" lon="-0.7847144364767825"><ele>78.0</ele><time>2026-04-26T12:27:44.001Z</time></trkpt><trkpt lat="47.981132748484924" lon="-0.7846811908213974"><ele>78.0</ele><time>2026-04-26T12:27:45.001Z</time></trkpt><trkpt lat="47.98123952464726" lon="-0.7846411284615264"><ele>78.2</ele><time>2026-04-26T12:27:46.001Z</time></trkpt><trkpt lat="47.98134764964573" lon="-0.7846062336915236"><ele>78.4</ele><time>2026-04-26T12:27:47.001Z</time></trkpt><trkpt lat="47.98145841863261" lon="-0.784565645693748"><ele>78.60000000000001</ele><time>2026-04-26T12:27:48.001Z</time></trkpt><trkpt lat="47.9815682407335" lon="-0.7845298648104733"><ele>78.8</ele><time>2026-04-26T12:27:49.001Z</time></trkpt><trkpt lat="47.98167729575931" lon="-0.784494158134441"><ele>79.0</ele><time>2026-04-26T12:27:50.001Z</time></trkpt><trkpt lat="47.981783586894366" lon="-0.7844594826585726"><ele>79.0</ele><time>2026-04-26T12:27:51.001Z</time></trkpt><trkpt lat="47.98188634479074" lon="-0.7844253844562883"><ele>79.0</ele><time>2026-04-26T12:27:52.001Z</time></trkpt><trkpt lat="47.981985847820404" lon="-0.784388792761533"><ele>79.0</ele><time>2026-04-26T12:27:53Z</time></trkpt><trkpt lat="47.982079387054256" lon="-0.7843548148838678"><ele>79.0</ele><time>2026-04-26T12:27:54Z</time></trkpt><trkpt lat="47.98216744254599" lon="-0.7843268185568549"><ele>79.0</ele><time>2026-04-26T12:27:55Z</time></trkpt><trkpt lat="47.98225620543509" lon="-0.7842989874753338"><ele>78.83333333333333</ele><time>2026-04-26T12:27:56Z</time></trkpt><trkpt lat="47.982340113058406" lon="-0.7842742663563183"><ele>78.66666666666666</ele><time>2026-04-26T12:27:57Z</time></trkpt><trkpt lat="47.98242013336953" lon="-0.7842488895470254"><ele>78.5</ele><time>2026-04-26T12:27:58Z</time></trkpt><trkpt lat="47.98249672972692" lon="-0.7842186738514707"><ele>78.33333333333333</ele><time>2026-04-26T12:27:59Z</time></trkpt><trkpt lat="47.98257316602282" lon="-0.7841989518805366"><ele>78.16666666666667</ele><time>2026-04-26T12:28:00Z</time></trkpt><trkpt lat="47.98264822481724" lon="-0.784175726177343"><ele>78.0</ele><time>2026-04-26T12:28:01Z</time></trkpt><trkpt lat="47.982725475832225" lon="-0.7841523243369108"><ele>78.0</ele><time>2026-04-26T12:28:02Z</time></trkpt><trkpt lat="47.98280056441687" lon="-0.7841222161399722"><ele>78.0</ele><time>2026-04-26T12:28:03Z</time></trkpt><trkpt lat="47.98286846338446" lon="-0.7840891930537972"><ele>78.0</ele><time>2026-04-26T12:28:04Z</time></trkpt><trkpt lat="47.98293864495606" lon="-0.7840623203928964"><ele>78.0</ele><time>2026-04-26T12:28:05Z</time></trkpt><trkpt lat="47.98300863427422" lon="-0.7840350757065755"><ele>78.0</ele><time>2026-04-26T12:28:06Z</time></trkpt><trkpt lat="47.983077887773966" lon="-0.784005429089597"><ele>78.0</ele><time>2026-04-26T12:28:07Z</time></trkpt><trkpt lat="47.983146269599466" lon="-0.7839687074049732"><ele>78.0</ele><time>2026-04-26T12:28:08Z</time></trkpt><trkpt lat="47.98321586583928" lon="-0.7839317873323752"><ele>78.0</ele><time>2026-04-26T12:28:09Z</time></trkpt><trkpt lat="47.98328672862201" lon="-0.7839001691884644"><ele>78.0</ele><time>2026-04-26T12:28:10Z</time></trkpt><trkpt lat="47.983359407543674" lon="-0.7838696239358711"><ele>78.0</ele><time>2026-04-26T12:28:11Z</time></trkpt><trkpt lat="47.98343020075251" lon="-0.7838344500378063"><ele>78.0</ele><time>2026-04-26T12:28:12Z</time></trkpt><trkpt lat="47.983503462953095" lon="-0.7838007897862487"><ele>78.0</ele><time>2026-04-26T12:28:13Z</time></trkpt><trkpt lat="47.983576839185595" lon="-0.7837652654250212"><ele>78.0</ele><time>2026-04-26T12:28:14Z</time></trkpt><trkpt lat="47.98364957821691" lon="-0.7837252064988398"><ele>77.33333333333333</ele><time>2026-04-26T12:28:15Z</time></trkpt><trkpt lat="47.983726699730646" lon="-0.7836862084522025"><ele>76.66666666666667</ele><time>2026-04-26T12:28:16Z</time></trkpt><trkpt lat="47.98380498689448" lon="-0.7836668599451594"><ele>76.0</ele><time>2026-04-26T12:28:17Z</time></trkpt><trkpt lat="47.983887557441776" lon="-0.7836608667336744"><ele>75.33333333333334</ele><time>2026-04-26T12:28:18Z</time></trkpt><trkpt lat="47.98397211321564" lon="-0.7836573132191792"><ele>74.66666666666667</ele><time>2026-04-26T12:28:19Z</time></trkpt><trkpt lat="47.98405371765135" lon="-0.7836303350929252"><ele>74.0</ele><time>2026-04-26T12:28:20Z</time></trkpt><trkpt lat="47.98413726366481" lon="-0.7835881855880489"><ele>72.8</ele><time>2026-04-26T12:28:21Z</time></trkpt><trkpt lat="47.98422519313186" lon="-0.783559678396626"><ele>71.60000000000001</ele><time>2026-04-26T12:28:22Z</time></trkpt><trkpt lat="47.98431334894183" lon="-0.7835340878742125"><ele>70.4</ele><time>2026-04-26T12:28:23Z</time></trkpt><trkpt lat="47.984404932281066" lon="-0.7835113209252154"><ele>69.2</ele><time>2026-04-26T12:28:24Z</time></trkpt><trkpt lat="47.98449852081192" lon="-0.783485208294967"><ele>68.0</ele><time>2026-04-26T12:28:25Z</time></trkpt><trkpt lat="47.98459346797946" lon="-0.783449838049649"><ele>68.0</ele><time>2026-04-26T12:28:26Z</time></trkpt><trkpt lat="47.98469179454488" lon="-0.783414862599308"><ele>68.0</ele><time>2026-04-26T12:28:27Z</time></trkpt><trkpt lat="47.98479134598726" lon="-0.7833803784153721"><ele>68.0</ele><time>2026-04-26T12:28:28Z</time></trkpt><trkpt lat="47.984891335570346" lon="-0.7833494785657886"><ele>68.0</ele><time>2026-04-26T12:28:29Z</time></trkpt><trkpt lat="47.984992451040746" lon="-0.7833108523487909"><ele>68.0</ele><time>2026-04-26T12:28:30Z</time></trkpt><trkpt lat="47.985096734817795" lon="-0.7832663866933299"><ele>66.5</ele><time>2026-04-26T12:28:31Z</time></trkpt><trkpt lat="47.98520471978965" lon="-0.7832317066764566"><ele>65.0</ele><time>2026-04-26T12:28:32Z</time></trkpt><trkpt lat="47.9853099303568" lon="-0.7831758682686426"><ele>63.5</ele><time>2026-04-26T12:28:33Z</time></trkpt><trkpt lat="47.98540275149878" lon="-0.7830725686535945"><ele>62.0</ele><time>2026-04-26T12:28:34Z</time></trkpt><trkpt lat="47.98547692371827" lon="-0.7829336832755928"><ele>62.0</ele><time>2026-04-26T12:28:35Z</time></trkpt><trkpt lat="47.98555034212873" lon="-0.7828048468942377"><ele>62.0</ele><time>2026-04-26T12:28:36Z</time></trkpt><trkpt lat="47.985642228209095" lon="-0.7827003665223021"><ele>62.0</ele><time>2026-04-26T12:28:37Z</time></trkpt><trkpt lat="47.985749275568395" lon="-0.782626125936066"><ele>62.0</ele><time>2026-04-26T12:28:38Z</time></trkpt><trkpt lat="47.98585605232513" lon="-0.7825760645100069"><ele>60.5</ele><time>2026-04-26T12:28:39Z</time></trkpt><trkpt lat="47.98596727336877" lon="-0.7825231982049127"><ele>59.0</ele><time>2026-04-26T12:28:40Z</time></trkpt><trkpt lat="47.98607595805978" lon="-0.7824639215046335"><ele>57.5</ele><time>2026-04-26T12:28:41Z</time></trkpt><trkpt lat="47.98618261965133" lon="-0.7824017020057625"><ele>56.0</ele><time>2026-04-26T12:28:42Z</time></trkpt><trkpt lat="47.98628536660249" lon="-0.7823396047415595"><ele>56.0</ele><time>2026-04-26T12:28:43Z</time></trkpt><trkpt lat="47.98638017148725" lon="-0.782279063490152"><ele>56.0</ele><time>2026-04-26T12:28:44Z</time></trkpt><trkpt lat="47.98646591014653" lon="-0.7822209950459253"><ele>56.0</ele><time>2026-04-26T12:28:45Z</time></trkpt><trkpt lat="47.98661969580307" lon="-0.7821214907227861"><ele>56.0</ele><time>2026-04-26T12:28:47Z</time></trkpt><trkpt lat="47.986777666194584" lon="-0.7821024691286804"><ele>55.16666666666667</ele><time>2026-04-26T12:28:49Z</time></trkpt><trkpt lat="47.98685881717191" lon="-0.7820951440682188"><ele>54.333333333333336</ele><time>2026-04-26T12:28:50Z</time></trkpt><trkpt lat="47.98694806337314" lon="-0.7820885200654355"><ele>53.5</ele><time>2026-04-26T12:28:51Z</time></trkpt><trkpt lat="47.987033144904316" lon="-0.7820786731599755"><ele>52.66666666666667</ele><time>2026-04-26T12:28:52Z</time></trkpt><trkpt lat="47.98711545354835" lon="-0.7820694675759308"><ele>51.833333333333336</ele><time>2026-04-26T12:28:53Z</time></trkpt><trkpt lat="47.98719762635384" lon="-0.782063654369606"><ele>51.0</ele><time>2026-04-26T12:28:54Z</time></trkpt><trkpt lat="47.98728153170517" lon="-0.7820534137822638"><ele>51.0</ele><time>2026-04-26T12:28:55Z</time></trkpt><trkpt lat="47.987365681656236" lon="-0.7820433514194112"><ele>51.0</ele><time>2026-04-26T12:28:56Z</time></trkpt><trkpt lat="47.987452572251094" lon="-0.7820369282780741"><ele>51.0</ele><time>2026-04-26T12:28:57Z</time></trkpt><trkpt lat="47.98753867789647" lon="-0.7820253784224511"><ele>51.0</ele><time>2026-04-26T12:28:58Z</time></trkpt><trkpt lat="47.9876248479279" lon="-0.7820174724230677"><ele>51.0</ele><time>2026-04-26T12:28:59Z</time></trkpt><trkpt lat="47.98771000174721" lon="-0.7820087307126036"><ele>51.0</ele><time>2026-04-26T12:29:00Z</time></trkpt><trkpt lat="47.987796955781555" lon="-0.7819994542190262"><ele>51.333333333333336</ele><time>2026-04-26T12:29:01Z</time></trkpt><trkpt lat="47.98788072714009" lon="-0.7819917634048436"><ele>51.66666666666667</ele><time>2026-04-26T12:29:02Z</time></trkpt><trkpt lat="47.98796672270041" lon="-0.7819807967223914"><ele>52.0</ele><time>2026-04-26T12:29:03Z</time></trkpt><trkpt lat="47.98805120538144" lon="-0.7819722651441262"><ele>52.333333333333336</ele><time>2026-04-26T12:29:04Z</time></trkpt><trkpt lat="47.988136353152" lon="-0.7819636594227187"><ele>52.66666666666667</ele><time>2026-04-26T12:29:05Z</time></trkpt><trkpt lat="47.98822071936423" lon="-0.7819540284493856"><ele>53.0</ele><time>2026-04-26T12:29:06Z</time></trkpt><trkpt lat="47.98830217364074" lon="-0.7819477505422671"><ele>53.833333333333336</ele><time>2026-04-26T12:29:07Z</time></trkpt><trkpt lat="47.98838200677017" lon="-0.7819427280449958"><ele>54.66666666666667</ele><time>2026-04-26T12:29:08Z</time></trkpt><trkpt lat="47.98845893192767" lon="-0.7819399863679195"><ele>55.5</ele><time>2026-04-26T12:29:09Z</time></trkpt><trkpt lat="47.988530603129526" lon="-0.781940998482479"><ele>56.33333333333333</ele><time>2026-04-26T12:29:10Z</time></trkpt><trkpt lat="47.988600488565055" lon="-0.781944960192239"><ele>57.166666666666664</ele><time>2026-04-26T12:29:11Z</time></trkpt><trkpt lat="47.98866385771423" lon="-0.7819576499674941"><ele>58.0</ele><time>2026-04-26T12:29:12Z</time></trkpt><trkpt lat="47.98877373908435" lon="-0.7820154474927782"><ele>57.99999999999999</ele><time>2026-04-26T12:29:14Z</time></trkpt><trkpt lat="47.98886356610106" lon="-0.7820885209040997"><ele>58.0</ele><time>2026-04-26T12:29:16Z</time></trkpt><trkpt lat="47.98893822502622" lon="-0.782169743806439"><ele>58.0</ele><time>2026-04-26T12:29:18Z</time></trkpt><trkpt lat="47.98899118008307" lon="-0.782248153209003"><ele>58.0</ele><time>2026-04-26T12:29:20Z</time></trkpt><trkpt lat="47.989036485407425" lon="-0.7823567791355721"><ele>57.99999999999999</ele><time>2026-04-26T12:29:23Z</time></trkpt><trkpt lat="47.98908228767899" lon="-0.7824737802874228"><ele>58.0</ele><time>2026-04-26T12:29:26Z</time></trkpt><trkpt lat="47.98910023689041" lon="-0.7825642503471003"><ele>57.666666666666664</ele><time>2026-04-26T12:29:28Z</time></trkpt><trkpt lat="47.98913834526282" lon="-0.7826930164722115"><ele>57.33333333333333</ele><time>2026-04-26T12:29:31.001Z</time></trkpt><trkpt lat="47.98918582254362" lon="-0.782808789449202"><ele>57.0</ele><time>2026-04-26T12:29:34.001Z</time></trkpt><trkpt lat="47.98924074051785" lon="-0.7828560142166466"><ele>56.66666666666667</ele><time>2026-04-26T12:29:36.001Z</time></trkpt><trkpt lat="47.98930855928222" lon="-0.7828586912031184"><ele>56.333333333333336</ele><time>2026-04-26T12:29:38.001Z</time></trkpt><trkpt lat="47.989395392408454" lon="-0.782813754856387"><ele>56.0</ele><time>2026-04-26T12:29:41.001Z</time></trkpt><trkpt lat="47.989443847939306" lon="-0.7827524326152874"><ele>58.66666666666667</ele><time>2026-04-26T12:29:43.001Z</time></trkpt><trkpt lat="47.98948476759292" lon="-0.7826803126926523"><ele>61.333333333333336</ele><time>2026-04-26T12:29:45.001Z</time></trkpt><trkpt lat="47.989543644837696" lon="-0.782575176587316"><ele>64.0</ele><time>2026-04-26T12:29:48.001Z</time></trkpt><trkpt lat="47.98960349532913" lon="-0.7824701823711764"><ele>66.66666666666667</ele><time>2026-04-26T12:29:51.001Z</time></trkpt><trkpt lat="47.98963960612978" lon="-0.7823910438986041"><ele>69.33333333333333</ele><time>2026-04-26T12:29:53Z</time></trkpt><trkpt lat="47.98969969074915" lon="-0.7822843446202535"><ele>72.0</ele><time>2026-04-26T12:29:56Z</time></trkpt><trkpt lat="47.98975405224984" lon="-0.7821692412151535"><ele>72.0</ele><time>2026-04-26T12:29:59Z</time></trkpt><trkpt lat="47.98981084800878" lon="-0.7820661665431243"><ele>72.0</ele><time>2026-04-26T12:30:02Z</time></trkpt><trkpt lat="47.98986269803695" lon="-0.7819601480703562"><ele>72.0</ele><time>2026-04-26T12:30:05Z</time></trkpt><trkpt lat="47.98991938642694" lon="-0.7818573816764541"><ele>72.0</ele><time>2026-04-26T12:30:08Z</time></trkpt><trkpt lat="47.98996912150751" lon="-0.7817573629539182"><ele>72.0</ele><time>2026-04-26T12:30:11Z</time></trkpt><trkpt lat="47.990018060897356" lon="-0.7816621838310495"><ele>72.0</ele><time>2026-04-26T12:30:14Z</time></trkpt><trkpt lat="47.990061478290336" lon="-0.7815614652715026"><ele>72.66666666666667</ele><time>2026-04-26T12:30:17Z</time></trkpt><trkpt lat="47.99011051571563" lon="-0.7814670004704002"><ele>73.33333333333333</ele><time>2026-04-26T12:30:20Z</time></trkpt><trkpt lat="47.990158316030936" lon="-0.7813711219657662"><ele>74.0</ele><time>2026-04-26T12:30:23Z</time></trkpt><trkpt lat="47.99020700540485" lon="-0.7812807987364677"><ele>74.66666666666666</ele><time>2026-04-26T12:30:26Z</time></trkpt><trkpt lat="47.990251678051166" lon="-0.7811897836747927"><ele>75.33333333333333</ele><time>2026-04-26T12:30:29Z</time></trkpt><trkpt lat="47.990296377954955" lon="-0.7810927451882296"><ele>76.0</ele><time>2026-04-26T12:30:32Z</time></trkpt><trkpt lat="47.99034705706473" lon="-0.781000047610924"><ele>76.0</ele><time>2026-04-26T12:30:35Z</time></trkpt><trkpt lat="47.99039360262609" lon="-0.7809080355417429"><ele>76.0</ele><time>2026-04-26T12:30:38Z</time></trkpt><trkpt lat="47.990442149072194" lon="-0.780824926560429"><ele>76.0</ele><time>2026-04-26T12:30:41Z</time></trkpt><trkpt lat="47.990502229259924" lon="-0.7807504878815927"><ele>76.0</ele><time>2026-04-26T12:30:44Z</time></trkpt><trkpt lat="47.990563771663616" lon="-0.7806931375264939"><ele>76.0</ele><time>2026-04-26T12:30:47Z</time></trkpt><trkpt lat="47.99063440867948" lon="-0.7806569260868323"><ele>76.0</ele><time>2026-04-26T12:30:50Z</time></trkpt><trkpt lat="47.99071324061935" lon="-0.7806392540671675"><ele>76.0</ele><time>2026-04-26T12:30:53Z</time></trkpt><trkpt lat="47.9907931873099" lon="-0.780643745409861"><ele>76.0</ele><time>2026-04-26T12:30:56Z</time></trkpt><trkpt lat="47.99087002974597" lon="-0.7806700022757576"><ele>76.0</ele><time>2026-04-26T12:30:59Z</time></trkpt><trkpt lat="47.990948721539255" lon="-0.7806994823640062"><ele>76.0</ele><time>2026-04-26T12:31:02Z</time></trkpt><trkpt lat="47.99102745197014" lon="-0.780740311760223"><ele>76.0</ele><time>2026-04-26T12:31:05Z</time></trkpt><trkpt lat="47.991106062756465" lon="-0.7807823093294484"><ele>76.0</ele><time>2026-04-26T12:31:08Z</time></trkpt><trkpt lat="47.9911846825664" lon="-0.7808222899977838"><ele>76.83333333333333</ele><time>2026-04-26T12:31:11Z</time></trkpt><trkpt lat="47.991265300976586" lon="-0.7808706389652356"><ele>77.66666666666666</ele><time>2026-04-26T12:31:14Z</time></trkpt><trkpt lat="47.991340512728634" lon="-0.7809074498482826"><ele>78.5</ele><time>2026-04-26T12:31:17Z</time></trkpt><trkpt lat="47.99141389993084" lon="-0.7809438722455754"><ele>79.33333333333333</ele><time>2026-04-26T12:31:19.999Z</time></trkpt><trkpt lat="47.991485536170686" lon="-0.780986446436865"><ele>80.16666666666667</ele><time>2026-04-26T12:31:22.999Z</time></trkpt><trkpt lat="47.991559086419834" lon="-0.7810233457576672"><ele>81.0</ele><time>2026-04-26T12:31:25.999Z</time></trkpt><trkpt lat="47.99163451140849" lon="-0.7810612456689721"><ele>82.5</ele><time>2026-04-26T12:31:28.999Z</time></trkpt><trkpt lat="47.99171270505734" lon="-0.7811035751750758"><ele>84.0</ele><time>2026-04-26T12:31:31.999Z</time></trkpt><trkpt lat="47.99179106054005" lon="-0.7811440757203976"><ele>85.5</ele><time>2026-04-26T12:31:34.999Z</time></trkpt><trkpt lat="47.991864758556815" lon="-0.7811808433480554"><ele>87.0</ele><time>2026-04-26T12:31:38.001Z</time></trkpt><trkpt lat="47.99194877402628" lon="-0.7812270189678409"><ele>88.5</ele><time>2026-04-26T12:31:41.001Z</time></trkpt><trkpt lat="47.99203454618954" lon="-0.7812714321770844"><ele>90.0</ele><time>2026-04-26T12:31:44.001Z</time></trkpt><trkpt lat="47.99211950946566" lon="-0.7813205988821793"><ele>90.0</ele><time>2026-04-26T12:31:47.001Z</time></trkpt><trkpt lat="47.99220280325162" lon="-0.781362678127464"><ele>90.0</ele><time>2026-04-26T12:31:50.001Z</time></trkpt><trkpt lat="47.99228886299272" lon="-0.7814053763980665"><ele>90.0</ele><time>2026-04-26T12:31:53Z</time></trkpt><trkpt lat="47.99237135821325" lon="-0.7814511029466085"><ele>90.0</ele><time>2026-04-26T12:31:56Z</time></trkpt><trkpt lat="47.99245412311243" lon="-0.7814931968515907"><ele>90.0</ele><time>2026-04-26T12:31:59Z</time></trkpt><trkpt lat="47.9925364206659" lon="-0.7815347546888521"><ele>90.0</ele><time>2026-04-26T12:32:02Z</time></trkpt><trkpt lat="47.992596118392505" lon="-0.7815679399392559"><ele>89.83333333333333</ele><time>2026-04-26T12:32:04Z</time></trkpt><trkpt lat="47.99268443434596" lon="-0.781612032303484"><ele>89.66666666666667</ele><time>2026-04-26T12:32:07Z</time></trkpt><trkpt lat="47.992768795725475" lon="-0.781658080801019"><ele>89.5</ele><time>2026-04-26T12:32:10Z</time></trkpt><trkpt lat="47.99285366867464" lon="-0.7817043465797153"><ele>89.33333333333334</ele><time>2026-04-26T12:32:13Z</time></trkpt><trkpt lat="47.99291458035608" lon="-0.781732903814707"><ele>89.16666666666667</ele><time>2026-04-26T12:32:15Z</time></trkpt><trkpt lat="47.99297393794192" lon="-0.7817664283933606"><ele>89.0</ele><time>2026-04-26T12:32:17Z</time></trkpt><trkpt lat="47.99306089960399" lon="-0.7818148903120958"><ele>89.57142857142857</ele><time>2026-04-26T12:32:20Z</time></trkpt><trkpt lat="47.99315014407233" lon="-0.7818612588789731"><ele>90.14285714285714</ele><time>2026-04-26T12:32:23Z</time></trkpt><trkpt lat="47.99321152102457" lon="-0.7818929732029358"><ele>90.71428571428572</ele><time>2026-04-26T12:32:25Z</time></trkpt><trkpt lat="47.99327285919596" lon="-0.7819286550628569"><ele>91.28571428571428</ele><time>2026-04-26T12:32:27Z</time></trkpt><trkpt lat="47.99333660350857" lon="-0.7819650139909798"><ele>91.85714285714286</ele><time>2026-04-26T12:32:29Z</time></trkpt><trkpt lat="47.99340218585854" lon="-0.78199860851362"><ele>92.42857142857143</ele><time>2026-04-26T12:32:31Z</time></trkpt><trkpt lat="47.99346322570831" lon="-0.7820339790145767"><ele>93.0</ele><time>2026-04-26T12:32:33Z</time></trkpt><trkpt lat="47.99355068269695" lon="-0.7820739252198471"><ele>93.5</ele><time>2026-04-26T12:32:36Z</time></trkpt><trkpt lat="47.99364403649778" lon="-0.7821074513211875"><ele>94.0</ele><time>2026-04-26T12:32:39Z</time></trkpt><trkpt lat="47.99373406909776" lon="-0.7821358966425883"><ele>94.5</ele><time>2026-04-26T12:32:42Z</time></trkpt><trkpt lat="47.993797084856894" lon="-0.7821368625482011"><ele>95.0</ele><time>2026-04-26T12:32:44Z</time></trkpt><trkpt lat="47.99386087346714" lon="-0.7821302009889542"><ele>95.5</ele><time>2026-04-26T12:32:46Z</time></trkpt><trkpt lat="47.9939511659655" lon="-0.7821150747479703"><ele>96.0</ele><time>2026-04-26T12:32:49Z</time></trkpt><trkpt lat="47.99404013757124" lon="-0.7820865108611558"><ele>96.0</ele><time>2026-04-26T12:32:52Z</time></trkpt><trkpt lat="47.994127640294096" lon="-0.7820493219233766"><ele>96.0</ele><time>2026-04-26T12:32:55Z</time></trkpt><trkpt lat="47.99421784097381" lon="-0.7820152118830673"><ele>96.0</ele><time>2026-04-26T12:32:58Z</time></trkpt><trkpt lat="47.994307684142534" lon="-0.781981104546886"><ele>96.0</ele><time>2026-04-26T12:33:01Z</time></trkpt><trkpt lat="47.99439838014084" lon="-0.7819518083383036"><ele>96.0</ele><time>2026-04-26T12:33:04Z</time></trkpt><trkpt lat="47.99448589005476" lon="-0.7819145742468728"><ele>96.16666666666667</ele><time>2026-04-26T12:33:07Z</time></trkpt><trkpt lat="47.99457047213513" lon="-0.7818850098998533"><ele>96.33333333333334</ele><time>2026-04-26T12:33:10Z</time></trkpt><trkpt lat="47.99465576504224" lon="-0.7818554672124182"><ele>96.5</ele><time>2026-04-26T12:33:13Z</time></trkpt><trkpt lat="47.994741261115195" lon="-0.7818189786332158"><ele>96.66666666666667</ele><time>2026-04-26T12:33:15.999Z</time></trkpt><trkpt lat="47.9948301681016" lon="-0.7817914151138837"><ele>96.83333333333334</ele><time>2026-04-26T12:33:18.999Z</time></trkpt><trkpt lat="47.994920903714984" lon="-0.7817663560850611"><ele>97.0</ele><time>2026-04-26T12:33:21.999Z</time></trkpt><trkpt lat="47.99501164200609" lon="-0.7817288817833992"><ele>97.33333333333334</ele><time>2026-04-26T12:33:24.999Z</time></trkpt><trkpt lat="47.995102041258285" lon="-0.781698010514686"><ele>97.66666666666667</ele><time>2026-04-26T12:33:27.999Z</time></trkpt><trkpt lat="47.9951929325352" lon="-0.7816632374453488"><ele>98.0</ele><time>2026-04-26T12:33:30.999Z</time></trkpt><trkpt lat="47.99525634126153" lon="-0.7816384076666473"><ele>98.33333333333334</ele><time>2026-04-26T12:33:32.999Z</time></trkpt><trkpt lat="47.995320980775745" lon="-0.7816163132499284"><ele>98.66666666666667</ele><time>2026-04-26T12:33:34.999Z</time></trkpt><trkpt lat="47.9953835172143" lon="-0.7815903401791608"><ele>99.0</ele><time>2026-04-26T12:33:36.999Z</time></trkpt><trkpt lat="47.99545040661634" lon="-0.7815665471861823"><ele>99.0</ele><time>2026-04-26T12:33:38.999Z</time></trkpt><trkpt lat="47.99551741346267" lon="-0.7815490712452478"><ele>99.0</ele><time>2026-04-26T12:33:40.999Z</time></trkpt><trkpt lat="47.995585203291256" lon="-0.7815270367240233"><ele>99.0</ele><time>2026-04-26T12:33:43Z</time></trkpt><trkpt lat="47.99565249094264" lon="-0.7814896074705475"><ele>99.0</ele><time>2026-04-26T12:33:45Z</time></trkpt><trkpt lat="47.995724727869714" lon="-0.7814687695972097"><ele>99.0</ele><time>2026-04-26T12:33:47Z</time></trkpt><trkpt lat="47.99579302853325" lon="-0.781444099090907"><ele>99.0</ele><time>2026-04-26T12:33:49Z</time></trkpt><trkpt lat="47.99586187938629" lon="-0.7814168769386204"><ele>99.0</ele><time>2026-04-26T12:33:51Z</time></trkpt><trkpt lat="47.99593080037857" lon="-0.7813969616070295"><ele>99.0</ele><time>2026-04-26T12:33:53Z</time></trkpt><trkpt lat="47.99599833988505" lon="-0.7813695675706391"><ele>99.0</ele><time>2026-04-26T12:33:55Z</time></trkpt><trkpt lat="47.996066883721646" lon="-0.7813454587246318"><ele>99.0</ele><time>2026-04-26T12:33:57Z</time></trkpt><trkpt lat="47.99613339744171" lon="-0.7813213162108639"><ele>99.0</ele><time>2026-04-26T12:33:59Z</time></trkpt><trkpt lat="47.99619938941587" lon="-0.7813021447419739"><ele>99.0</ele><time>2026-04-26T12:34:01Z</time></trkpt><trkpt lat="47.9962656659839" lon="-0.7812768818809599"><ele>99.0</ele><time>2026-04-26T12:34:03Z</time></trkpt><trkpt lat="47.99633409521777" lon="-0.7812504463229901"><ele>99.0</ele><time>2026-04-26T12:34:05Z</time></trkpt><trkpt lat="47.996405647584" lon="-0.7812249113375284"><ele>99.0</ele><time>2026-04-26T12:34:07Z</time></trkpt><trkpt lat="47.99647716379293" lon="-0.7811997052545688"><ele>99.0</ele><time>2026-04-26T12:34:09Z</time></trkpt><trkpt lat="47.99655297537395" lon="-0.7811746043474902"><ele>99.0</ele><time>2026-04-26T12:34:11Z</time></trkpt><trkpt lat="47.99662884747386" lon="-0.7811486440784717"><ele>99.0</ele><time>2026-04-26T12:34:13Z</time></trkpt><trkpt lat="47.996704049230736" lon="-0.781121045850549"><ele>99.0</ele><time>2026-04-26T12:34:15Z</time></trkpt><trkpt lat="47.996776592064144" lon="-0.7810943152662914"><ele>99.0</ele><time>2026-04-26T12:34:17Z</time></trkpt><trkpt lat="47.996850031177814" lon="-0.7810704157448842"><ele>99.0</ele><time>2026-04-26T12:34:19Z</time></trkpt><trkpt lat="47.996926982806734" lon="-0.7810440203392572"><ele>99.0</ele><time>2026-04-26T12:34:21Z</time></trkpt><trkpt lat="47.997004495730955" lon="-0.7810157230478747"><ele>99.0</ele><time>2026-04-26T12:34:23Z</time></trkpt><trkpt lat="47.9970826667352" lon="-0.7809839210712066"><ele>99.0</ele><time>2026-04-26T12:34:25Z</time></trkpt><trkpt lat="47.9971635302731" lon="-0.7809603719104556"><ele>99.0</ele><time>2026-04-26T12:34:27Z</time></trkpt><trkpt lat="47.99724138836646" lon="-0.7809295794513404"><ele>99.0</ele><time>2026-04-26T12:34:29Z</time></trkpt><trkpt lat="47.99731791852029" lon="-0.7809000617306451"><ele>99.16666666666667</ele><time>2026-04-26T12:34:31Z</time></trkpt><trkpt lat="47.99739389549506" lon="-0.7808709745229313"><ele>99.33333333333334</ele><time>2026-04-26T12:34:33Z</time></trkpt><trkpt lat="47.99747099273042" lon="-0.7808476923136097"><ele>99.5</ele><time>2026-04-26T12:34:35Z</time></trkpt><trkpt lat="47.99754790855895" lon="-0.7808222113933396"><ele>99.66666666666667</ele><time>2026-04-26T12:34:37Z</time></trkpt><trkpt lat="47.99762413100379" lon="-0.7807925457343264"><ele>99.83333333333334</ele><time>2026-04-26T12:34:39Z</time></trkpt><trkpt lat="47.99770257083665" lon="-0.7807657441552285"><ele>100.0</ele><time>2026-04-26T12:34:41Z</time></trkpt><trkpt lat="47.99778016428575" lon="-0.7807385787932862"><ele>100.16666666666667</ele><time>2026-04-26T12:34:43Z</time></trkpt><trkpt lat="47.997860131978236" lon="-0.7807099611033681"><ele>100.33333333333334</ele><time>2026-04-26T12:34:45Z</time></trkpt><trkpt lat="47.997941735644616" lon="-0.7806836627128126"><ele>100.5</ele><time>2026-04-26T12:34:47Z</time></trkpt><trkpt lat="47.998024154630976" lon="-0.7806528515302518"><ele>100.66666666666666</ele><time>2026-04-26T12:34:49Z</time></trkpt><trkpt lat="47.99810666959335" lon="-0.7806225610119182"><ele>100.83333333333333</ele><time>2026-04-26T12:34:51Z</time></trkpt><trkpt lat="47.998188619821775" lon="-0.7805973602807781"><ele>101.0</ele><time>2026-04-26T12:34:53Z</time></trkpt><trkpt lat="47.99826897866919" lon="-0.7805661174950619"><ele>101.16666666666666</ele><time>2026-04-26T12:34:55Z</time></trkpt><trkpt lat="47.9983525533059" lon="-0.7805350214631233"><ele>101.33333333333333</ele><time>2026-04-26T12:34:57Z</time></trkpt><trkpt lat="47.998433355241616" lon="-0.7805080509736348"><ele>101.5</ele><time>2026-04-26T12:34:59Z</time></trkpt><trkpt lat="47.99851460043731" lon="-0.7804786686065704"><ele>101.66666666666666</ele><time>2026-04-26T12:35:01Z</time></trkpt><trkpt lat="47.99859784580451" lon="-0.7804490296986628"><ele>101.83333333333333</ele><time>2026-04-26T12:35:03Z</time></trkpt><trkpt lat="47.99867538797593" lon="-0.7804149175275773"><ele>102.0</ele><time>2026-04-26T12:35:04.999Z</time></trkpt><trkpt lat="47.9987576037794" lon="-0.7803918654177624"><ele>102.0</ele><time>2026-04-26T12:35:06.999Z</time></trkpt><trkpt lat="47.998842260583736" lon="-0.7803620808421218"><ele>102.0</ele><time>2026-04-26T12:35:08.999Z</time></trkpt><trkpt lat="47.99892614829487" lon="-0.7803289796640805"><ele>102.0</ele><time>2026-04-26T12:35:10.999Z</time></trkpt><trkpt lat="47.999012393722346" lon="-0.7803024967128656"><ele>102.0</ele><time>2026-04-26T12:35:12.999Z</time></trkpt><trkpt lat="47.99909931103607" lon="-0.7802656260436982"><ele>102.0</ele><time>2026-04-26T12:35:14.999Z</time></trkpt><trkpt lat="47.99919149677256" lon="-0.7802335558765447"><ele>102.0</ele><time>2026-04-26T12:35:16.999Z</time></trkpt><trkpt lat="47.99928422890814" lon="-0.7801998673287067"><ele>102.39999999999999</ele><time>2026-04-26T12:35:18.999Z</time></trkpt><trkpt lat="47.999423977897315" lon="-0.7801539074634594"><ele>102.8</ele><time>2026-04-26T12:35:21.999Z</time></trkpt><trkpt lat="47.99951941120759" lon="-0.7801177242157258"><ele>103.2</ele><time>2026-04-26T12:35:23.999Z</time></trkpt><trkpt lat="47.99961714364303" lon="-0.7800806455225924"><ele>103.6</ele><time>2026-04-26T12:35:25.999Z</time></trkpt><trkpt lat="47.99971368484677" lon="-0.7800455995726125"><ele>104.0</ele><time>2026-04-26T12:35:27.999Z</time></trkpt><trkpt lat="47.9998108289475" lon="-0.7800091075888843"><ele>104.0</ele><time>2026-04-26T12:35:29.999Z</time></trkpt><trkpt lat="47.99990786167765" lon="-0.7799754689936179"><ele>104.0</ele><time>2026-04-26T12:35:31.999Z</time></trkpt><trkpt lat="48.00000707989249" lon="-0.7799325096708538"><ele>104.0</ele><time>2026-04-26T12:35:33.999Z</time></trkpt><trkpt lat="48.00010787117515" lon="-0.779897554352988"><ele>104.0</ele><time>2026-04-26T12:35:35.999Z</time></trkpt><trkpt lat="48.00020762204104" lon="-0.7798616021008794"><ele>104.0</ele><time>2026-04-26T12:35:37.999Z</time></trkpt><trkpt lat="48.00030550649435" lon="-0.7798267427658538"><ele>104.0</ele><time>2026-04-26T12:35:39.999Z</time></trkpt><trkpt lat="48.00040327449044" lon="-0.779793099719672"><ele>104.0</ele><time>2026-04-26T12:35:41.999Z</time></trkpt><trkpt lat="48.00050507755962" lon="-0.7797513160613375"><ele>104.0</ele><time>2026-04-26T12:35:43.999Z</time></trkpt><trkpt lat="48.000608662200825" lon="-0.7797160323140102"><ele>104.0</ele><time>2026-04-26T12:35:45.999Z</time></trkpt><trkpt lat="48.00071283717172" lon="-0.7796789682134391"><ele>104.0</ele><time>2026-04-26T12:35:48Z</time></trkpt><trkpt lat="48.000813874209435" lon="-0.7796431387182247"><ele>103.80000000000001</ele><time>2026-04-26T12:35:50Z</time></trkpt><trkpt lat="48.00091179629305" lon="-0.7796096598584632"><ele>103.60000000000001</ele><time>2026-04-26T12:35:52Z</time></trkpt><trkpt lat="48.00100277575559" lon="-0.7795737688440203"><ele>103.4</ele><time>2026-04-26T12:35:54Z</time></trkpt><trkpt lat="48.001087976071325" lon="-0.7795435626122208"><ele>103.2</ele><time>2026-04-26T12:35:56Z</time></trkpt><trkpt lat="48.00117958196262" lon="-0.7795105965913771"><ele>103.0</ele><time>2026-04-26T12:35:58Z</time></trkpt><trkpt lat="48.001272949046864" lon="-0.7794776767849374"><ele>103.0</ele><time>2026-04-26T12:36:00Z</time></trkpt><trkpt lat="48.00137411646745" lon="-0.7794397379064626"><ele>103.0</ele><time>2026-04-26T12:36:02Z</time></trkpt><trkpt lat="48.0014812045338" lon="-0.779401253338834"><ele>103.0</ele><time>2026-04-26T12:36:04Z</time></trkpt><trkpt lat="48.00158860692287" lon="-0.7793648713240576"><ele>103.0</ele><time>2026-04-26T12:36:06Z</time></trkpt><trkpt lat="48.001698571569634" lon="-0.7793289496944842"><ele>103.0</ele><time>2026-04-26T12:36:08Z</time></trkpt><trkpt lat="48.001807422908655" lon="-0.7792876325653025"><ele>103.25</ele><time>2026-04-26T12:36:10Z</time></trkpt><trkpt lat="48.00192218631708" lon="-0.7792439321142284"><ele>103.5</ele><time>2026-04-26T12:36:12Z</time></trkpt><trkpt lat="48.002033619795185" lon="-0.7792046410042897"><ele>103.75</ele><time>2026-04-26T12:36:14Z</time></trkpt><trkpt lat="48.00214814878318" lon="-0.779163855855402"><ele>104.0</ele><time>2026-04-26T12:36:16Z</time></trkpt><trkpt lat="48.002261417419845" lon="-0.7791229765789718"><ele>104.0</ele><time>2026-04-26T12:36:18Z</time></trkpt><trkpt lat="48.00236921214713" lon="-0.7790833549632761"><ele>104.0</ele><time>2026-04-26T12:36:20Z</time></trkpt><trkpt lat="48.00247559252881" lon="-0.7790466621968466"><ele>104.0</ele><time>2026-04-26T12:36:22Z</time></trkpt><trkpt lat="48.00257973944237" lon="-0.7790101687474453"><ele>104.0</ele><time>2026-04-26T12:36:24Z</time></trkpt><trkpt lat="48.002680937248506" lon="-0.7789715828274704"><ele>104.0</ele><time>2026-04-26T12:36:26Z</time></trkpt><trkpt lat="48.00278735753814" lon="-0.7789349299348259"><ele>104.2</ele><time>2026-04-26T12:36:28Z</time></trkpt><trkpt lat="48.002885155868775" lon="-0.7788989360560069"><ele>104.4</ele><time>2026-04-26T12:36:30Z</time></trkpt><trkpt lat="48.00298415729627" lon="-0.7788655876309499"><ele>104.6</ele><time>2026-04-26T12:36:32Z</time></trkpt><trkpt lat="48.00308480786098" lon="-0.7788263469683633"><ele>104.8</ele><time>2026-04-26T12:36:34Z</time></trkpt><trkpt lat="48.00318599278878" lon="-0.7787869422522858"><ele>105.0</ele><time>2026-04-26T12:36:36Z</time></trkpt><trkpt lat="48.00329162956718" lon="-0.7787492064246684"><ele>105.2</ele><time>2026-04-26T12:36:38Z</time></trkpt><trkpt lat="48.00339881748955" lon="-0.7787099799564903"><ele>105.4</ele><time>2026-04-26T12:36:40Z</time></trkpt><trkpt lat="48.00350673053198" lon="-0.7786755889677262"><ele>105.6</ele><time>2026-04-26T12:36:42Z</time></trkpt><trkpt lat="48.00361097411293" lon="-0.778635791395885"><ele>105.8</ele><time>2026-04-26T12:36:44Z</time></trkpt><trkpt lat="48.003717754274184" lon="-0.7785999254656635"><ele>106.0</ele><time>2026-04-26T12:36:46Z</time></trkpt><trkpt lat="48.00382216541393" lon="-0.7785587766443226"><ele>106.0</ele><time>2026-04-26T12:36:48Z</time></trkpt><trkpt lat="48.00393004726016" lon="-0.7785249610909574"><ele>106.0</ele><time>2026-04-26T12:36:50Z</time></trkpt><trkpt lat="48.00404004537882" lon="-0.7784769677585137"><ele>106.0</ele><time>2026-04-26T12:36:52Z</time></trkpt><trkpt lat="48.004154511225494" lon="-0.7784398210425656"><ele>106.0</ele><time>2026-04-26T12:36:54Z</time></trkpt><trkpt lat="48.00427144514424" lon="-0.7784015642668876"><ele>105.71428571428572</ele><time>2026-04-26T12:36:56Z</time></trkpt><trkpt lat="48.004334349272426" lon="-0.7783782426562913"><ele>105.42857142857142</ele><time>2026-04-26T12:36:57Z</time></trkpt><trkpt lat="48.0043978108673" lon="-0.7783602214387996"><ele>105.14285714285714</ele><time>2026-04-26T12:36:58Z</time></trkpt><trkpt lat="48.004462799473124" lon="-0.7783376769401839"><ele>104.85714285714286</ele><time>2026-04-26T12:36:59Z</time></trkpt><trkpt lat="48.00452712153246" lon="-0.778312942447942"><ele>104.57142857142858</ele><time>2026-04-26T12:37:00Z</time></trkpt><trkpt lat="48.004595794070674" lon="-0.7782903309006817"><ele>104.28571428571428</ele><time>2026-04-26T12:37:00.999Z</time></trkpt><trkpt lat="48.00466623914025" lon="-0.778268333958608"><ele>104.0</ele><time>2026-04-26T12:37:01.999Z</time></trkpt><trkpt lat="48.004737474133634" lon="-0.7782460084088371"><ele>103.99999999999999</ele><time>2026-04-26T12:37:02.999Z</time></trkpt><trkpt lat="48.00481005070072" lon="-0.7782197307963198"><ele>104.0</ele><time>2026-04-26T12:37:03.999Z</time></trkpt><trkpt lat="48.00488502591529" lon="-0.7781954374714954"><ele>104.0</ele><time>2026-04-26T12:37:04.999Z</time></trkpt><trkpt lat="48.00496022892636" lon="-0.7781704648414572"><ele>104.0</ele><time>2026-04-26T12:37:05.999Z</time></trkpt><trkpt lat="48.00503661480789" lon="-0.7781472861322191"><ele>103.99999999999999</ele><time>2026-04-26T12:37:06.999Z</time></trkpt><trkpt lat="48.00511520332024" lon="-0.7781229517419518"><ele>104.0</ele><time>2026-04-26T12:37:07.999Z</time></trkpt><trkpt lat="48.00519402416671" lon="-0.7780963447072465"><ele>103.66666666666666</ele><time>2026-04-26T12:37:08.999Z</time></trkpt><trkpt lat="48.005274046031545" lon="-0.7780663079722735"><ele>103.33333333333333</ele><time>2026-04-26T12:37:09.999Z</time></trkpt><trkpt lat="48.005355264843615" lon="-0.7780374391925944"><ele>103.0</ele><time>2026-04-26T12:37:10.999Z</time></trkpt><trkpt lat="48.005437721998064" lon="-0.778012362719796"><ele>102.66666666666666</ele><time>2026-04-26T12:37:11.999Z</time></trkpt><trkpt lat="48.00551885332587" lon="-0.7779837792269259"><ele>102.33333333333333</ele><time>2026-04-26T12:37:12.999Z</time></trkpt><trkpt lat="48.0055971040051" lon="-0.7779522818695881"><ele>102.0</ele><time>2026-04-26T12:37:13.999Z</time></trkpt><trkpt lat="48.00567620747752" lon="-0.7779208027554307"><ele>102.0</ele><time>2026-04-26T12:37:14.999Z</time></trkpt><trkpt lat="48.005756787809595" lon="-0.7778920767614598"><ele>102.0</ele><time>2026-04-26T12:37:15.999Z</time></trkpt><trkpt lat="48.0058363779771" lon="-0.7778657014386554"><ele>102.0</ele><time>2026-04-26T12:37:16.999Z</time></trkpt><trkpt lat="48.005915132697" lon="-0.7778353295552363"><ele>102.0</ele><time>2026-04-26T12:37:17.999Z</time></trkpt><trkpt lat="48.00599463072796" lon="-0.7778060654050464"><ele>102.0</ele><time>2026-04-26T12:37:18.999Z</time></trkpt><trkpt lat="48.00607432427902" lon="-0.7777768654696681"><ele>102.0</ele><time>2026-04-26T12:37:19.999Z</time></trkpt><trkpt lat="48.00615438804185" lon="-0.7777505012147865"><ele>101.66666666666667</ele><time>2026-04-26T12:37:20.999Z</time></trkpt><trkpt lat="48.006233835442465" lon="-0.777725118806624"><ele>101.33333333333334</ele><time>2026-04-26T12:37:21.999Z</time></trkpt><trkpt lat="48.00631273604497" lon="-0.7776964058864047"><ele>101.0</ele><time>2026-04-26T12:37:22.999Z</time></trkpt><trkpt lat="48.00639057887874" lon="-0.7776672715388658"><ele>100.66666666666667</ele><time>2026-04-26T12:37:23.999Z</time></trkpt><trkpt lat="48.00647048004533" lon="-0.7776378239663156"><ele>100.33333333333334</ele><time>2026-04-26T12:37:24.999Z</time></trkpt><trkpt lat="48.00654890371003" lon="-0.7776057084228608"><ele>100.0</ele><time>2026-04-26T12:37:25.999Z</time></trkpt><trkpt lat="48.006628944196855" lon="-0.7775757741288274"><ele>99.66666666666667</ele><time>2026-04-26T12:37:26.999Z</time></trkpt><trkpt lat="48.006706528412664" lon="-0.7775525410002737"><ele>99.33333333333334</ele><time>2026-04-26T12:37:27.999Z</time></trkpt><trkpt lat="48.00678576304551" lon="-0.7775217158735213"><ele>99.0</ele><time>2026-04-26T12:37:28.999Z</time></trkpt><trkpt lat="48.00686329509108" lon="-0.7774925883892903"><ele>98.66666666666666</ele><time>2026-04-26T12:37:29.999Z</time></trkpt><trkpt lat="48.00694291282698" lon="-0.7774625454813296"><ele>98.33333333333333</ele><time>2026-04-26T12:37:30.999Z</time></trkpt><trkpt lat="48.00702373517071" lon="-0.7774336606695045"><ele>98.0</ele><time>2026-04-26T12:37:31.999Z</time></trkpt><trkpt lat="48.00710235464856" lon="-0.7774054271712644"><ele>97.99999999999999</ele><time>2026-04-26T12:37:32.999Z</time></trkpt><trkpt lat="48.007180359583494" lon="-0.7773755107547665"><ele>98.0</ele><time>2026-04-26T12:37:33.999Z</time></trkpt><trkpt lat="48.00726242832503" lon="-0.7773450153983492"><ele>98.0</ele><time>2026-04-26T12:37:34.999Z</time></trkpt><trkpt lat="48.00734117080149" lon="-0.777317682315302"><ele>98.0</ele><time>2026-04-26T12:37:35.999Z</time></trkpt><trkpt lat="48.007422035374994" lon="-0.7772870819367265"><ele>97.99999999999999</ele><time>2026-04-26T12:37:36.999Z</time></trkpt><trkpt lat="48.00750311407683" lon="-0.7772603582976795"><ele>98.0</ele><time>2026-04-26T12:37:37.999Z</time></trkpt><trkpt lat="48.00758501049305" lon="-0.7772303549209669"><ele>98.33333333333333</ele><time>2026-04-26T12:37:38.999Z</time></trkpt><trkpt lat="48.007666526251796" lon="-0.7772017465187979"><ele>98.66666666666666</ele><time>2026-04-26T12:37:39.999Z</time></trkpt><trkpt lat="48.007749691769746" lon="-0.7771709937241006"><ele>99.0</ele><time>2026-04-26T12:37:40.999Z</time></trkpt><trkpt lat="48.007831977677604" lon="-0.777141076825773"><ele>99.33333333333334</ele><time>2026-04-26T12:37:41.999Z</time></trkpt><trkpt lat="48.00791271125784" lon="-0.7771112418764806"><ele>99.66666666666667</ele><time>2026-04-26T12:37:42.999Z</time></trkpt><trkpt lat="48.00799728038222" lon="-0.7770803697148652"><ele>100.0</ele><time>2026-04-26T12:37:43.999Z</time></trkpt><trkpt lat="48.00808157834011" lon="-0.777049567396394"><ele>100.0</ele><time>2026-04-26T12:37:44.999Z</time></trkpt><trkpt lat="48.00816740374138" lon="-0.7770156425584495"><ele>100.0</ele><time>2026-04-26T12:37:45.999Z</time></trkpt><trkpt lat="48.00825356991504" lon="-0.776981852773874"><ele>100.0</ele><time>2026-04-26T12:37:46.999Z</time></trkpt><trkpt lat="48.00834475894423" lon="-0.7769476602400426"><ele>100.0</ele><time>2026-04-26T12:37:47.999Z</time></trkpt><trkpt lat="48.00843514086867" lon="-0.7769186739340769"><ele>100.0</ele><time>2026-04-26T12:37:48.999Z</time></trkpt><trkpt lat="48.00853274993819" lon="-0.7768918567688871"><ele>99.6</ele><time>2026-04-26T12:37:49.999Z</time></trkpt><trkpt lat="48.00863624413056" lon="-0.7768535729402962"><ele>99.2</ele><time>2026-04-26T12:37:50.999Z</time></trkpt><trkpt lat="48.00873743067783" lon="-0.7768080927453863"><ele>98.80000000000001</ele><time>2026-04-26T12:37:51.999Z</time></trkpt><trkpt lat="48.008850259789796" lon="-0.7767673326377739"><ele>98.4</ele><time>2026-04-26T12:37:52.999Z</time></trkpt><trkpt lat="48.00896432828673" lon="-0.7767219891065985"><ele>98.0</ele><time>2026-04-26T12:37:54Z</time></trkpt><trkpt lat="48.00908268599444" lon="-0.7766790762469554"><ele>96.0</ele><time>2026-04-26T12:37:55Z</time></trkpt><trkpt lat="48.00920225367645" lon="-0.7766363642880111"><ele>94.0</ele><time>2026-04-26T12:37:56Z</time></trkpt><trkpt lat="48.00932653082749" lon="-0.7765902206696943"><ele>92.0</ele><time>2026-04-26T12:37:57Z</time></trkpt><trkpt lat="48.00945582582981" lon="-0.776546475387219"><ele>90.0</ele><time>2026-04-26T12:37:58Z</time></trkpt><trkpt lat="48.00959025502337" lon="-0.7764979058085784"><ele>90.0</ele><time>2026-04-26T12:37:59Z</time></trkpt><trkpt lat="48.009726092354505" lon="-0.7764457428150949"><ele>90.0</ele><time>2026-04-26T12:38:00Z</time></trkpt><trkpt lat="48.009864974256004" lon="-0.7763940986668888"><ele>90.0</ele><time>2026-04-26T12:38:01Z</time></trkpt><trkpt lat="48.01000686701944" lon="-0.77633906079192"><ele>90.0</ele><time>2026-04-26T12:38:02Z</time></trkpt><trkpt lat="48.01014840808684" lon="-0.7762841836030095"><ele>87.66666666666667</ele><time>2026-04-26T12:38:03Z</time></trkpt><trkpt lat="48.01029329849544" lon="-0.7762343065337453"><ele>85.33333333333334</ele><time>2026-04-26T12:38:04Z</time></trkpt><trkpt lat="48.01044090693356" lon="-0.7761802275813354"><ele>83.0</ele><time>2026-04-26T12:38:05Z</time></trkpt><trkpt lat="48.01058657770407" lon="-0.7761291048583292"><ele>83.0</ele><time>2026-04-26T12:38:06Z</time></trkpt><trkpt lat="48.01072247194029" lon="-0.7760733102263205"><ele>83.0</ele><time>2026-04-26T12:38:07Z</time></trkpt><trkpt lat="48.010847895077255" lon="-0.7760263251476938"><ele>83.0</ele><time>2026-04-26T12:38:08Z</time></trkpt><trkpt lat="48.010964746516635" lon="-0.7759826185176415"><ele>83.0</ele><time>2026-04-26T12:38:09Z</time></trkpt><trkpt lat="48.01106961845539" lon="-0.7759397516769461"><ele>82.2</ele><time>2026-04-26T12:38:10Z</time></trkpt><trkpt lat="48.01117048913965" lon="-0.7759029391110182"><ele>81.4</ele><time>2026-04-26T12:38:11Z</time></trkpt><trkpt lat="48.0112626292607" lon="-0.7758697661079622"><ele>80.60000000000001</ele><time>2026-04-26T12:38:12Z</time></trkpt><trkpt lat="48.011351069620005" lon="-0.7758337108840531"><ele>79.80000000000001</ele><time>2026-04-26T12:38:13Z</time></trkpt><trkpt lat="48.011435579172996" lon="-0.7757989643290771"><ele>79.0</ele><time>2026-04-26T12:38:14Z</time></trkpt><trkpt lat="48.01151684791599" lon="-0.775764751775201"><ele>79.0</ele><time>2026-04-26T12:38:15Z</time></trkpt><trkpt lat="48.011590912519324" lon="-0.7757378346813418"><ele>79.0</ele><time>2026-04-26T12:38:16Z</time></trkpt><trkpt lat="48.01166419876437" lon="-0.775711966521235"><ele>79.0</ele><time>2026-04-26T12:38:17Z</time></trkpt><trkpt lat="48.01179910042325" lon="-0.7756613529172172"><ele>79.0</ele><time>2026-04-26T12:38:19Z</time></trkpt><trkpt lat="48.01186406150514" lon="-0.7756410791055219"><ele>79.0</ele><time>2026-04-26T12:38:20Z</time></trkpt><trkpt lat="48.011926141070255" lon="-0.7756145843167831"><ele>79.0</ele><time>2026-04-26T12:38:21Z</time></trkpt><trkpt lat="48.01203628593495" lon="-0.7755661615328715"><ele>80.0</ele><time>2026-04-26T12:38:23Z</time></trkpt><trkpt lat="48.01213738708138" lon="-0.7755290703902709"><ele>81.0</ele><time>2026-04-26T12:38:25Z</time></trkpt><trkpt lat="48.01223185099044" lon="-0.7754943372773211"><ele>82.0</ele><time>2026-04-26T12:38:27Z</time></trkpt><trkpt lat="48.012316645901585" lon="-0.7754589390074104"><ele>83.0</ele><time>2026-04-26T12:38:29Z</time></trkpt><trkpt lat="48.01239850407472" lon="-0.7754263663578024"><ele>84.0</ele><time>2026-04-26T12:38:31Z</time></trkpt><trkpt lat="48.01247798340955" lon="-0.7753956463421083"><ele>84.85714285714286</ele><time>2026-04-26T12:38:33Z</time></trkpt><trkpt lat="48.01255265892" lon="-0.7753637166955137"><ele>85.71428571428572</ele><time>2026-04-26T12:38:35Z</time></trkpt><trkpt lat="48.01262558228735" lon="-0.7753366683423011"><ele>86.57142857142857</ele><time>2026-04-26T12:38:37Z</time></trkpt><trkpt lat="48.01269880506471" lon="-0.7753109062680462"><ele>87.42857142857143</ele><time>2026-04-26T12:38:39Z</time></trkpt><trkpt lat="48.012768624125954" lon="-0.7752816326316925"><ele>88.28571428571429</ele><time>2026-04-26T12:38:41Z</time></trkpt><trkpt lat="48.01283910035058" lon="-0.7752552885452202"><ele>89.14285714285714</ele><time>2026-04-26T12:38:43Z</time></trkpt><trkpt lat="48.01290304224602" lon="-0.775230719608169"><ele>90.0</ele><time>2026-04-26T12:38:45Z</time></trkpt><trkpt lat="48.012972536884085" lon="-0.7752028293032123"><ele>90.16666666666667</ele><time>2026-04-26T12:38:47Z</time></trkpt><trkpt lat="48.01304338278995" lon="-0.7751756588592998"><ele>90.33333333333333</ele><time>2026-04-26T12:38:49Z</time></trkpt><trkpt lat="48.0131136944466" lon="-0.7751402191175311"><ele>90.5</ele><time>2026-04-26T12:38:51Z</time></trkpt><trkpt lat="48.01319340256525" lon="-0.7751204482784324"><ele>90.66666666666666</ele><time>2026-04-26T12:38:53Z</time></trkpt><trkpt lat="48.01326376714923" lon="-0.7750933493607305"><ele>90.83333333333333</ele><time>2026-04-26T12:38:55Z</time></trkpt><trkpt lat="48.01333054855443" lon="-0.7750612851842249"><ele>91.0</ele><time>2026-04-26T12:38:57Z</time></trkpt><trkpt lat="48.01340644503312" lon="-0.7750308300956263"><ele>91.0</ele><time>2026-04-26T12:38:59Z</time></trkpt><trkpt lat="48.01348154691541" lon="-0.7750042392767056"><ele>91.0</ele><time>2026-04-26T12:39:01Z</time></trkpt><trkpt lat="48.013556510458415" lon="-0.7749768599817628"><ele>91.0</ele><time>2026-04-26T12:39:03Z</time></trkpt><trkpt lat="48.013629904187425" lon="-0.7749480718771486"><ele>91.0</ele><time>2026-04-26T12:39:05Z</time></trkpt><trkpt lat="48.01370361207178" lon="-0.7749201302863731"><ele>91.0</ele><time>2026-04-26T12:39:06.999Z</time></trkpt><trkpt lat="48.0137767573057" lon="-0.7748916434414468"><ele>91.0</ele><time>2026-04-26T12:39:08.999Z</time></trkpt><trkpt lat="48.01385137960159" lon="-0.7748688785549851"><ele>91.0</ele><time>2026-04-26T12:39:10.999Z</time></trkpt><trkpt lat="48.01392422185912" lon="-0.77484260922053"><ele>91.0</ele><time>2026-04-26T12:39:12.999Z</time></trkpt><trkpt lat="48.01399744749028" lon="-0.7748113844615733"><ele>91.0</ele><time>2026-04-26T12:39:14.999Z</time></trkpt><trkpt lat="48.01407140535313" lon="-0.7747800644805349"><ele>91.0</ele><time>2026-04-26T12:39:16.999Z</time></trkpt><trkpt lat="48.01414503813817" lon="-0.774750831629083"><ele>91.0</ele><time>2026-04-26T12:39:18.999Z</time></trkpt><trkpt lat="48.01422200054428" lon="-0.7747222781533307"><ele>91.0</ele><time>2026-04-26T12:39:20.999Z</time></trkpt><trkpt lat="48.01429672821534" lon="-0.7746991965262501"><ele>91.5</ele><time>2026-04-26T12:39:22.999Z</time></trkpt><trkpt lat="48.0143716463318" lon="-0.7746690547886492"><ele>92.0</ele><time>2026-04-26T12:39:24.999Z</time></trkpt><trkpt lat="48.01444317163021" lon="-0.7746421830460667"><ele>92.5</ele><time>2026-04-26T12:39:26.999Z</time></trkpt><trkpt lat="48.01451347066292" lon="-0.7746087029197324"><ele>93.0</ele><time>2026-04-26T12:39:28.999Z</time></trkpt><trkpt lat="48.01458414000829" lon="-0.7745780602488976"><ele>93.5</ele><time>2026-04-26T12:39:30.999Z</time></trkpt><trkpt lat="48.0146533336582" lon="-0.7745384421501283"><ele>94.0</ele><time>2026-04-26T12:39:32.999Z</time></trkpt><trkpt lat="48.014749916990056" lon="-0.7744732403299495"><ele>94.0</ele><time>2026-04-26T12:39:35.999Z</time></trkpt><trkpt lat="48.01481118878379" lon="-0.774413934244589"><ele>94.0</ele><time>2026-04-26T12:39:37.999Z</time></trkpt><trkpt lat="48.01485139769334" lon="-0.7742991246361648"><ele>94.0</ele><time>2026-04-26T12:39:39.999Z</time></trkpt><trkpt lat="48.014932035898596" lon="-0.7742393104740547"><ele>94.0</ele><time>2026-04-26T12:39:41.999Z</time></trkpt><trkpt lat="48.01502428336745" lon="-0.774242838425894"><ele>94.0</ele><time>2026-04-26T12:39:43.999Z</time></trkpt><trkpt lat="48.015115290602665" lon="-0.7743039584628186"><ele>94.0</ele><time>2026-04-26T12:39:45.999Z</time></trkpt><trkpt lat="48.015207628387024" lon="-0.7743394840223026"><ele>93.6</ele><time>2026-04-26T12:39:47.999Z</time></trkpt><trkpt lat="48.015296501896884" lon="-0.7743185596387379"><ele>93.2</ele><time>2026-04-26T12:39:49.999Z</time></trkpt><trkpt lat="48.01538767779537" lon="-0.7742832654499645"><ele>92.8</ele><time>2026-04-26T12:39:51.999Z</time></trkpt><trkpt lat="48.01547808979953" lon="-0.7742574060032901"><ele>92.39999999999999</ele><time>2026-04-26T12:39:53.999Z</time></trkpt><trkpt lat="48.015581411699834" lon="-0.7742207937666156"><ele>92.0</ele><time>2026-04-26T12:39:55.999Z</time></trkpt><trkpt lat="48.015686700664055" lon="-0.7741833178269494"><ele>92.0</ele><time>2026-04-26T12:39:57.999Z</time></trkpt><trkpt lat="48.01579682017703" lon="-0.7741421141889205"><ele>92.0</ele><time>2026-04-26T12:40:00Z</time></trkpt><trkpt lat="48.015905757998375" lon="-0.7740978294926567"><ele>92.0</ele><time>2026-04-26T12:40:02Z</time></trkpt><trkpt lat="48.01601559959006" lon="-0.7740668072524979"><ele>92.0</ele><time>2026-04-26T12:40:04Z</time></trkpt><trkpt lat="48.01612318130399" lon="-0.7740230563866227"><ele>92.6</ele><time>2026-04-26T12:40:06Z</time></trkpt><trkpt lat="48.01623093626994" lon="-0.7739805001452577"><ele>93.19999999999999</ele><time>2026-04-26T12:40:08Z</time></trkpt><trkpt lat="48.01634005755239" lon="-0.7739392481241332"><ele>93.8</ele><time>2026-04-26T12:40:10Z</time></trkpt><trkpt lat="48.01644706486838" lon="-0.7738996201583728"><ele>94.4</ele><time>2026-04-26T12:40:12Z</time></trkpt><trkpt lat="48.01655474488552" lon="-0.7738581915709014"><ele>95.0</ele><time>2026-04-26T12:40:14Z</time></trkpt><trkpt lat="48.01666025530316" lon="-0.7738184212465149"><ele>95.4</ele><time>2026-04-26T12:40:16Z</time></trkpt><trkpt lat="48.016766333262005" lon="-0.7737785964593189"><ele>95.8</ele><time>2026-04-26T12:40:18Z</time></trkpt><trkpt lat="48.016873287666414" lon="-0.7737454925832393"><ele>96.19999999999999</ele><time>2026-04-26T12:40:20Z</time></trkpt><trkpt lat="48.01698007452239" lon="-0.7736996213146672"><ele>96.6</ele><time>2026-04-26T12:40:22Z</time></trkpt><trkpt lat="48.01708912097569" lon="-0.7736639884709802"><ele>97.0</ele><time>2026-04-26T12:40:24Z</time></trkpt><trkpt lat="48.01719277339707" lon="-0.7736181221269375"><ele>97.0</ele><time>2026-04-26T12:40:26Z</time></trkpt><trkpt lat="48.017293738133084" lon="-0.7735873432003636"><ele>97.0</ele><time>2026-04-26T12:40:28Z</time></trkpt><trkpt lat="48.017390694703735" lon="-0.7735518237711525"><ele>97.0</ele><time>2026-04-26T12:40:30Z</time></trkpt><trkpt lat="48.017486516849004" lon="-0.7735173285092636"><ele>97.0</ele><time>2026-04-26T12:40:32Z</time></trkpt><trkpt lat="48.01758484049484" lon="-0.7734740381123206"><ele>97.0</ele><time>2026-04-26T12:40:34Z</time></trkpt><trkpt lat="48.01769111647809" lon="-0.7734323727058255"><ele>96.50000000000001</ele><time>2026-04-26T12:40:36Z</time></trkpt><trkpt lat="48.017808149563486" lon="-0.7733918311414784"><ele>96.0</ele><time>2026-04-26T12:40:38Z</time></trkpt><trkpt lat="48.017928601864" lon="-0.7733452716504071"><ele>95.5</ele><time>2026-04-26T12:40:40Z</time></trkpt><trkpt lat="48.017992323555504" lon="-0.7733190307829815"><ele>95.0</ele><time>2026-04-26T12:40:41Z</time></trkpt><trkpt lat="48.01805687410276" lon="-0.7732912570097907"><ele>94.5</ele><time>2026-04-26T12:40:42Z</time></trkpt><trkpt lat="48.018124994329355" lon="-0.7732636144475641"><ele>94.0</ele><time>2026-04-26T12:40:43Z</time></trkpt><trkpt lat="48.018257762638854" lon="-0.7731966426292578"><ele>93.85714285714286</ele><time>2026-04-26T12:40:45Z</time></trkpt><trkpt lat="48.018325781703275" lon="-0.7731616178669329"><ele>93.71428571428571</ele><time>2026-04-26T12:40:46Z</time></trkpt><trkpt lat="48.018392024189936" lon="-0.773121215495683"><ele>93.57142857142858</ele><time>2026-04-26T12:40:47Z</time></trkpt><trkpt lat="48.01845426756783" lon="-0.7730806336638181"><ele>93.42857142857143</ele><time>2026-04-26T12:40:48Z</time></trkpt><trkpt lat="48.01852017150971" lon="-0.7730386787438939"><ele>93.28571428571429</ele><time>2026-04-26T12:40:49Z</time></trkpt><trkpt lat="48.0185849882033" lon="-0.7729864849175396"><ele>93.14285714285715</ele><time>2026-04-26T12:40:50Z</time></trkpt><trkpt lat="48.0186487503443" lon="-0.7729329333791427"><ele>93.0</ele><time>2026-04-26T12:40:51Z</time></trkpt><trkpt lat="48.01871548096346" lon="-0.7728810957957012"><ele>93.0</ele><time>2026-04-26T12:40:52Z</time></trkpt><trkpt lat="48.01878295176716" lon="-0.7728283299498615"><ele>93.0</ele><time>2026-04-26T12:40:53Z</time></trkpt><trkpt lat="48.01885102297623" lon="-0.7727730807564125"><ele>93.0</ele><time>2026-04-26T12:40:54Z</time></trkpt><trkpt lat="48.01891800067924" lon="-0.7727161494316312"><ele>93.0</ele><time>2026-04-26T12:40:55Z</time></trkpt><trkpt lat="48.018987226648754" lon="-0.7726633043837651"><ele>93.0</ele><time>2026-04-26T12:40:56Z</time></trkpt><trkpt lat="48.019058478294724" lon="-0.7726061717710134"><ele>93.0</ele><time>2026-04-26T12:40:57Z</time></trkpt><trkpt lat="48.019132638400436" lon="-0.7725482604817226"><ele>92.66666666666667</ele><time>2026-04-26T12:40:58Z</time></trkpt><trkpt lat="48.01920585174875" lon="-0.7724914834256228"><ele>92.33333333333333</ele><time>2026-04-26T12:40:59Z</time></trkpt><trkpt lat="48.0192783602774" lon="-0.7724324016743861"><ele>92.0</ele><time>2026-04-26T12:41:00Z</time></trkpt><trkpt lat="48.01935318938045" lon="-0.772371642492098"><ele>91.66666666666666</ele><time>2026-04-26T12:41:01Z</time></trkpt><trkpt lat="48.019428235115235" lon="-0.7723099694760664"><ele>91.33333333333333</ele><time>2026-04-26T12:41:02Z</time></trkpt><trkpt lat="48.019504725924826" lon="-0.7722497392902645"><ele>91.0</ele><time>2026-04-26T12:41:03Z</time></trkpt><trkpt lat="48.01958288540883" lon="-0.7721908789175137"><ele>91.0</ele><time>2026-04-26T12:41:04Z</time></trkpt><trkpt lat="48.01966289612549" lon="-0.77213090913695"><ele>91.0</ele><time>2026-04-26T12:41:05Z</time></trkpt><trkpt lat="48.01974185882867" lon="-0.772065058417207"><ele>91.0</ele><time>2026-04-26T12:41:06Z</time></trkpt><trkpt lat="48.0198199168771" lon="-0.7720048728441978"><ele>91.0</ele><time>2026-04-26T12:41:07Z</time></trkpt><trkpt lat="48.01989933426176" lon="-0.7719408912011505"><ele>91.0</ele><time>2026-04-26T12:41:08Z</time></trkpt><trkpt lat="48.01997380336154" lon="-0.7718814959031397"><ele>91.0</ele><time>2026-04-26T12:41:09Z</time></trkpt><trkpt lat="48.02004757611111" lon="-0.7718205576666968"><ele>91.0</ele><time>2026-04-26T12:41:10Z</time></trkpt><trkpt lat="48.02011962404346" lon="-0.7717617671273799"><ele>91.0</ele><time>2026-04-26T12:41:11Z</time></trkpt><trkpt lat="48.02018953750572" lon="-0.7717105039868312"><ele>91.0</ele><time>2026-04-26T12:41:12Z</time></trkpt><trkpt lat="48.02025470977867" lon="-0.771655046361106"><ele>91.0</ele><time>2026-04-26T12:41:13Z</time></trkpt><trkpt lat="48.02031873189693" lon="-0.7715995641508553"><ele>91.0</ele><time>2026-04-26T12:41:13.999Z</time></trkpt><trkpt lat="48.02038262535389" lon="-0.7715497944776595"><ele>91.0</ele><time>2026-04-26T12:41:14.999Z</time></trkpt><trkpt lat="48.020443758288465" lon="-0.7714970182509705"><ele>91.0</ele><time>2026-04-26T12:41:15.999Z</time></trkpt><trkpt lat="48.02050398477084" lon="-0.7714537548764493"><ele>91.0</ele><time>2026-04-26T12:41:16.999Z</time></trkpt><trkpt lat="48.02056117631267" lon="-0.7714054285166673"><ele>91.0</ele><time>2026-04-26T12:41:17.999Z</time></trkpt><trkpt lat="48.02067119092457" lon="-0.7713145488590364"><ele>91.0</ele><time>2026-04-26T12:41:19.999Z</time></trkpt><trkpt lat="48.02078093245832" lon="-0.7712259745251971"><ele>91.0</ele><time>2026-04-26T12:41:21.999Z</time></trkpt><trkpt lat="48.02088540506058" lon="-0.7711368610518106"><ele>91.0</ele><time>2026-04-26T12:41:23.999Z</time></trkpt><trkpt lat="48.02098061045099" lon="-0.7710570018506366"><ele>91.0</ele><time>2026-04-26T12:41:25.999Z</time></trkpt><trkpt lat="48.02106468200284" lon="-0.7709596621410136"><ele>91.0</ele><time>2026-04-26T12:41:27.999Z</time></trkpt><trkpt lat="48.02112115071376" lon="-0.7708536474285244"><ele>91.0</ele><time>2026-04-26T12:41:29.999Z</time></trkpt><trkpt lat="48.02120915483478" lon="-0.7708336390081483"><ele>91.0</ele><time>2026-04-26T12:41:31.999Z</time></trkpt><trkpt lat="48.02129656398492" lon="-0.7708217201492648"><ele>91.66666666666666</ele><time>2026-04-26T12:41:33.999Z</time></trkpt><trkpt lat="48.02136946618122" lon="-0.7707475967046464"><ele>92.33333333333333</ele><time>2026-04-26T12:41:35.999Z</time></trkpt><trkpt lat="48.021435988534165" lon="-0.7706879475743328"><ele>93.0</ele><time>2026-04-26T12:41:37.999Z</time></trkpt><trkpt lat="48.021502980360104" lon="-0.7706352283217434"><ele>93.66666666666667</ele><time>2026-04-26T12:41:39.999Z</time></trkpt><trkpt lat="48.02157125644345" lon="-0.7705859825319491"><ele>94.33333333333334</ele><time>2026-04-26T12:41:41.999Z</time></trkpt><trkpt lat="48.021634282487135" lon="-0.7705273602225265"><ele>95.0</ele><time>2026-04-26T12:41:43.999Z</time></trkpt><trkpt lat="48.02170454757092" lon="-0.7704673624181498"><ele>95.16666666666667</ele><time>2026-04-26T12:41:45.999Z</time></trkpt><trkpt lat="48.02178153948841" lon="-0.7704056913826448"><ele>95.33333333333334</ele><time>2026-04-26T12:41:47.999Z</time></trkpt><trkpt lat="48.02185551095706" lon="-0.770347705821194"><ele>95.5</ele><time>2026-04-26T12:41:49.999Z</time></trkpt><trkpt lat="48.021923361393135" lon="-0.7702920031242294"><ele>95.66666666666667</ele><time>2026-04-26T12:41:51.999Z</time></trkpt><trkpt lat="48.02198959671912" lon="-0.7702387403700277"><ele>95.83333333333333</ele><time>2026-04-26T12:41:53.999Z</time></trkpt><trkpt lat="48.02205362874198" lon="-0.7701842587991884"><ele>96.0</ele><time>2026-04-26T12:41:55.999Z</time></trkpt><trkpt lat="48.02211644553024" lon="-0.7701373406886911"><ele>96.71428571428571</ele><time>2026-04-26T12:41:57.999Z</time></trkpt><trkpt lat="48.0221755484061" lon="-0.7700884808671222"><ele>97.42857142857143</ele><time>2026-04-26T12:41:59.999Z</time></trkpt><trkpt lat="48.022237425497465" lon="-0.7700417608478995"><ele>98.14285714285714</ele><time>2026-04-26T12:42:01.999Z</time></trkpt><trkpt lat="48.02229933130701" lon="-0.7699897096223531"><ele>98.85714285714286</ele><time>2026-04-26T12:42:03.999Z</time></trkpt><trkpt lat="48.022367156489366" lon="-0.7699454740301315"><ele>99.57142857142857</ele><time>2026-04-26T12:42:06Z</time></trkpt><trkpt lat="48.0224326001455" lon="-0.7699410124280455"><ele>100.28571428571428</ele><time>2026-04-26T12:42:08Z</time></trkpt><trkpt lat="48.02250250690798" lon="-0.7699553672915808"><ele>101.0</ele><time>2026-04-26T12:42:10Z</time></trkpt><trkpt lat="48.02256657599329" lon="-0.7699651216948474"><ele>101.16666666666666</ele><time>2026-04-26T12:42:12Z</time></trkpt><trkpt lat="48.02263886215036" lon="-0.7699685731643802"><ele>101.33333333333333</ele><time>2026-04-26T12:42:14Z</time></trkpt><trkpt lat="48.02270912557368" lon="-0.7699782998702579"><ele>101.5</ele><time>2026-04-26T12:42:16Z</time></trkpt><trkpt lat="48.02278090103256" lon="-0.7699861500240248"><ele>101.66666666666666</ele><time>2026-04-26T12:42:18Z</time></trkpt><trkpt lat="48.02285366616725" lon="-0.7699928830830572"><ele>101.83333333333333</ele><time>2026-04-26T12:42:20Z</time></trkpt><trkpt lat="48.02296415575917" lon="-0.7699968003172528"><ele>102.0</ele><time>2026-04-26T12:42:23Z</time></trkpt><trkpt lat="48.02303918892605" lon="-0.7700060690758692"><ele>102.0</ele><time>2026-04-26T12:42:25Z</time></trkpt><trkpt lat="48.02312384757318" lon="-0.769996811067469"><ele>102.0</ele><time>2026-04-26T12:42:27Z</time></trkpt><trkpt lat="48.0231788368565" lon="-0.7698978669163843"><ele>102.0</ele><time>2026-04-26T12:42:29Z</time></trkpt><trkpt lat="48.0231921312725" lon="-0.769788501042983"><ele>102.0</ele><time>2026-04-26T12:42:31Z</time></trkpt><trkpt lat="48.02323531649911" lon="-0.7696952910949857"><ele>102.0</ele><time>2026-04-26T12:42:33Z</time></trkpt><trkpt lat="48.023274832264896" lon="-0.7696092729405557"><ele>102.0</ele><time>2026-04-26T12:42:35Z</time></trkpt><trkpt lat="48.023318448019545" lon="-0.7695230602468678"><ele>102.14285714285714</ele><time>2026-04-26T12:42:37Z</time></trkpt><trkpt lat="48.023346776437656" lon="-0.7694328021586566"><ele>102.28571428571429</ele><time>2026-04-26T12:42:39Z</time></trkpt><trkpt lat="48.02338589471094" lon="-0.7693469848119658"><ele>102.42857142857142</ele><time>2026-04-26T12:42:41Z</time></trkpt><trkpt lat="48.023422483253796" lon="-0.7692592654522155"><ele>102.57142857142857</ele><time>2026-04-26T12:42:43Z</time></trkpt><trkpt lat="48.02346196966106" lon="-0.7691760114950297"><ele>102.71428571428571</ele><time>2026-04-26T12:42:45Z</time></trkpt><trkpt lat="48.02350315813634" lon="-0.7690908706958458"><ele>102.85714285714285</ele><time>2026-04-26T12:42:47Z</time></trkpt><trkpt lat="48.02354167459427" lon="-0.769000818489339"><ele>103.0</ele><time>2026-04-26T12:42:49Z</time></trkpt><trkpt lat="48.02357958571987" lon="-0.7689038360978601"><ele>102.99999999999999</ele><time>2026-04-26T12:42:51Z</time></trkpt><trkpt lat="48.0236171689956" lon="-0.7688036532920083"><ele>103.0</ele><time>2026-04-26T12:42:53Z</time></trkpt><trkpt lat="48.0236596619604" lon="-0.7687115001428566"><ele>103.0</ele><time>2026-04-26T12:42:55Z</time></trkpt><trkpt lat="48.023701056889166" lon="-0.76861676411765"><ele>103.0</ele><time>2026-04-26T12:42:57Z</time></trkpt><trkpt lat="48.02373725193336" lon="-0.7685190367970536"><ele>103.0</ele><time>2026-04-26T12:42:59Z</time></trkpt><trkpt lat="48.023776290754974" lon="-0.7684271648235692"><ele>102.99999999999999</ele><time>2026-04-26T12:43:01Z</time></trkpt><trkpt lat="48.02381563464566" lon="-0.768336536459809"><ele>103.0</ele><time>2026-04-26T12:43:03Z</time></trkpt><trkpt lat="48.023855244091294" lon="-0.768245282076756"><ele>103.42857142857142</ele><time>2026-04-26T12:43:05Z</time></trkpt><trkpt lat="48.02389237933585" lon="-0.7681510421944219"><ele>103.85714285714286</ele><time>2026-04-26T12:43:07Z</time></trkpt><trkpt lat="48.023933225793954" lon="-0.7680639099554061"><ele>104.28571428571428</ele><time>2026-04-26T12:43:09Z</time></trkpt><trkpt lat="48.02397062979291" lon="-0.7679692709812201"><ele>104.71428571428571</ele><time>2026-04-26T12:43:11Z</time></trkpt><trkpt lat="48.024006092737714" lon="-0.7678798708322928"><ele>105.14285714285714</ele><time>2026-04-26T12:43:13Z</time></trkpt><trkpt lat="48.02404228204904" lon="-0.767787168485721"><ele>105.57142857142857</ele><time>2026-04-26T12:43:15Z</time></trkpt><trkpt lat="48.024074720834726" lon="-0.7676891391573902"><ele>106.0</ele><time>2026-04-26T12:43:17Z</time></trkpt><trkpt lat="48.02411005876941" lon="-0.7675945864168864"><ele>106.14285714285715</ele><time>2026-04-26T12:43:18.999Z</time></trkpt><trkpt lat="48.02414547020322" lon="-0.7674979562522971"><ele>106.28571428571428</ele><time>2026-04-26T12:43:20.999Z</time></trkpt><trkpt lat="48.024185317356526" lon="-0.7674039592253523"><ele>106.42857142857143</ele><time>2026-04-26T12:43:22.999Z</time></trkpt><trkpt lat="48.024226930252524" lon="-0.7673149809787428"><ele>106.57142857142858</ele><time>2026-04-26T12:43:24.999Z</time></trkpt><trkpt lat="48.02426603826584" lon="-0.7672270510818873"><ele>106.71428571428572</ele><time>2026-04-26T12:43:26.999Z</time></trkpt><trkpt lat="48.02430990260869" lon="-0.7671410657014233"><ele>106.85714285714286</ele><time>2026-04-26T12:43:28.999Z</time></trkpt><trkpt lat="48.02435357162422" lon="-0.7670536511806757"><ele>107.0</ele><time>2026-04-26T12:43:30.999Z</time></trkpt><trkpt lat="48.024396529446115" lon="-0.7669564577411755"><ele>107.16666666666666</ele><time>2026-04-26T12:43:32.999Z</time></trkpt><trkpt lat="48.024437350092605" lon="-0.7668551517912083"><ele>107.33333333333333</ele><time>2026-04-26T12:43:34.999Z</time></trkpt><trkpt lat="48.02448188703272" lon="-0.7667540721362078"><ele>107.5</ele><time>2026-04-26T12:43:36.999Z</time></trkpt><trkpt lat="48.024522426395286" lon="-0.7666463488959381"><ele>107.66666666666666</ele><time>2026-04-26T12:43:38.999Z</time></trkpt><trkpt lat="48.02456277509328" lon="-0.7665399880564157"><ele>107.83333333333333</ele><time>2026-04-26T12:43:40.999Z</time></trkpt><trkpt lat="48.024611670099105" lon="-0.7664288598860686"><ele>108.0</ele><time>2026-04-26T12:43:42.999Z</time></trkpt><trkpt lat="48.02466110399324" lon="-0.7663173313049229"><ele>108.0</ele><time>2026-04-26T12:43:44.999Z</time></trkpt><trkpt lat="48.02470343251374" lon="-0.7661967527120127"><ele>108.00000000000001</ele><time>2026-04-26T12:43:46.999Z</time></trkpt><trkpt lat="48.02474331021555" lon="-0.7660710928791483"><ele>108.00000000000001</ele><time>2026-04-26T12:43:48.999Z</time></trkpt><trkpt lat="48.02479152133281" lon="-0.7659465610887354"><ele>108.0</ele><time>2026-04-26T12:43:50.999Z</time></trkpt><trkpt lat="48.02483998709156" lon="-0.7658379334464679"><ele>108.0</ele><time>2026-04-26T12:43:52.999Z</time></trkpt><trkpt lat="48.02487811883685" lon="-0.7657250382498193"><ele>108.0</ele><time>2026-04-26T12:43:54.999Z</time></trkpt><trkpt lat="48.02490858844558" lon="-0.7656115952863621"><ele>108.0</ele><time>2026-04-26T12:43:56.999Z</time></trkpt><trkpt lat="48.02489747427488" lon="-0.7654901772718263"><ele>108.0</ele><time>2026-04-26T12:43:58.999Z</time></trkpt><trkpt lat="48.02490493189932" lon="-0.7653641531746024"><ele>108.0</ele><time>2026-04-26T12:44:00.999Z</time></trkpt><trkpt lat="48.02493744687022" lon="-0.7652336527382005"><ele>108.0</ele><time>2026-04-26T12:44:02.999Z</time></trkpt><trkpt lat="48.02501687588467" lon="-0.7651393394347553"><ele>108.0</ele><time>2026-04-26T12:44:04.999Z</time></trkpt><trkpt lat="48.0251044911726" lon="-0.7650616510089198"><ele>108.0</ele><time>2026-04-26T12:44:06.999Z</time></trkpt><trkpt lat="48.025180947879214" lon="-0.7649689251443735"><ele>108.00000000000001</ele><time>2026-04-26T12:44:08.999Z</time></trkpt><trkpt lat="48.025246229336375" lon="-0.7648490222162845"><ele>108.00000000000001</ele><time>2026-04-26T12:44:11Z</time></trkpt><trkpt lat="48.025306799021074" lon="-0.7647201712788714"><ele>108.0</ele><time>2026-04-26T12:44:13Z</time></trkpt><trkpt lat="48.02536521379909" lon="-0.7645854928895727"><ele>108.0</ele><time>2026-04-26T12:44:15Z</time></trkpt><trkpt lat="48.025415741166775" lon="-0.7644490711414739"><ele>107.83333333333333</ele><time>2026-04-26T12:44:17Z</time></trkpt><trkpt lat="48.02548045359363" lon="-0.7643116410556612"><ele>107.66666666666666</ele><time>2026-04-26T12:44:19Z</time></trkpt><trkpt lat="48.025545707558955" lon="-0.7641582036771606"><ele>107.5</ele><time>2026-04-26T12:44:21Z</time></trkpt><trkpt lat="48.02558017581016" lon="-0.7640736006153347"><ele>107.33333333333333</ele><time>2026-04-26T12:44:22Z</time></trkpt><trkpt lat="48.02561800839397" lon="-0.763988510621093"><ele>107.16666666666666</ele><time>2026-04-26T12:44:23Z</time></trkpt><trkpt lat="48.02565725937042" lon="-0.76390199620499"><ele>107.0</ele><time>2026-04-26T12:44:24Z</time></trkpt><trkpt lat="48.025700077828695" lon="-0.7638127037397727"><ele>106.99999999999999</ele><time>2026-04-26T12:44:25Z</time></trkpt><trkpt lat="48.02574773152974" lon="-0.763727533947483"><ele>107.0</ele><time>2026-04-26T12:44:26Z</time></trkpt><trkpt lat="48.02580187278125" lon="-0.763635006140513"><ele>107.0</ele><time>2026-04-26T12:44:27Z</time></trkpt><trkpt lat="48.02586380360961" lon="-0.7635492216146201"><ele>107.0</ele><time>2026-04-26T12:44:28Z</time></trkpt><trkpt lat="48.02592492978543" lon="-0.763458850274693"><ele>106.99999999999999</ele><time>2026-04-26T12:44:29Z</time></trkpt><trkpt lat="48.0259907455034" lon="-0.7633748191286218"><ele>107.0</ele><time>2026-04-26T12:44:30Z</time></trkpt><trkpt lat="48.02606341321255" lon="-0.7632992427666934"><ele>106.19999999999999</ele><time>2026-04-26T12:44:31Z</time></trkpt><trkpt lat="48.02613958713697" lon="-0.763225039919126"><ele>105.39999999999999</ele><time>2026-04-26T12:44:32Z</time></trkpt><trkpt lat="48.026220299850074" lon="-0.7631578221522167"><ele>104.6</ele><time>2026-04-26T12:44:33Z</time></trkpt><trkpt lat="48.026300892388235" lon="-0.7630813800083154"><ele>103.80000000000001</ele><time>2026-04-26T12:44:34Z</time></trkpt><trkpt lat="48.02638346737237" lon="-0.7630093076748435"><ele>103.0</ele><time>2026-04-26T12:44:35Z</time></trkpt><trkpt lat="48.026471234147905" lon="-0.7629410575436428"><ele>103.0</ele><time>2026-04-26T12:44:36Z</time></trkpt><trkpt lat="48.02656432102233" lon="-0.7628817253595682"><ele>103.0</ele><time>2026-04-26T12:44:37Z</time></trkpt><trkpt lat="48.0266525325175" lon="-0.7628193693210881"><ele>103.0</ele><time>2026-04-26T12:44:38Z</time></trkpt><trkpt lat="48.02673909723541" lon="-0.7627626281769796"><ele>103.0</ele><time>2026-04-26T12:44:39Z</time></trkpt><trkpt lat="48.02683558071205" lon="-0.7627060017740247"><ele>103.0</ele><time>2026-04-26T12:44:40Z</time></trkpt><trkpt lat="48.02692517738627" lon="-0.7626441863629119"><ele>102.60000000000001</ele><time>2026-04-26T12:44:41Z</time></trkpt><trkpt lat="48.02701903096311" lon="-0.7625747095553236"><ele>102.2</ele><time>2026-04-26T12:44:42Z</time></trkpt><trkpt lat="48.02708992680129" lon="-0.7625149492225446"><ele>101.8</ele><time>2026-04-26T12:44:43Z</time></trkpt><trkpt lat="48.02714027794952" lon="-0.762382321569146"><ele>101.4</ele><time>2026-04-26T12:44:44Z</time></trkpt><trkpt lat="48.02715723609827" lon="-0.7622406601406178"><ele>101.0</ele><time>2026-04-26T12:44:45Z</time></trkpt><trkpt lat="48.027197328545434" lon="-0.7621434616682303"><ele>101.0</ele><time>2026-04-26T12:44:46Z</time></trkpt><trkpt lat="48.02727698907155" lon="-0.7620838867158247"><ele>101.0</ele><time>2026-04-26T12:44:47Z</time></trkpt><trkpt lat="48.02736945525921" lon="-0.762062261302395"><ele>101.0</ele><time>2026-04-26T12:44:48Z</time></trkpt><trkpt lat="48.027465617515716" lon="-0.7620883110545865"><ele>101.0</ele><time>2026-04-26T12:44:49Z</time></trkpt><trkpt lat="48.02755524835788" lon="-0.7621765360196187"><ele>101.0</ele><time>2026-04-26T12:44:50Z</time></trkpt><trkpt lat="48.027629479501925" lon="-0.7622941808260513"><ele>99.8</ele><time>2026-04-26T12:44:51Z</time></trkpt><trkpt lat="48.02772115055818" lon="-0.7623546107981031"><ele>98.6</ele><time>2026-04-26T12:44:52Z</time></trkpt><trkpt lat="48.02782786539975" lon="-0.762346023456799"><ele>97.4</ele><time>2026-04-26T12:44:53Z</time></trkpt><trkpt lat="48.02793285807074" lon="-0.7623242364990043"><ele>96.2</ele><time>2026-04-26T12:44:54Z</time></trkpt><trkpt lat="48.02803399766121" lon="-0.7622972188905291"><ele>95.0</ele><time>2026-04-26T12:44:55Z</time></trkpt><trkpt lat="48.02813702260363" lon="-0.7622723778530349"><ele>95.0</ele><time>2026-04-26T12:44:56Z</time></trkpt><trkpt lat="48.02824288276671" lon="-0.7622454147329065"><ele>95.0</ele><time>2026-04-26T12:44:57Z</time></trkpt><trkpt lat="48.02834869351302" lon="-0.7622218060313366"><ele>95.0</ele><time>2026-04-26T12:44:58Z</time></trkpt><trkpt lat="48.02845787683282" lon="-0.7621991483040635"><ele>95.0</ele><time>2026-04-26T12:44:59Z</time></trkpt><trkpt lat="48.028569588173866" lon="-0.7621717954184835"><ele>95.0</ele><time>2026-04-26T12:45:00Z</time></trkpt><trkpt lat="48.02867798033675" lon="-0.7621497267975309"><ele>93.75</ele><time>2026-04-26T12:45:01Z</time></trkpt><trkpt lat="48.028797562531686" lon="-0.7621190175764702"><ele>92.5</ele><time>2026-04-26T12:45:02Z</time></trkpt><trkpt lat="48.02892665607316" lon="-0.7620892314443742"><ele>91.25</ele><time>2026-04-26T12:45:03Z</time></trkpt><trkpt lat="48.02906338776174" lon="-0.7620568905201074"><ele>90.0</ele><time>2026-04-26T12:45:04Z</time></trkpt><trkpt lat="48.029201317413005" lon="-0.7620300305995713"><ele>88.5</ele><time>2026-04-26T12:45:05Z</time></trkpt><trkpt lat="48.029343704191724" lon="-0.7620037475575165"><ele>87.0</ele><time>2026-04-26T12:45:06Z</time></trkpt><trkpt lat="48.029493495398015" lon="-0.7619660924401875"><ele>85.5</ele><time>2026-04-26T12:45:07Z</time></trkpt><trkpt lat="48.029637197089336" lon="-0.76193033489185"><ele>84.0</ele><time>2026-04-26T12:45:08Z</time></trkpt><trkpt lat="48.02977924154023" lon="-0.7618921888120426"><ele>84.5</ele><time>2026-04-26T12:45:09Z</time></trkpt><trkpt lat="48.02991937686647" lon="-0.7618535041259243"><ele>85.0</ele><time>2026-04-26T12:45:10Z</time></trkpt><trkpt lat="48.030056802968375" lon="-0.7618184466624313"><ele>85.5</ele><time>2026-04-26T12:45:11Z</time></trkpt><trkpt lat="48.030197188669" lon="-0.7617784174672884"><ele>86.0</ele><time>2026-04-26T12:45:12Z</time></trkpt><trkpt lat="48.030340038732085" lon="-0.7617464504145284"><ele>83.66666666666667</ele><time>2026-04-26T12:45:13Z</time></trkpt><trkpt lat="48.03048031431983" lon="-0.7617078716208932"><ele>81.33333333333333</ele><time>2026-04-26T12:45:14Z</time></trkpt><trkpt lat="48.03062860000863" lon="-0.7616674502592046"><ele>79.0</ele><time>2026-04-26T12:45:15Z</time></trkpt><trkpt lat="48.03078008391694" lon="-0.7616101745344491"><ele>78.0</ele><time>2026-04-26T12:45:16Z</time></trkpt><trkpt lat="48.03093004782287" lon="-0.7615485226576858"><ele>77.0</ele><time>2026-04-26T12:45:17Z</time></trkpt><trkpt lat="48.03107867559466" lon="-0.7614782768152663"><ele>76.0</ele><time>2026-04-26T12:45:18Z</time></trkpt><trkpt lat="48.03122563003144" lon="-0.7613839378958895"><ele>76.0</ele><time>2026-04-26T12:45:19Z</time></trkpt><trkpt lat="48.031370113959156" lon="-0.7612742736438982"><ele>76.0</ele><time>2026-04-26T12:45:20Z</time></trkpt><trkpt lat="48.031514027976996" lon="-0.761143910481976"><ele>76.0</ele><time>2026-04-26T12:45:21Z</time></trkpt><trkpt lat="48.031644790917596" lon="-0.7610166499936487"><ele>71.66666666666666</ele><time>2026-04-26T12:45:21.999Z</time></trkpt><trkpt lat="48.031769654905744" lon="-0.7608731878838728"><ele>67.33333333333333</ele><time>2026-04-26T12:45:22.999Z</time></trkpt><trkpt lat="48.03189257056788" lon="-0.7607302368244004"><ele>63.0</ele><time>2026-04-26T12:45:23.999Z</time></trkpt><trkpt lat="48.03201051434987" lon="-0.7605846113961372"><ele>63.0</ele><time>2026-04-26T12:45:24.999Z</time></trkpt><trkpt lat="48.032118605716455" lon="-0.7604230319420945"><ele>63.0</ele><time>2026-04-26T12:45:25.999Z</time></trkpt><trkpt lat="48.032226441004525" lon="-0.7602678020397532"><ele>63.0</ele><time>2026-04-26T12:45:26.999Z</time></trkpt><trkpt lat="48.03233684898008" lon="-0.7601141914294425"><ele>60.5</ele><time>2026-04-26T12:45:27.999Z</time></trkpt><trkpt lat="48.03244459683408" lon="-0.7599647927392746"><ele>58.0</ele><time>2026-04-26T12:45:28.999Z</time></trkpt><trkpt lat="48.032548753432124" lon="-0.7598163378512908"><ele>55.5</ele><time>2026-04-26T12:45:29.999Z</time></trkpt><trkpt lat="48.032653685481705" lon="-0.7596778142187767"><ele>53.0</ele><time>2026-04-26T12:45:30.999Z</time></trkpt><trkpt lat="48.03275917778952" lon="-0.7595381010936377"><ele>53.0</ele><time>2026-04-26T12:45:31.999Z</time></trkpt><trkpt lat="48.032853980021784" lon="-0.7594009881790225"><ele>53.0</ele><time>2026-04-26T12:45:32.999Z</time></trkpt><trkpt lat="48.03295431990758" lon="-0.7592723954089508"><ele>53.0</ele><time>2026-04-26T12:45:33.999Z</time></trkpt><trkpt lat="48.033055279207105" lon="-0.759147607394897"><ele>53.0</ele><time>2026-04-26T12:45:34.999Z</time></trkpt><trkpt lat="48.03315246032605" lon="-0.7590354753298489"><ele>53.0</ele><time>2026-04-26T12:45:35.999Z</time></trkpt><trkpt lat="48.03325340838608" lon="-0.7589394431471492"><ele>53.0</ele><time>2026-04-26T12:45:36.999Z</time></trkpt><trkpt lat="48.03335409437038" lon="-0.7588578345065782"><ele>53.0</ele><time>2026-04-26T12:45:37.999Z</time></trkpt><trkpt lat="48.033451421217535" lon="-0.7587766714574424"><ele>53.0</ele><time>2026-04-26T12:45:38.999Z</time></trkpt><trkpt lat="48.03354180430467" lon="-0.758704507187359"><ele>53.0</ele><time>2026-04-26T12:45:39.999Z</time></trkpt><trkpt lat="48.03363241459411" lon="-0.7586384976641319"><ele>53.0</ele><time>2026-04-26T12:45:40.999Z</time></trkpt><trkpt lat="48.03373072185964" lon="-0.7585895972219613"><ele>53.0</ele><time>2026-04-26T12:45:41.999Z</time></trkpt><trkpt lat="48.033823211258955" lon="-0.7585438897329319"><ele>53.0</ele><time>2026-04-26T12:45:42.999Z</time></trkpt><trkpt lat="48.033917172984665" lon="-0.7585041419235752"><ele>53.0</ele><time>2026-04-26T12:45:43.999Z</time></trkpt><trkpt lat="48.03401506817772" lon="-0.7584688914727807"><ele>53.0</ele><time>2026-04-26T12:45:44.999Z</time></trkpt><trkpt lat="48.03411003223144" lon="-0.7584361216345401"><ele>52.8</ele><time>2026-04-26T12:45:45.999Z</time></trkpt><trkpt lat="48.03420320706677" lon="-0.7584087422502143"><ele>52.599999999999994</ele><time>2026-04-26T12:45:46.999Z</time></trkpt><trkpt lat="48.0343014569328" lon="-0.7583851722780807"><ele>52.400000000000006</ele><time>2026-04-26T12:45:47.999Z</time></trkpt><trkpt lat="48.034396725737516" lon="-0.7583635258232275"><ele>52.2</ele><time>2026-04-26T12:45:48.999Z</time></trkpt><trkpt lat="48.034490176160965" lon="-0.7583442538608408"><ele>52.0</ele><time>2026-04-26T12:45:49.999Z</time></trkpt><trkpt lat="48.03458549441561" lon="-0.7583432994017315"><ele>52.0</ele><time>2026-04-26T12:45:50.999Z</time></trkpt><trkpt lat="48.03468236383406" lon="-0.7583409116705874"><ele>52.0</ele><time>2026-04-26T12:45:51.999Z</time></trkpt><trkpt lat="48.03477566079573" lon="-0.7583441339106369"><ele>52.0</ele><time>2026-04-26T12:45:52.999Z</time></trkpt><trkpt lat="48.03486990448001" lon="-0.7583463579267411"><ele>52.0</ele><time>2026-04-26T12:45:53.999Z</time></trkpt><trkpt lat="48.03495769181517" lon="-0.7583575835412891"><ele>52.0</ele><time>2026-04-26T12:45:54.999Z</time></trkpt><trkpt lat="48.035045078223604" lon="-0.7583728703484724"><ele>52.0</ele><time>2026-04-26T12:45:55.999Z</time></trkpt><trkpt lat="48.03513862629211" lon="-0.7583883431618024"><ele>52.0</ele><time>2026-04-26T12:45:56.999Z</time></trkpt><trkpt lat="48.035225758347984" lon="-0.7584100193322182"><ele>52.0</ele><time>2026-04-26T12:45:57.999Z</time></trkpt><trkpt lat="48.03531381954172" lon="-0.7584413425215333"><ele>52.0</ele><time>2026-04-26T12:45:58.999Z</time></trkpt><trkpt lat="48.03540262400926" lon="-0.758476489240155"><ele>52.0</ele><time>2026-04-26T12:45:59.999Z</time></trkpt><trkpt lat="48.03548887791888" lon="-0.7585112967728805"><ele>53.0</ele><time>2026-04-26T12:46:00.999Z</time></trkpt><trkpt lat="48.03557640860983" lon="-0.7585523896714941"><ele>54.0</ele><time>2026-04-26T12:46:01.999Z</time></trkpt><trkpt lat="48.03566265427606" lon="-0.7585955761800954"><ele>55.0</ele><time>2026-04-26T12:46:02.999Z</time></trkpt><trkpt lat="48.03575439151861" lon="-0.7586460983313105"><ele>56.0</ele><time>2026-04-26T12:46:03.999Z</time></trkpt><trkpt lat="48.03584259246876" lon="-0.7587058433445169"><ele>57.0</ele><time>2026-04-26T12:46:04.999Z</time></trkpt><trkpt lat="48.03592812384243" lon="-0.7587711463418878"><ele>57.2</ele><time>2026-04-26T12:46:05.999Z</time></trkpt><trkpt lat="48.0360143436243" lon="-0.7588378320952621"><ele>57.400000000000006</ele><time>2026-04-26T12:46:06.999Z</time></trkpt><trkpt lat="48.03609712634618" lon="-0.7589113228448905"><ele>57.599999999999994</ele><time>2026-04-26T12:46:07.999Z</time></trkpt><trkpt lat="48.03617948454126" lon="-0.7589913953556032"><ele>57.8</ele><time>2026-04-26T12:46:08.999Z</time></trkpt><trkpt lat="48.03625976990952" lon="-0.7590717523464616"><ele>58.0</ele><time>2026-04-26T12:46:09.999Z</time></trkpt><trkpt lat="48.036338469444" lon="-0.7591528961725174"><ele>58.0</ele><time>2026-04-26T12:46:10.999Z</time></trkpt><trkpt lat="48.0364156867369" lon="-0.7592425379194058"><ele>58.0</ele><time>2026-04-26T12:46:11.999Z</time></trkpt><trkpt lat="48.03648864361239" lon="-0.759336721434837"><ele>58.0</ele><time>2026-04-26T12:46:12.999Z</time></trkpt><trkpt lat="48.03655663664083" lon="-0.759436215902352"><ele>58.0</ele><time>2026-04-26T12:46:13.999Z</time></trkpt><trkpt lat="48.03662389853249" lon="-0.7595358250606128"><ele>58.0</ele><time>2026-04-26T12:46:14.999Z</time></trkpt><trkpt lat="48.03668865796033" lon="-0.7596379367186881"><ele>59.0</ele><time>2026-04-26T12:46:15.999Z</time></trkpt><trkpt lat="48.03675219578394" lon="-0.7597417925702503"><ele>60.0</ele><time>2026-04-26T12:46:17Z</time></trkpt><trkpt lat="48.036815218102205" lon="-0.7598401957516515"><ele>61.0</ele><time>2026-04-26T12:46:18Z</time></trkpt><trkpt lat="48.036874710850185" lon="-0.7599441077581106"><ele>62.0</ele><time>2026-04-26T12:46:19Z</time></trkpt><trkpt lat="48.0369356891002" lon="-0.7600476294390374"><ele>63.0</ele><time>2026-04-26T12:46:20Z</time></trkpt><trkpt lat="48.036995280165286" lon="-0.7601498796362186"><ele>64.33333333333333</ele><time>2026-04-26T12:46:21Z</time></trkpt><trkpt lat="48.03705502964837" lon="-0.7602522130809001"><ele>65.66666666666667</ele><time>2026-04-26T12:46:22Z</time></trkpt><trkpt lat="48.03711855840804" lon="-0.7603492748343992"><ele>67.0</ele><time>2026-04-26T12:46:23Z</time></trkpt><trkpt lat="48.03717939836438" lon="-0.7604457933123479"><ele>68.33333333333334</ele><time>2026-04-26T12:46:24Z</time></trkpt><trkpt lat="48.037239659828685" lon="-0.7605432859847872"><ele>69.66666666666667</ele><time>2026-04-26T12:46:25Z</time></trkpt><trkpt lat="48.03729909481394" lon="-0.7606407628714004"><ele>71.0</ele><time>2026-04-26T12:46:26Z</time></trkpt><trkpt lat="48.037356963015" lon="-0.760734155723166"><ele>71.0</ele><time>2026-04-26T12:46:27Z</time></trkpt><trkpt lat="48.037411043851" lon="-0.76083187777441"><ele>71.0</ele><time>2026-04-26T12:46:28Z</time></trkpt><trkpt lat="48.037468164980545" lon="-0.7609230989450525"><ele>71.0</ele><time>2026-04-26T12:46:29Z</time></trkpt><trkpt lat="48.037526563274675" lon="-0.7610147606283713"><ele>71.0</ele><time>2026-04-26T12:46:30Z</time></trkpt><trkpt lat="48.037583228482696" lon="-0.7611063565485051"><ele>71.0</ele><time>2026-04-26T12:46:31Z</time></trkpt><trkpt lat="48.03764049916714" lon="-0.7611983742771122"><ele>71.0</ele><time>2026-04-26T12:46:32Z</time></trkpt><trkpt lat="48.037693401912236" lon="-0.761292697392397"><ele>71.5</ele><time>2026-04-26T12:46:33Z</time></trkpt><trkpt lat="48.03774849470008" lon="-0.7613823229361996"><ele>72.0</ele><time>2026-04-26T12:46:34Z</time></trkpt><trkpt lat="48.03780146299773" lon="-0.7614713018005564"><ele>72.5</ele><time>2026-04-26T12:46:35Z</time></trkpt><trkpt lat="48.037855843900644" lon="-0.7615581547953278"><ele>73.0</ele><time>2026-04-26T12:46:36Z</time></trkpt><trkpt lat="48.03790497602571" lon="-0.761642635429251"><ele>73.5</ele><time>2026-04-26T12:46:37Z</time></trkpt><trkpt lat="48.037958165546165" lon="-0.7617249113217904"><ele>74.0</ele><time>2026-04-26T12:46:38Z</time></trkpt><trkpt lat="48.03800556787733" lon="-0.7618126610735636"><ele>75.71428571428572</ele><time>2026-04-26T12:46:39Z</time></trkpt><trkpt lat="48.038053129687945" lon="-0.7618934840123672"><ele>77.42857142857143</ele><time>2026-04-26T12:46:40Z</time></trkpt><trkpt lat="48.038101537502435" lon="-0.7619703108439199"><ele>79.14285714285714</ele><time>2026-04-26T12:46:41Z</time></trkpt><trkpt lat="48.03814781833245" lon="-0.7620444064143419"><ele>80.85714285714286</ele><time>2026-04-26T12:46:42Z</time></trkpt><trkpt lat="48.03819136840623" lon="-0.7621222788545916"><ele>82.57142857142857</ele><time>2026-04-26T12:46:43Z</time></trkpt><trkpt lat="48.03823696765233" lon="-0.7621967022781884"><ele>84.28571428571429</ele><time>2026-04-26T12:46:44Z</time></trkpt><trkpt lat="48.03828355527311" lon="-0.7622714926528599"><ele>86.0</ele><time>2026-04-26T12:46:45Z</time></trkpt><trkpt lat="48.03832813146432" lon="-0.7623453020243133"><ele>83.28571428571429</ele><time>2026-04-26T12:46:46Z</time></trkpt><trkpt lat="48.03837225249717" lon="-0.7624213569493586"><ele>80.57142857142857</ele><time>2026-04-26T12:46:47Z</time></trkpt><trkpt lat="48.03841621883965" lon="-0.7624931971776697"><ele>77.85714285714286</ele><time>2026-04-26T12:46:48Z</time></trkpt><trkpt lat="48.0384584940629" lon="-0.7625680003465769"><ele>75.14285714285714</ele><time>2026-04-26T12:46:49Z</time></trkpt><trkpt lat="48.03850517147238" lon="-0.7626458847247345"><ele>72.42857142857143</ele><time>2026-04-26T12:46:50Z</time></trkpt><trkpt lat="48.03854993539216" lon="-0.7627176017111951"><ele>69.71428571428572</ele><time>2026-04-26T12:46:51Z</time></trkpt><trkpt lat="48.03859207513703" lon="-0.7627927986563149"><ele>67.0</ele><time>2026-04-26T12:46:52Z</time></trkpt><trkpt lat="48.038638636769086" lon="-0.7628622895989795"><ele>67.0</ele><time>2026-04-26T12:46:53Z</time></trkpt><trkpt lat="48.038682345962336" lon="-0.7629350432588233"><ele>67.0</ele><time>2026-04-26T12:46:54Z</time></trkpt><trkpt lat="48.03872885226998" lon="-0.7630079344390119"><ele>67.0</ele><time>2026-04-26T12:46:55Z</time></trkpt><trkpt lat="48.03877359923937" lon="-0.763083467357014"><ele>67.0</ele><time>2026-04-26T12:46:56Z</time></trkpt><trkpt lat="48.03881724460125" lon="-0.7631587491842546"><ele>67.0</ele><time>2026-04-26T12:46:57Z</time></trkpt><trkpt lat="48.03886482416432" lon="-0.7632321841183575"><ele>67.0</ele><time>2026-04-26T12:46:58Z</time></trkpt><trkpt lat="48.038914550270846" lon="-0.7633040098652888"><ele>67.0</ele><time>2026-04-26T12:46:59Z</time></trkpt><trkpt lat="48.03896172640477" lon="-0.7633751747380298"><ele>67.0</ele><time>2026-04-26T12:47:00Z</time></trkpt><trkpt lat="48.03901097827925" lon="-0.7634451284325483"><ele>67.0</ele><time>2026-04-26T12:47:01Z</time></trkpt><trkpt lat="48.039061633533414" lon="-0.763513120532222"><ele>67.0</ele><time>2026-04-26T12:47:02Z</time></trkpt><trkpt lat="48.039113084618855" lon="-0.7635774227178649"><ele>67.0</ele><time>2026-04-26T12:47:03Z</time></trkpt><trkpt lat="48.03916975889133" lon="-0.7636370243451737"><ele>67.0</ele><time>2026-04-26T12:47:04Z</time></trkpt><trkpt lat="48.03922740086672" lon="-0.7636880147682622"><ele>67.0</ele><time>2026-04-26T12:47:05Z</time></trkpt><trkpt lat="48.03928550448086" lon="-0.7637351473557525"><ele>67.0</ele><time>2026-04-26T12:47:06Z</time></trkpt><trkpt lat="48.03934260218323" lon="-0.7637786831068591"><ele>67.5</ele><time>2026-04-26T12:47:07Z</time></trkpt><trkpt lat="48.03940313081037" lon="-0.7638214865149925"><ele>68.0</ele><time>2026-04-26T12:47:08Z</time></trkpt><trkpt lat="48.03946168767535" lon="-0.7638606920433638"><ele>68.5</ele><time>2026-04-26T12:47:09Z</time></trkpt><trkpt lat="48.039519039235344" lon="-0.7638998955654865"><ele>69.0</ele><time>2026-04-26T12:47:10Z</time></trkpt><trkpt lat="48.03957825385299" lon="-0.7639392114592197"><ele>69.5</ele><time>2026-04-26T12:47:11Z</time></trkpt><trkpt lat="48.03968878960776" lon="-0.7640109555845745"><ele>70.0</ele><time>2026-04-26T12:47:13Z</time></trkpt><trkpt lat="48.039801695305144" lon="-0.7640789167125368"><ele>70.0</ele><time>2026-04-26T12:47:15Z</time></trkpt><trkpt lat="48.039907358778365" lon="-0.7641475329674118"><ele>70.0</ele><time>2026-04-26T12:47:17Z</time></trkpt><trkpt lat="48.04001195646265" lon="-0.7642165130984541"><ele>70.0</ele><time>2026-04-26T12:47:19Z</time></trkpt><trkpt lat="48.04011455604868" lon="-0.7642900405468444"><ele>70.0</ele><time>2026-04-26T12:47:20.999Z</time></trkpt><trkpt lat="48.04021963165259" lon="-0.764361029676209"><ele>71.75</ele><time>2026-04-26T12:47:22.999Z</time></trkpt><trkpt lat="48.040328301229714" lon="-0.7644220735571616"><ele>73.5</ele><time>2026-04-26T12:47:24.999Z</time></trkpt><trkpt lat="48.0404342973282" lon="-0.7644952324589752"><ele>75.25</ele><time>2026-04-26T12:47:26.999Z</time></trkpt><trkpt lat="48.04054081748897" lon="-0.7645651672765866"><ele>77.0</ele><time>2026-04-26T12:47:28.999Z</time></trkpt><trkpt lat="48.04064628741342" lon="-0.7646341400710085"><ele>77.0</ele><time>2026-04-26T12:47:30.999Z</time></trkpt><trkpt lat="48.0407537852281" lon="-0.7647043105798889"><ele>77.0</ele><time>2026-04-26T12:47:32.999Z</time></trkpt><trkpt lat="48.04086211747243" lon="-0.764770973671559"><ele>77.0</ele><time>2026-04-26T12:47:34.999Z</time></trkpt><trkpt lat="48.04097410832628" lon="-0.7648465605663685"><ele>77.0</ele><time>2026-04-26T12:47:36.999Z</time></trkpt><trkpt lat="48.04103299753471" lon="-0.7648838412248665"><ele>77.0</ele><time>2026-04-26T12:47:37.999Z</time></trkpt><trkpt lat="48.04114745796373" lon="-0.7649614138582291"><ele>76.71428571428571</ele><time>2026-04-26T12:47:39.999Z</time></trkpt><trkpt lat="48.04120699145991" lon="-0.7649985286657456"><ele>76.42857142857143</ele><time>2026-04-26T12:47:40.999Z</time></trkpt><trkpt lat="48.04126545318008" lon="-0.7650379593840674"><ele>76.14285714285714</ele><time>2026-04-26T12:47:41.999Z</time></trkpt><trkpt lat="48.04132508432079" lon="-0.7650772766044898"><ele>75.85714285714286</ele><time>2026-04-26T12:47:42.999Z</time></trkpt><trkpt lat="48.0413836466299" lon="-0.7651175440314423"><ele>75.57142857142857</ele><time>2026-04-26T12:47:43.999Z</time></trkpt><trkpt lat="48.04144182511301" lon="-0.7651581969074646"><ele>75.28571428571428</ele><time>2026-04-26T12:47:44.999Z</time></trkpt><trkpt lat="48.041501531874836" lon="-0.765194699238696"><ele>75.0</ele><time>2026-04-26T12:47:45.999Z</time></trkpt><trkpt lat="48.041562541390306" lon="-0.7652276991575793"><ele>75.0</ele><time>2026-04-26T12:47:46.999Z</time></trkpt><trkpt lat="48.04162082183282" lon="-0.7652679217368482"><ele>75.0</ele><time>2026-04-26T12:47:47.999Z</time></trkpt><trkpt lat="48.04167908572092" lon="-0.7653052429476556"><ele>75.0</ele><time>2026-04-26T12:47:48.999Z</time></trkpt><trkpt lat="48.04173973160243" lon="-0.7653473083663942"><ele>75.0</ele><time>2026-04-26T12:47:49.999Z</time></trkpt><trkpt lat="48.041851912610284" lon="-0.7654288058305836"><ele>75.0</ele><time>2026-04-26T12:47:51.999Z</time></trkpt><trkpt lat="48.04190999306346" lon="-0.7654718090356345"><ele>75.0</ele><time>2026-04-26T12:47:52.999Z</time></trkpt><trkpt lat="48.04197152039153" lon="-0.7655148413845735"><ele>75.28571428571428</ele><time>2026-04-26T12:47:53.999Z</time></trkpt><trkpt lat="48.04203181020455" lon="-0.7655551319597599"><ele>75.57142857142857</ele><time>2026-04-26T12:47:54.999Z</time></trkpt><trkpt lat="48.04209498782179" lon="-0.7655937375363641"><ele>75.85714285714286</ele><time>2026-04-26T12:47:55.999Z</time></trkpt><trkpt lat="48.04216121613221" lon="-0.7656312226818629"><ele>76.14285714285714</ele><time>2026-04-26T12:47:56.999Z</time></trkpt><trkpt lat="48.0422264870164" lon="-0.7656739921554986"><ele>76.42857142857143</ele><time>2026-04-26T12:47:57.999Z</time></trkpt><trkpt lat="48.042291748351225" lon="-0.7657205706528417"><ele>76.71428571428571</ele><time>2026-04-26T12:47:58.999Z</time></trkpt><trkpt lat="48.042355849108844" lon="-0.7657677251723842"><ele>77.0</ele><time>2026-04-26T12:47:59.999Z</time></trkpt><trkpt lat="48.04242666693477" lon="-0.7658144236684746"><ele>79.33333333333334</ele><time>2026-04-26T12:48:00.999Z</time></trkpt><trkpt lat="48.042496842587695" lon="-0.7658516293057155"><ele>81.66666666666667</ele><time>2026-04-26T12:48:01.999Z</time></trkpt><trkpt lat="48.042568259575035" lon="-0.7658966022424347"><ele>84.0</ele><time>2026-04-26T12:48:02.999Z</time></trkpt><trkpt lat="48.042638519347314" lon="-0.7659408911933306"><ele>86.33333333333333</ele><time>2026-04-26T12:48:03.999Z</time></trkpt><trkpt lat="48.042713665715155" lon="-0.7659831484420639"><ele>88.66666666666666</ele><time>2026-04-26T12:48:04.999Z</time></trkpt><trkpt lat="48.04279172768751" lon="-0.7660186058555779"><ele>91.0</ele><time>2026-04-26T12:48:05.999Z</time></trkpt><trkpt lat="48.04286769712856" lon="-0.7660523635848189"><ele>91.0</ele><time>2026-04-26T12:48:06.999Z</time></trkpt><trkpt lat="48.04294465475322" lon="-0.7660862356976137"><ele>91.0</ele><time>2026-04-26T12:48:07.999Z</time></trkpt><trkpt lat="48.04302448527695" lon="-0.766108108722462"><ele>91.0</ele><time>2026-04-26T12:48:08.999Z</time></trkpt><trkpt lat="48.043102396929314" lon="-0.766111941759749"><ele>91.0</ele><time>2026-04-26T12:48:09.999Z</time></trkpt><trkpt lat="48.04318041100358" lon="-0.7661232926338958"><ele>91.0</ele><time>2026-04-26T12:48:10.999Z</time></trkpt><trkpt lat="48.043258554992384" lon="-0.7661320145471889"><ele>91.0</ele><time>2026-04-26T12:48:11.999Z</time></trkpt><trkpt lat="48.04333345968412" lon="-0.766117464656234"><ele>88.0</ele><time>2026-04-26T12:48:12.999Z</time></trkpt><trkpt lat="48.04340863456068" lon="-0.7661308367617355"><ele>85.0</ele><time>2026-04-26T12:48:13.999Z</time></trkpt><trkpt lat="48.04348075413765" lon="-0.7661353888398668"><ele>82.0</ele><time>2026-04-26T12:48:14.999Z</time></trkpt><trkpt lat="48.043552410166285" lon="-0.7661384182183795"><ele>79.0</ele><time>2026-04-26T12:48:15.999Z</time></trkpt><trkpt lat="48.043619609813845" lon="-0.7661415512391799"><ele>76.0</ele><time>2026-04-26T12:48:16.999Z</time></trkpt><trkpt lat="48.04368651315858" lon="-0.7661472030579891"><ele>73.0</ele><time>2026-04-26T12:48:17.999Z</time></trkpt><trkpt lat="48.04375346548709" lon="-0.7661515691347666"><ele>70.0</ele><time>2026-04-26T12:48:18.999Z</time></trkpt><trkpt lat="48.04381658794701" lon="-0.7661522163720856"><ele>70.0</ele><time>2026-04-26T12:48:19.999Z</time></trkpt><trkpt lat="48.04393948079351" lon="-0.7661616411908599"><ele>70.0</ele><time>2026-04-26T12:48:21.999Z</time></trkpt><trkpt lat="48.04400642691001" lon="-0.7661680410580783"><ele>70.0</ele><time>2026-04-26T12:48:23Z</time></trkpt><trkpt lat="48.044128814535675" lon="-0.7661747623017621"><ele>70.0</ele><time>2026-04-26T12:48:25Z</time></trkpt><trkpt lat="48.044251591001846" lon="-0.7661811375999632"><ele>70.0</ele><time>2026-04-26T12:48:27Z</time></trkpt><trkpt lat="48.04431570290167" lon="-0.7661851064640715"><ele>70.4</ele><time>2026-04-26T12:48:28Z</time></trkpt><trkpt lat="48.044439876274105" lon="-0.7661900600693656"><ele>70.8</ele><time>2026-04-26T12:48:30Z</time></trkpt><trkpt lat="48.044561013199434" lon="-0.7661959149341129"><ele>71.2</ele><time>2026-04-26T12:48:32Z</time></trkpt><trkpt lat="48.044679700696925" lon="-0.766214107842761"><ele>71.6</ele><time>2026-04-26T12:48:34Z</time></trkpt><trkpt lat="48.04474436595059" lon="-0.7662228656963895"><ele>72.0</ele><time>2026-04-26T12:48:35Z</time></trkpt><trkpt lat="48.044807635227" lon="-0.7662221512365528"><ele>72.00000000000001</ele><time>2026-04-26T12:48:36Z</time></trkpt><trkpt lat="48.04487269935097" lon="-0.7662149294509768"><ele>72.0</ele><time>2026-04-26T12:48:37Z</time></trkpt><trkpt lat="48.044940649646534" lon="-0.7662192162117829"><ele>72.0</ele><time>2026-04-26T12:48:38Z</time></trkpt><trkpt lat="48.04501087886639" lon="-0.7662232238762817"><ele>72.0</ele><time>2026-04-26T12:48:39Z</time></trkpt><trkpt lat="48.04507949313266" lon="-0.7662138565040708"><ele>72.0</ele><time>2026-04-26T12:48:40Z</time></trkpt><trkpt lat="48.04515070899562" lon="-0.766202505046217"><ele>72.00000000000001</ele><time>2026-04-26T12:48:41Z</time></trkpt><trkpt lat="48.04522241826361" lon="-0.7662030005459022"><ele>72.0</ele><time>2026-04-26T12:48:42Z</time></trkpt><trkpt lat="48.04529557577337" lon="-0.7662069477124923"><ele>71.71428571428572</ele><time>2026-04-26T12:48:43Z</time></trkpt><trkpt lat="48.04537082958876" lon="-0.7662075000667082"><ele>71.42857142857143</ele><time>2026-04-26T12:48:44Z</time></trkpt><trkpt lat="48.04544556401707" lon="-0.766205886880992"><ele>71.14285714285714</ele><time>2026-04-26T12:48:45Z</time></trkpt><trkpt lat="48.04551913759186" lon="-0.7662089642718698"><ele>70.85714285714286</ele><time>2026-04-26T12:48:46Z</time></trkpt><trkpt lat="48.04559231069615" lon="-0.766214622410038"><ele>70.57142857142857</ele><time>2026-04-26T12:48:47Z</time></trkpt><trkpt lat="48.04566897437409" lon="-0.7662195059493954"><ele>70.28571428571429</ele><time>2026-04-26T12:48:48Z</time></trkpt><trkpt lat="48.04574345664118" lon="-0.7662284866031367"><ele>70.0</ele><time>2026-04-26T12:48:49Z</time></trkpt><trkpt lat="48.045816971268735" lon="-0.7662427575295159"><ele>70.0</ele><time>2026-04-26T12:48:50Z</time></trkpt><trkpt lat="48.04588797945681" lon="-0.7662643990016478"><ele>70.0</ele><time>2026-04-26T12:48:51Z</time></trkpt><trkpt lat="48.045958352415084" lon="-0.7662803156205068"><ele>70.0</ele><time>2026-04-26T12:48:52Z</time></trkpt><trkpt lat="48.04602567411209" lon="-0.7662849865855328"><ele>70.0</ele><time>2026-04-26T12:48:53Z</time></trkpt><trkpt lat="48.04608916318861" lon="-0.7662912879211415"><ele>70.0</ele><time>2026-04-26T12:48:54Z</time></trkpt><trkpt lat="48.046210279113694" lon="-0.7663297618651651"><ele>70.0</ele><time>2026-04-26T12:48:56Z</time></trkpt><trkpt lat="48.046317780009765" lon="-0.7663541680863944"><ele>70.0</ele><time>2026-04-26T12:48:58Z</time></trkpt><trkpt lat="48.0464205322031" lon="-0.7663790457378831"><ele>70.0</ele><time>2026-04-26T12:49:00Z</time></trkpt><trkpt lat="48.04651880204402" lon="-0.7664023230620347"><ele>70.0</ele><time>2026-04-26T12:49:02Z</time></trkpt><trkpt lat="48.0466134833983" lon="-0.7664274872546617"><ele>70.0</ele><time>2026-04-26T12:49:04Z</time></trkpt><trkpt lat="48.04670905232264" lon="-0.7664476811409783"><ele>70.0</ele><time>2026-04-26T12:49:06Z</time></trkpt><trkpt lat="48.046793414220744" lon="-0.7664752625229668"><ele>69.57142857142857</ele><time>2026-04-26T12:49:08Z</time></trkpt><trkpt lat="48.0468756963562" lon="-0.7664977841242576"><ele>69.14285714285714</ele><time>2026-04-26T12:49:10Z</time></trkpt><trkpt lat="48.04695418573643" lon="-0.7665116434323763"><ele>68.71428571428572</ele><time>2026-04-26T12:49:12Z</time></trkpt><trkpt lat="48.047022452371976" lon="-0.7665331638285415"><ele>68.28571428571428</ele><time>2026-04-26T12:49:14Z</time></trkpt><trkpt lat="48.04708936421432" lon="-0.7665499905289563"><ele>67.85714285714286</ele><time>2026-04-26T12:49:16Z</time></trkpt><trkpt lat="48.04715637996306" lon="-0.7665658711207753"><ele>67.42857142857143</ele><time>2026-04-26T12:49:18Z</time></trkpt><trkpt lat="48.04721832997469" lon="-0.7665851340659087"><ele>67.0</ele><time>2026-04-26T12:49:20Z</time></trkpt><trkpt lat="48.0472836209511" lon="-0.766605877161898"><ele>67.0</ele><time>2026-04-26T12:49:22Z</time></trkpt><trkpt lat="48.04735665310622" lon="-0.7666266564762635"><ele>67.0</ele><time>2026-04-26T12:49:24Z</time></trkpt><trkpt lat="48.04743249904118" lon="-0.7666449270069952"><ele>67.0</ele><time>2026-04-26T12:49:26Z</time></trkpt><trkpt lat="48.04750937178451" lon="-0.7666653546994127"><ele>67.0</ele><time>2026-04-26T12:49:28Z</time></trkpt><trkpt lat="48.04758276575744" lon="-0.7666866770801448"><ele>67.0</ele><time>2026-04-26T12:49:30Z</time></trkpt><trkpt lat="48.04765624968566" lon="-0.7667048535471547"><ele>67.0</ele><time>2026-04-26T12:49:32Z</time></trkpt><trkpt lat="48.047729096838616" lon="-0.7667235793044682"><ele>65.16666666666666</ele><time>2026-04-26T12:49:34Z</time></trkpt><trkpt lat="48.04780789295484" lon="-0.7667436631783701"><ele>63.33333333333333</ele><time>2026-04-26T12:49:35.999Z</time></trkpt><trkpt lat="48.04788776926552" lon="-0.7667662417137234"><ele>61.5</ele><time>2026-04-26T12:49:37.999Z</time></trkpt><trkpt lat="48.047970449955365" lon="-0.76678709347682"><ele>59.66666666666667</ele><time>2026-04-26T12:49:39.999Z</time></trkpt><trkpt lat="48.048051181982586" lon="-0.7668022298942758"><ele>57.833333333333336</ele><time>2026-04-26T12:49:41.999Z</time></trkpt><trkpt lat="48.04813334440063" lon="-0.7668107341817937"><ele>56.0</ele><time>2026-04-26T12:49:43.999Z</time></trkpt><trkpt lat="48.04820770203957" lon="-0.7668065252364594"><ele>56.00000000000001</ele><time>2026-04-26T12:49:45.999Z</time></trkpt><trkpt lat="48.04828910811078" lon="-0.7667938740218205"><ele>56.0</ele><time>2026-04-26T12:49:47.999Z</time></trkpt><trkpt lat="48.04836750297898" lon="-0.7667803437437113"><ele>56.0</ele><time>2026-04-26T12:49:49.999Z</time></trkpt><trkpt lat="48.04844677750774" lon="-0.7667646946689115"><ele>56.0</ele><time>2026-04-26T12:49:51.999Z</time></trkpt><trkpt lat="48.04852517860857" lon="-0.7667402750729256"><ele>56.00000000000001</ele><time>2026-04-26T12:49:53.999Z</time></trkpt><trkpt lat="48.0486056079434" lon="-0.7667067016462367"><ele>56.0</ele><time>2026-04-26T12:49:55.999Z</time></trkpt><trkpt lat="48.0486853949279" lon="-0.7666711441807681"><ele>56.00000000000001</ele><time>2026-04-26T12:49:57.999Z</time></trkpt><trkpt lat="48.04876773547365" lon="-0.766627780433225"><ele>56.0</ele><time>2026-04-26T12:49:59.999Z</time></trkpt><trkpt lat="48.04885076521451" lon="-0.7665808106391818"><ele>56.0</ele><time>2026-04-26T12:50:01.999Z</time></trkpt><trkpt lat="48.048927483838106" lon="-0.7665340083589135"><ele>56.0</ele><time>2026-04-26T12:50:03.999Z</time></trkpt><trkpt lat="48.04900047930827" lon="-0.766481003116639"><ele>56.00000000000001</ele><time>2026-04-26T12:50:05.999Z</time></trkpt><trkpt lat="48.0490784107194" lon="-0.7664192747930882"><ele>56.0</ele><time>2026-04-26T12:50:07.999Z</time></trkpt><trkpt lat="48.0491629516771" lon="-0.7663482803120168"><ele>56.0</ele><time>2026-04-26T12:50:09.999Z</time></trkpt><trkpt lat="48.049241618632735" lon="-0.7662815012078437"><ele>55.99999999999999</ele><time>2026-04-26T12:50:11.999Z</time></trkpt><trkpt lat="48.049325806408994" lon="-0.7662075987372922"><ele>55.99999999999999</ele><time>2026-04-26T12:50:13.999Z</time></trkpt><trkpt lat="48.04940701195605" lon="-0.7661348486019044"><ele>56.0</ele><time>2026-04-26T12:50:15.999Z</time></trkpt><trkpt lat="48.049488784793674" lon="-0.7660601638106699"><ele>56.0</ele><time>2026-04-26T12:50:17.999Z</time></trkpt><trkpt lat="48.04956707119077" lon="-0.765985826186197"><ele>55.4</ele><time>2026-04-26T12:50:19.999Z</time></trkpt><trkpt lat="48.04965033421923" lon="-0.7659116489537638"><ele>54.8</ele><time>2026-04-26T12:50:21.999Z</time></trkpt><trkpt lat="48.04973619291746" lon="-0.7658311955083541"><ele>54.199999999999996</ele><time>2026-04-26T12:50:23.999Z</time></trkpt><trkpt lat="48.04982422504647" lon="-0.7657501992150052"><ele>53.599999999999994</ele><time>2026-04-26T12:50:25.999Z</time></trkpt><trkpt lat="48.04991869531088" lon="-0.7656588179464847"><ele>53.0</ele><time>2026-04-26T12:50:28Z</time></trkpt><trkpt lat="48.05001657002721" lon="-0.7655704691154446"><ele>53.0</ele><time>2026-04-26T12:50:30Z</time></trkpt><trkpt lat="48.050117908295185" lon="-0.765479625955016"><ele>53.0</ele><time>2026-04-26T12:50:32Z</time></trkpt><trkpt lat="48.050218070294946" lon="-0.765386526385285"><ele>53.0</ele><time>2026-04-26T12:50:34Z</time></trkpt><trkpt lat="48.05027393986359" lon="-0.7653397403771267"><ele>53.0</ele><time>2026-04-26T12:50:35Z</time></trkpt><trkpt lat="48.05037892607334" lon="-0.7652487154150801"><ele>53.0</ele><time>2026-04-26T12:50:37Z</time></trkpt><trkpt lat="48.05053542473076" lon="-0.7651102757035547"><ele>52.599999999999994</ele><time>2026-04-26T12:50:40Z</time></trkpt><trkpt lat="48.05063610072914" lon="-0.765016161935402"><ele>52.199999999999996</ele><time>2026-04-26T12:50:42Z</time></trkpt><trkpt lat="48.05074317092494" lon="-0.7649256656074822"><ele>51.8</ele><time>2026-04-26T12:50:44Z</time></trkpt><trkpt lat="48.05084793054451" lon="-0.764826274979239"><ele>51.4</ele><time>2026-04-26T12:50:46Z</time></trkpt><trkpt lat="48.050902600649714" lon="-0.7647729996733084"><ele>51.0</ele><time>2026-04-26T12:50:47Z</time></trkpt><trkpt lat="48.050962329517176" lon="-0.7647187429419794"><ele>51.0</ele><time>2026-04-26T12:50:48Z</time></trkpt><trkpt lat="48.05101932628883" lon="-0.764666208548507"><ele>51.0</ele><time>2026-04-26T12:50:49Z</time></trkpt><trkpt lat="48.05112732839587" lon="-0.7645651679133808"><ele>51.0</ele><time>2026-04-26T12:50:51Z</time></trkpt><trkpt lat="48.051187859150204" lon="-0.7645089852447169"><ele>51.0</ele><time>2026-04-26T12:50:52Z</time></trkpt><trkpt lat="48.05124640903746" lon="-0.7644584365719204"><ele>51.0</ele><time>2026-04-26T12:50:53Z</time></trkpt><trkpt lat="48.05130662654756" lon="-0.7644086481275819"><ele>51.0</ele><time>2026-04-26T12:50:54Z</time></trkpt><trkpt lat="48.05136579543745" lon="-0.7643618034505655"><ele>50.85714285714286</ele><time>2026-04-26T12:50:55Z</time></trkpt><trkpt lat="48.05142324420994" lon="-0.7643190529018888"><ele>50.714285714285715</ele><time>2026-04-26T12:50:56Z</time></trkpt><trkpt lat="48.05147892983383" lon="-0.7642661772558038"><ele>50.57142857142857</ele><time>2026-04-26T12:50:57Z</time></trkpt><trkpt lat="48.05153465710982" lon="-0.764208989011038"><ele>50.42857142857143</ele><time>2026-04-26T12:50:58Z</time></trkpt><trkpt lat="48.051586399455374" lon="-0.7641539497049495"><ele>50.285714285714285</ele><time>2026-04-26T12:50:59Z</time></trkpt><trkpt lat="48.05164121962281" lon="-0.7640996000511868"><ele>50.142857142857146</ele><time>2026-04-26T12:51:00Z</time></trkpt><trkpt lat="48.051696572782205" lon="-0.7640473178111048"><ele>50.0</ele><time>2026-04-26T12:51:01Z</time></trkpt><trkpt lat="48.051749819015804" lon="-0.7639936204366516"><ele>50.00000000000001</ele><time>2026-04-26T12:51:02Z</time></trkpt><trkpt lat="48.05180429520365" lon="-0.763945806199338"><ele>50.0</ele><time>2026-04-26T12:51:03Z</time></trkpt><trkpt lat="48.05185967310817" lon="-0.7638998753290288"><ele>50.0</ele><time>2026-04-26T12:51:04Z</time></trkpt><trkpt lat="48.051914222980315" lon="-0.7638455650127481"><ele>50.0</ele><time>2026-04-26T12:51:05Z</time></trkpt><trkpt lat="48.05196926770072" lon="-0.7637920288596143"><ele>50.0</ele><time>2026-04-26T12:51:06Z</time></trkpt><trkpt lat="48.0520278399659" lon="-0.7637427975882632"><ele>50.00000000000001</ele><time>2026-04-26T12:51:07Z</time></trkpt><trkpt lat="48.05208415054984" lon="-0.7636904814786095"><ele>50.0</ele><time>2026-04-26T12:51:08Z</time></trkpt><trkpt lat="48.052143572034794" lon="-0.7636397528168238"><ele>50.00000000000001</ele><time>2026-04-26T12:51:09Z</time></trkpt><trkpt lat="48.052250101907084" lon="-0.7635390895224043"><ele>50.0</ele><time>2026-04-26T12:51:11Z</time></trkpt><trkpt lat="48.052303318086366" lon="-0.7634869830565059"><ele>50.0</ele><time>2026-04-26T12:51:12Z</time></trkpt><trkpt lat="48.0523594875577" lon="-0.7634387517014743"><ele>50.0</ele><time>2026-04-26T12:51:13Z</time></trkpt><trkpt lat="48.05241539074311" lon="-0.7633825821697263"><ele>50.00000000000001</ele><time>2026-04-26T12:51:14Z</time></trkpt><trkpt lat="48.05245861244818" lon="-0.763312186418386"><ele>50.0</ele><time>2026-04-26T12:51:15Z</time></trkpt><trkpt lat="48.052494046193324" lon="-0.76323225798693"><ele>49.50000000000001</ele><time>2026-04-26T12:51:16Z</time></trkpt><trkpt lat="48.05252672444213" lon="-0.7631501611237654"><ele>49.0</ele><time>2026-04-26T12:51:17Z</time></trkpt><trkpt lat="48.05262262692247" lon="-0.7630484199089337"><ele>48.5</ele><time>2026-04-26T12:51:19Z</time></trkpt><trkpt lat="48.05268575396394" lon="-0.763026694520169"><ele>48.0</ele><time>2026-04-26T12:51:20Z</time></trkpt><trkpt lat="48.052811008277004" lon="-0.7629983389097492"><ele>47.5</ele><time>2026-04-26T12:51:22Z</time></trkpt><trkpt lat="48.0528718551805" lon="-0.7629596116563162"><ele>47.0</ele><time>2026-04-26T12:51:23Z</time></trkpt><trkpt lat="48.052930498138785" lon="-0.7629116640376998"><ele>47.0</ele><time>2026-04-26T12:51:24Z</time></trkpt><trkpt lat="48.052987620575" lon="-0.7628581543641529"><ele>47.0</ele><time>2026-04-26T12:51:25Z</time></trkpt><trkpt lat="48.05304461426346" lon="-0.7628096624664865"><ele>47.0</ele><time>2026-04-26T12:51:26Z</time></trkpt><trkpt lat="48.05310378043958" lon="-0.762757156339673"><ele>47.0</ele><time>2026-04-26T12:51:27Z</time></trkpt><trkpt lat="48.053159018384704" lon="-0.7627003862032247"><ele>47.0</ele><time>2026-04-26T12:51:28Z</time></trkpt><trkpt lat="48.05321446327387" lon="-0.7626454144550819"><ele>47.0</ele><time>2026-04-26T12:51:29Z</time></trkpt><trkpt lat="48.05327125040791" lon="-0.7625921689174351"><ele>47.0</ele><time>2026-04-26T12:51:30Z</time></trkpt><trkpt lat="48.053327761263866" lon="-0.7625448998763159"><ele>47.0</ele><time>2026-04-26T12:51:31Z</time></trkpt><trkpt lat="48.05338445277309" lon="-0.7624942850328303"><ele>47.0</ele><time>2026-04-26T12:51:32Z</time></trkpt><trkpt lat="48.0534374498596" lon="-0.7624407708838508"><ele>47.0</ele><time>2026-04-26T12:51:33Z</time></trkpt><trkpt lat="48.05349058835177" lon="-0.7623893877919372"><ele>47.0</ele><time>2026-04-26T12:51:34Z</time></trkpt><trkpt lat="48.05354540888653" lon="-0.7623408105121605"><ele>47.0</ele><time>2026-04-26T12:51:34.999Z</time></trkpt><trkpt lat="48.05360100663555" lon="-0.7622938267164597"><ele>47.0</ele><time>2026-04-26T12:51:35.999Z</time></trkpt><trkpt lat="48.053655774746325" lon="-0.7622420636960613"><ele>47.0</ele><time>2026-04-26T12:51:36.999Z</time></trkpt><trkpt lat="48.053711261675915" lon="-0.762191366055807"><ele>47.0</ele><time>2026-04-26T12:51:37.999Z</time></trkpt><trkpt lat="48.05376666695482" lon="-0.7621413215264788"><ele>47.0</ele><time>2026-04-26T12:51:38.999Z</time></trkpt><trkpt lat="48.05387076901533" lon="-0.7620441478994717"><ele>47.0</ele><time>2026-04-26T12:51:40.999Z</time></trkpt><trkpt lat="48.05396771694516" lon="-0.7619516021144191"><ele>47.0</ele><time>2026-04-26T12:51:42.999Z</time></trkpt><trkpt lat="48.054072640078445" lon="-0.7618549592043417"><ele>47.0</ele><time>2026-04-26T12:51:44.999Z</time></trkpt><trkpt lat="48.0541747062889" lon="-0.7617611416715495"><ele>47.5</ele><time>2026-04-26T12:51:46.999Z</time></trkpt><trkpt lat="48.054279243079726" lon="-0.7616678636616296"><ele>48.0</ele><time>2026-04-26T12:51:48.999Z</time></trkpt><trkpt lat="48.0543843963621" lon="-0.7615744781155772"><ele>48.5</ele><time>2026-04-26T12:51:50.999Z</time></trkpt><trkpt lat="48.05448827628194" lon="-0.761491885132076"><ele>49.0</ele><time>2026-04-26T12:51:52.999Z</time></trkpt><trkpt lat="48.05459490553179" lon="-0.7613953550895293"><ele>49.0</ele><time>2026-04-26T12:51:54.999Z</time></trkpt><trkpt lat="48.054696597764845" lon="-0.7613045008008934"><ele>49.0</ele><time>2026-04-26T12:51:56.999Z</time></trkpt><trkpt lat="48.05479952999524" lon="-0.7612109776803639"><ele>49.0</ele><time>2026-04-26T12:51:58.999Z</time></trkpt><trkpt lat="48.054906062824976" lon="-0.7611268116712747"><ele>49.0</ele><time>2026-04-26T12:52:00.999Z</time></trkpt><trkpt lat="48.05500828016831" lon="-0.7610504041451108"><ele>48.400000000000006</ele><time>2026-04-26T12:52:02.999Z</time></trkpt><trkpt lat="48.055117314157414" lon="-0.7609815400802065"><ele>47.8</ele><time>2026-04-26T12:52:04.999Z</time></trkpt><trkpt lat="48.055230509847995" lon="-0.7609256039101352"><ele>47.2</ele><time>2026-04-26T12:52:06.999Z</time></trkpt><trkpt lat="48.05533942334477" lon="-0.7608694544353705"><ele>46.599999999999994</ele><time>2026-04-26T12:52:08.999Z</time></trkpt><trkpt lat="48.05540099245475" lon="-0.7608426367383097"><ele>46.0</ele><time>2026-04-26T12:52:09.999Z</time></trkpt><trkpt lat="48.055514267347455" lon="-0.7607897761068337"><ele>46.0</ele><time>2026-04-26T12:52:11.999Z</time></trkpt><trkpt lat="48.055634961749945" lon="-0.7607675057474005"><ele>46.0</ele><time>2026-04-26T12:52:13.999Z</time></trkpt><trkpt lat="48.05575240806408" lon="-0.7607650074810883"><ele>46.0</ele><time>2026-04-26T12:52:15.999Z</time></trkpt><trkpt lat="48.0558178985104" lon="-0.7607475173788992"><ele>46.0</ele><time>2026-04-26T12:52:16.999Z</time></trkpt><trkpt lat="48.05593734108937" lon="-0.7607298465537413"><ele>46.0</ele><time>2026-04-26T12:52:18.999Z</time></trkpt><trkpt lat="48.05600046235295" lon="-0.7607291940143682"><ele>46.285714285714285</ele><time>2026-04-26T12:52:19.999Z</time></trkpt><trkpt lat="48.05606843504904" lon="-0.7607354752551709"><ele>46.57142857142857</ele><time>2026-04-26T12:52:20.999Z</time></trkpt><trkpt lat="48.05619123431815" lon="-0.7607463693767245"><ele>46.857142857142854</ele><time>2026-04-26T12:52:22.999Z</time></trkpt><trkpt lat="48.056254168901475" lon="-0.7607568665360649"><ele>47.14285714285714</ele><time>2026-04-26T12:52:23.999Z</time></trkpt><trkpt lat="48.056320395290406" lon="-0.7607704265960715"><ele>47.42857142857143</ele><time>2026-04-26T12:52:24.999Z</time></trkpt><trkpt lat="48.05638393108045" lon="-0.7607838613256702"><ele>47.71428571428571</ele><time>2026-04-26T12:52:25.999Z</time></trkpt><trkpt lat="48.05644613410601" lon="-0.7607986799646842"><ele>48.0</ele><time>2026-04-26T12:52:26.999Z</time></trkpt><trkpt lat="48.05656803875898" lon="-0.7608357869830389"><ele>48.166666666666664</ele><time>2026-04-26T12:52:28.999Z</time></trkpt><trkpt lat="48.056629595850076" lon="-0.7608556476044189"><ele>48.33333333333333</ele><time>2026-04-26T12:52:29.999Z</time></trkpt><trkpt lat="48.05669134486284" lon="-0.7608801878923971"><ele>48.5</ele><time>2026-04-26T12:52:30.999Z</time></trkpt><trkpt lat="48.056813926769955" lon="-0.7609392237491494"><ele>48.666666666666664</ele><time>2026-04-26T12:52:32.999Z</time></trkpt><trkpt lat="48.0568755641519" lon="-0.7609738903724382"><ele>48.83333333333333</ele><time>2026-04-26T12:52:33.999Z</time></trkpt><trkpt lat="48.05693508919147" lon="-0.7610144681506679"><ele>49.0</ele><time>2026-04-26T12:52:34.999Z</time></trkpt><trkpt lat="48.057046934381255" lon="-0.7610898042709274"><ele>49.0</ele><time>2026-04-26T12:52:36.999Z</time></trkpt><trkpt lat="48.05715856117208" lon="-0.7611758686014783"><ele>49.0</ele><time>2026-04-26T12:52:38.999Z</time></trkpt><trkpt lat="48.05726871679054" lon="-0.7612649985577343"><ele>49.0</ele><time>2026-04-26T12:52:40.999Z</time></trkpt><trkpt lat="48.05737794302927" lon="-0.7613499813540442"><ele>49.0</ele><time>2026-04-26T12:52:42.999Z</time></trkpt><trkpt lat="48.057436239844044" lon="-0.7614013301804703"><ele>49.0</ele><time>2026-04-26T12:52:43.999Z</time></trkpt><trkpt lat="48.05749185945647" lon="-0.7614465747549544"><ele>49.142857142857146</ele><time>2026-04-26T12:52:44.999Z</time></trkpt><trkpt lat="48.05755109156387" lon="-0.7614910914873873"><ele>49.285714285714285</ele><time>2026-04-26T12:52:45.999Z</time></trkpt><trkpt lat="48.05760681841154" lon="-0.761537822579922"><ele>49.42857142857143</ele><time>2026-04-26T12:52:46.999Z</time></trkpt><trkpt lat="48.05766364161456" lon="-0.7615854713002708"><ele>49.57142857142857</ele><time>2026-04-26T12:52:47.999Z</time></trkpt><trkpt lat="48.05772068611265" lon="-0.761625866712676"><ele>49.714285714285715</ele><time>2026-04-26T12:52:48.999Z</time></trkpt><trkpt lat="48.05777809803543" lon="-0.7616720364767888"><ele>49.85714285714286</ele><time>2026-04-26T12:52:49.999Z</time></trkpt><trkpt lat="48.05788747764701" lon="-0.7617602213246342"><ele>50.0</ele><time>2026-04-26T12:52:51.999Z</time></trkpt><trkpt lat="48.05799692108072" lon="-0.7618445964633127"><ele>50.25</ele><time>2026-04-26T12:52:53.999Z</time></trkpt><trkpt lat="48.05810378874218" lon="-0.7619302642346896"><ele>50.5</ele><time>2026-04-26T12:52:55.999Z</time></trkpt><trkpt lat="48.0582078845605" lon="-0.7620177166390708"><ele>50.75</ele><time>2026-04-26T12:52:57.999Z</time></trkpt><trkpt lat="48.05831038126" lon="-0.7620935213153405"><ele>51.0</ele><time>2026-04-26T12:52:59.999Z</time></trkpt><trkpt lat="48.058410692315086" lon="-0.7621719646181946"><ele>51.0</ele><time>2026-04-26T12:53:01.999Z</time></trkpt><trkpt lat="48.058507069358015" lon="-0.7622472888876533"><ele>51.0</ele><time>2026-04-26T12:53:03.999Z</time></trkpt><trkpt lat="48.05859711400759" lon="-0.7623222750810249"><ele>51.0</ele><time>2026-04-26T12:53:05.999Z</time></trkpt><trkpt lat="48.058681705810564" lon="-0.7623960398224436"><ele>51.0</ele><time>2026-04-26T12:53:07.999Z</time></trkpt><trkpt lat="48.0587643022092" lon="-0.7624552006147588"><ele>51.0</ele><time>2026-04-26T12:53:09.999Z</time></trkpt><trkpt lat="48.05884280014262" lon="-0.7625138200111029"><ele>51.0</ele><time>2026-04-26T12:53:11.999Z</time></trkpt><trkpt lat="48.05891322762518" lon="-0.7625660442884609"><ele>51.0</ele><time>2026-04-26T12:53:13.999Z</time></trkpt><trkpt lat="48.05897365448422" lon="-0.7626168759014615"><ele>51.0</ele><time>2026-04-26T12:53:15.999Z</time></trkpt><trkpt lat="48.05904784785949" lon="-0.7626689179399989"><ele>51.0</ele><time>2026-04-26T12:53:17.999Z</time></trkpt><trkpt lat="48.05910981049346" lon="-0.7626898980053463"><ele>51.0</ele><time>2026-04-26T12:53:19.999Z</time></trkpt><trkpt lat="48.05916807173289" lon="-0.7625534737690622"><ele>51.0</ele><time>2026-04-26T12:53:20.999Z</time></trkpt><trkpt lat="48.05923570804287" lon="-0.7624262979286738"><ele>50.8</ele><time>2026-04-26T12:53:22.999Z</time></trkpt><trkpt lat="48.05931008219839" lon="-0.7623059226956053"><ele>50.599999999999994</ele><time>2026-04-26T12:53:24.999Z</time></trkpt><trkpt lat="48.059382334291016" lon="-0.762181061364085"><ele>50.4</ele><time>2026-04-26T12:53:26.999Z</time></trkpt><trkpt lat="48.059456596274124" lon="-0.7620554112413596"><ele>50.2</ele><time>2026-04-26T12:53:28.999Z</time></trkpt><trkpt lat="48.059537006656406" lon="-0.7619309995427257"><ele>50.0</ele><time>2026-04-26T12:53:30.999Z</time></trkpt><trkpt lat="48.05960974304117" lon="-0.7618061652558612"><ele>49.8</ele><time>2026-04-26T12:53:32.999Z</time></trkpt><trkpt lat="48.05967918378555" lon="-0.7616900195628341"><ele>49.6</ele><time>2026-04-26T12:53:34.999Z</time></trkpt><trkpt lat="48.05975264829184" lon="-0.7615698236411912"><ele>49.400000000000006</ele><time>2026-04-26T12:53:36.999Z</time></trkpt><trkpt lat="48.05982684684264" lon="-0.7614537705070417"><ele>49.2</ele><time>2026-04-26T12:53:38.999Z</time></trkpt><trkpt lat="48.05990245433935" lon="-0.7613357654736226"><ele>49.0</ele><time>2026-04-26T12:53:40.999Z</time></trkpt><trkpt lat="48.05997297350899" lon="-0.7612094785385572"><ele>48.400000000000006</ele><time>2026-04-26T12:53:42.999Z</time></trkpt><trkpt lat="48.06004533534944" lon="-0.7610996157298754"><ele>47.8</ele><time>2026-04-26T12:53:44.999Z</time></trkpt><trkpt lat="48.06010977770859" lon="-0.7609870998774878"><ele>47.2</ele><time>2026-04-26T12:53:46.999Z</time></trkpt><trkpt lat="48.06018371386101" lon="-0.7608721801382845"><ele>46.599999999999994</ele><time>2026-04-26T12:53:48.999Z</time></trkpt><trkpt lat="48.06025482251032" lon="-0.7607517521890766"><ele>46.0</ele><time>2026-04-26T12:53:50.999Z</time></trkpt><trkpt lat="48.06032512386441" lon="-0.7606333051281169"><ele>46.0</ele><time>2026-04-26T12:53:52.999Z</time></trkpt><trkpt lat="48.060396618627664" lon="-0.7605114584169742"><ele>46.0</ele><time>2026-04-26T12:53:54.999Z</time></trkpt><trkpt lat="48.06046964468728" lon="-0.7603913752628229"><ele>46.0</ele><time>2026-04-26T12:53:56.999Z</time></trkpt><trkpt lat="48.06054055200773" lon="-0.7602628309939714"><ele>46.0</ele><time>2026-04-26T12:53:58.999Z</time></trkpt><trkpt lat="48.06061489488028" lon="-0.7601336487489619"><ele>46.0</ele><time>2026-04-26T12:54:00.999Z</time></trkpt><trkpt lat="48.060693337369145" lon="-0.7600051246181828"><ele>46.25</ele><time>2026-04-26T12:54:02.999Z</time></trkpt><trkpt lat="48.060770532901245" lon="-0.7598782197150508"><ele>46.5</ele><time>2026-04-26T12:54:04.999Z</time></trkpt><trkpt lat="48.060853249353585" lon="-0.7597642233754632"><ele>46.75</ele><time>2026-04-26T12:54:06.999Z</time></trkpt><trkpt lat="48.06094143118945" lon="-0.7596529119267499"><ele>47.0</ele><time>2026-04-26T12:54:08.999Z</time></trkpt><trkpt lat="48.06103132996875" lon="-0.7595379282086501"><ele>48.0</ele><time>2026-04-26T12:54:10.999Z</time></trkpt><trkpt lat="48.061125700670196" lon="-0.7594332730637281"><ele>49.0</ele><time>2026-04-26T12:54:12.999Z</time></trkpt><trkpt lat="48.06122616568385" lon="-0.7593326694785709"><ele>50.0</ele><time>2026-04-26T12:54:14.999Z</time></trkpt><trkpt lat="48.06133229714647" lon="-0.7592419357114082"><ele>51.0</ele><time>2026-04-26T12:54:16.999Z</time></trkpt><trkpt lat="48.06143781335567" lon="-0.7591540938762728"><ele>51.25</ele><time>2026-04-26T12:54:18.999Z</time></trkpt><trkpt lat="48.06154162937877" lon="-0.7590748375102306"><ele>51.5</ele><time>2026-04-26T12:54:20.999Z</time></trkpt><trkpt lat="48.06164174502788" lon="-0.758993708618725"><ele>51.75</ele><time>2026-04-26T12:54:22.999Z</time></trkpt><trkpt lat="48.061745734755505" lon="-0.7589196848370249"><ele>52.0</ele><time>2026-04-26T12:54:24.999Z</time></trkpt><trkpt lat="48.0618479850824" lon="-0.7588506782867444"><ele>52.5</ele><time>2026-04-26T12:54:26.999Z</time></trkpt><trkpt lat="48.0619549177325" lon="-0.7587754704363652"><ele>53.0</ele><time>2026-04-26T12:54:28.999Z</time></trkpt><trkpt lat="48.062053922493284" lon="-0.7587140691735081"><ele>53.5</ele><time>2026-04-26T12:54:30.999Z</time></trkpt><trkpt lat="48.06215905679863" lon="-0.7586673032896804"><ele>54.0</ele><time>2026-04-26T12:54:32.999Z</time></trkpt><trkpt lat="48.06231498803845" lon="-0.758660805608641"><ele>54.0</ele><time>2026-04-26T12:54:35.999Z</time></trkpt><trkpt lat="48.06232202796383" lon="-0.7588621829062179"><ele>54.0</ele><time>2026-04-26T12:54:40.999Z</time></trkpt><trkpt lat="48.06221160894411" lon="-0.7588919380248109"><ele>54.0</ele><time>2026-04-26T12:54:42.999Z</time></trkpt><trkpt lat="48.06210945264434" lon="-0.7589411340200265"><ele>54.0</ele><time>2026-04-26T12:54:44.999Z</time></trkpt><trkpt lat="48.06200514880951" lon="-0.7589906308489094"><ele>54.0</ele><time>2026-04-26T12:54:46.999Z</time></trkpt><trkpt lat="48.06190157251608" lon="-0.7590490417546137"><ele>54.00000000000001</ele><time>2026-04-26T12:54:48.999Z</time></trkpt><trkpt lat="48.06180010729078" lon="-0.7591112900976997"><ele>54.00000000000001</ele><time>2026-04-26T12:54:50.999Z</time></trkpt><trkpt lat="48.06170322804887" lon="-0.7591841887011604"><ele>54.0</ele><time>2026-04-26T12:54:52.999Z</time></trkpt><trkpt lat="48.061605580588235" lon="-0.7592539973076933"><ele>54.0</ele><time>2026-04-26T12:54:54.999Z</time></trkpt><trkpt lat="48.06151148732307" lon="-0.7593271116727717"><ele>53.6</ele><time>2026-04-26T12:54:56.999Z</time></trkpt><trkpt lat="48.06142407252614" lon="-0.7593915841594409"><ele>53.2</ele><time>2026-04-26T12:54:58.999Z</time></trkpt><trkpt lat="48.06134605359735" lon="-0.7594614178764394"><ele>52.800000000000004</ele><time>2026-04-26T12:55:00.999Z</time></trkpt><trkpt lat="48.06127440837274" lon="-0.7595275750780217"><ele>52.400000000000006</ele><time>2026-04-26T12:55:02.999Z</time></trkpt><trkpt lat="48.06120890332882" lon="-0.7595211753118707"><ele>52.0</ele><time>2026-04-26T12:55:04.999Z</time></trkpt><trkpt lat="48.06118282310041" lon="-0.759266785972887"><ele>51.99999999999999</ele><time>2026-04-26T12:55:18.999Z</time></trkpt><trkpt lat="48.061134659735394" lon="-0.759186914244849"><ele>52.0</ele><time>2026-04-26T12:55:20.999Z</time></trkpt><trkpt lat="48.061065573837155" lon="-0.7591682951347717"><ele>52.0</ele><time>2026-04-26T12:55:22.999Z</time></trkpt><trkpt lat="48.06099814879608" lon="-0.7591281394734293"><ele>52.0</ele><time>2026-04-26T12:55:24.999Z</time></trkpt><trkpt lat="48.06092829586251" lon="-0.7590901745777502"><ele>51.99999999999999</ele><time>2026-04-26T12:55:26.999Z</time></trkpt><trkpt lat="48.060848036727585" lon="-0.7590643760885981"><ele>52.0</ele><time>2026-04-26T12:55:28.999Z</time></trkpt><trkpt lat="48.06076470163683" lon="-0.7590258817574513"><ele>51.0</ele><time>2026-04-26T12:55:30.999Z</time></trkpt><trkpt lat="48.060675284072886" lon="-0.7589864193487278"><ele>50.0</ele><time>2026-04-26T12:55:32.999Z</time></trkpt><trkpt lat="48.06057732930862" lon="-0.7589397273159325"><ele>49.0</ele><time>2026-04-26T12:55:34.999Z</time></trkpt><trkpt lat="48.0604837842597" lon="-0.7588924812927678"><ele>48.0</ele><time>2026-04-26T12:55:36.999Z</time></trkpt><trkpt lat="48.0603824113744" lon="-0.7588829276890557"><ele>47.0</ele><time>2026-04-26T12:55:38.999Z</time></trkpt><trkpt lat="48.06028307825957" lon="-0.7588406250305428"><ele>47.0</ele><time>2026-04-26T12:55:40.999Z</time></trkpt><trkpt lat="48.06018499994562" lon="-0.758798856814158"><ele>47.0</ele><time>2026-04-26T12:55:42.999Z</time></trkpt><trkpt lat="48.060088748457204" lon="-0.7587578669354567"><ele>47.0</ele><time>2026-04-26T12:55:44.999Z</time></trkpt><trkpt lat="48.05999139225804" lon="-0.7586924821955481"><ele>47.0</ele><time>2026-04-26T12:55:46.999Z</time></trkpt><trkpt lat="48.05989931751317" lon="-0.7586581400646235"><ele>47.0</ele><time>2026-04-26T12:55:48.999Z</time></trkpt><trkpt lat="48.05981311617089" lon="-0.7586231694664156"><ele>47.166666666666664</ele><time>2026-04-26T12:55:50.999Z</time></trkpt><trkpt lat="48.05973833946323" lon="-0.7585964543710954"><ele>47.33333333333333</ele><time>2026-04-26T12:55:52.999Z</time></trkpt><trkpt lat="48.059669602090786" lon="-0.7585562019066777"><ele>47.5</ele><time>2026-04-26T12:55:54.999Z</time></trkpt><trkpt lat="48.059597498385365" lon="-0.7585040144415734"><ele>47.666666666666664</ele><time>2026-04-26T12:55:57.999Z</time></trkpt><trkpt lat="48.05953243559197" lon="-0.7584716019831795"><ele>47.833333333333336</ele><time>2026-04-26T12:56:01.999Z</time></trkpt><trkpt lat="48.05959310665994" lon="-0.7583033147938483"><ele>48.0</ele><time>2026-04-26T12:56:03.999Z</time></trkpt><trkpt lat="48.059626521922" lon="-0.7582041586907434"><ele>48.0</ele><time>2026-04-26T12:56:05.999Z</time></trkpt><trkpt lat="48.059685047249154" lon="-0.7581170718973682"><ele>48.0</ele><time>2026-04-26T12:56:07.999Z</time></trkpt><trkpt lat="48.05973080700401" lon="-0.7580098247737013"><ele>48.0</ele><time>2026-04-26T12:56:09.999Z</time></trkpt><trkpt lat="48.05977726794855" lon="-0.7578917184478408"><ele>48.0</ele><time>2026-04-26T12:56:11.999Z</time></trkpt><trkpt lat="48.0598330499889" lon="-0.7577716557975448"><ele>48.0</ele><time>2026-04-26T12:56:13.999Z</time></trkpt><trkpt lat="48.05988172985645" lon="-0.757641223918392"><ele>48.2</ele><time>2026-04-26T12:56:15.999Z</time></trkpt><trkpt lat="48.059933514884506" lon="-0.7575044557889663"><ele>48.4</ele><time>2026-04-26T12:56:17.999Z</time></trkpt><trkpt lat="48.059988185929654" lon="-0.7573716108959871"><ele>48.6</ele><time>2026-04-26T12:56:19.999Z</time></trkpt><trkpt lat="48.06004880942969" lon="-0.7572431164447221"><ele>48.800000000000004</ele><time>2026-04-26T12:56:21.999Z</time></trkpt><trkpt lat="48.0601054929939" lon="-0.7571125693843085"><ele>49.0</ele><time>2026-04-26T12:56:23.999Z</time></trkpt><trkpt lat="48.06016911346147" lon="-0.75699060812079"><ele>48.800000000000004</ele><time>2026-04-26T12:56:25.999Z</time></trkpt><trkpt lat="48.06021704605899" lon="-0.7568625883042324"><ele>48.6</ele><time>2026-04-26T12:56:27.999Z</time></trkpt><trkpt lat="48.0602695869883" lon="-0.756740114909397"><ele>48.4</ele><time>2026-04-26T12:56:29.999Z</time></trkpt><trkpt lat="48.06031876964418" lon="-0.756625106902485"><ele>48.2</ele><time>2026-04-26T12:56:31.999Z</time></trkpt><trkpt lat="48.06037069765622" lon="-0.7565119806061427"><ele>48.0</ele><time>2026-04-26T12:56:33.999Z</time></trkpt><trkpt lat="48.06042256407968" lon="-0.7563951331436689"><ele>48.0</ele><time>2026-04-26T12:56:35.999Z</time></trkpt><trkpt lat="48.060475377731315" lon="-0.7562782370013592"><ele>48.0</ele><time>2026-04-26T12:56:37.999Z</time></trkpt><trkpt lat="48.060523233389674" lon="-0.75617310381292"><ele>48.0</ele><time>2026-04-26T12:56:39.999Z</time></trkpt><trkpt lat="48.06057098368299" lon="-0.756065741228727"><ele>48.0</ele><time>2026-04-26T12:56:41.999Z</time></trkpt><trkpt lat="48.06061714419799" lon="-0.7559585660264296"><ele>48.0</ele><time>2026-04-26T12:56:43.999Z</time></trkpt><trkpt lat="48.06066426842201" lon="-0.755851166195454"><ele>48.0</ele><time>2026-04-26T12:56:45.998Z</time></trkpt><trkpt lat="48.060710165316515" lon="-0.7557547940568274"><ele>48.5</ele><time>2026-04-26T12:56:47.998Z</time></trkpt><trkpt lat="48.06075428806036" lon="-0.7556524938866852"><ele>49.0</ele><time>2026-04-26T12:56:49.998Z</time></trkpt><trkpt lat="48.06079658829172" lon="-0.755562959734252"><ele>49.5</ele><time>2026-04-26T12:56:51.998Z</time></trkpt><trkpt lat="48.06083819456487" lon="-0.7554761453334993"><ele>50.0</ele><time>2026-04-26T12:56:53.998Z</time></trkpt><trkpt lat="48.06088226626424" lon="-0.7554043353878646"><ele>50.5</ele><time>2026-04-26T12:56:55.998Z</time></trkpt><trkpt lat="48.06093990771878" lon="-0.755302181875391"><ele>51.0</ele><time>2026-04-26T12:56:58.998Z</time></trkpt><trkpt lat="48.06093706882466" lon="-0.7551709156827935"><ele>51.57142857142857</ele><time>2026-04-26T12:57:01.998Z</time></trkpt><trkpt lat="48.06091038365331" lon="-0.755085488712098"><ele>52.142857142857146</ele><time>2026-04-26T12:57:03.998Z</time></trkpt><trkpt lat="48.060871476729" lon="-0.7550078109122946"><ele>52.71428571428571</ele><time>2026-04-26T12:57:05.998Z</time></trkpt><trkpt lat="48.06082454696802" lon="-0.7549320407118215"><ele>53.285714285714285</ele><time>2026-04-26T12:57:07.998Z</time></trkpt><trkpt lat="48.060790489729385" lon="-0.7548298140315333"><ele>53.857142857142854</ele><time>2026-04-26T12:57:09.999Z</time></trkpt><trkpt lat="48.06074008298006" lon="-0.754742219873458"><ele>54.42857142857142</ele><time>2026-04-26T12:57:11.999Z</time></trkpt><trkpt lat="48.06067713872596" lon="-0.7546691380724911"><ele>55.0</ele><time>2026-04-26T12:57:13.999Z</time></trkpt><trkpt lat="48.060635193809986" lon="-0.7545696149030051"><ele>54.99999999999999</ele><time>2026-04-26T12:57:15.999Z</time></trkpt><trkpt lat="48.06058438667872" lon="-0.754481054067738"><ele>55.0</ele><time>2026-04-26T12:57:17.999Z</time></trkpt><trkpt lat="48.0605348156995" lon="-0.7543925951871279"><ele>55.0</ele><time>2026-04-26T12:57:19.999Z</time></trkpt><trkpt lat="48.06048659743367" lon="-0.7542997987986488"><ele>55.0</ele><time>2026-04-26T12:57:21.999Z</time></trkpt><trkpt lat="48.06043812857878" lon="-0.7542109391479649"><ele>54.99999999999999</ele><time>2026-04-26T12:57:23.999Z</time></trkpt><trkpt lat="48.060388309141565" lon="-0.7541196064786436"><ele>55.0</ele><time>2026-04-26T12:57:25.999Z</time></trkpt><trkpt lat="48.06034168292459" lon="-0.7540341296768084"><ele>55.166666666666664</ele><time>2026-04-26T12:57:27.999Z</time></trkpt><trkpt lat="48.06025955979743" lon="-0.7539969689055289"><ele>55.33333333333333</ele><time>2026-04-26T12:57:29.999Z</time></trkpt><trkpt lat="48.060197405185264" lon="-0.7539424497579342"><ele>55.5</ele><time>2026-04-26T12:57:31.999Z</time></trkpt><trkpt lat="48.06013112634694" lon="-0.7538922656369037"><ele>55.66666666666667</ele><time>2026-04-26T12:57:33.999Z</time></trkpt><trkpt lat="48.06005994779288" lon="-0.7538457086025343"><ele>55.833333333333336</ele><time>2026-04-26T12:57:35.999Z</time></trkpt><trkpt lat="48.05999044804182" lon="-0.753794813845451"><ele>56.0</ele><time>2026-04-26T12:57:37.999Z</time></trkpt><trkpt lat="48.059923311132245" lon="-0.7537445930759705"><ele>56.16666666666667</ele><time>2026-04-26T12:57:39.999Z</time></trkpt><trkpt lat="48.05985447668944" lon="-0.7536954522924105"><ele>56.333333333333336</ele><time>2026-04-26T12:57:41.999Z</time></trkpt><trkpt lat="48.05978279192956" lon="-0.753648933899089"><ele>56.5</ele><time>2026-04-26T12:57:43.999Z</time></trkpt><trkpt lat="48.059709702667234" lon="-0.7535945609433587"><ele>56.66666666666667</ele><time>2026-04-26T12:57:45.999Z</time></trkpt><trkpt lat="48.059634562015596" lon="-0.7535433677491179"><ele>56.833333333333336</ele><time>2026-04-26T12:57:47.999Z</time></trkpt><trkpt lat="48.0595605069974" lon="-0.753484348571962"><ele>57.0</ele><time>2026-04-26T12:57:49.999Z</time></trkpt><trkpt lat="48.05948470190851" lon="-0.7534254403204759"><ele>57.166666666666664</ele><time>2026-04-26T12:57:51.999Z</time></trkpt><trkpt lat="48.05940868986486" lon="-0.7533674054479769"><ele>57.33333333333333</ele><time>2026-04-26T12:57:53.999Z</time></trkpt><trkpt lat="48.059332308192644" lon="-0.7533132403574284"><ele>57.5</ele><time>2026-04-26T12:57:55.999Z</time></trkpt><trkpt lat="48.059254874333966" lon="-0.7532490909481823"><ele>57.666666666666664</ele><time>2026-04-26T12:57:57.999Z</time></trkpt><trkpt lat="48.059204076875524" lon="-0.7531501126821145"><ele>57.83333333333333</ele><time>2026-04-26T12:57:59.999Z</time></trkpt><trkpt lat="48.05914124409991" lon="-0.7531611136715045"><ele>58.0</ele><time>2026-04-26T12:58:00.999Z</time></trkpt><trkpt lat="48.05906054993969" lon="-0.7530993928288146"><ele>57.99999999999999</ele><time>2026-04-26T12:58:02.999Z</time></trkpt><trkpt lat="48.058984280826145" lon="-0.753032869062293"><ele>58.0</ele><time>2026-04-26T12:58:04.999Z</time></trkpt><trkpt lat="48.05890582503564" lon="-0.7529845477356115"><ele>58.0</ele><time>2026-04-26T12:58:06.999Z</time></trkpt><trkpt lat="48.058828039078854" lon="-0.7529291589870623"><ele>58.0</ele><time>2026-04-26T12:58:08.999Z</time></trkpt><trkpt lat="48.05875233721012" lon="-0.7528716002837635"><ele>57.99999999999999</ele><time>2026-04-26T12:58:10.999Z</time></trkpt><trkpt lat="48.058677870392096" lon="-0.7528211047911055"><ele>58.0</ele><time>2026-04-26T12:58:12.999Z</time></trkpt><trkpt lat="48.058602697412596" lon="-0.7527691997840175"><ele>57.99999999999999</ele><time>2026-04-26T12:58:14.999Z</time></trkpt><trkpt lat="48.05852966909089" lon="-0.7527133944593218"><ele>58.0</ele><time>2026-04-26T12:58:16.999Z</time></trkpt><trkpt lat="48.05845606510235" lon="-0.7526555055708011"><ele>58.0</ele><time>2026-04-26T12:58:18.999Z</time></trkpt><trkpt lat="48.058382195182304" lon="-0.7526088920102412"><ele>58.0</ele><time>2026-04-26T12:58:20.999Z</time></trkpt><trkpt lat="48.05830966489445" lon="-0.752556608599557"><ele>57.99999999999999</ele><time>2026-04-26T12:58:22.999Z</time></trkpt><trkpt lat="48.05823636988552" lon="-0.7525096961883543"><ele>58.0</ele><time>2026-04-26T12:58:24.999Z</time></trkpt><trkpt lat="48.05816598280885" lon="-0.7524596902090915"><ele>58.99999999999999</ele><time>2026-04-26T12:58:26.999Z</time></trkpt><trkpt lat="48.05809422508069" lon="-0.7524092013436863"><ele>60.0</ele><time>2026-04-26T12:58:28.999Z</time></trkpt><trkpt lat="48.058018064992126" lon="-0.7523565265829746"><ele>61.0</ele><time>2026-04-26T12:58:30.999Z</time></trkpt><trkpt lat="48.05794552784507" lon="-0.7523035460222701"><ele>62.0</ele><time>2026-04-26T12:58:32.999Z</time></trkpt><trkpt lat="48.057873865103815" lon="-0.7522521933857379"><ele>62.99999999999999</ele><time>2026-04-26T12:58:34.999Z</time></trkpt><trkpt lat="48.05780214791822" lon="-0.7522030773450457"><ele>64.0</ele><time>2026-04-26T12:58:36.999Z</time></trkpt><trkpt lat="48.057728313818444" lon="-0.7521514570027329"><ele>63.99999999999999</ele><time>2026-04-26T12:58:38.999Z</time></trkpt><trkpt lat="48.05765570877103" lon="-0.7521016613069808"><ele>64.0</ele><time>2026-04-26T12:58:40.999Z</time></trkpt><trkpt lat="48.05758460736887" lon="-0.7520526105552217"><ele>64.0</ele><time>2026-04-26T12:58:42.999Z</time></trkpt><trkpt lat="48.05751412476106" lon="-0.7519928186461796"><ele>64.0</ele><time>2026-04-26T12:58:44.999Z</time></trkpt><trkpt lat="48.05744329068935" lon="-0.7519456305090209"><ele>63.99999999999999</ele><time>2026-04-26T12:58:46.999Z</time></trkpt><trkpt lat="48.05737743284985" lon="-0.7518963148790292"><ele>64.0</ele><time>2026-04-26T12:58:48.999Z</time></trkpt><trkpt lat="48.05731071946458" lon="-0.7518536816493062"><ele>64.42857142857143</ele><time>2026-04-26T12:58:50.999Z</time></trkpt><trkpt lat="48.057244257703154" lon="-0.7518058495210413"><ele>64.85714285714285</ele><time>2026-04-26T12:58:52.997Z</time></trkpt><trkpt lat="48.057181535545745" lon="-0.7517627198883121"><ele>65.28571428571428</ele><time>2026-04-26T12:58:54.997Z</time></trkpt><trkpt lat="48.05711467811557" lon="-0.751720300467393"><ele>65.71428571428571</ele><time>2026-04-26T12:58:56.997Z</time></trkpt><trkpt lat="48.05705083042314" lon="-0.7516762439246997"><ele>66.14285714285714</ele><time>2026-04-26T12:58:58.997Z</time></trkpt><trkpt lat="48.05698282612971" lon="-0.7516290556684445"><ele>66.57142857142857</ele><time>2026-04-26T12:59:00.997Z</time></trkpt><trkpt lat="48.05691831341159" lon="-0.7515806767973967"><ele>67.0</ele><time>2026-04-26T12:59:02.997Z</time></trkpt><trkpt lat="48.056851489019635" lon="-0.7515303451087537"><ele>67.0</ele><time>2026-04-26T12:59:04.997Z</time></trkpt><trkpt lat="48.05678476176327" lon="-0.7514817909981987"><ele>67.0</ele><time>2026-04-26T12:59:06.997Z</time></trkpt><trkpt lat="48.056715022609716" lon="-0.7514420688194976"><ele>67.0</ele><time>2026-04-26T12:59:08.997Z</time></trkpt><trkpt lat="48.056650685959845" lon="-0.7513946857295392"><ele>67.0</ele><time>2026-04-26T12:59:10.997Z</time></trkpt><trkpt lat="48.05658697089946" lon="-0.7513393447235029"><ele>67.0</ele><time>2026-04-26T12:59:12.998Z</time></trkpt><trkpt lat="48.05651093979317" lon="-0.7512922014378428"><ele>67.0</ele><time>2026-04-26T12:59:14.998Z</time></trkpt><trkpt lat="48.05643903901772" lon="-0.75123890938707"><ele>67.5</ele><time>2026-04-26T12:59:16.998Z</time></trkpt><trkpt lat="48.05636214023398" lon="-0.7511853895155806"><ele>68.0</ele><time>2026-04-26T12:59:18.998Z</time></trkpt><trkpt lat="48.05628527490237" lon="-0.751132922576099"><ele>68.5</ele><time>2026-04-26T12:59:20.998Z</time></trkpt><trkpt lat="48.056212706053024" lon="-0.7510852904626493"><ele>69.0</ele><time>2026-04-26T12:59:22.998Z</time></trkpt><trkpt lat="48.05613437788346" lon="-0.7510275784398021"><ele>69.5</ele><time>2026-04-26T12:59:24.998Z</time></trkpt><trkpt lat="48.05605741502175" lon="-0.7509753938846881"><ele>70.0</ele><time>2026-04-26T12:59:26.998Z</time></trkpt><trkpt lat="48.05598445345999" lon="-0.7509213668140232"><ele>70.33333333333333</ele><time>2026-04-26T12:59:28.998Z</time></trkpt><trkpt lat="48.055909781576965" lon="-0.7508708932606735"><ele>70.66666666666666</ele><time>2026-04-26T12:59:30.998Z</time></trkpt><trkpt lat="48.05580056975551" lon="-0.7507940499461199"><ele>71.0</ele><time>2026-04-26T12:59:33.998Z</time></trkpt><trkpt lat="48.0557325249868" lon="-0.7507461628868045"><ele>71.33333333333333</ele><time>2026-04-26T12:59:35.998Z</time></trkpt><trkpt lat="48.05566162371103" lon="-0.7507021716347024"><ele>71.66666666666667</ele><time>2026-04-26T12:59:37.998Z</time></trkpt><trkpt lat="48.05559528631073" lon="-0.7506497497227749"><ele>72.0</ele><time>2026-04-26T12:59:39.998Z</time></trkpt><trkpt lat="48.05553049741836" lon="-0.7506040918166524"><ele>72.14285714285715</ele><time>2026-04-26T12:59:41.998Z</time></trkpt><trkpt lat="48.05546703192867" lon="-0.7505623431967413"><ele>72.28571428571429</ele><time>2026-04-26T12:59:43.998Z</time></trkpt><trkpt lat="48.055402542105256" lon="-0.7505205200087358"><ele>72.42857142857143</ele><time>2026-04-26T12:59:45.998Z</time></trkpt><trkpt lat="48.05533741695983" lon="-0.7504705924369361"><ele>72.57142857142858</ele><time>2026-04-26T12:59:47.998Z</time></trkpt><trkpt lat="48.0552734374733" lon="-0.7504267274162202"><ele>72.71428571428572</ele><time>2026-04-26T12:59:49.998Z</time></trkpt><trkpt lat="48.05521117800991" lon="-0.7503804620417206"><ele>72.85714285714286</ele><time>2026-04-26T12:59:51.998Z</time></trkpt><trkpt lat="48.055148062421694" lon="-0.750338494894983"><ele>73.0</ele><time>2026-04-26T12:59:53.998Z</time></trkpt><trkpt lat="48.055087584403836" lon="-0.7502954532099202"><ele>73.0</ele><time>2026-04-26T12:59:55.998Z</time></trkpt><trkpt lat="48.0550262035262" lon="-0.7502501046671478"><ele>73.0</ele><time>2026-04-26T12:59:57.998Z</time></trkpt><trkpt lat="48.0549670160386" lon="-0.7502052020415906"><ele>73.0</ele><time>2026-04-26T12:59:59.998Z</time></trkpt><trkpt lat="48.05490392908608" lon="-0.7501665904957975"><ele>73.0</ele><time>2026-04-26T13:00:01.998Z</time></trkpt><trkpt lat="48.05484270756902" lon="-0.7501213048857431"><ele>73.0</ele><time>2026-04-26T13:00:03.998Z</time></trkpt><trkpt lat="48.05478286580363" lon="-0.7500810927720261"><ele>73.0</ele><time>2026-04-26T13:00:05.998Z</time></trkpt><trkpt lat="48.05471192574468" lon="-0.7500708806357022"><ele>73.0</ele><time>2026-04-26T13:00:07.998Z</time></trkpt><trkpt lat="48.05464388060253" lon="-0.7501079600140526"><ele>73.16666666666666</ele><time>2026-04-26T13:00:09.998Z</time></trkpt><trkpt lat="48.054568897095194" lon="-0.7501372100177984"><ele>73.33333333333333</ele><time>2026-04-26T13:00:11.998Z</time></trkpt><trkpt lat="48.05448951669395" lon="-0.7501270963158271"><ele>73.5</ele><time>2026-04-26T13:00:13.998Z</time></trkpt><trkpt lat="48.05442655818347" lon="-0.7500263191397287"><ele>73.66666666666667</ele><time>2026-04-26T13:00:15.998Z</time></trkpt><trkpt lat="48.05439350415909" lon="-0.7499144172082338"><ele>73.83333333333334</ele><time>2026-04-26T13:00:17.998Z</time></trkpt><trkpt lat="48.05432724297107" lon="-0.7498306420116437"><ele>74.0</ele><time>2026-04-26T13:00:19.998Z</time></trkpt><trkpt lat="48.054256866917996" lon="-0.7497534065365089"><ele>74.0</ele><time>2026-04-26T13:00:21.998Z</time></trkpt><trkpt lat="48.05417978058831" lon="-0.749673207991811"><ele>74.0</ele><time>2026-04-26T13:00:23.998Z</time></trkpt><trkpt lat="48.0541013322697" lon="-0.7496144552271344"><ele>74.0</ele><time>2026-04-26T13:00:25.998Z</time></trkpt><trkpt lat="48.05402175630067" lon="-0.749557584216396"><ele>74.0</ele><time>2026-04-26T13:00:27.998Z</time></trkpt><trkpt lat="48.05394236789915" lon="-0.7494970569513986"><ele>74.0</ele><time>2026-04-26T13:00:29.998Z</time></trkpt><trkpt lat="48.05386269543439" lon="-0.7494420899012828"><ele>74.0</ele><time>2026-04-26T13:00:31.998Z</time></trkpt><trkpt lat="48.053782691155234" lon="-0.7493820373647629"><ele>74.0</ele><time>2026-04-26T13:00:33.998Z</time></trkpt><trkpt lat="48.053706517160045" lon="-0.7493277563766326"><ele>74.0</ele><time>2026-04-26T13:00:35.998Z</time></trkpt><trkpt lat="48.05363082482978" lon="-0.7492750899607691"><ele>74.0</ele><time>2026-04-26T13:00:37.998Z</time></trkpt><trkpt lat="48.05355573130363" lon="-0.7492128092316871"><ele>74.0</ele><time>2026-04-26T13:00:39.998Z</time></trkpt><trkpt lat="48.053472183461274" lon="-0.7491610667860554"><ele>74.0</ele><time>2026-04-26T13:00:41.998Z</time></trkpt><trkpt lat="48.053390891715075" lon="-0.749103960333099"><ele>74.0</ele><time>2026-04-26T13:00:43.998Z</time></trkpt><trkpt lat="48.05330915096874" lon="-0.7490436257091503"><ele>73.0</ele><time>2026-04-26T13:00:45.998Z</time></trkpt><trkpt lat="48.05322711564714" lon="-0.7489964157014004"><ele>72.0</ele><time>2026-04-26T13:00:47.998Z</time></trkpt><trkpt lat="48.05315466106795" lon="-0.7489350932210881"><ele>71.0</ele><time>2026-04-26T13:00:49.998Z</time></trkpt><trkpt lat="48.05306156562595" lon="-0.748869800241554"><ele>70.0</ele><time>2026-04-26T13:00:51.998Z</time></trkpt><trkpt lat="48.05297144762172" lon="-0.7488164603195813"><ele>69.0</ele><time>2026-04-26T13:00:53.998Z</time></trkpt><trkpt lat="48.052881923499065" lon="-0.748758881438493"><ele>69.0</ele><time>2026-04-26T13:00:55.998Z</time></trkpt><trkpt lat="48.05279920069367" lon="-0.7486925004304812"><ele>69.0</ele><time>2026-04-26T13:00:57.998Z</time></trkpt><trkpt lat="48.052712827898866" lon="-0.7486343984733751"><ele>69.0</ele><time>2026-04-26T13:00:59.998Z</time></trkpt><trkpt lat="48.05262605641438" lon="-0.7485798449517832"><ele>69.0</ele><time>2026-04-26T13:01:01.998Z</time></trkpt><trkpt lat="48.052541119341996" lon="-0.7485117337281837"><ele>69.0</ele><time>2026-04-26T13:01:03.998Z</time></trkpt><trkpt lat="48.05245891211237" lon="-0.7484443974478412"><ele>69.4</ele><time>2026-04-26T13:01:05.998Z</time></trkpt><trkpt lat="48.05237479275485" lon="-0.7483989431375648"><ele>69.80000000000001</ele><time>2026-04-26T13:01:07.998Z</time></trkpt><trkpt lat="48.052295628079996" lon="-0.7483427186299334"><ele>70.19999999999999</ele><time>2026-04-26T13:01:09.998Z</time></trkpt><trkpt lat="48.05221450207027" lon="-0.7482769788937327"><ele>70.6</ele><time>2026-04-26T13:01:11.998Z</time></trkpt><trkpt lat="48.052127889532976" lon="-0.7482220272834516"><ele>71.0</ele><time>2026-04-26T13:01:13.998Z</time></trkpt><trkpt lat="48.05204492091741" lon="-0.7481636695595868"><ele>71.0</ele><time>2026-04-26T13:01:15.999Z</time></trkpt><trkpt lat="48.05196119311856" lon="-0.7481092583727137"><ele>71.0</ele><time>2026-04-26T13:01:17.999Z</time></trkpt><trkpt lat="48.05188015181089" lon="-0.7480510298410041"><ele>71.0</ele><time>2026-04-26T13:01:19.999Z</time></trkpt><trkpt lat="48.05179629000264" lon="-0.7479914173890378"><ele>71.0</ele><time>2026-04-26T13:01:21.999Z</time></trkpt><trkpt lat="48.05171724747213" lon="-0.7479361670144459"><ele>71.0</ele><time>2026-04-26T13:01:23.999Z</time></trkpt><trkpt lat="48.05164280353059" lon="-0.7478872249783374"><ele>71.0</ele><time>2026-04-26T13:01:25.999Z</time></trkpt><trkpt lat="48.051531767380915" lon="-0.747856797036589"><ele>71.16666666666667</ele><time>2026-04-26T13:02:51Z</time></trkpt><trkpt lat="48.05148247424767" lon="-0.7477765640355234"><ele>71.33333333333334</ele><time>2026-04-26T13:02:55Z</time></trkpt><trkpt lat="48.05141557896339" lon="-0.7477167219300153"><ele>71.5</ele><time>2026-04-26T13:02:58Z</time></trkpt><trkpt lat="48.05134703746359" lon="-0.7476593875435424"><ele>71.66666666666667</ele><time>2026-04-26T13:03:00Z</time></trkpt><trkpt lat="48.051268475781484" lon="-0.7475874993720125"><ele>71.83333333333333</ele><time>2026-04-26T13:03:02Z</time></trkpt><trkpt lat="48.051181242077725" lon="-0.7475058351183477"><ele>72.0</ele><time>2026-04-26T13:03:03.998Z</time></trkpt><trkpt lat="48.05108434512647" lon="-0.7474179456288084"><ele>72.0</ele><time>2026-04-26T13:03:05.998Z</time></trkpt><trkpt lat="48.05099691436755" lon="-0.7473401130273317"><ele>72.0</ele><time>2026-04-26T13:03:07.998Z</time></trkpt><trkpt lat="48.05090821415418" lon="-0.7472507139220782"><ele>72.0</ele><time>2026-04-26T13:03:09.998Z</time></trkpt><trkpt lat="48.05081860392057" lon="-0.7471698000402982"><ele>72.0</ele><time>2026-04-26T13:03:11.998Z</time></trkpt><trkpt lat="48.050722962345056" lon="-0.7470861646201103"><ele>72.0</ele><time>2026-04-26T13:03:13.998Z</time></trkpt><trkpt lat="48.05062493526714" lon="-0.7470049276227708"><ele>72.0</ele><time>2026-04-26T13:03:15.998Z</time></trkpt><trkpt lat="48.050528618068654" lon="-0.7469237396136538"><ele>72.0</ele><time>2026-04-26T13:03:17.999Z</time></trkpt><trkpt lat="48.05042632426504" lon="-0.746837226198471"><ele>72.0</ele><time>2026-04-26T13:03:19.999Z</time></trkpt><trkpt lat="48.05032799477601" lon="-0.7467597041431479"><ele>72.0</ele><time>2026-04-26T13:03:21.999Z</time></trkpt><trkpt lat="48.05022340338758" lon="-0.7466849385027754"><ele>72.16666666666667</ele><time>2026-04-26T13:03:23.999Z</time></trkpt><trkpt lat="48.05011679096254" lon="-0.7466097862781453"><ele>72.33333333333333</ele><time>2026-04-26T13:03:25.999Z</time></trkpt><trkpt lat="48.050005318389466" lon="-0.7465322893871834"><ele>72.5</ele><time>2026-04-26T13:03:27.999Z</time></trkpt><trkpt lat="48.049947746181736" lon="-0.7464941788380666"><ele>72.66666666666666</ele><time>2026-04-26T13:03:28.999Z</time></trkpt><trkpt lat="48.049880417372975" lon="-0.7464459359228709"><ele>72.83333333333333</ele><time>2026-04-26T13:03:29.999Z</time></trkpt><trkpt lat="48.049821111027505" lon="-0.7464041461926878"><ele>73.0</ele><time>2026-04-26T13:03:30.999Z</time></trkpt><trkpt lat="48.04975611469397" lon="-0.7463553003722445"><ele>72.33333333333333</ele><time>2026-04-26T13:03:31.999Z</time></trkpt><trkpt lat="48.04969317741744" lon="-0.7463113894742466"><ele>71.66666666666666</ele><time>2026-04-26T13:03:32.999Z</time></trkpt><trkpt lat="48.049626575183304" lon="-0.7462683794555399"><ele>71.0</ele><time>2026-04-26T13:03:33.999Z</time></trkpt><trkpt lat="48.049558161193126" lon="-0.7462212385401593"><ele>70.33333333333333</ele><time>2026-04-26T13:03:34.999Z</time></trkpt><trkpt lat="48.049485263072505" lon="-0.7461753894742476"><ele>69.66666666666667</ele><time>2026-04-26T13:03:35.999Z</time></trkpt><trkpt lat="48.04941455440182" lon="-0.7461247973375051"><ele>69.0</ele><time>2026-04-26T13:03:36.999Z</time></trkpt><trkpt lat="48.04934137559447" lon="-0.746077761334035"><ele>69.0</ele><time>2026-04-26T13:03:37.999Z</time></trkpt><trkpt lat="48.049268630596664" lon="-0.7460259257200027"><ele>69.0</ele><time>2026-04-26T13:03:38.999Z</time></trkpt><trkpt lat="48.04919419917739" lon="-0.7459788234266498"><ele>69.0</ele><time>2026-04-26T13:03:39.999Z</time></trkpt><trkpt lat="48.04911818904401" lon="-0.7459286393477428"><ele>69.0</ele><time>2026-04-26T13:03:40.999Z</time></trkpt><trkpt lat="48.04904347373074" lon="-0.7458762967200268"><ele>69.0</ele><time>2026-04-26T13:03:41.999Z</time></trkpt><trkpt lat="48.04896902074165" lon="-0.7458243709510342"><ele>69.0</ele><time>2026-04-26T13:03:42.999Z</time></trkpt><trkpt lat="48.04889806004491" lon="-0.7457780592082661"><ele>68.33333333333333</ele><time>2026-04-26T13:03:43.999Z</time></trkpt><trkpt lat="48.04882702923945" lon="-0.7457284399891595"><ele>67.66666666666667</ele><time>2026-04-26T13:03:44.999Z</time></trkpt><trkpt lat="48.04875778981316" lon="-0.7456797649706588"><ele>67.0</ele><time>2026-04-26T13:03:45.999Z</time></trkpt><trkpt lat="48.04868175056142" lon="-0.7456361015012896"><ele>66.33333333333334</ele><time>2026-04-26T13:03:46.999Z</time></trkpt><trkpt lat="48.04860606129486" lon="-0.7455906502427696"><ele>65.66666666666667</ele><time>2026-04-26T13:03:47.999Z</time></trkpt><trkpt lat="48.04853436321707" lon="-0.7455428145501931"><ele>65.0</ele><time>2026-04-26T13:03:48.999Z</time></trkpt><trkpt lat="48.04846365838543" lon="-0.745494650856708"><ele>65.00000000000001</ele><time>2026-04-26T13:03:49.999Z</time></trkpt><trkpt lat="48.04838912513696" lon="-0.7454503959244563"><ele>65.0</ele><time>2026-04-26T13:03:50.999Z</time></trkpt><trkpt lat="48.04831978556773" lon="-0.7454037670992588"><ele>65.0</ele><time>2026-04-26T13:03:51.999Z</time></trkpt><trkpt lat="48.04825312084357" lon="-0.7453678059404042"><ele>65.0</ele><time>2026-04-26T13:03:52.999Z</time></trkpt><trkpt lat="48.04818687824705" lon="-0.7453276279221965"><ele>65.0</ele><time>2026-04-26T13:03:53.999Z</time></trkpt><trkpt lat="48.04811967853018" lon="-0.7452880586350358"><ele>65.00000000000001</ele><time>2026-04-26T13:03:54.999Z</time></trkpt><trkpt lat="48.04805399297562" lon="-0.7452511865834495"><ele>65.0</ele><time>2026-04-26T13:03:55.999Z</time></trkpt><trkpt lat="48.04799080979232" lon="-0.7452215292798868"><ele>65.8</ele><time>2026-04-26T13:03:56.999Z</time></trkpt><trkpt lat="48.04792876589483" lon="-0.7451934847674406"><ele>66.6</ele><time>2026-04-26T13:03:57.999Z</time></trkpt><trkpt lat="48.04786673738072" lon="-0.7451628955490619"><ele>67.4</ele><time>2026-04-26T13:03:58.999Z</time></trkpt><trkpt lat="48.047753078662744" lon="-0.7451113355308809"><ele>68.2</ele><time>2026-04-26T13:04:00.999Z</time></trkpt><trkpt lat="48.04764570692613" lon="-0.7450625141496974"><ele>69.0</ele><time>2026-04-26T13:04:02.999Z</time></trkpt><trkpt lat="48.04754476065231" lon="-0.7450195724772584"><ele>69.60000000000001</ele><time>2026-04-26T13:04:04.999Z</time></trkpt><trkpt lat="48.04744306120667" lon="-0.7449723085802672"><ele>70.2</ele><time>2026-04-26T13:04:06.999Z</time></trkpt><trkpt lat="48.0473456892618" lon="-0.7449263196422246"><ele>70.80000000000001</ele><time>2026-04-26T13:04:08.999Z</time></trkpt><trkpt lat="48.04724382031706" lon="-0.7448911753200266"><ele>71.4</ele><time>2026-04-26T13:04:10.999Z</time></trkpt><trkpt lat="48.047152012919625" lon="-0.7448423235200862"><ele>72.0</ele><time>2026-04-26T13:04:12.999Z</time></trkpt><trkpt lat="48.0470601194385" lon="-0.7447900253527914"><ele>72.0</ele><time>2026-04-26T13:04:15Z</time></trkpt><trkpt lat="48.046968871704735" lon="-0.7447295728580979"><ele>72.0</ele><time>2026-04-26T13:04:17Z</time></trkpt><trkpt lat="48.046878182020656" lon="-0.7446773987085242"><ele>72.0</ele><time>2026-04-26T13:04:19Z</time></trkpt><trkpt lat="48.04679163972662" lon="-0.7446112751027287"><ele>72.0</ele><time>2026-04-26T13:04:21Z</time></trkpt><trkpt lat="48.046708835606864" lon="-0.7445482642988774"><ele>72.0</ele><time>2026-04-26T13:04:23Z</time></trkpt><trkpt lat="48.046623808133496" lon="-0.7444847738735162"><ele>72.0</ele><time>2026-04-26T13:04:25Z</time></trkpt><trkpt lat="48.0465392967368" lon="-0.7444103393731044"><ele>72.0</ele><time>2026-04-26T13:04:27Z</time></trkpt><trkpt lat="48.04645048693196" lon="-0.7443573250350235"><ele>72.0</ele><time>2026-04-26T13:04:29Z</time></trkpt><trkpt lat="48.04635609824308" lon="-0.7443256418035589"><ele>72.0</ele><time>2026-04-26T13:04:31Z</time></trkpt><trkpt lat="48.046259463227315" lon="-0.7443302316763075"><ele>72.0</ele><time>2026-04-26T13:04:33Z</time></trkpt><trkpt lat="48.046160089951414" lon="-0.7443415571960842"><ele>72.2</ele><time>2026-04-26T13:04:35Z</time></trkpt><trkpt lat="48.046064867031404" lon="-0.7442970895133403"><ele>72.4</ele><time>2026-04-26T13:04:37Z</time></trkpt><trkpt lat="48.045985408994156" lon="-0.7442081197330808"><ele>72.6</ele><time>2026-04-26T13:04:39Z</time></trkpt><trkpt lat="48.04593015461433" lon="-0.7440893164644337"><ele>72.8</ele><time>2026-04-26T13:04:41Z</time></trkpt><trkpt lat="48.045852862766736" lon="-0.7440910192262263"><ele>73.0</ele><time>2026-04-26T13:04:42Z</time></trkpt><trkpt lat="48.04574507226917" lon="-0.7440559822781218"><ele>73.2</ele><time>2026-04-26T13:04:44Z</time></trkpt><trkpt lat="48.045637336492504" lon="-0.7440239339339562"><ele>73.4</ele><time>2026-04-26T13:04:46Z</time></trkpt><trkpt lat="48.04553198405132" lon="-0.7440002724198843"><ele>73.60000000000001</ele><time>2026-04-26T13:04:48Z</time></trkpt><trkpt lat="48.04542897070377" lon="-0.7439788852007791"><ele>73.8</ele><time>2026-04-26T13:04:50Z</time></trkpt><trkpt lat="48.04533076034209" lon="-0.7439537951687545"><ele>74.0</ele><time>2026-04-26T13:04:52Z</time></trkpt><trkpt lat="48.04523426692435" lon="-0.7439309928660227"><ele>74.0</ele><time>2026-04-26T13:04:54Z</time></trkpt><trkpt lat="48.04514113863497" lon="-0.7438993026863809"><ele>74.0</ele><time>2026-04-26T13:04:56Z</time></trkpt><trkpt lat="48.045045879791616" lon="-0.7438707367423273"><ele>74.0</ele><time>2026-04-26T13:04:58Z</time></trkpt><trkpt lat="48.04495227205415" lon="-0.743831877494121"><ele>74.0</ele><time>2026-04-26T13:05:00Z</time></trkpt><trkpt lat="48.04487120379558" lon="-0.7437609765004695"><ele>74.0</ele><time>2026-04-26T13:05:02Z</time></trkpt><trkpt lat="48.044765634898006" lon="-0.7437399877662554"><ele>74.2</ele><time>2026-04-26T13:05:04Z</time></trkpt><trkpt lat="48.04466953517197" lon="-0.7436973719226659"><ele>74.4</ele><time>2026-04-26T13:05:06Z</time></trkpt><trkpt lat="48.044568840393495" lon="-0.7436575908134486"><ele>74.6</ele><time>2026-04-26T13:05:08Z</time></trkpt><trkpt lat="48.04447288251053" lon="-0.7436125389066018"><ele>74.8</ele><time>2026-04-26T13:05:09.998Z</time></trkpt><trkpt lat="48.044373168053255" lon="-0.7435730814436016"><ele>75.0</ele><time>2026-04-26T13:05:11.998Z</time></trkpt><trkpt lat="48.04428206491549" lon="-0.743529220748459"><ele>75.8</ele><time>2026-04-26T13:05:13.998Z</time></trkpt><trkpt lat="48.04418729203454" lon="-0.7434870174752927"><ele>76.6</ele><time>2026-04-26T13:05:15.998Z</time></trkpt><trkpt lat="48.0440930981791" lon="-0.7434415259123902"><ele>77.4</ele><time>2026-04-26T13:05:17.998Z</time></trkpt><trkpt lat="48.04399518302974" lon="-0.7433989002851509"><ele>78.2</ele><time>2026-04-26T13:05:19.998Z</time></trkpt><trkpt lat="48.043898628149925" lon="-0.7433532895433563"><ele>79.0</ele><time>2026-04-26T13:05:21.998Z</time></trkpt><trkpt lat="48.04380097924149" lon="-0.7433058292197996"><ele>79.0</ele><time>2026-04-26T13:05:23.998Z</time></trkpt><trkpt lat="48.0437066295359" lon="-0.7432622295560274"><ele>79.0</ele><time>2026-04-26T13:05:25.998Z</time></trkpt><trkpt lat="48.043609371241246" lon="-0.743215216030734"><ele>79.0</ele><time>2026-04-26T13:05:27.998Z</time></trkpt><trkpt lat="48.04351733010971" lon="-0.7431735862442037"><ele>79.0</ele><time>2026-04-26T13:05:29.999Z</time></trkpt><trkpt lat="48.043422748849586" lon="-0.7431323103399748"><ele>79.0</ele><time>2026-04-26T13:05:31.999Z</time></trkpt><trkpt lat="48.0433295002153" lon="-0.7430873594815753"><ele>79.0</ele><time>2026-04-26T13:05:33.999Z</time></trkpt><trkpt lat="48.04323689251134" lon="-0.7430425205989973"><ele>79.0</ele><time>2026-04-26T13:05:35.999Z</time></trkpt><trkpt lat="48.04314507530899" lon="-0.7429997508110904"><ele>79.0</ele><time>2026-04-26T13:05:37.999Z</time></trkpt><trkpt lat="48.04305522080632" lon="-0.7429570827848601"><ele>79.0</ele><time>2026-04-26T13:05:39.999Z</time></trkpt><trkpt lat="48.04296188575334" lon="-0.7429149007534677"><ele>79.0</ele><time>2026-04-26T13:05:41.999Z</time></trkpt><trkpt lat="48.042871766754565" lon="-0.7428697002548643"><ele>79.0</ele><time>2026-04-26T13:05:43.999Z</time></trkpt><trkpt lat="48.04277740337768" lon="-0.7428271534778687"><ele>79.0</ele><time>2026-04-26T13:05:45.999Z</time></trkpt><trkpt lat="48.042684434523856" lon="-0.7427824175988359"><ele>79.0</ele><time>2026-04-26T13:05:47.999Z</time></trkpt><trkpt lat="48.042588665767674" lon="-0.7427393333357565"><ele>79.0</ele><time>2026-04-26T13:05:49.999Z</time></trkpt><trkpt lat="48.04249387262534" lon="-0.7426961699946851"><ele>79.0</ele><time>2026-04-26T13:05:51.999Z</time></trkpt><trkpt lat="48.04240626437326" lon="-0.7426539522741245"><ele>79.6</ele><time>2026-04-26T13:05:53.999Z</time></trkpt><trkpt lat="48.04231675307149" lon="-0.7426107990992119"><ele>80.2</ele><time>2026-04-26T13:05:55.999Z</time></trkpt><trkpt lat="48.042223312530155" lon="-0.742569973076514"><ele>80.8</ele><time>2026-04-26T13:05:57.999Z</time></trkpt><trkpt lat="48.042130299484306" lon="-0.7425317923841662"><ele>81.39999999999999</ele><time>2026-04-26T13:05:59.999Z</time></trkpt><trkpt lat="48.04203721309514" lon="-0.7425089776237568"><ele>82.0</ele><time>2026-04-26T13:06:01.999Z</time></trkpt><trkpt lat="48.041934420093355" lon="-0.7424711883943247"><ele>82.0</ele><time>2026-04-26T13:06:03.999Z</time></trkpt><trkpt lat="48.041844763261736" lon="-0.7424231474403888"><ele>82.0</ele><time>2026-04-26T13:06:05.999Z</time></trkpt><trkpt lat="48.04175169187845" lon="-0.742380351434124"><ele>82.0</ele><time>2026-04-26T13:06:07.999Z</time></trkpt><trkpt lat="48.04166414766023" lon="-0.7423382217088129"><ele>82.0</ele><time>2026-04-26T13:06:09.999Z</time></trkpt><trkpt lat="48.04157437784865" lon="-0.7423001898387238"><ele>82.0</ele><time>2026-04-26T13:06:11.999Z</time></trkpt><trkpt lat="48.04148811992805" lon="-0.7422619595412228"><ele>82.16666666666666</ele><time>2026-04-26T13:06:13.999Z</time></trkpt><trkpt lat="48.04140864700226" lon="-0.7422209416338984"><ele>82.33333333333333</ele><time>2026-04-26T13:06:15.999Z</time></trkpt><trkpt lat="48.041327174317594" lon="-0.7421836917691034"><ele>82.5</ele><time>2026-04-26T13:06:17.999Z</time></trkpt><trkpt lat="48.041243579256786" lon="-0.7421484345331374"><ele>82.66666666666667</ele><time>2026-04-26T13:06:20Z</time></trkpt><trkpt lat="48.041163621120134" lon="-0.7421130521442675"><ele>82.83333333333334</ele><time>2026-04-26T13:06:22Z</time></trkpt><trkpt lat="48.0410884522195" lon="-0.7420746559760992"><ele>83.0</ele><time>2026-04-26T13:06:24Z</time></trkpt><trkpt lat="48.04101438359953" lon="-0.7420381766479063"><ele>83.0</ele><time>2026-04-26T13:06:26Z</time></trkpt><trkpt lat="48.04094417272634" lon="-0.7420082763590877"><ele>83.0</ele><time>2026-04-26T13:06:28Z</time></trkpt><trkpt lat="48.04086987186915" lon="-0.7419765828683126"><ele>83.0</ele><time>2026-04-26T13:06:30Z</time></trkpt><trkpt lat="48.0407980649506" lon="-0.7419418470062494"><ele>83.0</ele><time>2026-04-26T13:06:32Z</time></trkpt><trkpt lat="48.04072309272402" lon="-0.7419081770312793"><ele>83.0</ele><time>2026-04-26T13:06:34Z</time></trkpt><trkpt lat="48.04064741325495" lon="-0.7418743784798058"><ele>83.0</ele><time>2026-04-26T13:06:36Z</time></trkpt><trkpt lat="48.04057249714948" lon="-0.7418338265256622"><ele>84.5</ele><time>2026-04-26T13:06:38Z</time></trkpt><trkpt lat="48.04050127912625" lon="-0.7418048474044944"><ele>86.0</ele><time>2026-04-26T13:06:40Z</time></trkpt><trkpt lat="48.04042979414969" lon="-0.7417746928534174"><ele>87.5</ele><time>2026-04-26T13:06:42Z</time></trkpt><trkpt lat="48.04036181077422" lon="-0.741738319570152"><ele>89.0</ele><time>2026-04-26T13:06:44Z</time></trkpt><trkpt lat="48.04028665677656" lon="-0.7417117591511728"><ele>90.5</ele><time>2026-04-26T13:06:46Z</time></trkpt><trkpt lat="48.04019819534196" lon="-0.7416648220492817"><ele>92.0</ele><time>2026-04-26T13:06:49Z</time></trkpt><trkpt lat="48.04013391751001" lon="-0.7416374266877583"><ele>92.0</ele><time>2026-04-26T13:06:51Z</time></trkpt><trkpt lat="48.04007075767757" lon="-0.7416065210216193"><ele>92.0</ele><time>2026-04-26T13:06:53Z</time></trkpt><trkpt lat="48.03997954945604" lon="-0.7415617379962538"><ele>92.0</ele><time>2026-04-26T13:06:56Z</time></trkpt><trkpt lat="48.03991533611184" lon="-0.741535929725433"><ele>92.0</ele><time>2026-04-26T13:06:58Z</time></trkpt><trkpt lat="48.03984703282298" lon="-0.7415014416493448"><ele>92.0</ele><time>2026-04-26T13:07:00Z</time></trkpt><trkpt lat="48.039786547989024" lon="-0.7414715749076201"><ele>92.0</ele><time>2026-04-26T13:07:02Z</time></trkpt><trkpt lat="48.039703402045106" lon="-0.741400176453155"><ele>92.28571428571429</ele><time>2026-04-26T13:07:05Z</time></trkpt><trkpt lat="48.03963515708424" lon="-0.7413761759077653"><ele>92.57142857142857</ele><time>2026-04-26T13:07:07Z</time></trkpt><trkpt lat="48.03957039896105" lon="-0.7413451251235009"><ele>92.85714285714286</ele><time>2026-04-26T13:07:09Z</time></trkpt><trkpt lat="48.03950351193629" lon="-0.7413162139347658"><ele>93.14285714285714</ele><time>2026-04-26T13:07:11Z</time></trkpt><trkpt lat="48.03943462997943" lon="-0.7412899730800289"><ele>93.42857142857142</ele><time>2026-04-26T13:07:13Z</time></trkpt><trkpt lat="48.03936745034551" lon="-0.7412592668405836"><ele>93.71428571428571</ele><time>2026-04-26T13:07:15Z</time></trkpt><trkpt lat="48.03929310135702" lon="-0.7412279943157486"><ele>94.0</ele><time>2026-04-26T13:07:16.999Z</time></trkpt><trkpt lat="48.03922287625176" lon="-0.7411997352834403"><ele>94.0</ele><time>2026-04-26T13:07:18.999Z</time></trkpt><trkpt lat="48.039145635714455" lon="-0.7411679017410241"><ele>94.0</ele><time>2026-04-26T13:07:20.999Z</time></trkpt><trkpt lat="48.03907317235478" lon="-0.7411344530234053"><ele>94.0</ele><time>2026-04-26T13:07:22.999Z</time></trkpt><trkpt lat="48.03899650559433" lon="-0.7411042275577785"><ele>94.0</ele><time>2026-04-26T13:07:24.999Z</time></trkpt><trkpt lat="48.03892163301231" lon="-0.7410678556968132"><ele>94.0</ele><time>2026-04-26T13:07:27Z</time></trkpt><trkpt lat="48.0388426051126" lon="-0.7410377801632534"><ele>94.0</ele><time>2026-04-26T13:07:29Z</time></trkpt><trkpt lat="48.03876392788476" lon="-0.7410052235777064"><ele>94.0</ele><time>2026-04-26T13:07:31Z</time></trkpt><trkpt lat="48.03868362181587" lon="-0.740962989821363"><ele>94.0</ele><time>2026-04-26T13:07:33Z</time></trkpt><trkpt lat="48.03860442740001" lon="-0.7409261563935524"><ele>94.0</ele><time>2026-04-26T13:07:35Z</time></trkpt><trkpt lat="48.03852247075032" lon="-0.740897588810535"><ele>94.0</ele><time>2026-04-26T13:07:37Z</time></trkpt><trkpt lat="48.038445887382196" lon="-0.7408596361043143"><ele>94.0</ele><time>2026-04-26T13:07:39Z</time></trkpt><trkpt lat="48.0383676183258" lon="-0.7408261375488782"><ele>94.0</ele><time>2026-04-26T13:07:41Z</time></trkpt><trkpt lat="48.03828764795603" lon="-0.7407863075580886"><ele>94.0</ele><time>2026-04-26T13:07:43Z</time></trkpt><trkpt lat="48.03820861881165" lon="-0.7407498366808967"><ele>94.0</ele><time>2026-04-26T13:07:45Z</time></trkpt><trkpt lat="48.03813198408555" lon="-0.740716904056006"><ele>94.0</ele><time>2026-04-26T13:07:47Z</time></trkpt><trkpt lat="48.03805858251117" lon="-0.7406821700979068"><ele>94.0</ele><time>2026-04-26T13:07:49Z</time></trkpt><trkpt lat="48.03798398612102" lon="-0.7406434676256143"><ele>94.0</ele><time>2026-04-26T13:07:51Z</time></trkpt><trkpt lat="48.037913284371136" lon="-0.7406108950072982"><ele>94.0</ele><time>2026-04-26T13:07:53Z</time></trkpt><trkpt lat="48.037838039856624" lon="-0.7405733863406262"><ele>94.0</ele><time>2026-04-26T13:07:55Z</time></trkpt><trkpt lat="48.03776160397516" lon="-0.7405412272988798"><ele>94.0</ele><time>2026-04-26T13:07:57Z</time></trkpt><trkpt lat="48.03768604016887" lon="-0.7405064690679504"><ele>94.0</ele><time>2026-04-26T13:07:59Z</time></trkpt><trkpt lat="48.03760864715416" lon="-0.7404762572429668"><ele>94.0</ele><time>2026-04-26T13:08:01Z</time></trkpt><trkpt lat="48.03752849835715" lon="-0.7404518197564791"><ele>94.0</ele><time>2026-04-26T13:08:03Z</time></trkpt><trkpt lat="48.037448621316024" lon="-0.7404133464761853"><ele>94.0</ele><time>2026-04-26T13:08:05Z</time></trkpt><trkpt lat="48.03736765560989" lon="-0.7403789089435755"><ele>94.4</ele><time>2026-04-26T13:08:07Z</time></trkpt><trkpt lat="48.037285646827065" lon="-0.7403385223738979"><ele>94.80000000000001</ele><time>2026-04-26T13:08:09Z</time></trkpt><trkpt lat="48.037200221638045" lon="-0.7402986473294981"><ele>95.19999999999999</ele><time>2026-04-26T13:08:11Z</time></trkpt><trkpt lat="48.03711443044065" lon="-0.7402571895460359"><ele>95.6</ele><time>2026-04-26T13:08:13Z</time></trkpt><trkpt lat="48.03702592132061" lon="-0.7402145928292015"><ele>96.0</ele><time>2026-04-26T13:08:15Z</time></trkpt><trkpt lat="48.03693746418744" lon="-0.7401709173456812"><ele>96.4</ele><time>2026-04-26T13:08:17Z</time></trkpt><trkpt lat="48.036843883326924" lon="-0.7401336654581407"><ele>96.8</ele><time>2026-04-26T13:08:19Z</time></trkpt><trkpt lat="48.036756592410555" lon="-0.7400906443596752"><ele>97.2</ele><time>2026-04-26T13:08:21Z</time></trkpt><trkpt lat="48.036670025330594" lon="-0.7400482659198716"><ele>97.60000000000001</ele><time>2026-04-26T13:08:23Z</time></trkpt><trkpt lat="48.03657997793683" lon="-0.7400083243535623"><ele>98.0</ele><time>2026-04-26T13:08:25Z</time></trkpt><trkpt lat="48.03649266369562" lon="-0.7399704740460549"><ele>98.0</ele><time>2026-04-26T13:08:27Z</time></trkpt><trkpt lat="48.036405311390894" lon="-0.7399257011600445"><ele>98.0</ele><time>2026-04-26T13:08:29Z</time></trkpt><trkpt lat="48.03631497687607" lon="-0.7398828598000927"><ele>98.0</ele><time>2026-04-26T13:08:31Z</time></trkpt><trkpt lat="48.0362309594376" lon="-0.7398406737217184"><ele>98.0</ele><time>2026-04-26T13:08:33Z</time></trkpt><trkpt lat="48.036147526306536" lon="-0.739800227977089"><ele>98.0</ele><time>2026-04-26T13:08:35Z</time></trkpt><trkpt lat="48.03605772722887" lon="-0.7397541495577464"><ele>98.0</ele><time>2026-04-26T13:08:37.001Z</time></trkpt><trkpt lat="48.03596627002826" lon="-0.7397088045478925"><ele>98.0</ele><time>2026-04-26T13:08:39.001Z</time></trkpt><trkpt lat="48.03587321801356" lon="-0.7396640373066324"><ele>98.0</ele><time>2026-04-26T13:08:41.001Z</time></trkpt><trkpt lat="48.035774455020864" lon="-0.7396241116301477"><ele>98.0</ele><time>2026-04-26T13:08:43.001Z</time></trkpt><trkpt lat="48.035675300164684" lon="-0.7395712528468756"><ele>98.0</ele><time>2026-04-26T13:08:45.001Z</time></trkpt><trkpt lat="48.035574961983265" lon="-0.7395311235700429"><ele>98.4</ele><time>2026-04-26T13:08:47.001Z</time></trkpt><trkpt lat="48.035471483152705" lon="-0.7394850632350628"><ele>98.80000000000001</ele><time>2026-04-26T13:08:49.001Z</time></trkpt><trkpt lat="48.03536872262631" lon="-0.7394398146917076"><ele>99.2</ele><time>2026-04-26T13:08:51.001Z</time></trkpt><trkpt lat="48.035266261448704" lon="-0.7393943819045653"><ele>99.6</ele><time>2026-04-26T13:08:53.001Z</time></trkpt><trkpt lat="48.03516858802923" lon="-0.7393499847800564"><ele>100.0</ele><time>2026-04-26T13:08:55.001Z</time></trkpt><trkpt lat="48.035076739542006" lon="-0.7393075139732952"><ele>100.0</ele><time>2026-04-26T13:08:57.001Z</time></trkpt><trkpt lat="48.034981336017644" lon="-0.7392930823898529"><ele>100.0</ele><time>2026-04-26T13:08:59.001Z</time></trkpt><trkpt lat="48.03487770490814" lon="-0.7392684272233532"><ele>100.0</ele><time>2026-04-26T13:09:01.001Z</time></trkpt><trkpt lat="48.03477287621705" lon="-0.7392133853374063"><ele>100.0</ele><time>2026-04-26T13:09:03.001Z</time></trkpt><trkpt lat="48.03466416688917" lon="-0.7391634282686728"><ele>100.0</ele><time>2026-04-26T13:09:05.001Z</time></trkpt><trkpt lat="48.034561047388294" lon="-0.7390829686121256"><ele>99.8</ele><time>2026-04-26T13:09:07.001Z</time></trkpt><trkpt lat="48.03444713152685" lon="-0.7390227334192042"><ele>99.6</ele><time>2026-04-26T13:09:09.001Z</time></trkpt><trkpt lat="48.034331218821194" lon="-0.7389687179833947"><ele>99.4</ele><time>2026-04-26T13:09:11.001Z</time></trkpt><trkpt lat="48.03421220068132" lon="-0.7389171310931554"><ele>99.2</ele><time>2026-04-26T13:09:13.001Z</time></trkpt><trkpt lat="48.03415169445253" lon="-0.738890552738443"><ele>99.0</ele><time>2026-04-26T13:09:14.001Z</time></trkpt><trkpt lat="48.03409086695552" lon="-0.738863078019972"><ele>98.5</ele><time>2026-04-26T13:09:15.001Z</time></trkpt><trkpt lat="48.03391447736213" lon="-0.7387722816446461"><ele>98.0</ele><time>2026-04-26T13:09:18.001Z</time></trkpt><trkpt lat="48.0337967936056" lon="-0.7387251835937785"><ele>97.5</ele><time>2026-04-26T13:09:20.001Z</time></trkpt><trkpt lat="48.03368343970408" lon="-0.738672937605358"><ele>97.0</ele><time>2026-04-26T13:09:22.001Z</time></trkpt><trkpt lat="48.033569372885346" lon="-0.7386162915525716"><ele>97.0</ele><time>2026-04-26T13:09:24.001Z</time></trkpt><trkpt lat="48.03345485678638" lon="-0.7385646813685003"><ele>97.0</ele><time>2026-04-26T13:09:26.001Z</time></trkpt><trkpt lat="48.03333863404567" lon="-0.7385092610873027"><ele>97.0</ele><time>2026-04-26T13:09:28.001Z</time></trkpt><trkpt lat="48.033220398301005" lon="-0.7384541576998469"><ele>97.0</ele><time>2026-04-26T13:09:30.001Z</time></trkpt><trkpt lat="48.03310099327349" lon="-0.7384002144094574"><ele>96.75</ele><time>2026-04-26T13:09:32Z</time></trkpt><trkpt lat="48.032983148400646" lon="-0.7383470723809533"><ele>96.5</ele><time>2026-04-26T13:09:34Z</time></trkpt><trkpt lat="48.0328671970101" lon="-0.7382931120761573"><ele>96.25</ele><time>2026-04-26T13:09:36Z</time></trkpt><trkpt lat="48.03274612661394" lon="-0.7382377766118068"><ele>96.0</ele><time>2026-04-26T13:09:38Z</time></trkpt><trkpt lat="48.032639094815146" lon="-0.7381749254806901"><ele>96.0</ele><time>2026-04-26T13:09:40Z</time></trkpt><trkpt lat="48.03252323590543" lon="-0.7381180031520204"><ele>96.0</ele><time>2026-04-26T13:09:42Z</time></trkpt><trkpt lat="48.03240909418836" lon="-0.7380623690993721"><ele>96.0</ele><time>2026-04-26T13:09:44Z</time></trkpt><trkpt lat="48.03229720717407" lon="-0.7380068603515892"><ele>96.0</ele><time>2026-04-26T13:09:46Z</time></trkpt><trkpt lat="48.032186103638814" lon="-0.7379484871455693"><ele>96.5</ele><time>2026-04-26T13:09:48Z</time></trkpt><trkpt lat="48.032073834440574" lon="-0.737892259702562"><ele>97.0</ele><time>2026-04-26T13:09:50Z</time></trkpt><trkpt lat="48.031958451323874" lon="-0.7378394721269391"><ele>97.5</ele><time>2026-04-26T13:09:52Z</time></trkpt><trkpt lat="48.03183985838756" lon="-0.7377909120126125"><ele>98.0</ele><time>2026-04-26T13:09:54Z</time></trkpt><trkpt lat="48.03171663642504" lon="-0.737733842926611"><ele>97.71428571428571</ele><time>2026-04-26T13:09:56Z</time></trkpt><trkpt lat="48.03165522821199" lon="-0.7377057854158271"><ele>97.42857142857143</ele><time>2026-04-26T13:09:57Z</time></trkpt><trkpt lat="48.031589671381965" lon="-0.7376774682941737"><ele>97.14285714285714</ele><time>2026-04-26T13:09:58.001Z</time></trkpt><trkpt lat="48.031525468957966" lon="-0.7376480779206587"><ele>96.85714285714286</ele><time>2026-04-26T13:09:59.001Z</time></trkpt><trkpt lat="48.031460803227766" lon="-0.7376184462937218"><ele>96.57142857142857</ele><time>2026-04-26T13:10:00.001Z</time></trkpt><trkpt lat="48.031396730794405" lon="-0.7375890601559877"><ele>96.28571428571428</ele><time>2026-04-26T13:10:01.001Z</time></trkpt><trkpt lat="48.031333405543" lon="-0.7375592188579089"><ele>96.0</ele><time>2026-04-26T13:10:02.001Z</time></trkpt><trkpt lat="48.031267479154884" lon="-0.7375271390513147"><ele>95.99999999999999</ele><time>2026-04-26T13:10:03.001Z</time></trkpt><trkpt lat="48.03120124201801" lon="-0.7374978262447505"><ele>96.0</ele><time>2026-04-26T13:10:04.001Z</time></trkpt><trkpt lat="48.03113454626773" lon="-0.7374706250875781"><ele>96.0</ele><time>2026-04-26T13:10:05.001Z</time></trkpt><trkpt lat="48.031067745573274" lon="-0.7374393938943837"><ele>96.0</ele><time>2026-04-26T13:10:06.001Z</time></trkpt><trkpt lat="48.03099930035084" lon="-0.7374089049713015"><ele>96.0</ele><time>2026-04-26T13:10:07.001Z</time></trkpt><trkpt lat="48.03093189274887" lon="-0.7373777206553314"><ele>95.99999999999999</ele><time>2026-04-26T13:10:08.001Z</time></trkpt><trkpt lat="48.03086296040256" lon="-0.7373475937400432"><ele>96.0</ele><time>2026-04-26T13:10:09.001Z</time></trkpt><trkpt lat="48.03079672630594" lon="-0.7373178609761484"><ele>96.14285714285714</ele><time>2026-04-26T13:10:10.001Z</time></trkpt><trkpt lat="48.03072712767362" lon="-0.7372847311955764"><ele>96.28571428571428</ele><time>2026-04-26T13:10:11.001Z</time></trkpt><trkpt lat="48.03065521142138" lon="-0.7372547102104988"><ele>96.42857142857142</ele><time>2026-04-26T13:10:12.001Z</time></trkpt><trkpt lat="48.03058944861813" lon="-0.7372256152872553"><ele>96.57142857142857</ele><time>2026-04-26T13:10:13.001Z</time></trkpt><trkpt lat="48.03051643430514" lon="-0.7371902733184148"><ele>96.71428571428572</ele><time>2026-04-26T13:10:14.001Z</time></trkpt><trkpt lat="48.03044776440697" lon="-0.7371558403177336"><ele>96.85714285714285</ele><time>2026-04-26T13:10:15.001Z</time></trkpt><trkpt lat="48.03037808781297" lon="-0.7371253981772562"><ele>97.0</ele><time>2026-04-26T13:10:16.001Z</time></trkpt><trkpt lat="48.030307132852506" lon="-0.7370880823346652"><ele>97.0</ele><time>2026-04-26T13:10:17.001Z</time></trkpt><trkpt lat="48.030238414300165" lon="-0.7370559934812421"><ele>97.0</ele><time>2026-04-26T13:10:18.001Z</time></trkpt><trkpt lat="48.0301695013862" lon="-0.7370241155311423"><ele>97.0</ele><time>2026-04-26T13:10:19.001Z</time></trkpt><trkpt lat="48.03010069764688" lon="-0.7369935327823419"><ele>97.0</ele><time>2026-04-26T13:10:20.001Z</time></trkpt><trkpt lat="48.03002876709599" lon="-0.7369590980342687"><ele>97.0</ele><time>2026-04-26T13:10:21.001Z</time></trkpt><trkpt lat="48.02995876933285" lon="-0.7369292076445655"><ele>97.0</ele><time>2026-04-26T13:10:22.001Z</time></trkpt><trkpt lat="48.02988947623867" lon="-0.7368978005622197"><ele>97.0</ele><time>2026-04-26T13:10:23.001Z</time></trkpt><trkpt lat="48.029822872262734" lon="-0.7368647042769793"><ele>96.85714285714285</ele><time>2026-04-26T13:10:24.001Z</time></trkpt><trkpt lat="48.02975096751633" lon="-0.7368343717603035"><ele>96.71428571428572</ele><time>2026-04-26T13:10:25.001Z</time></trkpt><trkpt lat="48.029683265108325" lon="-0.7368044190070102"><ele>96.57142857142857</ele><time>2026-04-26T13:10:26.001Z</time></trkpt><trkpt lat="48.02961703100093" lon="-0.7367705896973467"><ele>96.42857142857142</ele><time>2026-04-26T13:10:27.001Z</time></trkpt><trkpt lat="48.029547739215815" lon="-0.7367408281559069"><ele>96.28571428571428</ele><time>2026-04-26T13:10:28.001Z</time></trkpt><trkpt lat="48.029481598062425" lon="-0.7367108357449291"><ele>96.14285714285714</ele><time>2026-04-26T13:10:29.001Z</time></trkpt><trkpt lat="48.02941355357239" lon="-0.7366786267754235"><ele>96.0</ele><time>2026-04-26T13:10:30.001Z</time></trkpt><trkpt lat="48.029348958412406" lon="-0.7366487501289999"><ele>95.99999999999999</ele><time>2026-04-26T13:10:31.001Z</time></trkpt><trkpt lat="48.02927785888527" lon="-0.7366203226641183"><ele>96.0</ele><time>2026-04-26T13:10:32.001Z</time></trkpt><trkpt lat="48.029211721204625" lon="-0.7365915469705081"><ele>96.0</ele><time>2026-04-26T13:10:33.001Z</time></trkpt><trkpt lat="48.02914356481846" lon="-0.7365655716785929"><ele>96.0</ele><time>2026-04-26T13:10:34.001Z</time></trkpt><trkpt lat="48.02907477346825" lon="-0.7365356728416188"><ele>96.0</ele><time>2026-04-26T13:10:35.001Z</time></trkpt><trkpt lat="48.02900630228869" lon="-0.7365064529560916"><ele>95.99999999999999</ele><time>2026-04-26T13:10:36.001Z</time></trkpt><trkpt lat="48.02893663767848" lon="-0.736475754110715"><ele>96.0</ele><time>2026-04-26T13:10:37.001Z</time></trkpt><trkpt lat="48.02886500154391" lon="-0.7364416630219344"><ele>96.33333333333333</ele><time>2026-04-26T13:10:38.001Z</time></trkpt><trkpt lat="48.028793629785326" lon="-0.7364074888962588"><ele>96.66666666666666</ele><time>2026-04-26T13:10:39.001Z</time></trkpt><trkpt lat="48.02872078650572" lon="-0.7363723565662972"><ele>97.0</ele><time>2026-04-26T13:10:40.001Z</time></trkpt><trkpt lat="48.02864878698897" lon="-0.7363350893897647"><ele>97.33333333333333</ele><time>2026-04-26T13:10:41.001Z</time></trkpt><trkpt lat="48.02857621052336" lon="-0.7363020139697085"><ele>97.66666666666666</ele><time>2026-04-26T13:10:42.001Z</time></trkpt><trkpt lat="48.02850123409824" lon="-0.7362722082765372"><ele>98.0</ele><time>2026-04-26T13:10:43.001Z</time></trkpt><trkpt lat="48.028428962122135" lon="-0.736238693552729"><ele>97.99999999999999</ele><time>2026-04-26T13:10:44.001Z</time></trkpt><trkpt lat="48.028358222299495" lon="-0.7362062850661423"><ele>98.0</ele><time>2026-04-26T13:10:45.001Z</time></trkpt><trkpt lat="48.02828259363046" lon="-0.7361710036968884"><ele>98.0</ele><time>2026-04-26T13:10:46.001Z</time></trkpt><trkpt lat="48.02821070575259" lon="-0.736138633092396"><ele>98.0</ele><time>2026-04-26T13:10:47.001Z</time></trkpt><trkpt lat="48.028139041179585" lon="-0.7361040192303541"><ele>97.99999999999999</ele><time>2026-04-26T13:10:48.001Z</time></trkpt><trkpt lat="48.02806645503129" lon="-0.7360698905013973"><ele>98.0</ele><time>2026-04-26T13:10:49.001Z</time></trkpt><trkpt lat="48.02799680914861" lon="-0.7360385233108473"><ele>97.85714285714286</ele><time>2026-04-26T13:10:50.001Z</time></trkpt><trkpt lat="48.027923354341" lon="-0.7360082085215973"><ele>97.71428571428572</ele><time>2026-04-26T13:10:51.001Z</time></trkpt><trkpt lat="48.02785356926516" lon="-0.735974093231551"><ele>97.57142857142857</ele><time>2026-04-26T13:10:52.001Z</time></trkpt><trkpt lat="48.02778343525926" lon="-0.7359405545948227"><ele>97.42857142857143</ele><time>2026-04-26T13:10:53.001Z</time></trkpt><trkpt lat="48.027712484860224" lon="-0.7359108442579158"><ele>97.28571428571429</ele><time>2026-04-26T13:10:54.001Z</time></trkpt><trkpt lat="48.027646899980915" lon="-0.7358798167667707"><ele>97.14285714285714</ele><time>2026-04-26T13:10:55.001Z</time></trkpt><trkpt lat="48.02757983065614" lon="-0.7358467477127978"><ele>97.0</ele><time>2026-04-26T13:10:56.001Z</time></trkpt><trkpt lat="48.0275102618941" lon="-0.7358118155606644"><ele>97.0</ele><time>2026-04-26T13:10:57.001Z</time></trkpt><trkpt lat="48.02744323452555" lon="-0.7357796139653612"><ele>97.0</ele><time>2026-04-26T13:10:58.001Z</time></trkpt><trkpt lat="48.02737478920452" lon="-0.7357505841331776"><ele>97.0</ele><time>2026-04-26T13:10:59.001Z</time></trkpt><trkpt lat="48.027310004207315" lon="-0.7357224065005387"><ele>97.0</ele><time>2026-04-26T13:11:00.001Z</time></trkpt><trkpt lat="48.02724275507481" lon="-0.7356919021884817"><ele>97.0</ele><time>2026-04-26T13:11:01.001Z</time></trkpt><trkpt lat="48.02717593024574" lon="-0.7356653438951958"><ele>97.0</ele><time>2026-04-26T13:11:02.001Z</time></trkpt><trkpt lat="48.02710935020834" lon="-0.7356307699614205"><ele>97.0</ele><time>2026-04-26T13:11:03.001Z</time></trkpt><trkpt lat="48.02704081185685" lon="-0.7355992639439871"><ele>97.00000000000001</ele><time>2026-04-26T13:11:04.001Z</time></trkpt><trkpt lat="48.026970987129495" lon="-0.7355664621650188"><ele>97.0</ele><time>2026-04-26T13:11:05.001Z</time></trkpt><trkpt lat="48.026899628906556" lon="-0.735535566026581"><ele>97.0</ele><time>2026-04-26T13:11:06.001Z</time></trkpt><trkpt lat="48.02682769130244" lon="-0.7355001419315843"><ele>97.0</ele><time>2026-04-26T13:11:07.001Z</time></trkpt><trkpt lat="48.02675525557243" lon="-0.7354633656415396"><ele>97.00000000000001</ele><time>2026-04-26T13:11:08.001Z</time></trkpt><trkpt lat="48.02668170781256" lon="-0.7354317937186098"><ele>97.0</ele><time>2026-04-26T13:11:09.001Z</time></trkpt><trkpt lat="48.02660358158722" lon="-0.735395490473288"><ele>96.66666666666667</ele><time>2026-04-26T13:11:10.001Z</time></trkpt><trkpt lat="48.026530302915525" lon="-0.7353631515061274"><ele>96.33333333333334</ele><time>2026-04-26T13:11:11.001Z</time></trkpt><trkpt lat="48.026453639190635" lon="-0.7353269392153193"><ele>96.0</ele><time>2026-04-26T13:11:12.001Z</time></trkpt><trkpt lat="48.02637678876651" lon="-0.7352882207227309"><ele>95.66666666666667</ele><time>2026-04-26T13:11:13.001Z</time></trkpt><trkpt lat="48.02629971290294" lon="-0.735253238641825"><ele>95.33333333333334</ele><time>2026-04-26T13:11:14.001Z</time></trkpt><trkpt lat="48.026218517209806" lon="-0.7352185190630509"><ele>95.0</ele><time>2026-04-26T13:11:15.001Z</time></trkpt><trkpt lat="48.026139335256346" lon="-0.7351810911540626"><ele>94.83333333333334</ele><time>2026-04-26T13:11:16.001Z</time></trkpt><trkpt lat="48.026058209141425" lon="-0.7351438015948972"><ele>94.66666666666667</ele><time>2026-04-26T13:11:17.001Z</time></trkpt><trkpt lat="48.02597637862302" lon="-0.7351057664243679"><ele>94.5</ele><time>2026-04-26T13:11:18.001Z</time></trkpt><trkpt lat="48.0258915334629" lon="-0.7350711753616184"><ele>94.33333333333333</ele><time>2026-04-26T13:11:19.001Z</time></trkpt><trkpt lat="48.02580978654098" lon="-0.7350248853630265"><ele>94.16666666666666</ele><time>2026-04-26T13:11:20.001Z</time></trkpt><trkpt lat="48.02572838152572" lon="-0.7349816854948841"><ele>94.0</ele><time>2026-04-26T13:11:21.001Z</time></trkpt><trkpt lat="48.025641482087984" lon="-0.7349401730897189"><ele>94.0</ele><time>2026-04-26T13:11:22.001Z</time></trkpt><trkpt lat="48.02555591700973" lon="-0.7349005509512443"><ele>94.0</ele><time>2026-04-26T13:11:23.001Z</time></trkpt><trkpt lat="48.025471481951115" lon="-0.7348575907281332"><ele>94.0</ele><time>2026-04-26T13:11:24.001Z</time></trkpt><trkpt lat="48.02538387367778" lon="-0.7348192675606677"><ele>94.0</ele><time>2026-04-26T13:11:25.001Z</time></trkpt><trkpt lat="48.02529498502244" lon="-0.734786341307181"><ele>94.0</ele><time>2026-04-26T13:11:26.001Z</time></trkpt><trkpt lat="48.02520655676956" lon="-0.7347599871785047"><ele>94.0</ele><time>2026-04-26T13:11:27.001Z</time></trkpt><trkpt lat="48.02511784954314" lon="-0.7347212360624671"><ele>94.0</ele><time>2026-04-26T13:11:28.001Z</time></trkpt><trkpt lat="48.0250308337573" lon="-0.7346791929989385"><ele>94.0</ele><time>2026-04-26T13:11:29.001Z</time></trkpt><trkpt lat="48.024940772022255" lon="-0.734638342174784"><ele>94.0</ele><time>2026-04-26T13:11:30.001Z</time></trkpt><trkpt lat="48.02485364697357" lon="-0.7345977074420801"><ele>94.0</ele><time>2026-04-26T13:11:31.001Z</time></trkpt><trkpt lat="48.02476876243386" lon="-0.7345600681274281"><ele>93.80000000000001</ele><time>2026-04-26T13:11:32.001Z</time></trkpt><trkpt lat="48.02468121438446" lon="-0.7345182665853531"><ele>93.60000000000001</ele><time>2026-04-26T13:11:33.001Z</time></trkpt><trkpt lat="48.024591814093014" lon="-0.7344717668795384"><ele>93.4</ele><time>2026-04-26T13:11:34.001Z</time></trkpt><trkpt lat="48.02450332003421" lon="-0.7344268987833869"><ele>93.2</ele><time>2026-04-26T13:11:35.001Z</time></trkpt><trkpt lat="48.02441386568241" lon="-0.734387447853152"><ele>93.0</ele><time>2026-04-26T13:11:36.001Z</time></trkpt><trkpt lat="48.02432474564911" lon="-0.7343523827935347"><ele>92.80000000000001</ele><time>2026-04-26T13:11:37.001Z</time></trkpt><trkpt lat="48.02423622359101" lon="-0.7343117899848297"><ele>92.6</ele><time>2026-04-26T13:11:38.001Z</time></trkpt><trkpt lat="48.024148012230874" lon="-0.7342691445109901"><ele>92.4</ele><time>2026-04-26T13:11:39.001Z</time></trkpt><trkpt lat="48.02405935413276" lon="-0.7342277864692358"><ele>92.19999999999999</ele><time>2026-04-26T13:11:40.001Z</time></trkpt><trkpt lat="48.02396844159932" lon="-0.734184397026605"><ele>92.0</ele><time>2026-04-26T13:11:41.001Z</time></trkpt><trkpt lat="48.02387576957028" lon="-0.7341438088538534"><ele>91.19999999999999</ele><time>2026-04-26T13:11:42.001Z</time></trkpt><trkpt lat="48.02378507800534" lon="-0.7341043430806781"><ele>90.4</ele><time>2026-04-26T13:11:43.001Z</time></trkpt><trkpt lat="48.02369235979233" lon="-0.7340634148392462"><ele>89.6</ele><time>2026-04-26T13:11:44.001Z</time></trkpt><trkpt lat="48.02359956314965" lon="-0.7340224313784002"><ele>88.80000000000001</ele><time>2026-04-26T13:11:45.001Z</time></trkpt><trkpt lat="48.0235086914423" lon="-0.7339798892858368"><ele>88.0</ele><time>2026-04-26T13:11:46.001Z</time></trkpt><trkpt lat="48.023418523242576" lon="-0.7339365016755443"><ele>88.0</ele><time>2026-04-26T13:11:47.001Z</time></trkpt><trkpt lat="48.02332775197944" lon="-0.7338937903458503"><ele>88.0</ele><time>2026-04-26T13:11:48.001Z</time></trkpt><trkpt lat="48.02323520982035" lon="-0.7338521375394929"><ele>88.0</ele><time>2026-04-26T13:11:49.001Z</time></trkpt><trkpt lat="48.02314201337488" lon="-0.7338102275260668"><ele>88.0</ele><time>2026-04-26T13:11:50.001Z</time></trkpt><trkpt lat="48.023048351128296" lon="-0.7337678467772866"><ele>88.0</ele><time>2026-04-26T13:11:51Z</time></trkpt><trkpt lat="48.02295451228755" lon="-0.7337251868654051"><ele>87.80000000000001</ele><time>2026-04-26T13:11:52Z</time></trkpt><trkpt lat="48.02286243629019" lon="-0.7336847970146794"><ele>87.6</ele><time>2026-04-26T13:11:53Z</time></trkpt><trkpt lat="48.022767171754374" lon="-0.7336407010631047"><ele>87.4</ele><time>2026-04-26T13:11:54Z</time></trkpt><trkpt lat="48.022675192551965" lon="-0.7336027275628465"><ele>87.19999999999999</ele><time>2026-04-26T13:11:55Z</time></trkpt><trkpt lat="48.022583725624344" lon="-0.7335637013152836"><ele>87.0</ele><time>2026-04-26T13:11:56Z</time></trkpt><trkpt lat="48.02249333301965" lon="-0.7335202244739369"><ele>86.6</ele><time>2026-04-26T13:11:57.001Z</time></trkpt><trkpt lat="48.0224016052111" lon="-0.7334787278829983"><ele>86.19999999999999</ele><time>2026-04-26T13:11:58.001Z</time></trkpt><trkpt lat="48.022314271273906" lon="-0.7334376166467406"><ele>85.8</ele><time>2026-04-26T13:11:59.001Z</time></trkpt><trkpt lat="48.02222756713799" lon="-0.7333982271158542"><ele>85.4</ele><time>2026-04-26T13:12:00.001Z</time></trkpt><trkpt lat="48.02213416932899" lon="-0.7333574203865865"><ele>85.0</ele><time>2026-04-26T13:12:01.001Z</time></trkpt><trkpt lat="48.02204787687004" lon="-0.7333181393004398"><ele>85.0</ele><time>2026-04-26T13:12:02.001Z</time></trkpt><trkpt lat="48.02196231065435" lon="-0.7332775669511032"><ele>85.0</ele><time>2026-04-26T13:12:03.001Z</time></trkpt><trkpt lat="48.021876584144145" lon="-0.7332386978118041"><ele>85.0</ele><time>2026-04-26T13:12:04.001Z</time></trkpt><trkpt lat="48.0217919429568" lon="-0.733196608326603"><ele>85.0</ele><time>2026-04-26T13:12:05.001Z</time></trkpt><trkpt lat="48.02170247164105" lon="-0.7331586544710013"><ele>85.0</ele><time>2026-04-26T13:12:06.001Z</time></trkpt><trkpt lat="48.02162248052626" lon="-0.7331237802764113"><ele>85.0</ele><time>2026-04-26T13:12:07.001Z</time></trkpt><trkpt lat="48.02153806044602" lon="-0.7330842806373498"><ele>84.33333333333333</ele><time>2026-04-26T13:12:08.001Z</time></trkpt><trkpt lat="48.021452034852004" lon="-0.7330478004202656"><ele>83.66666666666666</ele><time>2026-04-26T13:12:09.001Z</time></trkpt><trkpt lat="48.02136716808317" lon="-0.7330063063174983"><ele>83.0</ele><time>2026-04-26T13:12:10.001Z</time></trkpt><trkpt lat="48.02128566207121" lon="-0.7329665089159505"><ele>82.33333333333333</ele><time>2026-04-26T13:12:11.001Z</time></trkpt><trkpt lat="48.02120342737991" lon="-0.732926881480192"><ele>81.66666666666667</ele><time>2026-04-26T13:12:12.001Z</time></trkpt><trkpt lat="48.0211217671971" lon="-0.7328904833012151"><ele>81.0</ele><time>2026-04-26T13:12:13.001Z</time></trkpt><trkpt lat="48.021041172750344" lon="-0.7328560142219271"><ele>81.0</ele><time>2026-04-26T13:12:14.001Z</time></trkpt><trkpt lat="48.02096241387668" lon="-0.7328155495687877"><ele>81.0</ele><time>2026-04-26T13:12:15.001Z</time></trkpt><trkpt lat="48.02088628343759" lon="-0.7327794884860068"><ele>81.0</ele><time>2026-04-26T13:12:16.001Z</time></trkpt><trkpt lat="48.02081397512244" lon="-0.7327454572330274"><ele>81.0</ele><time>2026-04-26T13:12:17.001Z</time></trkpt><trkpt lat="48.02073793815208" lon="-0.7327181895894773"><ele>81.0</ele><time>2026-04-26T13:12:18.001Z</time></trkpt><trkpt lat="48.02066599257377" lon="-0.7326842241400399"><ele>81.0</ele><time>2026-04-26T13:12:19.001Z</time></trkpt><trkpt lat="48.020594924944945" lon="-0.7326476323182556"><ele>81.66666666666667</ele><time>2026-04-26T13:12:20.001Z</time></trkpt><trkpt lat="48.0205219637975" lon="-0.7326139745303342"><ele>82.33333333333333</ele><time>2026-04-26T13:12:21.001Z</time></trkpt><trkpt lat="48.020449393550216" lon="-0.7325782242218406"><ele>83.0</ele><time>2026-04-26T13:12:22.001Z</time></trkpt><trkpt lat="48.020379513423116" lon="-0.732549677924031"><ele>83.66666666666666</ele><time>2026-04-26T13:12:23.001Z</time></trkpt><trkpt lat="48.020302411790766" lon="-0.7325164207610627"><ele>84.33333333333333</ele><time>2026-04-26T13:12:24.001Z</time></trkpt><trkpt lat="48.02023377639846" lon="-0.7324842089001959"><ele>85.0</ele><time>2026-04-26T13:12:25.001Z</time></trkpt><trkpt lat="48.020161041256515" lon="-0.7324528687012615"><ele>85.0</ele><time>2026-04-26T13:12:26.001Z</time></trkpt><trkpt lat="48.02008900074379" lon="-0.7324223507296473"><ele>85.0</ele><time>2026-04-26T13:12:27.001Z</time></trkpt><trkpt lat="48.02001599383204" lon="-0.7323898657257787"><ele>85.0</ele><time>2026-04-26T13:12:28.001Z</time></trkpt><trkpt lat="48.01994329811957" lon="-0.73235867948746"><ele>85.0</ele><time>2026-04-26T13:12:29.001Z</time></trkpt><trkpt lat="48.01987156565653" lon="-0.732330447915462"><ele>85.0</ele><time>2026-04-26T13:12:30.001Z</time></trkpt><trkpt lat="48.01979816955089" lon="-0.7322895234282216"><ele>85.0</ele><time>2026-04-26T13:12:31.001Z</time></trkpt><trkpt lat="48.01972965598197" lon="-0.7322533245474767"><ele>84.66666666666666</ele><time>2026-04-26T13:12:32.001Z</time></trkpt><trkpt lat="48.0196587615634" lon="-0.7322179840338171"><ele>84.33333333333333</ele><time>2026-04-26T13:12:33.001Z</time></trkpt><trkpt lat="48.01958784164248" lon="-0.7321892088197732"><ele>84.0</ele><time>2026-04-26T13:12:34.001Z</time></trkpt><trkpt lat="48.01951692828796" lon="-0.7321544377111495"><ele>83.66666666666667</ele><time>2026-04-26T13:12:35.001Z</time></trkpt><trkpt lat="48.019445338932094" lon="-0.7321183688695954"><ele>83.33333333333334</ele><time>2026-04-26T13:12:36.001Z</time></trkpt><trkpt lat="48.01937425156023" lon="-0.7320842353403272"><ele>83.0</ele><time>2026-04-26T13:12:37.001Z</time></trkpt><trkpt lat="48.01930132604939" lon="-0.7320464523778997"><ele>83.0</ele><time>2026-04-26T13:12:38.001Z</time></trkpt><trkpt lat="48.01923092515208" lon="-0.7320182522396891"><ele>83.0</ele><time>2026-04-26T13:12:39.001Z</time></trkpt><trkpt lat="48.01915789746319" lon="-0.7319844897590935"><ele>83.0</ele><time>2026-04-26T13:12:40.001Z</time></trkpt><trkpt lat="48.019086189640355" lon="-0.7319569124173454"><ele>83.0</ele><time>2026-04-26T13:12:41.001Z</time></trkpt><trkpt lat="48.01901773800672" lon="-0.7319279169868002"><ele>83.0</ele><time>2026-04-26T13:12:42.001Z</time></trkpt><trkpt lat="48.018932591788925" lon="-0.7318811401418452"><ele>83.0</ele><time>2026-04-26T13:12:43.001Z</time></trkpt><trkpt lat="48.01885867199521" lon="-0.7318491022467386"><ele>82.83333333333334</ele><time>2026-04-26T13:12:44.001Z</time></trkpt><trkpt lat="48.01878048763806" lon="-0.7318166204716893"><ele>82.66666666666667</ele><time>2026-04-26T13:12:45.001Z</time></trkpt><trkpt lat="48.018705487681714" lon="-0.7317827864498415"><ele>82.5</ele><time>2026-04-26T13:12:46.001Z</time></trkpt><trkpt lat="48.01863316065916" lon="-0.7317480276730196"><ele>82.33333333333333</ele><time>2026-04-26T13:12:47.001Z</time></trkpt><trkpt lat="48.01855955683985" lon="-0.7317114788086462"><ele>82.16666666666666</ele><time>2026-04-26T13:12:48.001Z</time></trkpt><trkpt lat="48.01848858527343" lon="-0.7316740671973301"><ele>82.0</ele><time>2026-04-26T13:12:49.001Z</time></trkpt><trkpt lat="48.01841882789695" lon="-0.731646310595253"><ele>82.0</ele><time>2026-04-26T13:12:50.001Z</time></trkpt><trkpt lat="48.01835196962241" lon="-0.7316192253778031"><ele>82.0</ele><time>2026-04-26T13:12:51.001Z</time></trkpt><trkpt lat="48.018286398603365" lon="-0.7315844863108724"><ele>82.0</ele><time>2026-04-26T13:12:52.001Z</time></trkpt><trkpt lat="48.01822037372252" lon="-0.7315546010565903"><ele>82.0</ele><time>2026-04-26T13:12:53.001Z</time></trkpt><trkpt lat="48.01815615436099" lon="-0.731530071100454"><ele>82.0</ele><time>2026-04-26T13:12:54.001Z</time></trkpt><trkpt lat="48.01809369020135" lon="-0.731498055659088"><ele>82.0</ele><time>2026-04-26T13:12:55.001Z</time></trkpt><trkpt lat="48.017973016310954" lon="-0.7314444060531015"><ele>82.25</ele><time>2026-04-26T13:12:57.001Z</time></trkpt><trkpt lat="48.01785582456412" lon="-0.7313919967624702"><ele>82.5</ele><time>2026-04-26T13:12:59.001Z</time></trkpt><trkpt lat="48.017692370590765" lon="-0.7313154165819451"><ele>82.75</ele><time>2026-04-26T13:13:02.001Z</time></trkpt><trkpt lat="48.01758893619213" lon="-0.7312727748570281"><ele>83.0</ele><time>2026-04-26T13:13:04.001Z</time></trkpt><trkpt lat="48.01749182474499" lon="-0.7312234649272349"><ele>83.80000000000001</ele><time>2026-04-26T13:13:06.001Z</time></trkpt><trkpt lat="48.01739673404014" lon="-0.7311741544166475"><ele>84.6</ele><time>2026-04-26T13:13:08.001Z</time></trkpt><trkpt lat="48.017300332134226" lon="-0.731136209470925"><ele>85.4</ele><time>2026-04-26T13:13:10.001Z</time></trkpt><trkpt lat="48.01720825611706" lon="-0.731098488565581"><ele>86.19999999999999</ele><time>2026-04-26T13:13:12.001Z</time></trkpt><trkpt lat="48.01711519660075" lon="-0.7310555779244536"><ele>87.0</ele><time>2026-04-26T13:13:14.001Z</time></trkpt><trkpt lat="48.01702443292379" lon="-0.7310169026316818"><ele>87.0</ele><time>2026-04-26T13:13:16.001Z</time></trkpt><trkpt lat="48.01693570603516" lon="-0.7309765012433294"><ele>87.0</ele><time>2026-04-26T13:13:18.001Z</time></trkpt><trkpt lat="48.0168461899615" lon="-0.7309337045071784"><ele>87.0</ele><time>2026-04-26T13:13:20.001Z</time></trkpt><trkpt lat="48.01676189429734" lon="-0.7308944689014057"><ele>87.0</ele><time>2026-04-26T13:13:22.001Z</time></trkpt><trkpt lat="48.01667729483864" lon="-0.7308580292499157"><ele>87.0</ele><time>2026-04-26T13:13:24.001Z</time></trkpt><trkpt lat="48.016592173540126" lon="-0.7308219827332978"><ele>87.71428571428571</ele><time>2026-04-26T13:13:26.001Z</time></trkpt><trkpt lat="48.01651487870681" lon="-0.730782703360308"><ele>88.42857142857143</ele><time>2026-04-26T13:13:28.001Z</time></trkpt><trkpt lat="48.016436157928304" lon="-0.7307493277592828"><ele>89.14285714285714</ele><time>2026-04-26T13:13:30.001Z</time></trkpt><trkpt lat="48.01636171591472" lon="-0.7307173658823569"><ele>89.85714285714286</ele><time>2026-04-26T13:13:32.001Z</time></trkpt><trkpt lat="48.016295926736156" lon="-0.7306844010338032"><ele>90.57142857142857</ele><time>2026-04-26T13:13:34.001Z</time></trkpt><trkpt lat="48.01622991107758" lon="-0.7306503989693093"><ele>91.28571428571429</ele><time>2026-04-26T13:13:36.001Z</time></trkpt><trkpt lat="48.01616594181332" lon="-0.7306212740977894"><ele>92.0</ele><time>2026-04-26T13:13:38.001Z</time></trkpt><trkpt lat="48.01610352316507" lon="-0.7305917045678396"><ele>92.0</ele><time>2026-04-26T13:13:40.001Z</time></trkpt><trkpt lat="48.01604181515657" lon="-0.730565688056281"><ele>92.0</ele><time>2026-04-26T13:13:42.001Z</time></trkpt><trkpt lat="48.01598133032786" lon="-0.7305374173178417"><ele>92.0</ele><time>2026-04-26T13:13:44.001Z</time></trkpt><trkpt lat="48.01591981118355" lon="-0.7305108496819477"><ele>92.0</ele><time>2026-04-26T13:13:46.001Z</time></trkpt><trkpt lat="48.01585914497217" lon="-0.7304808840255038"><ele>92.0</ele><time>2026-04-26T13:13:48.001Z</time></trkpt><trkpt lat="48.015797493552064" lon="-0.7304511602553735"><ele>92.0</ele><time>2026-04-26T13:13:50.001Z</time></trkpt><trkpt lat="48.01573470320082" lon="-0.7304218317710197"><ele>92.0</ele><time>2026-04-26T13:13:52.001Z</time></trkpt><trkpt lat="48.01567437096533" lon="-0.7303889645535053"><ele>92.14285714285715</ele><time>2026-04-26T13:13:54.001Z</time></trkpt><trkpt lat="48.015610958112475" lon="-0.7303600958347384"><ele>92.28571428571428</ele><time>2026-04-26T13:13:56.001Z</time></trkpt><trkpt lat="48.015544137271625" lon="-0.7303297516745465"><ele>92.42857142857143</ele><time>2026-04-26T13:13:58.001Z</time></trkpt><trkpt lat="48.015480742381264" lon="-0.7302969946784458"><ele>92.57142857142858</ele><time>2026-04-26T13:14:00.001Z</time></trkpt><trkpt lat="48.01541792345445" lon="-0.7302667641310101"><ele>92.71428571428572</ele><time>2026-04-26T13:14:02.001Z</time></trkpt><trkpt lat="48.01535489556371" lon="-0.7302322937649512"><ele>92.85714285714286</ele><time>2026-04-26T13:14:04.001Z</time></trkpt><trkpt lat="48.01529180292218" lon="-0.7302163731821647"><ele>93.0</ele><time>2026-04-26T13:14:06.001Z</time></trkpt><trkpt lat="48.01522733856457" lon="-0.73019359343461"><ele>93.00000000000001</ele><time>2026-04-26T13:14:08.001Z</time></trkpt><trkpt lat="48.01516181522659" lon="-0.7301853252954202"><ele>93.0</ele><time>2026-04-26T13:14:10.001Z</time></trkpt><trkpt lat="48.0150942051875" lon="-0.7302016528577713"><ele>93.0</ele><time>2026-04-26T13:14:12.001Z</time></trkpt><trkpt lat="48.0150351872536" lon="-0.7302482085647853"><ele>93.0</ele><time>2026-04-26T13:14:14.001Z</time></trkpt><trkpt lat="48.01497476753943" lon="-0.7302773438212132"><ele>93.0</ele><time>2026-04-26T13:14:16.001Z</time></trkpt><trkpt lat="48.0149118007904" lon="-0.7302878924041712"><ele>93.00000000000001</ele><time>2026-04-26T13:14:18.001Z</time></trkpt><trkpt lat="48.01483343742751" lon="-0.7303578208373982"><ele>93.0</ele><time>2026-04-26T13:14:21.001Z</time></trkpt><trkpt lat="48.01479163001756" lon="-0.7304400731162342"><ele>92.4</ele><time>2026-04-26T13:14:23.001Z</time></trkpt><trkpt lat="48.01475165774561" lon="-0.7305389492099609"><ele>91.80000000000001</ele><time>2026-04-26T13:14:25.001Z</time></trkpt><trkpt lat="48.014685089908035" lon="-0.7306183617410671"><ele>91.2</ele><time>2026-04-26T13:14:27.001Z</time></trkpt><trkpt lat="48.01460504727894" lon="-0.7306957192545424"><ele>90.6</ele><time>2026-04-26T13:14:29.001Z</time></trkpt><trkpt lat="48.014507318186794" lon="-0.7307543176277848"><ele>90.0</ele><time>2026-04-26T13:14:31.001Z</time></trkpt><trkpt lat="48.01439657765626" lon="-0.7307874233002742"><ele>90.0</ele><time>2026-04-26T13:14:33.001Z</time></trkpt><trkpt lat="48.01427489635419" lon="-0.730780121958435"><ele>90.0</ele><time>2026-04-26T13:14:35.001Z</time></trkpt><trkpt lat="48.014153485698024" lon="-0.7307354235180066"><ele>90.0</ele><time>2026-04-26T13:14:37.001Z</time></trkpt><trkpt lat="48.014090896297944" lon="-0.7307038179790636"><ele>90.0</ele><time>2026-04-26T13:14:38.001Z</time></trkpt><trkpt lat="48.01402827197371" lon="-0.7306719536860342"><ele>90.0</ele><time>2026-04-26T13:14:39.001Z</time></trkpt><trkpt lat="48.01396295815268" lon="-0.7306456539858212"><ele>90.0</ele><time>2026-04-26T13:14:40.001Z</time></trkpt><trkpt lat="48.01389634557933" lon="-0.7306137195489923"><ele>89.42857142857143</ele><time>2026-04-26T13:14:41.001Z</time></trkpt><trkpt lat="48.01382729473308" lon="-0.7305809566979299"><ele>88.85714285714286</ele><time>2026-04-26T13:14:42.001Z</time></trkpt><trkpt lat="48.01375701181336" lon="-0.730553037924665"><ele>88.28571428571429</ele><time>2026-04-26T13:14:43.001Z</time></trkpt><trkpt lat="48.013686647026944" lon="-0.7305231929851919"><ele>87.71428571428572</ele><time>2026-04-26T13:14:44.001Z</time></trkpt><trkpt lat="48.01361823840391" lon="-0.7304888559193535"><ele>87.14285714285714</ele><time>2026-04-26T13:14:45.001Z</time></trkpt><trkpt lat="48.01355066608889" lon="-0.7304550115725589"><ele>86.57142857142858</ele><time>2026-04-26T13:14:46.001Z</time></trkpt><trkpt lat="48.013479041465864" lon="-0.7304276893626529"><ele>86.0</ele><time>2026-04-26T13:14:47.001Z</time></trkpt><trkpt lat="48.013412822595" lon="-0.7303999001646682"><ele>86.0</ele><time>2026-04-26T13:14:48.001Z</time></trkpt><trkpt lat="48.01334373283207" lon="-0.7303672071030385"><ele>86.0</ele><time>2026-04-26T13:14:49.001Z</time></trkpt><trkpt lat="48.01328334202737" lon="-0.7303297191130149"><ele>86.0</ele><time>2026-04-26T13:14:50.001Z</time></trkpt><trkpt lat="48.01321759258801" lon="-0.73030777097428"><ele>86.0</ele><time>2026-04-26T13:14:51.001Z</time></trkpt><trkpt lat="48.01309658641154" lon="-0.7302519423835343"><ele>86.0</ele><time>2026-04-26T13:14:53.001Z</time></trkpt><trkpt lat="48.01297180187541" lon="-0.7302056966172402"><ele>86.42857142857143</ele><time>2026-04-26T13:14:55.001Z</time></trkpt><trkpt lat="48.012908684514194" lon="-0.7301768569366579"><ele>86.85714285714286</ele><time>2026-04-26T13:14:56.001Z</time></trkpt><trkpt lat="48.012844608219226" lon="-0.730149190571788"><ele>87.28571428571428</ele><time>2026-04-26T13:14:57.001Z</time></trkpt><trkpt lat="48.01278072004752" lon="-0.7301215435900597"><ele>87.71428571428572</ele><time>2026-04-26T13:14:58.001Z</time></trkpt><trkpt lat="48.01271739349135" lon="-0.7300916652678596"><ele>88.14285714285714</ele><time>2026-04-26T13:14:59.001Z</time></trkpt><trkpt lat="48.012655746690484" lon="-0.7300622552027644"><ele>88.57142857142857</ele><time>2026-04-26T13:15:00.001Z</time></trkpt><trkpt lat="48.01259393269897" lon="-0.7300367910235597"><ele>89.0</ele><time>2026-04-26T13:15:01.001Z</time></trkpt><trkpt lat="48.01253233398896" lon="-0.7300089368036464"><ele>89.25</ele><time>2026-04-26T13:15:02.001Z</time></trkpt><trkpt lat="48.0124177127753" lon="-0.7299542034699248"><ele>89.5</ele><time>2026-04-26T13:15:04.001Z</time></trkpt><trkpt lat="48.012306032982856" lon="-0.7299026635258542"><ele>89.75</ele><time>2026-04-26T13:15:06.001Z</time></trkpt><trkpt lat="48.01219505935343" lon="-0.7298483248182731"><ele>90.0</ele><time>2026-04-26T13:15:08.001Z</time></trkpt><trkpt lat="48.012090885243985" lon="-0.7298017557609086"><ele>90.0</ele><time>2026-04-26T13:15:10.001Z</time></trkpt><trkpt lat="48.01199097388149" lon="-0.7297542581322262"><ele>90.0</ele><time>2026-04-26T13:15:12.001Z</time></trkpt><trkpt lat="48.01188701545372" lon="-0.7297066745695461"><ele>90.0</ele><time>2026-04-26T13:15:14.001Z</time></trkpt><trkpt lat="48.011782154051126" lon="-0.7296603895399713"><ele>90.0</ele><time>2026-04-26T13:15:16.001Z</time></trkpt><trkpt lat="48.011676593993386" lon="-0.7296140684127044"><ele>90.0</ele><time>2026-04-26T13:15:18.001Z</time></trkpt><trkpt lat="48.01157216120943" lon="-0.7295618461602145"><ele>90.0</ele><time>2026-04-26T13:15:20.001Z</time></trkpt><trkpt lat="48.01146926491565" lon="-0.7295111668428005"><ele>90.0</ele><time>2026-04-26T13:15:22.001Z</time></trkpt><trkpt lat="48.01136476219933" lon="-0.7294638672276308"><ele>90.0</ele><time>2026-04-26T13:15:24.001Z</time></trkpt><trkpt lat="48.01125837326845" lon="-0.7294136353907464"><ele>90.0</ele><time>2026-04-26T13:15:26.001Z</time></trkpt><trkpt lat="48.01115175339114" lon="-0.7293662377933491"><ele>90.0</ele><time>2026-04-26T13:15:28.001Z</time></trkpt><trkpt lat="48.01104294820298" lon="-0.7293204780922721"><ele>90.2</ele><time>2026-04-26T13:15:30.001Z</time></trkpt><trkpt lat="48.01093543651482" lon="-0.7292655339790287"><ele>90.4</ele><time>2026-04-26T13:15:32.001Z</time></trkpt><trkpt lat="48.010828583223294" lon="-0.7292217462902333"><ele>90.6</ele><time>2026-04-26T13:15:34.001Z</time></trkpt><trkpt lat="48.010721011983215" lon="-0.7291780157653849"><ele>90.8</ele><time>2026-04-26T13:15:36.001Z</time></trkpt><trkpt lat="48.01061474097095" lon="-0.7291285499094339"><ele>91.0</ele><time>2026-04-26T13:15:38.001Z</time></trkpt><trkpt lat="48.010502417453964" lon="-0.729081166068841"><ele>91.0</ele><time>2026-04-26T13:15:40.001Z</time></trkpt><trkpt lat="48.01039801570448" lon="-0.7290307092476725"><ele>91.0</ele><time>2026-04-26T13:15:42.001Z</time></trkpt><trkpt lat="48.01029562670482" lon="-0.7289855702747712"><ele>91.0</ele><time>2026-04-26T13:15:44.001Z</time></trkpt><trkpt lat="48.010194963054516" lon="-0.7289424496334099"><ele>91.0</ele><time>2026-04-26T13:15:46.001Z</time></trkpt><trkpt lat="48.01010316302348" lon="-0.7288973873942413"><ele>91.0</ele><time>2026-04-26T13:15:48.001Z</time></trkpt><trkpt lat="48.010019082759726" lon="-0.7288573231390415"><ele>91.0</ele><time>2026-04-26T13:15:50.001Z</time></trkpt><trkpt lat="48.00994799368271" lon="-0.7288241839175793"><ele>91.0</ele><time>2026-04-26T13:15:52.001Z</time></trkpt><trkpt lat="48.009877595217496" lon="-0.7287917315806883"><ele>91.0</ele><time>2026-04-26T13:15:54.001Z</time></trkpt><trkpt lat="48.00980807987516" lon="-0.7287673142885226"><ele>91.0</ele><time>2026-04-26T13:15:56.001Z</time></trkpt><trkpt lat="48.00972736959126" lon="-0.7287514022674245"><ele>91.0</ele><time>2026-04-26T13:15:58.001Z</time></trkpt><trkpt lat="48.009644069946276" lon="-0.7287347042481819"><ele>91.0</ele><time>2026-04-26T13:16:00.001Z</time></trkpt><trkpt lat="48.009558420518424" lon="-0.7287239329896104"><ele>91.0</ele><time>2026-04-26T13:16:02.001Z</time></trkpt><trkpt lat="48.00946948440273" lon="-0.7286857344028587"><ele>91.0</ele><time>2026-04-26T13:16:04.001Z</time></trkpt><trkpt lat="48.00940391670101" lon="-0.7286976010794227"><ele>91.0</ele><time>2026-04-26T13:16:06.001Z</time></trkpt><trkpt lat="48.00939023998009" lon="-0.7284745531415457"><ele>91.0</ele><time>2026-04-26T13:16:08.001Z</time></trkpt><trkpt lat="48.00938890594231" lon="-0.728360463133557"><ele>91.0</ele><time>2026-04-26T13:16:10.001Z</time></trkpt><trkpt lat="48.00940368357431" lon="-0.7282550870359932"><ele>91.0</ele><time>2026-04-26T13:16:12.001Z</time></trkpt><trkpt lat="48.00941773988761" lon="-0.7281447515128686"><ele>91.0</ele><time>2026-04-26T13:16:15.001Z</time></trkpt><trkpt lat="48.009426492584325" lon="-0.7282399050486741"><ele>91.0</ele><time>2026-04-26T13:16:21.001Z</time></trkpt><trkpt lat="48.009399611326046" lon="-0.7283412805880898"><ele>91.0</ele><time>2026-04-26T13:16:24.001Z</time></trkpt><trkpt lat="48.00942653869067" lon="-0.7284417411954373"><ele>91.0</ele><time>2026-04-26T13:16:26.001Z</time></trkpt><trkpt lat="48.00940666117496" lon="-0.728539312818629"><ele>91.0</ele><time>2026-04-26T13:16:29.001Z</time></trkpt><trkpt lat="48.00942487148198" lon="-0.7286410885709699"><ele>91.0</ele><time>2026-04-26T13:16:32.001Z</time></trkpt><trkpt lat="48.00941155012297" lon="-0.7287355210206476"><ele>91.0</ele><time>2026-04-26T13:16:35.001Z</time></trkpt><trkpt lat="48.00940192813655" lon="-0.7288383951554184"><ele>91.0</ele><time>2026-04-26T13:16:38.001Z</time></trkpt><trkpt lat="48.009400118190385" lon="-0.7289595869399411"><ele>91.0</ele><time>2026-04-26T13:16:41.001Z</time></trkpt><trkpt lat="48.00937989112792" lon="-0.7290834776240595"><ele>91.0</ele><time>2026-04-26T13:16:44.001Z</time></trkpt><trkpt lat="48.00937804661951" lon="-0.7292020038910462"><ele>91.0</ele><time>2026-04-26T13:16:47.001Z</time></trkpt><trkpt lat="48.009393314745054" lon="-0.7291093139749891"><ele>91.0</ele><time>2026-04-26T13:16:52.001Z</time></trkpt><trkpt lat="48.00940329336179" lon="-0.7288973535653346"><ele>91.0</ele><time>2026-04-26T13:16:56.001Z</time></trkpt><trkpt lat="48.00940840038053" lon="-0.7287498445732157"><ele>91.0</ele><time>2026-04-26T13:16:58.001Z</time></trkpt><trkpt lat="48.00958487865297" lon="-0.7286920777721496"><ele>91.0</ele><time>2026-04-26T13:17:02.001Z</time></trkpt><trkpt lat="48.00969391130846" lon="-0.7287177751340923"><ele>91.0</ele><time>2026-04-26T13:17:04.001Z</time></trkpt><trkpt lat="48.00979256542688" lon="-0.7287337528193649"><ele>91.0</ele><time>2026-04-26T13:17:06.001Z</time></trkpt><trkpt lat="48.00988897856342" lon="-0.7287209245112508"><ele>91.0</ele><time>2026-04-26T13:17:08.001Z</time></trkpt><trkpt lat="48.00990686276688" lon="-0.7285597576179236"><ele>91.0</ele><time>2026-04-26T13:17:10.001Z</time></trkpt><trkpt lat="48.00990185529688" lon="-0.7284090020067899"><ele>91.0</ele><time>2026-04-26T13:17:12.001Z</time></trkpt><trkpt lat="48.00992024636176" lon="-0.7282595733567941"><ele>91.0</ele><time>2026-04-26T13:17:14.001Z</time></trkpt><trkpt lat="48.00993118666473" lon="-0.7281108804176663"><ele>91.0</ele><time>2026-04-26T13:17:16.001Z</time></trkpt><trkpt lat="48.009946806236144" lon="-0.7279646873710297"><ele>91.0</ele><time>2026-04-26T13:17:18.001Z</time></trkpt><trkpt lat="48.00988953928063" lon="-0.7278685951975435"><ele>91.0</ele><time>2026-04-26T13:17:20.001Z</time></trkpt><trkpt lat="48.00980525596156" lon="-0.7278661785917075"><ele>91.0</ele><time>2026-04-26T13:17:22.001Z</time></trkpt><trkpt lat="48.009716994516474" lon="-0.7278194546296781"><ele>91.0</ele><time>2026-04-26T13:17:24.001Z</time></trkpt><trkpt lat="48.00962519946495" lon="-0.7277891295474954"><ele>91.0</ele><time>2026-04-26T13:17:26.001Z</time></trkpt><trkpt lat="48.00952152926876" lon="-0.7277560864684414"><ele>91.0</ele><time>2026-04-26T13:17:28.001Z</time></trkpt><trkpt lat="48.00941616036327" lon="-0.7277317753884451"><ele>91.0</ele><time>2026-04-26T13:17:30.001Z</time></trkpt><trkpt lat="48.0093074988977" lon="-0.7277011297437147"><ele>91.0</ele><time>2026-04-26T13:17:32.001Z</time></trkpt><trkpt lat="48.009195135527634" lon="-0.7276698401967215"><ele>91.0</ele><time>2026-04-26T13:17:34.001Z</time></trkpt><trkpt lat="48.00908090725046" lon="-0.7276304171841195"><ele>90.66666666666666</ele><time>2026-04-26T13:17:36.001Z</time></trkpt><trkpt lat="48.008959364589316" lon="-0.7275881108224036"><ele>90.33333333333333</ele><time>2026-04-26T13:17:38.001Z</time></trkpt><trkpt lat="48.00889548859796" lon="-0.727563388646542"><ele>90.0</ele><time>2026-04-26T13:17:39.001Z</time></trkpt><trkpt lat="48.00883256377383" lon="-0.7275416994708462"><ele>89.66666666666667</ele><time>2026-04-26T13:17:40.001Z</time></trkpt><trkpt lat="48.00876568633326" lon="-0.7275155442000161"><ele>89.33333333333334</ele><time>2026-04-26T13:17:41.001Z</time></trkpt><trkpt lat="48.00870153822037" lon="-0.7274901541260699"><ele>89.0</ele><time>2026-04-26T13:17:42.001Z</time></trkpt><trkpt lat="48.0086310244367" lon="-0.727468809933447"><ele>88.99999999999999</ele><time>2026-04-26T13:17:43.001Z</time></trkpt><trkpt lat="48.008560715596964" lon="-0.7274552982211985"><ele>89.0</ele><time>2026-04-26T13:17:44.001Z</time></trkpt><trkpt lat="48.0084902218592" lon="-0.7274261996722269"><ele>89.0</ele><time>2026-04-26T13:17:45.001Z</time></trkpt><trkpt lat="48.00841822487697" lon="-0.7274079186691284"><ele>89.0</ele><time>2026-04-26T13:17:46Z</time></trkpt><trkpt lat="48.008344773195574" lon="-0.7273894169670084"><ele>89.0</ele><time>2026-04-26T13:17:47Z</time></trkpt><trkpt lat="48.008269769901" lon="-0.7273707419312194"><ele>88.99999999999999</ele><time>2026-04-26T13:17:48Z</time></trkpt><trkpt lat="48.00819769879405" lon="-0.7273414147670366"><ele>89.0</ele><time>2026-04-26T13:17:49Z</time></trkpt><trkpt lat="48.008122791574" lon="-0.7273325222434117"><ele>89.14285714285714</ele><time>2026-04-26T13:17:50Z</time></trkpt><trkpt lat="48.008049539310875" lon="-0.7273094859314554"><ele>89.28571428571428</ele><time>2026-04-26T13:17:51Z</time></trkpt><trkpt lat="48.007981091042055" lon="-0.727287960410317"><ele>89.42857142857142</ele><time>2026-04-26T13:17:52Z</time></trkpt><trkpt lat="48.00791069993958" lon="-0.7272409148514407"><ele>89.57142857142857</ele><time>2026-04-26T13:17:53Z</time></trkpt><trkpt lat="48.00784061310844" lon="-0.7272262526727744"><ele>89.71428571428572</ele><time>2026-04-26T13:17:54Z</time></trkpt><trkpt lat="48.007772545171925" lon="-0.7271998616036995"><ele>89.85714285714285</ele><time>2026-04-26T13:17:55Z</time></trkpt><trkpt lat="48.00770535360465" lon="-0.7271785284413966"><ele>90.0</ele><time>2026-04-26T13:17:56Z</time></trkpt><trkpt lat="48.007636435233685" lon="-0.7271534621294186"><ele>90.0</ele><time>2026-04-26T13:17:57Z</time></trkpt><trkpt lat="48.00757163852" lon="-0.7271251460617804"><ele>90.0</ele><time>2026-04-26T13:17:58Z</time></trkpt><trkpt lat="48.00750629780173" lon="-0.7271084784299775"><ele>90.0</ele><time>2026-04-26T13:17:59Z</time></trkpt><trkpt lat="48.00737792102224" lon="-0.7270510969002604"><ele>90.0</ele><time>2026-04-26T13:18:01Z</time></trkpt><trkpt lat="48.007308178077" lon="-0.7270218406952899"><ele>90.0</ele><time>2026-04-26T13:18:02Z</time></trkpt><trkpt lat="48.007239990959505" lon="-0.7269900983823169"><ele>90.0</ele><time>2026-04-26T13:18:03Z</time></trkpt><trkpt lat="48.00717300976302" lon="-0.7269641360087536"><ele>89.85714285714285</ele><time>2026-04-26T13:18:04Z</time></trkpt><trkpt lat="48.007103591421696" lon="-0.72692759748242"><ele>89.71428571428572</ele><time>2026-04-26T13:18:05Z</time></trkpt><trkpt lat="48.00702894868364" lon="-0.7268997793157627"><ele>89.57142857142857</ele><time>2026-04-26T13:18:06Z</time></trkpt><trkpt lat="48.006957030413496" lon="-0.7268704759812977"><ele>89.42857142857142</ele><time>2026-04-26T13:18:07Z</time></trkpt><trkpt lat="48.00688640115434" lon="-0.7268395966997898"><ele>89.28571428571428</ele><time>2026-04-26T13:18:08Z</time></trkpt><trkpt lat="48.00681970161376" lon="-0.7268009009252776"><ele>89.14285714285714</ele><time>2026-04-26T13:18:09Z</time></trkpt><trkpt lat="48.006749494222724" lon="-0.726773856174033"><ele>89.0</ele><time>2026-04-26T13:18:10Z</time></trkpt><trkpt lat="48.00668326649116" lon="-0.7267442299767031"><ele>87.99999999999999</ele><time>2026-04-26T13:18:11Z</time></trkpt><trkpt lat="48.006613835321886" lon="-0.7267225882715515"><ele>87.0</ele><time>2026-04-26T13:18:12Z</time></trkpt><trkpt lat="48.006545687319026" lon="-0.7266925039444486"><ele>86.0</ele><time>2026-04-26T13:18:13Z</time></trkpt><trkpt lat="48.00647595177928" lon="-0.7266574078787817"><ele>85.0</ele><time>2026-04-26T13:18:14Z</time></trkpt><trkpt lat="48.00640292401113" lon="-0.7266284410172946"><ele>84.0</ele><time>2026-04-26T13:18:15Z</time></trkpt><trkpt lat="48.0063304331516" lon="-0.7266017684087712"><ele>82.99999999999999</ele><time>2026-04-26T13:18:16Z</time></trkpt><trkpt lat="48.00625824230652" lon="-0.7265655361997715"><ele>82.0</ele><time>2026-04-26T13:18:17Z</time></trkpt><trkpt lat="48.00618885815218" lon="-0.7265350530150302"><ele>82.0</ele><time>2026-04-26T13:18:18Z</time></trkpt><trkpt lat="48.006108924448974" lon="-0.7265030786850936"><ele>82.0</ele><time>2026-04-26T13:18:19Z</time></trkpt><trkpt lat="48.0060331391615" lon="-0.7264704894138649"><ele>82.0</ele><time>2026-04-26T13:18:20Z</time></trkpt><trkpt lat="48.0059572084852" lon="-0.7264338770979059"><ele>82.0</ele><time>2026-04-26T13:18:21Z</time></trkpt><trkpt lat="48.005875604087045" lon="-0.7264028708825815"><ele>82.0</ele><time>2026-04-26T13:18:22Z</time></trkpt><trkpt lat="48.005792270438356" lon="-0.7263671529439597"><ele>82.0</ele><time>2026-04-26T13:18:23Z</time></trkpt><trkpt lat="48.00570814248641" lon="-0.7263205390816709"><ele>81.39999999999999</ele><time>2026-04-26T13:18:24Z</time></trkpt><trkpt lat="48.00561771721549" lon="-0.7262803686441002"><ele>80.8</ele><time>2026-04-26T13:18:25Z</time></trkpt><trkpt lat="48.00552309866238" lon="-0.7262573995595617"><ele>80.2</ele><time>2026-04-26T13:18:26Z</time></trkpt><trkpt lat="48.00542796868632" lon="-0.726215823967153"><ele>79.6</ele><time>2026-04-26T13:18:27Z</time></trkpt><trkpt lat="48.005328877887926" lon="-0.7261727123874958"><ele>79.0</ele><time>2026-04-26T13:18:28Z</time></trkpt><trkpt lat="48.005225308504514" lon="-0.7261294041819045"><ele>79.0</ele><time>2026-04-26T13:18:29Z</time></trkpt><trkpt lat="48.00511936239264" lon="-0.7260851021405929"><ele>79.0</ele><time>2026-04-26T13:18:30Z</time></trkpt><trkpt lat="48.005012467104635" lon="-0.7260404031705016"><ele>79.0</ele><time>2026-04-26T13:18:31Z</time></trkpt><trkpt lat="48.004909614528714" lon="-0.7259973946835826"><ele>79.0</ele><time>2026-04-26T13:18:32Z</time></trkpt><trkpt lat="48.00479901399059" lon="-0.7259502516511761"><ele>79.0</ele><time>2026-04-26T13:18:33Z</time></trkpt><trkpt lat="48.00469041150606" lon="-0.7259022022655204"><ele>77.0</ele><time>2026-04-26T13:18:34Z</time></trkpt><trkpt lat="48.004582554440105" lon="-0.7258349425079268"><ele>75.0</ele><time>2026-04-26T13:18:35Z</time></trkpt><trkpt lat="48.00446643114438" lon="-0.7258153921069902"><ele>73.0</ele><time>2026-04-26T13:18:36Z</time></trkpt><trkpt lat="48.004355147912634" lon="-0.7257846185045009"><ele>71.0</ele><time>2026-04-26T13:18:37Z</time></trkpt><trkpt lat="48.00425379507005" lon="-0.7257550513479306"><ele>71.0</ele><time>2026-04-26T13:18:38Z</time></trkpt><trkpt lat="48.00417424808366" lon="-0.725719197439286"><ele>71.0</ele><time>2026-04-26T13:18:39Z</time></trkpt><trkpt lat="48.00409795171805" lon="-0.7256860399660681"><ele>71.0</ele><time>2026-04-26T13:18:40Z</time></trkpt><trkpt lat="48.004035319185725" lon="-0.7256749348840101"><ele>71.0</ele><time>2026-04-26T13:18:41Z</time></trkpt><trkpt lat="48.003975782193876" lon="-0.7257611479665704"><ele>71.0</ele><time>2026-04-26T13:18:43Z</time></trkpt><trkpt lat="48.00393862714094" lon="-0.7258432649535539"><ele>71.0</ele><time>2026-04-26T13:18:44Z</time></trkpt><trkpt lat="48.00387668661557" lon="-0.7259932082034897"><ele>70.5</ele><time>2026-04-26T13:18:46Z</time></trkpt><trkpt lat="48.00383038315332" lon="-0.726059828595187"><ele>70.0</ele><time>2026-04-26T13:18:47Z</time></trkpt><trkpt lat="48.003811591800414" lon="-0.7261525194085052"><ele>69.5</ele><time>2026-04-26T13:18:48Z</time></trkpt><trkpt lat="48.00374489596956" lon="-0.7263122278573136"><ele>69.0</ele><time>2026-04-26T13:18:50Z</time></trkpt><trkpt lat="48.00369430827554" lon="-0.7263865234304892"><ele>68.5</ele><time>2026-04-26T13:18:51Z</time></trkpt><trkpt lat="48.0036609528772" lon="-0.7264789838810085"><ele>68.0</ele><time>2026-04-26T13:18:52Z</time></trkpt><trkpt lat="48.00363362243197" lon="-0.7265783628124168"><ele>68.0</ele><time>2026-04-26T13:18:53Z</time></trkpt><trkpt lat="48.003596828572995" lon="-0.7266634829926979"><ele>68.0</ele><time>2026-04-26T13:18:54Z</time></trkpt><trkpt lat="48.00356080677301" lon="-0.726744634488615"><ele>68.0</ele><time>2026-04-26T13:18:55Z</time></trkpt><trkpt lat="48.003524685289946" lon="-0.726823008811569"><ele>68.0</ele><time>2026-04-26T13:18:56Z</time></trkpt><trkpt lat="48.003485928227136" lon="-0.7268979505819638"><ele>68.0</ele><time>2026-04-26T13:18:57Z</time></trkpt><trkpt lat="48.00338468310891" lon="-0.7270371593192709"><ele>68.0</ele><time>2026-04-26T13:18:59Z</time></trkpt><trkpt lat="48.00330138413122" lon="-0.7270739242295495"><ele>68.2</ele><time>2026-04-26T13:19:00Z</time></trkpt><trkpt lat="48.003220047755114" lon="-0.7271108074054071"><ele>68.4</ele><time>2026-04-26T13:19:01Z</time></trkpt><trkpt lat="48.003135705748676" lon="-0.7271539960272633"><ele>68.60000000000001</ele><time>2026-04-26T13:19:02Z</time></trkpt><trkpt lat="48.003049162247194" lon="-0.7272024963186418"><ele>68.8</ele><time>2026-04-26T13:19:03Z</time></trkpt><trkpt lat="48.00295134924116" lon="-0.7272594547225284"><ele>69.0</ele><time>2026-04-26T13:19:04Z</time></trkpt><trkpt lat="48.00285932925501" lon="-0.7273147542467844"><ele>69.0</ele><time>2026-04-26T13:19:05Z</time></trkpt><trkpt lat="48.002771673896504" lon="-0.7273674309339151"><ele>69.0</ele><time>2026-04-26T13:19:06.001Z</time></trkpt><trkpt lat="48.00268613325723" lon="-0.7274188367387737"><ele>69.0</ele><time>2026-04-26T13:19:07.001Z</time></trkpt><trkpt lat="48.00259851990889" lon="-0.7274704360011289"><ele>69.0</ele><time>2026-04-26T13:19:08.001Z</time></trkpt><trkpt lat="48.002514613287474" lon="-0.7275183350887713"><ele>69.0</ele><time>2026-04-26T13:19:09.001Z</time></trkpt><trkpt lat="48.002430175869655" lon="-0.7275665371802347"><ele>68.4</ele><time>2026-04-26T13:19:10.001Z</time></trkpt><trkpt lat="48.00234586296087" lon="-0.7276141864089333"><ele>67.80000000000001</ele><time>2026-04-26T13:19:11.001Z</time></trkpt><trkpt lat="48.002259302330394" lon="-0.727645156736966"><ele>67.19999999999999</ele><time>2026-04-26T13:19:12.001Z</time></trkpt><trkpt lat="48.002160599651106" lon="-0.727645392374005"><ele>66.6</ele><time>2026-04-26T13:19:13.001Z</time></trkpt><trkpt lat="48.00207147485322" lon="-0.7275621883093516"><ele>66.0</ele><time>2026-04-26T13:19:14.001Z</time></trkpt><trkpt lat="48.00199731668408" lon="-0.7274713650672744"><ele>66.0</ele><time>2026-04-26T13:19:15.001Z</time></trkpt><trkpt lat="48.00194604411031" lon="-0.7273591349938328"><ele>66.0</ele><time>2026-04-26T13:19:16.001Z</time></trkpt><trkpt lat="48.00190071649643" lon="-0.7272808295927149"><ele>66.0</ele><time>2026-04-26T13:19:17.001Z</time></trkpt><trkpt lat="48.001837881687166" lon="-0.7271717119873623"><ele>66.0</ele><time>2026-04-26T13:19:22.001Z</time></trkpt><trkpt lat="48.00182454187562" lon="-0.7272984266970891"><ele>66.0</ele><time>2026-04-26T13:21:09Z</time></trkpt><trkpt lat="48.00177057205054" lon="-0.7273508513609116"><ele>66.0</ele><time>2026-04-26T13:22:37Z</time></trkpt></trkseg><trkseg><trkpt lat="48.00151594932387" lon="-0.7270872376369347"><ele>66.0</ele><time>2026-04-26T13:53:27.999Z</time></trkpt><trkpt lat="48.001456899492844" lon="-0.7269816271471555"><ele>66.0</ele><time>2026-04-26T13:53:30.999Z</time></trkpt><trkpt lat="48.001422370443805" lon="-0.7268758062285083"><ele>66.0</ele><time>2026-04-26T13:53:32.999Z</time></trkpt><trkpt lat="48.001384758236" lon="-0.7267499340967736"><ele>66.0</ele><time>2026-04-26T13:53:34.999Z</time></trkpt><trkpt lat="48.00133670313147" lon="-0.7266140305074291"><ele>66.0</ele><time>2026-04-26T13:53:36.999Z</time></trkpt><trkpt lat="48.00125741505484" lon="-0.7265040744990959"><ele>65.39999999999999</ele><time>2026-04-26T13:53:38.999Z</time></trkpt><trkpt lat="48.00116528198521" lon="-0.7264415244900345"><ele>64.8</ele><time>2026-04-26T13:53:40.999Z</time></trkpt><trkpt lat="48.00112114378236" lon="-0.7262892243992942"><ele>64.19999999999999</ele><time>2026-04-26T13:53:42.999Z</time></trkpt><trkpt lat="48.00107299235876" lon="-0.7261349770034856"><ele>63.599999999999994</ele><time>2026-04-26T13:53:44.999Z</time></trkpt><trkpt lat="48.00102855059623" lon="-0.7259638941391346"><ele>63.0</ele><time>2026-04-26T13:53:46.999Z</time></trkpt><trkpt lat="48.00100445150062" lon="-0.7258735405168467"><ele>62.85714285714286</ele><time>2026-04-26T13:53:47.999Z</time></trkpt><trkpt lat="48.00098011861684" lon="-0.7257821369138531"><ele>62.714285714285715</ele><time>2026-04-26T13:53:48.999Z</time></trkpt><trkpt lat="48.00095049917614" lon="-0.7256878389956563"><ele>62.57142857142857</ele><time>2026-04-26T13:53:49.999Z</time></trkpt><trkpt lat="48.00091690989445" lon="-0.7255987011606548"><ele>62.42857142857143</ele><time>2026-04-26T13:53:50.999Z</time></trkpt><trkpt lat="48.00088007885384" lon="-0.7255106560825443"><ele>62.28571428571429</ele><time>2026-04-26T13:53:51.999Z</time></trkpt><trkpt lat="48.000835541299296" lon="-0.7254223808601866"><ele>62.142857142857146</ele><time>2026-04-26T13:53:52.999Z</time></trkpt><trkpt lat="48.00079242982936" lon="-0.7253326908019001"><ele>62.0</ele><time>2026-04-26T13:53:53.999Z</time></trkpt><trkpt lat="48.00074954305079" lon="-0.7252447425869749"><ele>61.333333333333336</ele><time>2026-04-26T13:53:54.999Z</time></trkpt><trkpt lat="48.00070318200871" lon="-0.7251600230066984"><ele>60.66666666666667</ele><time>2026-04-26T13:53:55.999Z</time></trkpt><trkpt lat="48.00065560978497" lon="-0.725070894549263"><ele>60.0</ele><time>2026-04-26T13:53:56.999Z</time></trkpt><trkpt lat="48.0006140334553" lon="-0.7249758097825394"><ele>59.33333333333333</ele><time>2026-04-26T13:53:57.999Z</time></trkpt><trkpt lat="48.00057355752629" lon="-0.7248755700370977"><ele>58.666666666666664</ele><time>2026-04-26T13:53:58.999Z</time></trkpt><trkpt lat="48.00052833704715" lon="-0.7247754927759922"><ele>58.0</ele><time>2026-04-26T13:53:59.999Z</time></trkpt><trkpt lat="48.00048415218609" lon="-0.7246779515151343"><ele>57.99999999999999</ele><time>2026-04-26T13:54:00.999Z</time></trkpt><trkpt lat="48.00043924127273" lon="-0.7245738819745193"><ele>58.0</ele><time>2026-04-26T13:54:01.999Z</time></trkpt><trkpt lat="48.000405308547506" lon="-0.724466689092146"><ele>58.0</ele><time>2026-04-26T13:54:02.999Z</time></trkpt><trkpt lat="48.00037138967449" lon="-0.724355042564154"><ele>58.0</ele><time>2026-04-26T13:54:03.999Z</time></trkpt><trkpt lat="48.00035605560924" lon="-0.7242383214789854"><ele>57.99999999999999</ele><time>2026-04-26T13:54:04.998Z</time></trkpt><trkpt lat="48.00034645974086" lon="-0.724125799880181"><ele>58.0</ele><time>2026-04-26T13:54:05.998Z</time></trkpt><trkpt lat="48.00033131836421" lon="-0.7240058329422152"><ele>56.99999999999999</ele><time>2026-04-26T13:54:06.998Z</time></trkpt><trkpt lat="48.000313209762346" lon="-0.7238976216227534"><ele>56.0</ele><time>2026-04-26T13:54:07.998Z</time></trkpt><trkpt lat="48.000287788545" lon="-0.7237924506240679"><ele>55.0</ele><time>2026-04-26T13:54:08.998Z</time></trkpt><trkpt lat="48.00025448458685" lon="-0.7236874474791956"><ele>54.0</ele><time>2026-04-26T13:54:09.998Z</time></trkpt><trkpt lat="48.000214009949474" lon="-0.7235868067409251"><ele>52.99999999999999</ele><time>2026-04-26T13:54:10.998Z</time></trkpt><trkpt lat="48.00015454476063" lon="-0.723511115825857"><ele>52.0</ele><time>2026-04-26T13:54:11.998Z</time></trkpt><trkpt lat="48.00008469994361" lon="-0.7234471036075177"><ele>51.666666666666664</ele><time>2026-04-26T13:54:12.998Z</time></trkpt><trkpt lat="48.00000823952799" lon="-0.7233952086758271"><ele>51.33333333333333</ele><time>2026-04-26T13:54:13.998Z</time></trkpt><trkpt lat="47.9999260819763" lon="-0.7233510644288126"><ele>51.0</ele><time>2026-04-26T13:54:14.998Z</time></trkpt><trkpt lat="47.99984601818754" lon="-0.7233062136706668"><ele>50.66666666666667</ele><time>2026-04-26T13:54:15.998Z</time></trkpt><trkpt lat="47.99976636246331" lon="-0.7232549100920316"><ele>50.333333333333336</ele><time>2026-04-26T13:54:16.998Z</time></trkpt><trkpt lat="47.99968718292399" lon="-0.7232077451927"><ele>50.0</ele><time>2026-04-26T13:54:17.998Z</time></trkpt><trkpt lat="47.99960652377428" lon="-0.7231616185667482"><ele>50.00000000000001</ele><time>2026-04-26T13:54:18.998Z</time></trkpt><trkpt lat="47.99952599890798" lon="-0.723114210349636"><ele>50.0</ele><time>2026-04-26T13:54:19.998Z</time></trkpt><trkpt lat="47.99944593668126" lon="-0.7230607558366813"><ele>50.0</ele><time>2026-04-26T13:54:20.999Z</time></trkpt><trkpt lat="47.99936726581219" lon="-0.7230072860706787"><ele>50.0</ele><time>2026-04-26T13:54:21.999Z</time></trkpt><trkpt lat="47.999290978231244" lon="-0.7229555862023945"><ele>50.00000000000001</ele><time>2026-04-26T13:54:22.999Z</time></trkpt><trkpt lat="47.99921670967729" lon="-0.722902344041748"><ele>50.0</ele><time>2026-04-26T13:54:23.999Z</time></trkpt><trkpt lat="47.99914065681593" lon="-0.7228524418109615"><ele>49.833333333333336</ele><time>2026-04-26T13:54:24.999Z</time></trkpt><trkpt lat="47.99906359308062" lon="-0.7228114471890338"><ele>49.66666666666667</ele><time>2026-04-26T13:54:25.999Z</time></trkpt><trkpt lat="47.99899255826067" lon="-0.7227632880519951"><ele>49.5</ele><time>2026-04-26T13:54:26.999Z</time></trkpt><trkpt lat="47.998923978636945" lon="-0.722706940535447"><ele>49.33333333333333</ele><time>2026-04-26T13:54:27.999Z</time></trkpt><trkpt lat="47.99885785967986" lon="-0.7226515809455384"><ele>49.166666666666664</ele><time>2026-04-26T13:54:28.999Z</time></trkpt><trkpt lat="47.99878975405035" lon="-0.7226098561009504"><ele>49.0</ele><time>2026-04-26T13:54:29.999Z</time></trkpt><trkpt lat="47.99869473802252" lon="-0.7225421036701957"><ele>48.666666666666664</ele><time>2026-04-26T13:54:31.999Z</time></trkpt><trkpt lat="47.99862501662395" lon="-0.7224947716736582"><ele>48.33333333333333</ele><time>2026-04-26T13:54:33.999Z</time></trkpt><trkpt lat="47.99856036278071" lon="-0.7224529038871599"><ele>48.0</ele><time>2026-04-26T13:54:36.999Z</time></trkpt><trkpt lat="47.9986332303853" lon="-0.7224937690271563"><ele>47.666666666666664</ele><time>2026-04-26T13:54:40.999Z</time></trkpt><trkpt lat="47.998708053951695" lon="-0.7225465607521748"><ele>47.33333333333333</ele><time>2026-04-26T13:54:42.999Z</time></trkpt><trkpt lat="47.99877546491296" lon="-0.7225952078983435"><ele>47.0</ele><time>2026-04-26T13:54:44.999Z</time></trkpt><trkpt lat="47.99884989206009" lon="-0.7226517627837381"><ele>47.0</ele><time>2026-04-26T13:54:46.999Z</time></trkpt><trkpt lat="47.99892972376026" lon="-0.7227108863583672"><ele>47.0</ele><time>2026-04-26T13:54:48.999Z</time></trkpt><trkpt lat="47.999011587616046" lon="-0.7227693602653565"><ele>47.0</ele><time>2026-04-26T13:54:50.999Z</time></trkpt><trkpt lat="47.99909502772357" lon="-0.7228172401485072"><ele>47.0</ele><time>2026-04-26T13:54:52.999Z</time></trkpt><trkpt lat="47.9991761844567" lon="-0.7228705432678274"><ele>47.0</ele><time>2026-04-26T13:54:54.999Z</time></trkpt><trkpt lat="47.999255818296476" lon="-0.7229228450945863"><ele>47.0</ele><time>2026-04-26T13:54:56.999Z</time></trkpt><trkpt lat="47.99932960030587" lon="-0.7229785981254098"><ele>47.5</ele><time>2026-04-26T13:54:58.999Z</time></trkpt><trkpt lat="47.999406440219715" lon="-0.7230324199481072"><ele>48.0</ele><time>2026-04-26T13:55:00.999Z</time></trkpt><trkpt lat="47.99948440222755" lon="-0.7230796115476411"><ele>48.5</ele><time>2026-04-26T13:55:02.999Z</time></trkpt><trkpt lat="47.99956074434195" lon="-0.7231267998249965"><ele>49.0</ele><time>2026-04-26T13:55:04.999Z</time></trkpt><trkpt lat="47.999632808418" lon="-0.7231725155632874"><ele>49.50000000000001</ele><time>2026-04-26T13:55:06.999Z</time></trkpt><trkpt lat="47.999705793653774" lon="-0.7232188159649148"><ele>50.0</ele><time>2026-04-26T13:55:08.999Z</time></trkpt><trkpt lat="47.999773493097145" lon="-0.7232592828150246"><ele>50.00000000000001</ele><time>2026-04-26T13:55:10.999Z</time></trkpt><trkpt lat="47.99983943492869" lon="-0.7232998513184351"><ele>50.0</ele><time>2026-04-26T13:55:12.999Z</time></trkpt><trkpt lat="47.99990539163036" lon="-0.7233380241215407"><ele>50.0</ele><time>2026-04-26T13:55:14.999Z</time></trkpt><trkpt lat="47.99996856529068" lon="-0.7233751781360817"><ele>50.0</ele><time>2026-04-26T13:55:16.999Z</time></trkpt><trkpt lat="48.00002897321526" lon="-0.723410705898566"><ele>50.00000000000001</ele><time>2026-04-26T13:55:18.999Z</time></trkpt><trkpt lat="48.00011572550883" lon="-0.7234684147733834"><ele>50.0</ele><time>2026-04-26T13:55:21.999Z</time></trkpt><trkpt lat="48.000186084575816" lon="-0.7235506348207652"><ele>50.333333333333336</ele><time>2026-04-26T13:55:24.999Z</time></trkpt><trkpt lat="48.00025399515601" lon="-0.7236398574871458"><ele>50.66666666666667</ele><time>2026-04-26T13:55:27.999Z</time></trkpt><trkpt lat="48.000318012501346" lon="-0.7237344262779195"><ele>51.0</ele><time>2026-04-26T13:55:30.999Z</time></trkpt><trkpt lat="48.000340792570235" lon="-0.7238229402442536"><ele>51.33333333333333</ele><time>2026-04-26T13:55:32.999Z</time></trkpt><trkpt lat="48.00035910177532" lon="-0.7239143436993835"><ele>51.666666666666664</ele><time>2026-04-26T13:55:34.999Z</time></trkpt><trkpt lat="48.000378002517834" lon="-0.7240457010693314"><ele>52.0</ele><time>2026-04-26T13:55:37.999Z</time></trkpt><trkpt lat="48.00039045592885" lon="-0.7241808655655095"><ele>51.99999999999999</ele><time>2026-04-26T13:55:40.999Z</time></trkpt><trkpt lat="48.000401344065494" lon="-0.7243128869573254"><ele>52.0</ele><time>2026-04-26T13:55:43.999Z</time></trkpt><trkpt lat="48.000423152053486" lon="-0.7244327171497721"><ele>52.0</ele><time>2026-04-26T13:55:46.999Z</time></trkpt><trkpt lat="48.00046465429823" lon="-0.7245425824631292"><ele>52.0</ele><time>2026-04-26T13:55:49.999Z</time></trkpt><trkpt lat="48.00050723186355" lon="-0.7246492017230206"><ele>51.99999999999999</ele><time>2026-04-26T13:55:52.999Z</time></trkpt><trkpt lat="48.00054889109335" lon="-0.7247492964173655"><ele>52.0</ele><time>2026-04-26T13:55:55.999Z</time></trkpt><trkpt lat="48.00059512620867" lon="-0.7248514220462879"><ele>52.99999999999999</ele><time>2026-04-26T13:55:58.998Z</time></trkpt><trkpt lat="48.00064970309553" lon="-0.724952576553496"><ele>54.0</ele><time>2026-04-26T13:56:01.998Z</time></trkpt><trkpt lat="48.000700471831884" lon="-0.7250545644975404"><ele>55.0</ele><time>2026-04-26T13:56:04.998Z</time></trkpt><trkpt lat="48.00074735645502" lon="-0.7251525397322595"><ele>56.0</ele><time>2026-04-26T13:56:07.998Z</time></trkpt><trkpt lat="48.0007969228905" lon="-0.7252478153922692"><ele>56.99999999999999</ele><time>2026-04-26T13:56:10.997Z</time></trkpt><trkpt lat="48.00084179561279" lon="-0.7253406410996687"><ele>58.0</ele><time>2026-04-26T13:56:13.997Z</time></trkpt><trkpt lat="48.00088324133449" lon="-0.7254355092739556"><ele>58.571428571428584</ele><time>2026-04-26T13:56:16.997Z</time></trkpt><trkpt lat="48.00092205209012" lon="-0.7255163420939165"><ele>59.142857142857146</ele><time>2026-04-26T13:56:19.998Z</time></trkpt><trkpt lat="48.0009598400029" lon="-0.7256048053576319"><ele>59.71428571428572</ele><time>2026-04-26T13:56:22.998Z</time></trkpt><trkpt lat="48.0009928545257" lon="-0.7257015775601257"><ele>60.28571428571429</ele><time>2026-04-26T13:56:25.998Z</time></trkpt><trkpt lat="48.001026431166395" lon="-0.7257926422758536"><ele>60.85714285714286</ele><time>2026-04-26T13:56:28.998Z</time></trkpt><trkpt lat="48.00105229412043" lon="-0.7258841538680906"><ele>61.42857142857143</ele><time>2026-04-26T13:56:31.998Z</time></trkpt><trkpt lat="48.00107896515837" lon="-0.7259749957064715"><ele>62.0</ele><time>2026-04-26T13:56:34.998Z</time></trkpt><trkpt lat="48.00110529513777" lon="-0.7260824643557272"><ele>62.0</ele><time>2026-04-26T13:56:37.998Z</time></trkpt><trkpt lat="48.001139194289" lon="-0.7261898849215932"><ele>62.00000000000001</ele><time>2026-04-26T13:56:40.998Z</time></trkpt><trkpt lat="48.00117692487593" lon="-0.7262826658535169"><ele>62.0</ele><time>2026-04-26T13:56:43.998Z</time></trkpt><trkpt lat="48.00124894053826" lon="-0.7262300897311342"><ele>62.0</ele><time>2026-04-26T13:56:46.999Z</time></trkpt><trkpt lat="48.00129022340384" lon="-0.7261573527896076"><ele>62.00000000000001</ele><time>2026-04-26T13:56:48.999Z</time></trkpt><trkpt lat="48.00133592611679" lon="-0.7260857604487904"><ele>62.0</ele><time>2026-04-26T13:56:50.999Z</time></trkpt><trkpt lat="48.00137774404603" lon="-0.726007659187628"><ele>62.0</ele><time>2026-04-26T13:56:52.999Z</time></trkpt><trkpt lat="48.001418277563964" lon="-0.7259312932638231"><ele>62.0</ele><time>2026-04-26T13:56:54.999Z</time></trkpt><trkpt lat="48.001455377870414" lon="-0.7258508772121836"><ele>62.00000000000001</ele><time>2026-04-26T13:56:56.999Z</time></trkpt><trkpt lat="48.00149466784786" lon="-0.7257668403703993"><ele>62.0</ele><time>2026-04-26T13:56:58.999Z</time></trkpt><trkpt lat="48.00153535830447" lon="-0.7256834117171843"><ele>62.0</ele><time>2026-04-26T13:57:00.999Z</time></trkpt><trkpt lat="48.00157634731931" lon="-0.725599362455935"><ele>62.00000000000001</ele><time>2026-04-26T13:57:02.999Z</time></trkpt><trkpt lat="48.0016381041704" lon="-0.7255455983456274"><ele>62.0</ele><time>2026-04-26T13:57:04.999Z</time></trkpt><trkpt lat="48.00171134875901" lon="-0.7255392558759834"><ele>62.0</ele><time>2026-04-26T13:57:06.999Z</time></trkpt><trkpt lat="48.00178662013678" lon="-0.7255390104874058"><ele>62.0</ele><time>2026-04-26T13:57:08.999Z</time></trkpt><trkpt lat="48.00186197045659" lon="-0.7255049261675536"><ele>62.0</ele><time>2026-04-26T13:57:10.999Z</time></trkpt><trkpt lat="48.00191407704946" lon="-0.7253906767806091"><ele>62.0</ele><time>2026-04-26T13:57:12.999Z</time></trkpt><trkpt lat="48.0018963742374" lon="-0.725224717798732"><ele>62.0</ele><time>2026-04-26T13:57:14.999Z</time></trkpt><trkpt lat="48.00184813369453" lon="-0.7250574363773619"><ele>62.0</ele><time>2026-04-26T13:57:16.999Z</time></trkpt><trkpt lat="48.001825902220716" lon="-0.7249616951362019"><ele>61.6</ele><time>2026-04-26T13:57:17.999Z</time></trkpt><trkpt lat="48.00179741242174" lon="-0.7248682390398123"><ele>61.2</ele><time>2026-04-26T13:57:18.999Z</time></trkpt><trkpt lat="48.00176975306842" lon="-0.7247689915456802"><ele>60.8</ele><time>2026-04-26T13:57:19.999Z</time></trkpt><trkpt lat="48.00173520103004" lon="-0.7246658660037176"><ele>60.4</ele><time>2026-04-26T13:57:20.999Z</time></trkpt><trkpt lat="48.00168726672517" lon="-0.7245715775232022"><ele>60.0</ele><time>2026-04-26T13:57:21.999Z</time></trkpt><trkpt lat="48.00173508876195" lon="-0.7243315060391701"><ele>59.8</ele><time>2026-04-26T13:57:22.999Z</time></trkpt><trkpt lat="48.00165998008143" lon="-0.7242340298043013"><ele>59.6</ele><time>2026-04-26T13:57:23.999Z</time></trkpt><trkpt lat="48.00158176480985" lon="-0.7241467057195937"><ele>59.400000000000006</ele><time>2026-04-26T13:57:24.999Z</time></trkpt><trkpt lat="48.00150417277608" lon="-0.7240706573857691"><ele>59.2</ele><time>2026-04-26T13:57:25.999Z</time></trkpt><trkpt lat="48.001418531716666" lon="-0.7240012274415104"><ele>59.0</ele><time>2026-04-26T13:57:26.999Z</time></trkpt><trkpt lat="48.00132642747142" lon="-0.7239383393713629"><ele>59.0</ele><time>2026-04-26T13:57:27.999Z</time></trkpt><trkpt lat="48.00124102654471" lon="-0.7238853338062403"><ele>59.00000000000001</ele><time>2026-04-26T13:57:28.999Z</time></trkpt><trkpt lat="48.00112830691879" lon="-0.7238005122822871"><ele>59.00000000000001</ele><time>2026-04-26T13:57:30.999Z</time></trkpt><trkpt lat="48.00104900488404" lon="-0.7237240485361619"><ele>59.0</ele><time>2026-04-26T13:57:31.999Z</time></trkpt><trkpt lat="48.00093437742722" lon="-0.7236600742091952"><ele>59.0</ele><time>2026-04-26T13:57:33.999Z</time></trkpt><trkpt lat="48.0008485054311" lon="-0.7236244232380223"><ele>58.00000000000001</ele><time>2026-04-26T13:57:35.999Z</time></trkpt><trkpt lat="48.00076881881258" lon="-0.7235699927880713"><ele>57.0</ele><time>2026-04-26T13:57:37.999Z</time></trkpt><trkpt lat="48.000791663900536" lon="-0.7234441373069938"><ele>56.0</ele><time>2026-04-26T13:57:44.999Z</time></trkpt><trkpt lat="48.00080782840932" lon="-0.7233459744342974"><ele>55.0</ele><time>2026-04-26T13:57:45.999Z</time></trkpt><trkpt lat="48.0008229750776" lon="-0.7232528129082605"><ele>54.00000000000001</ele><time>2026-04-26T13:57:46.999Z</time></trkpt><trkpt lat="48.00083695165998" lon="-0.7231540832240448"><ele>53.0</ele><time>2026-04-26T13:57:47.999Z</time></trkpt><trkpt lat="48.000775123044576" lon="-0.7230279484166207"><ele>52.4</ele><time>2026-04-26T13:57:51.999Z</time></trkpt><trkpt lat="48.00069485208246" lon="-0.7229595514440321"><ele>51.8</ele><time>2026-04-26T13:57:53.999Z</time></trkpt><trkpt lat="48.00062762500059" lon="-0.7228748695450606"><ele>51.2</ele><time>2026-04-26T13:57:55.999Z</time></trkpt><trkpt lat="48.00054602910056" lon="-0.7228017420900512"><ele>50.6</ele><time>2026-04-26T13:57:57.999Z</time></trkpt><trkpt lat="48.000456975766305" lon="-0.722726368441581"><ele>50.0</ele><time>2026-04-26T13:57:59.999Z</time></trkpt><trkpt lat="48.00037464546161" lon="-0.7226515827309207"><ele>49.2</ele><time>2026-04-26T13:58:01.999Z</time></trkpt><trkpt lat="48.00031737783445" lon="-0.7225341377380069"><ele>48.4</ele><time>2026-04-26T13:58:03.999Z</time></trkpt><trkpt lat="48.00026945313898" lon="-0.7224006656788615"><ele>47.599999999999994</ele><time>2026-04-26T13:58:05.999Z</time></trkpt><trkpt lat="48.00020183429669" lon="-0.7222884566938698"><ele>46.8</ele><time>2026-04-26T13:58:07.999Z</time></trkpt><trkpt lat="48.000144479726266" lon="-0.7221674730894132"><ele>46.0</ele><time>2026-04-26T13:58:09.999Z</time></trkpt><trkpt lat="48.00007397072667" lon="-0.7220725167646878"><ele>46.0</ele><time>2026-04-26T13:58:11.999Z</time></trkpt><trkpt lat="48.000015412913676" lon="-0.7219665990056964"><ele>46.0</ele><time>2026-04-26T13:58:13.999Z</time></trkpt><trkpt lat="47.999956276397775" lon="-0.7218561326625859"><ele>46.0</ele><time>2026-04-26T13:58:15.999Z</time></trkpt><trkpt lat="47.99990094953949" lon="-0.7217355083984952"><ele>46.0</ele><time>2026-04-26T13:58:17.997Z</time></trkpt><trkpt lat="47.99984145045574" lon="-0.721613287754845"><ele>46.0</ele><time>2026-04-26T13:58:19.997Z</time></trkpt><trkpt lat="47.99979244501008" lon="-0.7214950257645331"><ele>45.833333333333336</ele><time>2026-04-26T13:58:21.997Z</time></trkpt><trkpt lat="47.9997458902212" lon="-0.7213823514359621"><ele>45.66666666666667</ele><time>2026-04-26T13:58:23.998Z</time></trkpt><trkpt lat="47.99970000106831" lon="-0.7212766306781881"><ele>45.5</ele><time>2026-04-26T13:58:25.998Z</time></trkpt><trkpt lat="47.9996459820526" lon="-0.7211802848801587"><ele>45.333333333333336</ele><time>2026-04-26T13:58:27.998Z</time></trkpt><trkpt lat="47.99959795804298" lon="-0.7210583552752093"><ele>45.166666666666664</ele><time>2026-04-26T13:58:29.998Z</time></trkpt><trkpt lat="47.9995555929775" lon="-0.7209280482630546"><ele>45.0</ele><time>2026-04-26T13:58:31.998Z</time></trkpt><trkpt lat="47.99951526671156" lon="-0.7207984573966308"><ele>45.0</ele><time>2026-04-26T13:58:33.998Z</time></trkpt><trkpt lat="47.999462936510504" lon="-0.7206817796560185"><ele>45.0</ele><time>2026-04-26T13:58:35.998Z</time></trkpt><trkpt lat="47.99941470211641" lon="-0.7205757519198209"><ele>45.0</ele><time>2026-04-26T13:58:37.998Z</time></trkpt><trkpt lat="47.99936648686749" lon="-0.7204679858681158"><ele>45.0</ele><time>2026-04-26T13:58:39.998Z</time></trkpt><trkpt lat="47.9993213753571" lon="-0.7203642550593597"><ele>45.0</ele><time>2026-04-26T13:58:41.998Z</time></trkpt><trkpt lat="47.999271328235196" lon="-0.7202516883913467"><ele>45.0</ele><time>2026-04-26T13:58:43.998Z</time></trkpt><trkpt lat="47.99922944861148" lon="-0.7201445780290503"><ele>45.166666666666664</ele><time>2026-04-26T13:58:45.998Z</time></trkpt><trkpt lat="47.999183517680564" lon="-0.7200392215344527"><ele>45.333333333333336</ele><time>2026-04-26T13:58:47.999Z</time></trkpt><trkpt lat="47.9991445675101" lon="-0.7199310115777766"><ele>45.5</ele><time>2026-04-26T13:58:49.999Z</time></trkpt><trkpt lat="47.999105882373016" lon="-0.7198247399907228"><ele>45.66666666666667</ele><time>2026-04-26T13:58:51.999Z</time></trkpt><trkpt lat="47.99907144574815" lon="-0.7197006036618006"><ele>45.833333333333336</ele><time>2026-04-26T13:58:53.999Z</time></trkpt><trkpt lat="47.99904326835744" lon="-0.71958307158097"><ele>46.0</ele><time>2026-04-26T13:58:55.999Z</time></trkpt><trkpt lat="47.99902216815893" lon="-0.7194611730452781"><ele>47.0</ele><time>2026-04-26T13:58:57.999Z</time></trkpt><trkpt lat="47.99899935314971" lon="-0.7193400205746998"><ele>48.0</ele><time>2026-04-26T13:58:59.999Z</time></trkpt><trkpt lat="47.9989814952406" lon="-0.7192165238480914"><ele>49.0</ele><time>2026-04-26T13:59:01.999Z</time></trkpt><trkpt lat="47.99896668570651" lon="-0.719091196046043"><ele>50.0</ele><time>2026-04-26T13:59:03.999Z</time></trkpt><trkpt lat="47.99896365068827" lon="-0.7189656873850673"><ele>50.99999999999999</ele><time>2026-04-26T13:59:05.999Z</time></trkpt><trkpt lat="47.998961891407205" lon="-0.7188333714213471"><ele>52.0</ele><time>2026-04-26T13:59:07.999Z</time></trkpt><trkpt lat="47.998965499546706" lon="-0.71870721603374"><ele>51.99999999999999</ele><time>2026-04-26T13:59:09.999Z</time></trkpt><trkpt lat="47.99896498446538" lon="-0.7185801965908634"><ele>52.0</ele><time>2026-04-26T13:59:11.999Z</time></trkpt><trkpt lat="47.99896939631515" lon="-0.7184499995480762"><ele>52.0</ele><time>2026-04-26T13:59:13.999Z</time></trkpt><trkpt lat="47.99896942975102" lon="-0.7183206416944152"><ele>52.0</ele><time>2026-04-26T13:59:15.999Z</time></trkpt><trkpt lat="47.99896821019165" lon="-0.7181900838345627"><ele>51.99999999999999</ele><time>2026-04-26T13:59:17.999Z</time></trkpt><trkpt lat="47.998975802956494" lon="-0.7180608056202867"><ele>52.0</ele><time>2026-04-26T13:59:19.999Z</time></trkpt><trkpt lat="47.99897940343165" lon="-0.7179408555577927"><ele>51.99999999999999</ele><time>2026-04-26T13:59:21.999Z</time></trkpt><trkpt lat="47.99898612052073" lon="-0.7178122826890491"><ele>52.0</ele><time>2026-04-26T13:59:23.999Z</time></trkpt><trkpt lat="47.99898330038378" lon="-0.717688161020253"><ele>52.0</ele><time>2026-04-26T13:59:25.999Z</time></trkpt><trkpt lat="47.99898335335585" lon="-0.7175620068800782"><ele>52.0</ele><time>2026-04-26T13:59:27.999Z</time></trkpt><trkpt lat="47.99898010953392" lon="-0.7174353178459743"><ele>51.99999999999999</ele><time>2026-04-26T13:59:29.999Z</time></trkpt><trkpt lat="47.998981915026945" lon="-0.7173032764716675"><ele>52.0</ele><time>2026-04-26T13:59:31.999Z</time></trkpt><trkpt lat="47.99897806906519" lon="-0.7171773649731362"><ele>51.99999999999999</ele><time>2026-04-26T13:59:33.999Z</time></trkpt><trkpt lat="47.99897966607053" lon="-0.7170544550002076"><ele>52.0</ele><time>2026-04-26T13:59:35.999Z</time></trkpt><trkpt lat="47.998982765645174" lon="-0.7169362765813353"><ele>52.0</ele><time>2026-04-26T13:59:37.999Z</time></trkpt><trkpt lat="47.998966587238016" lon="-0.7168175033381959"><ele>52.0</ele><time>2026-04-26T13:59:39.999Z</time></trkpt><trkpt lat="47.998931383861006" lon="-0.7167291136046554"><ele>51.99999999999999</ele><time>2026-04-26T13:59:41.999Z</time></trkpt><trkpt lat="47.998813651961484" lon="-0.7167106825724565"><ele>52.0</ele><time>2026-04-26T13:59:43.999Z</time></trkpt><trkpt lat="47.998725946974574" lon="-0.7166933091912927"><ele>52.49999999999999</ele><time>2026-04-26T13:59:45.999Z</time></trkpt><trkpt lat="47.99863915103364" lon="-0.7166699053481327"><ele>53.0</ele><time>2026-04-26T13:59:47.999Z</time></trkpt><trkpt lat="47.99854829585329" lon="-0.7166556667135808"><ele>53.5</ele><time>2026-04-26T13:59:49.999Z</time></trkpt><trkpt lat="47.998462783280374" lon="-0.7166412268656402"><ele>54.0</ele><time>2026-04-26T13:59:51.999Z</time></trkpt><trkpt lat="47.99837603178535" lon="-0.7166184337940099"><ele>54.49999999999999</ele><time>2026-04-26T13:59:53.999Z</time></trkpt><trkpt lat="47.99828860468681" lon="-0.716593978903601"><ele>55.0</ele><time>2026-04-26T13:59:55.999Z</time></trkpt><trkpt lat="47.99820637746305" lon="-0.7165670700342325"><ele>55.49999999999999</ele><time>2026-04-26T13:59:57.999Z</time></trkpt><trkpt lat="47.99811924786845" lon="-0.7165415987711438"><ele>56.0</ele><time>2026-04-26T13:59:59.999Z</time></trkpt><trkpt lat="47.998034931995434" lon="-0.7165196789651376"><ele>56.5</ele><time>2026-04-26T14:00:01.999Z</time></trkpt><trkpt lat="47.99795184760777" lon="-0.7164885855966455"><ele>57.0</ele><time>2026-04-26T14:00:03.999Z</time></trkpt><trkpt lat="47.99787244993268" lon="-0.716443644242782"><ele>57.49999999999999</ele><time>2026-04-26T14:00:05.999Z</time></trkpt><trkpt lat="47.99779630031116" lon="-0.7163976499321406"><ele>58.0</ele><time>2026-04-26T14:00:07.999Z</time></trkpt><trkpt lat="47.99772461119084" lon="-0.7163377674858167"><ele>57.99999999999999</ele><time>2026-04-26T14:00:09.999Z</time></trkpt><trkpt lat="47.99765151718594" lon="-0.7162956117301923"><ele>58.0</ele><time>2026-04-26T14:00:11.999Z</time></trkpt><trkpt lat="47.99758220560619" lon="-0.7162304005716885"><ele>58.0</ele><time>2026-04-26T14:00:13.999Z</time></trkpt><trkpt lat="47.99750613631783" lon="-0.7161737989079103"><ele>58.0</ele><time>2026-04-26T14:00:15.999Z</time></trkpt><trkpt lat="47.997432393399336" lon="-0.7161187478220097"><ele>57.99999999999999</ele><time>2026-04-26T14:00:17.999Z</time></trkpt><trkpt lat="47.99735780971164" lon="-0.7160607497899811"><ele>58.0</ele><time>2026-04-26T14:00:19.999Z</time></trkpt><trkpt lat="47.997285249293014" lon="-0.7160069278451191"><ele>58.33333333333333</ele><time>2026-04-26T14:00:21.999Z</time></trkpt><trkpt lat="47.99720675261043" lon="-0.7159463763023372"><ele>58.666666666666664</ele><time>2026-04-26T14:00:23.998Z</time></trkpt><trkpt lat="47.99713166512697" lon="-0.7158897238951709"><ele>59.0</ele><time>2026-04-26T14:00:25.998Z</time></trkpt><trkpt lat="47.99705855988699" lon="-0.7158323917912117"><ele>59.33333333333333</ele><time>2026-04-26T14:00:27.998Z</time></trkpt><trkpt lat="47.99697499235299" lon="-0.7157859818744491"><ele>59.666666666666664</ele><time>2026-04-26T14:00:29.998Z</time></trkpt><trkpt lat="47.99689940575142" lon="-0.7157427488604955"><ele>60.0</ele><time>2026-04-26T14:00:31.998Z</time></trkpt><trkpt lat="47.99681117719015" lon="-0.715707179216369"><ele>60.0</ele><time>2026-04-26T14:00:33.999Z</time></trkpt><trkpt lat="47.99672682130637" lon="-0.7156753614455876"><ele>60.0</ele><time>2026-04-26T14:00:35.999Z</time></trkpt><trkpt lat="47.99664261814783" lon="-0.71564159613642"><ele>60.0</ele><time>2026-04-26T14:00:37.999Z</time></trkpt><trkpt lat="47.996556743441516" lon="-0.715614954587204"><ele>60.0</ele><time>2026-04-26T14:00:39.999Z</time></trkpt><trkpt lat="47.996474360029026" lon="-0.7155792902967234"><ele>60.0</ele><time>2026-04-26T14:00:41.999Z</time></trkpt><trkpt lat="47.996393175765405" lon="-0.7155315003637028"><ele>60.0</ele><time>2026-04-26T14:00:43.999Z</time></trkpt><trkpt lat="47.9963090045542" lon="-0.7155084385378823"><ele>60.166666666666664</ele><time>2026-04-26T14:00:45.999Z</time></trkpt><trkpt lat="47.996225045998884" lon="-0.7154803827982034"><ele>60.33333333333333</ele><time>2026-04-26T14:00:47.999Z</time></trkpt><trkpt lat="47.996141794973504" lon="-0.715463284429545"><ele>60.5</ele><time>2026-04-26T14:00:49.999Z</time></trkpt><trkpt lat="47.99606005452452" lon="-0.7154427300326678"><ele>60.666666666666664</ele><time>2026-04-26T14:00:51.999Z</time></trkpt><trkpt lat="47.995977862732126" lon="-0.7154244016310025"><ele>60.83333333333333</ele><time>2026-04-26T14:00:53.999Z</time></trkpt><trkpt lat="47.995899518173246" lon="-0.7153990685214812"><ele>61.0</ele><time>2026-04-26T14:00:55.999Z</time></trkpt><trkpt lat="47.995817781710144" lon="-0.715365016190754"><ele>61.33333333333333</ele><time>2026-04-26T14:00:57.999Z</time></trkpt><trkpt lat="47.99574466152435" lon="-0.7153398286296059"><ele>61.666666666666664</ele><time>2026-04-26T14:00:59.999Z</time></trkpt><trkpt lat="47.99566741334411" lon="-0.7153094192296732"><ele>62.0</ele><time>2026-04-26T14:01:01.999Z</time></trkpt><trkpt lat="47.995590937953246" lon="-0.7152849637692217"><ele>62.33333333333333</ele><time>2026-04-26T14:01:03.999Z</time></trkpt><trkpt lat="47.99551086211504" lon="-0.715255506588228"><ele>62.666666666666664</ele><time>2026-04-26T14:01:05.999Z</time></trkpt><trkpt lat="47.99543139365055" lon="-0.7152227815656873"><ele>63.0</ele><time>2026-04-26T14:01:07.999Z</time></trkpt><trkpt lat="47.99535605029605" lon="-0.7151889347758871"><ele>63.0</ele><time>2026-04-26T14:01:09.999Z</time></trkpt><trkpt lat="47.99528274995463" lon="-0.7151758479795721"><ele>63.0</ele><time>2026-04-26T14:01:11.999Z</time></trkpt><trkpt lat="47.995212452520846" lon="-0.7151689330038368"><ele>63.0</ele><time>2026-04-26T14:01:13.999Z</time></trkpt><trkpt lat="47.995144702906856" lon="-0.7151443611826864"><ele>63.0</ele><time>2026-04-26T14:01:15.999Z</time></trkpt><trkpt lat="47.99507514676792" lon="-0.7151264375869881"><ele>63.0</ele><time>2026-04-26T14:01:17.999Z</time></trkpt><trkpt lat="47.9950051051442" lon="-0.7151053881709992"><ele>63.0</ele><time>2026-04-26T14:01:19.999Z</time></trkpt><trkpt lat="47.994934846119484" lon="-0.7150822994169874"><ele>63.0</ele><time>2026-04-26T14:01:21.999Z</time></trkpt><trkpt lat="47.994866070403916" lon="-0.7150575280264017"><ele>63.57142857142857</ele><time>2026-04-26T14:01:23.999Z</time></trkpt><trkpt lat="47.99479552103837" lon="-0.7150327125771831"><ele>64.14285714285714</ele><time>2026-04-26T14:01:26Z</time></trkpt><trkpt lat="47.994725788827665" lon="-0.7150130057974083"><ele>64.71428571428572</ele><time>2026-04-26T14:01:28Z</time></trkpt><trkpt lat="47.99465578203428" lon="-0.7149929348269881"><ele>65.28571428571428</ele><time>2026-04-26T14:01:30Z</time></trkpt><trkpt lat="47.99458650716016" lon="-0.7149690486734708"><ele>65.85714285714286</ele><time>2026-04-26T14:01:32Z</time></trkpt><trkpt lat="47.99451801040875" lon="-0.7149496989331321"><ele>66.42857142857143</ele><time>2026-04-26T14:01:34Z</time></trkpt><trkpt lat="47.994452468213915" lon="-0.7149256445816496"><ele>67.0</ele><time>2026-04-26T14:01:36Z</time></trkpt><trkpt lat="47.99438829631565" lon="-0.7149058790706413"><ele>67.0</ele><time>2026-04-26T14:01:38Z</time></trkpt><trkpt lat="47.994325668939254" lon="-0.7148818835668959"><ele>67.0</ele><time>2026-04-26T14:01:40Z</time></trkpt><trkpt lat="47.9942624475101" lon="-0.7148597475231696"><ele>67.0</ele><time>2026-04-26T14:01:42Z</time></trkpt><trkpt lat="47.99419896998069" lon="-0.7148383310475711"><ele>67.0</ele><time>2026-04-26T14:01:44Z</time></trkpt><trkpt lat="47.994135969836115" lon="-0.714812702455312"><ele>67.0</ele><time>2026-04-26T14:01:46Z</time></trkpt><trkpt lat="47.99407219991693" lon="-0.7147983435171685"><ele>67.0</ele><time>2026-04-26T14:01:48Z</time></trkpt><trkpt lat="47.9940030372872" lon="-0.7147752760273106"><ele>67.0</ele><time>2026-04-26T14:01:51Z</time></trkpt><trkpt lat="47.993914916766705" lon="-0.7147438443827464"><ele>67.33333333333333</ele><time>2026-04-26T14:01:53Z</time></trkpt><trkpt lat="47.993845787284464" lon="-0.7147226516202062"><ele>67.66666666666666</ele><time>2026-04-26T14:01:56Z</time></trkpt><trkpt lat="47.993772036671835" lon="-0.7147016615837275"><ele>68.0</ele><time>2026-04-26T14:01:58Z</time></trkpt><trkpt lat="47.99369080976735" lon="-0.7146740292376871"><ele>68.33333333333333</ele><time>2026-04-26T14:02:01Z</time></trkpt><trkpt lat="47.99361043662622" lon="-0.7146479654950494"><ele>68.66666666666667</ele><time>2026-04-26T14:02:04Z</time></trkpt><trkpt lat="47.993530572673016" lon="-0.7146206525858175"><ele>69.0</ele><time>2026-04-26T14:02:07Z</time></trkpt><trkpt lat="47.99344938414507" lon="-0.7145890132791624"><ele>69.0</ele><time>2026-04-26T14:02:10Z</time></trkpt><trkpt lat="47.99336509759718" lon="-0.7145665987028028"><ele>69.0</ele><time>2026-04-26T14:02:13Z</time></trkpt><trkpt lat="47.99328128640198" lon="-0.7145394290878724"><ele>69.0</ele><time>2026-04-26T14:02:16Z</time></trkpt><trkpt lat="47.99319783826155" lon="-0.7145101169354118"><ele>69.0</ele><time>2026-04-26T14:02:19Z</time></trkpt><trkpt lat="47.99310730894605" lon="-0.7144770431991639"><ele>69.0</ele><time>2026-04-26T14:02:22Z</time></trkpt><trkpt lat="47.99301313725767" lon="-0.714449672068669"><ele>69.0</ele><time>2026-04-26T14:02:25Z</time></trkpt><trkpt lat="47.99294794125145" lon="-0.714427388949568"><ele>69.28571428571429</ele><time>2026-04-26T14:02:27Z</time></trkpt><trkpt lat="47.9928848733766" lon="-0.7144030347040817"><ele>69.57142857142858</ele><time>2026-04-26T14:02:29Z</time></trkpt><trkpt lat="47.992819212277794" lon="-0.7143862728201502"><ele>69.85714285714286</ele><time>2026-04-26T14:02:31Z</time></trkpt><trkpt lat="47.992754207499146" lon="-0.7143657174422838"><ele>70.14285714285714</ele><time>2026-04-26T14:02:33Z</time></trkpt><trkpt lat="47.992689330863314" lon="-0.7143448539536089"><ele>70.42857142857142</ele><time>2026-04-26T14:02:35Z</time></trkpt><trkpt lat="47.99262445328384" lon="-0.7143248294999075"><ele>70.71428571428571</ele><time>2026-04-26T14:02:37Z</time></trkpt><trkpt lat="47.99255841094853" lon="-0.7142956033951172"><ele>71.0</ele><time>2026-04-26T14:02:39Z</time></trkpt><trkpt lat="47.99249576859696" lon="-0.7142811458845666"><ele>71.42857142857143</ele><time>2026-04-26T14:02:41Z</time></trkpt><trkpt lat="47.992432721306145" lon="-0.7142615905290582"><ele>71.85714285714285</ele><time>2026-04-26T14:02:43Z</time></trkpt><trkpt lat="47.99236488554321" lon="-0.7142389521969148"><ele>72.28571428571428</ele><time>2026-04-26T14:02:45Z</time></trkpt><trkpt lat="47.99229942987394" lon="-0.7142050667239268"><ele>72.71428571428571</ele><time>2026-04-26T14:02:47Z</time></trkpt><trkpt lat="47.99223249521435" lon="-0.7141869361441269"><ele>73.14285714285714</ele><time>2026-04-26T14:02:49Z</time></trkpt><trkpt lat="47.99216664159124" lon="-0.7141672283769753"><ele>73.57142857142857</ele><time>2026-04-26T14:02:51Z</time></trkpt><trkpt lat="47.99210298336368" lon="-0.7141404012582147"><ele>74.0</ele><time>2026-04-26T14:02:53Z</time></trkpt><trkpt lat="47.992034436197024" lon="-0.7141209456149131"><ele>74.0</ele><time>2026-04-26T14:02:55Z</time></trkpt><trkpt lat="47.99196320392297" lon="-0.7140993383321312"><ele>74.0</ele><time>2026-04-26T14:02:57Z</time></trkpt><trkpt lat="47.991891997097355" lon="-0.714070128076385"><ele>74.0</ele><time>2026-04-26T14:02:59Z</time></trkpt><trkpt lat="47.99181996302345" lon="-0.7140501730886818"><ele>74.0</ele><time>2026-04-26T14:03:01Z</time></trkpt><trkpt lat="47.99174832889363" lon="-0.7140309944196146"><ele>74.0</ele><time>2026-04-26T14:03:03Z</time></trkpt><trkpt lat="47.99167892119423" lon="-0.7140060349885028"><ele>74.0</ele><time>2026-04-26T14:03:05Z</time></trkpt><trkpt lat="47.991608217216616" lon="-0.7139831624417671"><ele>74.0</ele><time>2026-04-26T14:03:07Z</time></trkpt><trkpt lat="47.99153922525272" lon="-0.7139618756850746"><ele>74.42857142857143</ele><time>2026-04-26T14:03:09Z</time></trkpt><trkpt lat="47.991469481438195" lon="-0.7139398163346221"><ele>74.85714285714286</ele><time>2026-04-26T14:03:11Z</time></trkpt><trkpt lat="47.991400376812706" lon="-0.7139161521913013"><ele>75.28571428571428</ele><time>2026-04-26T14:03:13Z</time></trkpt><trkpt lat="47.991333371663295" lon="-0.7138904919000221"><ele>75.71428571428572</ele><time>2026-04-26T14:03:15Z</time></trkpt><trkpt lat="47.99126551568967" lon="-0.7138651772151812"><ele>76.14285714285714</ele><time>2026-04-26T14:03:17Z</time></trkpt><trkpt lat="47.9911982879617" lon="-0.7138416107135681"><ele>76.57142857142857</ele><time>2026-04-26T14:03:19Z</time></trkpt><trkpt lat="47.991129218037294" lon="-0.7138193065051011"><ele>77.0</ele><time>2026-04-26T14:03:21Z</time></trkpt><trkpt lat="47.99106185985309" lon="-0.7137993334136684"><ele>77.0</ele><time>2026-04-26T14:03:23Z</time></trkpt><trkpt lat="47.99099355735044" lon="-0.7137820716880178"><ele>77.0</ele><time>2026-04-26T14:03:25Z</time></trkpt><trkpt lat="47.990927300348794" lon="-0.713754220917917"><ele>77.0</ele><time>2026-04-26T14:03:27Z</time></trkpt><trkpt lat="47.990862818155286" lon="-0.7137352231060136"><ele>77.0</ele><time>2026-04-26T14:03:29Z</time></trkpt><trkpt lat="47.990800530986505" lon="-0.7137112803170673"><ele>77.0</ele><time>2026-04-26T14:03:31Z</time></trkpt><trkpt lat="47.99073729132332" lon="-0.7136899466232292"><ele>77.0</ele><time>2026-04-26T14:03:33Z</time></trkpt><trkpt lat="47.99064650539122" lon="-0.7136589895148334"><ele>77.0</ele><time>2026-04-26T14:03:36Z</time></trkpt><trkpt lat="47.99058457503043" lon="-0.7136389107251351"><ele>76.83333333333334</ele><time>2026-04-26T14:03:38Z</time></trkpt><trkpt lat="47.99049261756048" lon="-0.7136119492803532"><ele>76.66666666666667</ele><time>2026-04-26T14:03:41Z</time></trkpt><trkpt lat="47.990430708911106" lon="-0.7135815332867484"><ele>76.5</ele><time>2026-04-26T14:03:43Z</time></trkpt><trkpt lat="47.99033734309245" lon="-0.7135549236843629"><ele>76.33333333333333</ele><time>2026-04-26T14:03:46Z</time></trkpt><trkpt lat="47.99024894145944" lon="-0.7135272485491947"><ele>76.16666666666666</ele><time>2026-04-26T14:03:49Z</time></trkpt><trkpt lat="47.99016098169671" lon="-0.7135019342032796"><ele>76.0</ele><time>2026-04-26T14:03:52Z</time></trkpt><trkpt lat="47.99007214857462" lon="-0.7134712853889437"><ele>76.83333333333333</ele><time>2026-04-26T14:03:55Z</time></trkpt><trkpt lat="47.98998388354899" lon="-0.7134410135025091"><ele>77.66666666666666</ele><time>2026-04-26T14:03:58Z</time></trkpt><trkpt lat="47.98989687395423" lon="-0.713413099280919"><ele>78.5</ele><time>2026-04-26T14:04:01Z</time></trkpt><trkpt lat="47.98980856145788" lon="-0.7133791616472391"><ele>79.33333333333333</ele><time>2026-04-26T14:04:04Z</time></trkpt><trkpt lat="47.98972307052751" lon="-0.71335693804561"><ele>80.16666666666667</ele><time>2026-04-26T14:04:07Z</time></trkpt><trkpt lat="47.98964162258073" lon="-0.7133152944056782"><ele>81.0</ele><time>2026-04-26T14:04:10Z</time></trkpt><trkpt lat="47.98955596653736" lon="-0.7132651135875125"><ele>81.0</ele><time>2026-04-26T14:04:13Z</time></trkpt><trkpt lat="47.9894777580017" lon="-0.7132105164283432"><ele>81.0</ele><time>2026-04-26T14:04:16Z</time></trkpt><trkpt lat="47.98940987362737" lon="-0.7131419325931614"><ele>81.0</ele><time>2026-04-26T14:04:19Z</time></trkpt><trkpt lat="47.9893317368469" lon="-0.7130804738012789"><ele>81.0</ele><time>2026-04-26T14:04:22.001Z</time></trkpt><trkpt lat="47.989276326276325" lon="-0.7130356296690882"><ele>81.0</ele><time>2026-04-26T14:04:24.001Z</time></trkpt><trkpt lat="47.98919849353595" lon="-0.7129695352985272"><ele>81.0</ele><time>2026-04-26T14:04:27.001Z</time></trkpt><trkpt lat="47.98912401482724" lon="-0.7129030144539528"><ele>81.83333333333333</ele><time>2026-04-26T14:04:30.001Z</time></trkpt><trkpt lat="47.98905065573948" lon="-0.7128406521979865"><ele>82.66666666666667</ele><time>2026-04-26T14:04:33.001Z</time></trkpt><trkpt lat="47.98898361113839" lon="-0.7127868287039372"><ele>83.5</ele><time>2026-04-26T14:04:36.001Z</time></trkpt><trkpt lat="47.98891659980489" lon="-0.7127325199278686"><ele>84.33333333333334</ele><time>2026-04-26T14:04:39.001Z</time></trkpt><trkpt lat="47.98885343189563" lon="-0.7126770828947945"><ele>85.16666666666667</ele><time>2026-04-26T14:04:42.001Z</time></trkpt><trkpt lat="47.988785813155694" lon="-0.7126381844916989"><ele>86.0</ele><time>2026-04-26T14:04:45.001Z</time></trkpt><trkpt lat="47.98874711786065" lon="-0.7127234825903112"><ele>86.0</ele><time>2026-04-26T14:04:48.001Z</time></trkpt><trkpt lat="47.98873865922664" lon="-0.7128453948155723"><ele>86.0</ele><time>2026-04-26T14:04:51.001Z</time></trkpt><trkpt lat="47.988709790132226" lon="-0.712947621468709"><ele>86.0</ele><time>2026-04-26T14:04:54.001Z</time></trkpt><trkpt lat="47.988694076712775" lon="-0.7130601001000445"><ele>86.0</ele><time>2026-04-26T14:04:58Z</time></trkpt><trkpt lat="47.9886628042988" lon="-0.7131802217685271"><ele>86.0</ele><time>2026-04-26T14:05:02Z</time></trkpt><trkpt lat="47.98850016273011" lon="-0.7132038168661815"><ele>86.0</ele><time>2026-04-26T14:05:06Z</time></trkpt><trkpt lat="47.98842586844027" lon="-0.7131732226849048"><ele>86.0</ele><time>2026-04-26T14:05:08Z</time></trkpt><trkpt lat="47.988354867247615" lon="-0.7131267123042746"><ele>86.0</ele><time>2026-04-26T14:05:10Z</time></trkpt><trkpt lat="47.98827714348841" lon="-0.7130899751079482"><ele>86.0</ele><time>2026-04-26T14:05:12Z</time></trkpt><trkpt lat="47.98820330490475" lon="-0.7130436980991548"><ele>86.0</ele><time>2026-04-26T14:05:14Z</time></trkpt><trkpt lat="47.988128474903064" lon="-0.7130061728671049"><ele>86.0</ele><time>2026-04-26T14:05:16Z</time></trkpt><trkpt lat="47.98805480951191" lon="-0.7129641525033296"><ele>86.5</ele><time>2026-04-26T14:05:18Z</time></trkpt><trkpt lat="47.9879764733925" lon="-0.7129224632012094"><ele>87.0</ele><time>2026-04-26T14:05:20Z</time></trkpt><trkpt lat="47.98790318440755" lon="-0.7128778759584041"><ele>87.5</ele><time>2026-04-26T14:05:22Z</time></trkpt><trkpt lat="47.987827751260824" lon="-0.7128429727626473"><ele>88.0</ele><time>2026-04-26T14:05:24Z</time></trkpt><trkpt lat="47.98775279595141" lon="-0.7128014284860003"><ele>88.5</ele><time>2026-04-26T14:05:26Z</time></trkpt><trkpt lat="47.98767642422363" lon="-0.7127630556808179"><ele>89.0</ele><time>2026-04-26T14:05:28Z</time></trkpt><trkpt lat="47.98759711661327" lon="-0.712721480245415"><ele>89.0</ele><time>2026-04-26T14:05:30Z</time></trkpt><trkpt lat="47.987513177330904" lon="-0.7126853826822612"><ele>89.0</ele><time>2026-04-26T14:05:32Z</time></trkpt><trkpt lat="47.9874254962916" lon="-0.7126487468420675"><ele>89.0</ele><time>2026-04-26T14:05:34Z</time></trkpt><trkpt lat="47.98733854059101" lon="-0.7126063595164499"><ele>89.0</ele><time>2026-04-26T14:05:36Z</time></trkpt><trkpt lat="47.9872486674001" lon="-0.7125758396915975"><ele>89.0</ele><time>2026-04-26T14:05:38Z</time></trkpt><trkpt lat="47.98716178038735" lon="-0.7125373900030675"><ele>89.80000000000001</ele><time>2026-04-26T14:05:40Z</time></trkpt><trkpt lat="47.987071485019065" lon="-0.712504791686833"><ele>90.60000000000001</ele><time>2026-04-26T14:05:42Z</time></trkpt><trkpt lat="47.986978776013956" lon="-0.7124693837704291"><ele>91.4</ele><time>2026-04-26T14:05:44Z</time></trkpt><trkpt lat="47.986884818485095" lon="-0.712445615681782"><ele>92.2</ele><time>2026-04-26T14:05:46Z</time></trkpt><trkpt lat="47.98678979178008" lon="-0.7124118772960855"><ele>93.0</ele><time>2026-04-26T14:05:48Z</time></trkpt><trkpt lat="47.98669234450607" lon="-0.7123777744347466"><ele>92.60000000000001</ele><time>2026-04-26T14:05:50.001Z</time></trkpt><trkpt lat="47.98658962355429" lon="-0.7123432409134941"><ele>92.2</ele><time>2026-04-26T14:05:52.001Z</time></trkpt><trkpt lat="47.98648960412575" lon="-0.7123086907954195"><ele>91.8</ele><time>2026-04-26T14:05:54.001Z</time></trkpt><trkpt lat="47.98639087715184" lon="-0.7122744052897532"><ele>91.4</ele><time>2026-04-26T14:05:56.001Z</time></trkpt><trkpt lat="47.9862909554127" lon="-0.712243345121554"><ele>91.0</ele><time>2026-04-26T14:05:58.001Z</time></trkpt><trkpt lat="47.9861879046906" lon="-0.7122093612260961"><ele>91.0</ele><time>2026-04-26T14:06:00.001Z</time></trkpt><trkpt lat="47.98608562131547" lon="-0.7121765549115193"><ele>91.0</ele><time>2026-04-26T14:06:02.001Z</time></trkpt><trkpt lat="47.985978324293654" lon="-0.7121409041644672"><ele>91.0</ele><time>2026-04-26T14:06:04.001Z</time></trkpt><trkpt lat="47.985868869443756" lon="-0.7121021708761679"><ele>91.0</ele><time>2026-04-26T14:06:06.001Z</time></trkpt><trkpt lat="47.98575779796936" lon="-0.7120635207337584"><ele>91.0</ele><time>2026-04-26T14:06:08.001Z</time></trkpt><trkpt lat="47.98564836594569" lon="-0.7120246393858239"><ele>91.19999999999999</ele><time>2026-04-26T14:06:10.001Z</time></trkpt><trkpt lat="47.98553434853442" lon="-0.7119871461817767"><ele>91.39999999999999</ele><time>2026-04-26T14:06:12.001Z</time></trkpt><trkpt lat="47.98541358188824" lon="-0.7119567114248646"><ele>91.6</ele><time>2026-04-26T14:06:14.001Z</time></trkpt><trkpt lat="47.985296339134685" lon="-0.7119133920820815"><ele>91.8</ele><time>2026-04-26T14:06:16.001Z</time></trkpt><trkpt lat="47.98523427209501" lon="-0.7118916979361019"><ele>92.0</ele><time>2026-04-26T14:06:17.001Z</time></trkpt><trkpt lat="47.98511651137517" lon="-0.711835101116408"><ele>91.71428571428572</ele><time>2026-04-26T14:06:19.001Z</time></trkpt><trkpt lat="47.98499413273754" lon="-0.7118116588221927"><ele>91.42857142857142</ele><time>2026-04-26T14:06:21.001Z</time></trkpt><trkpt lat="47.9849313256681" lon="-0.7117896766507177"><ele>91.14285714285714</ele><time>2026-04-26T14:06:22.001Z</time></trkpt><trkpt lat="47.98486875300876" lon="-0.7117697150690012"><ele>90.85714285714286</ele><time>2026-04-26T14:06:23.001Z</time></trkpt><trkpt lat="47.98480554855953" lon="-0.7117473335010513"><ele>90.57142857142858</ele><time>2026-04-26T14:06:24.001Z</time></trkpt><trkpt lat="47.98474172898687" lon="-0.7117260535918746"><ele>90.28571428571428</ele><time>2026-04-26T14:06:25.001Z</time></trkpt><trkpt lat="47.984676165371916" lon="-0.7117057378544714"><ele>90.0</ele><time>2026-04-26T14:06:26.001Z</time></trkpt><trkpt lat="47.984608657996915" lon="-0.7116836174371897"><ele>90.0</ele><time>2026-04-26T14:06:27.001Z</time></trkpt><trkpt lat="47.984539892307986" lon="-0.7116623689792629"><ele>90.0</ele><time>2026-04-26T14:06:28.001Z</time></trkpt><trkpt lat="47.98447183445104" lon="-0.7116385714134958"><ele>90.0</ele><time>2026-04-26T14:06:29.001Z</time></trkpt><trkpt lat="47.984403283391785" lon="-0.7116179756928332"><ele>90.0</ele><time>2026-04-26T14:06:30.001Z</time></trkpt><trkpt lat="47.98433396441781" lon="-0.7115938352047275"><ele>90.0</ele><time>2026-04-26T14:06:31.001Z</time></trkpt><trkpt lat="47.98426180383135" lon="-0.711567858152523"><ele>90.0</ele><time>2026-04-26T14:06:32.001Z</time></trkpt><trkpt lat="47.984189699179396" lon="-0.7115445756734515"><ele>90.0</ele><time>2026-04-26T14:06:33.001Z</time></trkpt><trkpt lat="47.98411844373992" lon="-0.7115205844359895"><ele>89.83333333333333</ele><time>2026-04-26T14:06:34.001Z</time></trkpt><trkpt lat="47.98404612394958" lon="-0.7114938518904832"><ele>89.66666666666667</ele><time>2026-04-26T14:06:35.001Z</time></trkpt><trkpt lat="47.98397237338598" lon="-0.7114673031431531"><ele>89.5</ele><time>2026-04-26T14:06:36.001Z</time></trkpt><trkpt lat="47.983900242040555" lon="-0.7114454894297563"><ele>89.33333333333334</ele><time>2026-04-26T14:06:37.001Z</time></trkpt><trkpt lat="47.98382661790097" lon="-0.711420584685554"><ele>89.16666666666667</ele><time>2026-04-26T14:06:38.001Z</time></trkpt><trkpt lat="47.983753467345295" lon="-0.7113924568341139"><ele>89.0</ele><time>2026-04-26T14:06:39.001Z</time></trkpt><trkpt lat="47.98367965648362" lon="-0.7113683652218381"><ele>88.99999999999999</ele><time>2026-04-26T14:06:40.001Z</time></trkpt><trkpt lat="47.983607480707505" lon="-0.711348726086182"><ele>89.0</ele><time>2026-04-26T14:06:41.001Z</time></trkpt><trkpt lat="47.98353430541348" lon="-0.7113205989129888"><ele>89.0</ele><time>2026-04-26T14:06:42.001Z</time></trkpt><trkpt lat="47.98346064098183" lon="-0.7112946397733612"><ele>89.0</ele><time>2026-04-26T14:06:43.001Z</time></trkpt><trkpt lat="47.98339018107054" lon="-0.711270044543982"><ele>89.0</ele><time>2026-04-26T14:06:44.001Z</time></trkpt><trkpt lat="47.98331611717159" lon="-0.7112420734483054"><ele>88.99999999999999</ele><time>2026-04-26T14:06:45.001Z</time></trkpt><trkpt lat="47.983243097399104" lon="-0.7112209615989188"><ele>89.0</ele><time>2026-04-26T14:06:46.001Z</time></trkpt><trkpt lat="47.983172877930826" lon="-0.7111971176130261"><ele>89.0</ele><time>2026-04-26T14:06:47.001Z</time></trkpt><trkpt lat="47.98310135067395" lon="-0.7111725896459784"><ele>89.0</ele><time>2026-04-26T14:06:48.001Z</time></trkpt><trkpt lat="47.9830278497686" lon="-0.7111481615084692"><ele>89.0</ele><time>2026-04-26T14:06:49.001Z</time></trkpt><trkpt lat="47.982954069790495" lon="-0.7111219669646696"><ele>89.0</ele><time>2026-04-26T14:06:50.001Z</time></trkpt><trkpt lat="47.98288044291417" lon="-0.7110968628194467"><ele>89.0</ele><time>2026-04-26T14:06:51.001Z</time></trkpt><trkpt lat="47.98280654392352" lon="-0.7110748076675842"><ele>89.0</ele><time>2026-04-26T14:06:52.001Z</time></trkpt><trkpt lat="47.98273349259287" lon="-0.7110484622861688"><ele>88.66666666666667</ele><time>2026-04-26T14:06:53.001Z</time></trkpt><trkpt lat="47.98266066933087" lon="-0.7110228757942858"><ele>88.33333333333334</ele><time>2026-04-26T14:06:54.001Z</time></trkpt><trkpt lat="47.982584788018634" lon="-0.7110024483248643"><ele>88.0</ele><time>2026-04-26T14:06:55.001Z</time></trkpt><trkpt lat="47.98251025294193" lon="-0.7109779495139944"><ele>87.66666666666667</ele><time>2026-04-26T14:06:56.001Z</time></trkpt><trkpt lat="47.98243614008585" lon="-0.7109500660263138"><ele>87.33333333333333</ele><time>2026-04-26T14:06:57.001Z</time></trkpt><trkpt lat="47.98235816292304" lon="-0.7109281974062974"><ele>87.0</ele><time>2026-04-26T14:06:58.001Z</time></trkpt><trkpt lat="47.982281065934465" lon="-0.7109029041361555"><ele>87.0</ele><time>2026-04-26T14:06:59.001Z</time></trkpt><trkpt lat="47.982205472560224" lon="-0.7108788867738475"><ele>87.0</ele><time>2026-04-26T14:07:00.001Z</time></trkpt><trkpt lat="47.982127602411516" lon="-0.7108548279899117"><ele>87.0</ele><time>2026-04-26T14:07:01.001Z</time></trkpt><trkpt lat="47.98205040695903" lon="-0.7108286446128249"><ele>87.0</ele><time>2026-04-26T14:07:02.001Z</time></trkpt><trkpt lat="47.981970174828575" lon="-0.7108016789375297"><ele>87.0</ele><time>2026-04-26T14:07:03.001Z</time></trkpt><trkpt lat="47.981890974674876" lon="-0.7107748336634757"><ele>87.0</ele><time>2026-04-26T14:07:04.001Z</time></trkpt><trkpt lat="47.981811173331046" lon="-0.7107487808402077"><ele>87.0</ele><time>2026-04-26T14:07:05.001Z</time></trkpt><trkpt lat="47.981727551083424" lon="-0.7107220164216786"><ele>87.0</ele><time>2026-04-26T14:07:06.001Z</time></trkpt><trkpt lat="47.98164544497558" lon="-0.7106931085820463"><ele>87.0</ele><time>2026-04-26T14:07:07.001Z</time></trkpt><trkpt lat="47.98156230623743" lon="-0.7106659478043706"><ele>87.0</ele><time>2026-04-26T14:07:08.001Z</time></trkpt><trkpt lat="47.98147838719581" lon="-0.7106317546029907"><ele>87.0</ele><time>2026-04-26T14:07:09.001Z</time></trkpt><trkpt lat="47.98139401420206" lon="-0.7106027098564636"><ele>87.0</ele><time>2026-04-26T14:07:10.001Z</time></trkpt><trkpt lat="47.98130918038083" lon="-0.7105805656152476"><ele>86.39999999999999</ele><time>2026-04-26T14:07:11.001Z</time></trkpt><trkpt lat="47.981222530940634" lon="-0.7105497571240422"><ele>85.8</ele><time>2026-04-26T14:07:12.001Z</time></trkpt><trkpt lat="47.981135310883445" lon="-0.7105185041865744"><ele>85.2</ele><time>2026-04-26T14:07:13.001Z</time></trkpt><trkpt lat="47.98104740294463" lon="-0.7104907472611538"><ele>84.6</ele><time>2026-04-26T14:07:14.001Z</time></trkpt><trkpt lat="47.980954507805656" lon="-0.710459386295806"><ele>84.0</ele><time>2026-04-26T14:07:15.001Z</time></trkpt><trkpt lat="47.98085937339565" lon="-0.7104318731542066"><ele>83.80000000000001</ele><time>2026-04-26T14:07:16.001Z</time></trkpt><trkpt lat="47.980764421409994" lon="-0.7104011131613044"><ele>83.60000000000001</ele><time>2026-04-26T14:07:17.001Z</time></trkpt><trkpt lat="47.980665663419664" lon="-0.7103697271849571"><ele>83.4</ele><time>2026-04-26T14:07:18Z</time></trkpt><trkpt lat="47.98056552833704" lon="-0.7103367585395753"><ele>83.2</ele><time>2026-04-26T14:07:19Z</time></trkpt><trkpt lat="47.980471447369936" lon="-0.7103072307321099"><ele>83.0</ele><time>2026-04-26T14:07:20Z</time></trkpt><trkpt lat="47.98037285876552" lon="-0.7102756317448545"><ele>83.0</ele><time>2026-04-26T14:07:21Z</time></trkpt><trkpt lat="47.98028103841251" lon="-0.710245671354886"><ele>83.0</ele><time>2026-04-26T14:07:22Z</time></trkpt><trkpt lat="47.98019511009996" lon="-0.7102155708553675"><ele>83.0</ele><time>2026-04-26T14:07:23Z</time></trkpt><trkpt lat="47.98011099896121" lon="-0.7101915263084886"><ele>83.0</ele><time>2026-04-26T14:07:24Z</time></trkpt><trkpt lat="47.98003264666112" lon="-0.7101686093162656"><ele>83.0</ele><time>2026-04-26T14:07:25Z</time></trkpt><trkpt lat="47.97995727020436" lon="-0.7101448173349912"><ele>83.0</ele><time>2026-04-26T14:07:26Z</time></trkpt><trkpt lat="47.97988477983279" lon="-0.7101179448360704"><ele>82.83333333333334</ele><time>2026-04-26T14:07:27Z</time></trkpt><trkpt lat="47.979815909831764" lon="-0.7100963400182382"><ele>82.66666666666667</ele><time>2026-04-26T14:07:28Z</time></trkpt><trkpt lat="47.9797502537428" lon="-0.7100763937576029"><ele>82.5</ele><time>2026-04-26T14:07:29Z</time></trkpt><trkpt lat="47.9796863416617" lon="-0.7100571930859069"><ele>82.33333333333333</ele><time>2026-04-26T14:07:30Z</time></trkpt><trkpt lat="47.979573219249865" lon="-0.7100179759320715"><ele>82.16666666666666</ele><time>2026-04-26T14:07:32Z</time></trkpt><trkpt lat="47.97947156320501" lon="-0.7099890895361701"><ele>82.0</ele><time>2026-04-26T14:07:34Z</time></trkpt><trkpt lat="47.979382165776144" lon="-0.7099574318736719"><ele>81.99999999999999</ele><time>2026-04-26T14:07:36Z</time></trkpt><trkpt lat="47.97930109416842" lon="-0.7099347077153999"><ele>82.0</ele><time>2026-04-26T14:07:38Z</time></trkpt><trkpt lat="47.979221935251935" lon="-0.7099045374068067"><ele>82.0</ele><time>2026-04-26T14:07:40Z</time></trkpt><trkpt lat="47.97915030970981" lon="-0.7098838428401987"><ele>82.0</ele><time>2026-04-26T14:07:42Z</time></trkpt><trkpt lat="47.979078981851444" lon="-0.7098612302016453"><ele>82.0</ele><time>2026-04-26T14:07:44.001Z</time></trkpt><trkpt lat="47.979012383045095" lon="-0.7098358190791637"><ele>81.99999999999999</ele><time>2026-04-26T14:07:46.001Z</time></trkpt><trkpt lat="47.9789477551185" lon="-0.7098177538850888"><ele>82.0</ele><time>2026-04-26T14:07:48.001Z</time></trkpt><trkpt lat="47.97888387682015" lon="-0.7097939824166021"><ele>82.71428571428571</ele><time>2026-04-26T14:07:50.001Z</time></trkpt><trkpt lat="47.97881834134558" lon="-0.7097759361200343"><ele>83.42857142857143</ele><time>2026-04-26T14:07:52.001Z</time></trkpt><trkpt lat="47.978750287101256" lon="-0.7097573101165054"><ele>84.14285714285714</ele><time>2026-04-26T14:07:54.001Z</time></trkpt><trkpt lat="47.978683886450085" lon="-0.7097359882178431"><ele>84.85714285714286</ele><time>2026-04-26T14:07:56.001Z</time></trkpt><trkpt lat="47.97861564015604" lon="-0.7097132825727044"><ele>85.57142857142857</ele><time>2026-04-26T14:07:58.001Z</time></trkpt><trkpt lat="47.978549716190344" lon="-0.7096913694336473"><ele>86.28571428571428</ele><time>2026-04-26T14:08:00.001Z</time></trkpt><trkpt lat="47.97847943441927" lon="-0.7096690021592269"><ele>87.0</ele><time>2026-04-26T14:08:02.001Z</time></trkpt><trkpt lat="47.97840800927257" lon="-0.7096454470235881"><ele>87.33333333333333</ele><time>2026-04-26T14:08:04.001Z</time></trkpt><trkpt lat="47.97833430830534" lon="-0.7096271409381447"><ele>87.66666666666667</ele><time>2026-04-26T14:08:06.001Z</time></trkpt><trkpt lat="47.97825959291106" lon="-0.7096019598715038"><ele>88.0</ele><time>2026-04-26T14:08:08.001Z</time></trkpt><trkpt lat="47.978179260122886" lon="-0.7095804334040149"><ele>88.33333333333334</ele><time>2026-04-26T14:08:10.001Z</time></trkpt><trkpt lat="47.97809493024001" lon="-0.7095562241731935"><ele>88.66666666666667</ele><time>2026-04-26T14:08:12.001Z</time></trkpt><trkpt lat="47.978008889157465" lon="-0.7095293063287895"><ele>89.0</ele><time>2026-04-26T14:08:14.001Z</time></trkpt><trkpt lat="47.977919277193074" lon="-0.7094992341404778"><ele>89.0</ele><time>2026-04-26T14:08:16.001Z</time></trkpt><trkpt lat="47.97782275417654" lon="-0.7094785743189475"><ele>89.0</ele><time>2026-04-26T14:08:18.001Z</time></trkpt><trkpt lat="47.97772475167663" lon="-0.7094455793272011"><ele>89.0</ele><time>2026-04-26T14:08:20.001Z</time></trkpt><trkpt lat="47.97762079662697" lon="-0.7094107194249544"><ele>89.0</ele><time>2026-04-26T14:08:22.001Z</time></trkpt><trkpt lat="47.977514399214414" lon="-0.709374475567083"><ele>89.0</ele><time>2026-04-26T14:08:24.001Z</time></trkpt><trkpt lat="47.97740001520666" lon="-0.7093320505825462"><ele>88.66666666666667</ele><time>2026-04-26T14:08:26.001Z</time></trkpt><trkpt lat="47.97728275439504" lon="-0.7092859749670193"><ele>88.33333333333334</ele><time>2026-04-26T14:08:28.001Z</time></trkpt><trkpt lat="47.97721782082404" lon="-0.7092607792048478"><ele>88.0</ele><time>2026-04-26T14:08:29.001Z</time></trkpt><trkpt lat="47.97715310271319" lon="-0.7092350737338228"><ele>87.66666666666667</ele><time>2026-04-26T14:08:30.001Z</time></trkpt><trkpt lat="47.977087226063645" lon="-0.7092027067408293"><ele>87.33333333333333</ele><time>2026-04-26T14:08:31.001Z</time></trkpt><trkpt lat="47.97701909533651" lon="-0.709169178448154"><ele>87.0</ele><time>2026-04-26T14:08:32.001Z</time></trkpt><trkpt lat="47.976949108530455" lon="-0.7091302873792918"><ele>87.0</ele><time>2026-04-26T14:08:33.001Z</time></trkpt><trkpt lat="47.976879275137065" lon="-0.7090919858875985"><ele>87.0</ele><time>2026-04-26T14:08:34.001Z</time></trkpt><trkpt lat="47.97680756102504" lon="-0.7090515012099159"><ele>87.0</ele><time>2026-04-26T14:08:35.001Z</time></trkpt><trkpt lat="47.9767360320041" lon="-0.709000676300694"><ele>87.0</ele><time>2026-04-26T14:08:36.001Z</time></trkpt><trkpt lat="47.97666219295802" lon="-0.7089541992787456"><ele>87.0</ele><time>2026-04-26T14:08:37.001Z</time></trkpt><trkpt lat="47.976588299561165" lon="-0.7089027149633761"><ele>87.0</ele><time>2026-04-26T14:08:38.001Z</time></trkpt><trkpt lat="47.976511560550165" lon="-0.7088474685161599"><ele>86.5</ele><time>2026-04-26T14:08:39.001Z</time></trkpt><trkpt lat="47.97643423494195" lon="-0.7087916574533073"><ele>86.0</ele><time>2026-04-26T14:08:40.001Z</time></trkpt><trkpt lat="47.97635878558935" lon="-0.7087286364025163"><ele>85.5</ele><time>2026-04-26T14:08:41.001Z</time></trkpt><trkpt lat="47.97628236627487" lon="-0.7086601030943394"><ele>85.0</ele><time>2026-04-26T14:08:42.001Z</time></trkpt><trkpt lat="47.97620555198675" lon="-0.7085906670858163"><ele>84.5</ele><time>2026-04-26T14:08:43.001Z</time></trkpt><trkpt lat="47.97612726072297" lon="-0.7085153067831631"><ele>84.0</ele><time>2026-04-26T14:08:44.001Z</time></trkpt><trkpt lat="47.97604945288315" lon="-0.7084389210279058"><ele>84.0</ele><time>2026-04-26T14:08:45.001Z</time></trkpt><trkpt lat="47.9759705599952" lon="-0.7083556360903277"><ele>84.0</ele><time>2026-04-26T14:08:46.001Z</time></trkpt><trkpt lat="47.97589356493832" lon="-0.7082684179965226"><ele>84.0</ele><time>2026-04-26T14:08:47.001Z</time></trkpt><trkpt lat="47.97581473200066" lon="-0.7081794541548547"><ele>84.0</ele><time>2026-04-26T14:08:48.001Z</time></trkpt><trkpt lat="47.975735092648115" lon="-0.7080886872763537"><ele>84.0</ele><time>2026-04-26T14:08:49.001Z</time></trkpt><trkpt lat="47.97565462878398" lon="-0.7079974485845638"><ele>83.2</ele><time>2026-04-26T14:08:50.001Z</time></trkpt><trkpt lat="47.97557354246601" lon="-0.7079065314313968"><ele>82.4</ele><time>2026-04-26T14:08:51.001Z</time></trkpt><trkpt lat="47.97549158109629" lon="-0.7078093471373015"><ele>81.6</ele><time>2026-04-26T14:08:52.001Z</time></trkpt><trkpt lat="47.97540971488306" lon="-0.7077137871431507"><ele>80.8</ele><time>2026-04-26T14:08:53.001Z</time></trkpt><trkpt lat="47.97532523730102" lon="-0.707616913050397"><ele>80.0</ele><time>2026-04-26T14:08:54.001Z</time></trkpt><trkpt lat="47.97524336537597" lon="-0.7075178736918312"><ele>80.0</ele><time>2026-04-26T14:08:55.001Z</time></trkpt><trkpt lat="47.97516193690233" lon="-0.7074249251044075"><ele>80.0</ele><time>2026-04-26T14:08:56.001Z</time></trkpt><trkpt lat="47.975078351775934" lon="-0.7073336297525401"><ele>80.0</ele><time>2026-04-26T14:08:57.001Z</time></trkpt><trkpt lat="47.97499775149528" lon="-0.707236870854314"><ele>80.0</ele><time>2026-04-26T14:08:58.001Z</time></trkpt><trkpt lat="47.97491652559873" lon="-0.7071446850247186"><ele>80.0</ele><time>2026-04-26T14:08:59.001Z</time></trkpt><trkpt lat="47.97483518049441" lon="-0.707053614911403"><ele>79.4</ele><time>2026-04-26T14:09:00.001Z</time></trkpt><trkpt lat="47.97475497558938" lon="-0.706960506376531"><ele>78.8</ele><time>2026-04-26T14:09:01.001Z</time></trkpt><trkpt lat="47.97467340970206" lon="-0.7068654801998135"><ele>78.2</ele><time>2026-04-26T14:09:02.001Z</time></trkpt><trkpt lat="47.97459114639052" lon="-0.7067754889051371"><ele>77.6</ele><time>2026-04-26T14:09:03.001Z</time></trkpt><trkpt lat="47.97450650631529" lon="-0.7066901700401629"><ele>77.0</ele><time>2026-04-26T14:09:04.001Z</time></trkpt><trkpt lat="47.97442243475494" lon="-0.706600907956959"><ele>76.4</ele><time>2026-04-26T14:09:05.001Z</time></trkpt><trkpt lat="47.974336485810475" lon="-0.7065102536351248"><ele>75.80000000000001</ele><time>2026-04-26T14:09:06.001Z</time></trkpt><trkpt lat="47.97424930442352" lon="-0.7064236513139875"><ele>75.2</ele><time>2026-04-26T14:09:07.001Z</time></trkpt><trkpt lat="47.97415829914969" lon="-0.7063377615863864"><ele>74.60000000000001</ele><time>2026-04-26T14:09:08.001Z</time></trkpt><trkpt lat="47.97406413269759" lon="-0.7062573618429726"><ele>74.0</ele><time>2026-04-26T14:09:09.001Z</time></trkpt><trkpt lat="47.97396566675615" lon="-0.7061864135283344"><ele>73.8</ele><time>2026-04-26T14:09:10.001Z</time></trkpt><trkpt lat="47.97386643033575" lon="-0.7061207474626641"><ele>73.60000000000001</ele><time>2026-04-26T14:09:11.001Z</time></trkpt><trkpt lat="47.973764159646834" lon="-0.7060632314146884"><ele>73.4</ele><time>2026-04-26T14:09:12.001Z</time></trkpt><trkpt lat="47.97365885228991" lon="-0.7060099965825469"><ele>73.2</ele><time>2026-04-26T14:09:13.001Z</time></trkpt><trkpt lat="47.973550829064" lon="-0.7059657743917312"><ele>73.0</ele><time>2026-04-26T14:09:14.001Z</time></trkpt><trkpt lat="47.97344158239865" lon="-0.7059272311966197"><ele>71.0</ele><time>2026-04-26T14:09:15.001Z</time></trkpt><trkpt lat="47.97332830772063" lon="-0.7058947018963583"><ele>69.0</ele><time>2026-04-26T14:09:16.001Z</time></trkpt><trkpt lat="47.97321395692693" lon="-0.7058658789341262"><ele>67.0</ele><time>2026-04-26T14:09:17.001Z</time></trkpt><trkpt lat="47.97309844551316" lon="-0.7058465962339251"><ele>65.0</ele><time>2026-04-26T14:09:18.001Z</time></trkpt><trkpt lat="47.97297824497757" lon="-0.7058387035307606"><ele>65.0</ele><time>2026-04-26T14:09:19.001Z</time></trkpt><trkpt lat="47.972856482720616" lon="-0.7058352286950943"><ele>65.0</ele><time>2026-04-26T14:09:20.001Z</time></trkpt><trkpt lat="47.97273254689284" lon="-0.7058486524999804"><ele>65.0</ele><time>2026-04-26T14:09:21.001Z</time></trkpt><trkpt lat="47.97260532926339" lon="-0.7058682872099259"><ele>65.0</ele><time>2026-04-26T14:09:22.001Z</time></trkpt><trkpt lat="47.972480038942535" lon="-0.7058957914571152"><ele>64.25</ele><time>2026-04-26T14:09:23Z</time></trkpt><trkpt lat="47.9723546211419" lon="-0.7059328059010086"><ele>63.5</ele><time>2026-04-26T14:09:24Z</time></trkpt><trkpt lat="47.97222760447486" lon="-0.7059765266627377"><ele>62.75</ele><time>2026-04-26T14:09:25Z</time></trkpt><trkpt lat="47.97210448296241" lon="-0.7060334837742449"><ele>62.0</ele><time>2026-04-26T14:09:26Z</time></trkpt><trkpt lat="47.97198017420219" lon="-0.7060932767443283"><ele>62.0</ele><time>2026-04-26T14:09:27Z</time></trkpt><trkpt lat="47.97185678796948" lon="-0.7061579859080999"><ele>62.0</ele><time>2026-04-26T14:09:28Z</time></trkpt><trkpt lat="47.97173040640874" lon="-0.7062234661116484"><ele>62.0</ele><time>2026-04-26T14:09:29Z</time></trkpt><trkpt lat="47.97160412229324" lon="-0.7062839376754302"><ele>62.0</ele><time>2026-04-26T14:09:30Z</time></trkpt><trkpt lat="47.9714747888781" lon="-0.7063414597816934"><ele>60.0</ele><time>2026-04-26T14:09:31Z</time></trkpt><trkpt lat="47.97134662408703" lon="-0.7064109858361792"><ele>58.0</ele><time>2026-04-26T14:09:32Z</time></trkpt><trkpt lat="47.971218657415804" lon="-0.7064822892489183"><ele>56.0</ele><time>2026-04-26T14:09:33Z</time></trkpt><trkpt lat="47.971086512075715" lon="-0.7065520812075216"><ele>54.0</ele><time>2026-04-26T14:09:34Z</time></trkpt><trkpt lat="47.970949154594486" lon="-0.7066197088703845"><ele>51.75</ele><time>2026-04-26T14:09:35Z</time></trkpt><trkpt lat="47.97081083743465" lon="-0.7066927801752603"><ele>49.5</ele><time>2026-04-26T14:09:36Z</time></trkpt><trkpt lat="47.970668068598876" lon="-0.7067665589179685"><ele>47.25</ele><time>2026-04-26T14:09:37Z</time></trkpt><trkpt lat="47.97053099598262" lon="-0.7068409530995908"><ele>45.0</ele><time>2026-04-26T14:09:38Z</time></trkpt><trkpt lat="47.97038890986138" lon="-0.7069103230622987"><ele>45.25</ele><time>2026-04-26T14:09:39Z</time></trkpt><trkpt lat="47.97025930110828" lon="-0.7069799868196125"><ele>45.5</ele><time>2026-04-26T14:09:40Z</time></trkpt><trkpt lat="47.970137877978345" lon="-0.7070465883078538"><ele>45.75</ele><time>2026-04-26T14:09:41Z</time></trkpt><trkpt lat="47.97002530382288" lon="-0.7071079473170323"><ele>46.0</ele><time>2026-04-26T14:09:42Z</time></trkpt><trkpt lat="47.969920197590795" lon="-0.7071598319601032"><ele>48.199999999999996</ele><time>2026-04-26T14:09:43Z</time></trkpt><trkpt lat="47.969824312085365" lon="-0.7072089051952356"><ele>50.4</ele><time>2026-04-26T14:09:44Z</time></trkpt><trkpt lat="47.96973330885896" lon="-0.7072547429337351"><ele>52.6</ele><time>2026-04-26T14:09:45Z</time></trkpt><trkpt lat="47.96964788849744" lon="-0.7072989840431864"><ele>54.8</ele><time>2026-04-26T14:09:46Z</time></trkpt><trkpt lat="47.9695657866396" lon="-0.7073380659960927"><ele>57.0</ele><time>2026-04-26T14:09:47Z</time></trkpt><trkpt lat="47.969488789063526" lon="-0.7073767266491039"><ele>57.0</ele><time>2026-04-26T14:09:48Z</time></trkpt><trkpt lat="47.969417234786675" lon="-0.7074128039912245"><ele>57.0</ele><time>2026-04-26T14:09:49Z</time></trkpt><trkpt lat="47.9693478656935" lon="-0.7074497268526209"><ele>57.0</ele><time>2026-04-26T14:09:50Z</time></trkpt><trkpt lat="47.969282346010004" lon="-0.7074826275439827"><ele>57.0</ele><time>2026-04-26T14:09:51Z</time></trkpt><trkpt lat="47.969220927327186" lon="-0.7075139883396331"><ele>57.0</ele><time>2026-04-26T14:09:52Z</time></trkpt><trkpt lat="47.96910794426732" lon="-0.7075646649581856"><ele>57.0</ele><time>2026-04-26T14:09:54Z</time></trkpt><trkpt lat="47.96901167313076" lon="-0.7076114323368227"><ele>57.857142857142854</ele><time>2026-04-26T14:09:56Z</time></trkpt><trkpt lat="47.968925453580944" lon="-0.7076599643718887"><ele>58.71428571428571</ele><time>2026-04-26T14:09:58Z</time></trkpt><trkpt lat="47.968848489861095" lon="-0.707693282872104"><ele>59.57142857142857</ele><time>2026-04-26T14:10:00Z</time></trkpt><trkpt lat="47.968776800966005" lon="-0.7077311562810333"><ele>60.42857142857143</ele><time>2026-04-26T14:10:02Z</time></trkpt><trkpt lat="47.9687108521505" lon="-0.707762303801863"><ele>61.285714285714285</ele><time>2026-04-26T14:10:04Z</time></trkpt><trkpt lat="47.968648294230235" lon="-0.707797254425207"><ele>62.14285714285714</ele><time>2026-04-26T14:10:06Z</time></trkpt><trkpt lat="47.96858718120311" lon="-0.7078212464500665"><ele>63.0</ele><time>2026-04-26T14:10:08Z</time></trkpt><trkpt lat="47.96850325038234" lon="-0.7078653084866573"><ele>63.833333333333336</ele><time>2026-04-26T14:10:11Z</time></trkpt><trkpt lat="47.968428083507895" lon="-0.7079028049204457"><ele>64.66666666666667</ele><time>2026-04-26T14:10:14Z</time></trkpt><trkpt lat="47.968355287946586" lon="-0.7079365937288131"><ele>65.5</ele><time>2026-04-26T14:10:17Z</time></trkpt><trkpt lat="47.96828425102961" lon="-0.7079700980484007"><ele>66.33333333333334</ele><time>2026-04-26T14:10:20Z</time></trkpt><trkpt lat="47.96821067055188" lon="-0.7080068855924432"><ele>67.16666666666667</ele><time>2026-04-26T14:10:23Z</time></trkpt><trkpt lat="47.96813848230094" lon="-0.7080392961170653"><ele>68.0</ele><time>2026-04-26T14:10:26Z</time></trkpt><trkpt lat="47.9680696696071" lon="-0.7080723516634967"><ele>68.14285714285714</ele><time>2026-04-26T14:10:29Z</time></trkpt><trkpt lat="47.96799866860139" lon="-0.70810214961515"><ele>68.28571428571428</ele><time>2026-04-26T14:10:32Z</time></trkpt><trkpt lat="47.96792631494979" lon="-0.7081404478426415"><ele>68.42857142857143</ele><time>2026-04-26T14:10:35Z</time></trkpt><trkpt lat="47.967857118064146" lon="-0.7081587792299331"><ele>68.57142857142857</ele><time>2026-04-26T14:10:38Z</time></trkpt><trkpt lat="47.96779059118873" lon="-0.7081875527732945"><ele>68.71428571428572</ele><time>2026-04-26T14:10:41Z</time></trkpt><trkpt lat="47.967722533122156" lon="-0.7082099052528621"><ele>68.85714285714286</ele><time>2026-04-26T14:10:44Z</time></trkpt><trkpt lat="47.967654676656" lon="-0.7082263128949324"><ele>69.0</ele><time>2026-04-26T14:10:47Z</time></trkpt><trkpt lat="47.96758335551208" lon="-0.7082404753994411"><ele>68.5</ele><time>2026-04-26T14:10:50Z</time></trkpt><trkpt lat="47.9675098341654" lon="-0.7082563332414316"><ele>68.0</ele><time>2026-04-26T14:10:53.001Z</time></trkpt><trkpt lat="47.96743288056605" lon="-0.708253070374395"><ele>67.5</ele><time>2026-04-26T14:10:56.001Z</time></trkpt><trkpt lat="47.967348960183735" lon="-0.7082599606818413"><ele>67.0</ele><time>2026-04-26T14:10:59.001Z</time></trkpt><trkpt lat="47.96726278087582" lon="-0.708256490936447"><ele>66.5</ele><time>2026-04-26T14:11:02.001Z</time></trkpt><trkpt lat="47.967175034059395" lon="-0.7082541698189397"><ele>66.0</ele><time>2026-04-26T14:11:05.001Z</time></trkpt><trkpt lat="47.96708554066666" lon="-0.7082481084915055"><ele>66.0</ele><time>2026-04-26T14:11:08.001Z</time></trkpt><trkpt lat="47.966994007002576" lon="-0.7082277596542577"><ele>66.0</ele><time>2026-04-26T14:11:11.001Z</time></trkpt><trkpt lat="47.966903120656404" lon="-0.7082062202099259"><ele>66.0</ele><time>2026-04-26T14:11:14.001Z</time></trkpt><trkpt lat="47.96681291022943" lon="-0.7081867971617206"><ele>66.0</ele><time>2026-04-26T14:11:17Z</time></trkpt><trkpt lat="47.96672513948849" lon="-0.7081521542962603"><ele>66.0</ele><time>2026-04-26T14:11:20Z</time></trkpt><trkpt lat="47.966638124435136" lon="-0.7081135044548005"><ele>66.0</ele><time>2026-04-26T14:11:23Z</time></trkpt><trkpt lat="47.96654895843048" lon="-0.7080660408682409"><ele>66.0</ele><time>2026-04-26T14:11:26Z</time></trkpt><trkpt lat="47.96648851657437" lon="-0.7080330241833344"><ele>66.0</ele><time>2026-04-26T14:11:28Z</time></trkpt><trkpt lat="47.96640866572507" lon="-0.70798657728753"><ele>66.0</ele><time>2026-04-26T14:11:31Z</time></trkpt><trkpt lat="47.96631676129748" lon="-0.7079248857511408"><ele>66.0</ele><time>2026-04-26T14:11:34Z</time></trkpt><trkpt lat="47.96624764674198" lon="-0.707877214283338"><ele>66.0</ele><time>2026-04-26T14:11:36Z</time></trkpt><trkpt lat="47.966181802283444" lon="-0.7078346312810146"><ele>66.0</ele><time>2026-04-26T14:11:38Z</time></trkpt><trkpt lat="47.96612019682685" lon="-0.7077851418172464"><ele>66.0</ele><time>2026-04-26T14:11:40Z</time></trkpt><trkpt lat="47.96605929947164" lon="-0.7077404459661235"><ele>66.0</ele><time>2026-04-26T14:11:42Z</time></trkpt><trkpt lat="47.96599857126446" lon="-0.7076977533673291"><ele>66.0</ele><time>2026-04-26T14:11:44Z</time></trkpt><trkpt lat="47.96594151906832" lon="-0.7076506736784218"><ele>66.0</ele><time>2026-04-26T14:11:46Z</time></trkpt><trkpt lat="47.96588251625129" lon="-0.7076130150048139"><ele>66.0</ele><time>2026-04-26T14:11:48Z</time></trkpt><trkpt lat="47.965828700088004" lon="-0.7075616791262492"><ele>66.0</ele><time>2026-04-26T14:11:50Z</time></trkpt><trkpt lat="47.965770736783995" lon="-0.7075215231622591"><ele>66.57142857142857</ele><time>2026-04-26T14:11:52Z</time></trkpt><trkpt lat="47.96571446331336" lon="-0.7074722718164"><ele>67.14285714285714</ele><time>2026-04-26T14:11:54Z</time></trkpt><trkpt lat="47.965658554206726" lon="-0.7074233426578236"><ele>67.71428571428572</ele><time>2026-04-26T14:11:56Z</time></trkpt><trkpt lat="47.96557806133666" lon="-0.7073520725656042"><ele>68.28571428571428</ele><time>2026-04-26T14:11:59Z</time></trkpt><trkpt lat="47.965522045213795" lon="-0.7073059937142375"><ele>68.85714285714286</ele><time>2026-04-26T14:12:01Z</time></trkpt><trkpt lat="47.96544058353502" lon="-0.7072342135963331"><ele>69.42857142857143</ele><time>2026-04-26T14:12:04Z</time></trkpt><trkpt lat="47.9653870063283" lon="-0.707179407620637"><ele>70.0</ele><time>2026-04-26T14:12:06Z</time></trkpt><trkpt lat="47.96533198678808" lon="-0.7071272402428125"><ele>70.0</ele><time>2026-04-26T14:12:08Z</time></trkpt><trkpt lat="47.96527578462166" lon="-0.7070736607992755"><ele>70.0</ele><time>2026-04-26T14:12:10Z</time></trkpt><trkpt lat="47.96522179000533" lon="-0.707013588487991"><ele>70.0</ele><time>2026-04-26T14:12:12Z</time></trkpt><trkpt lat="47.96516471789071" lon="-0.7069610239963008"><ele>70.0</ele><time>2026-04-26T14:12:14Z</time></trkpt><trkpt lat="47.96511000822506" lon="-0.7069002771934213"><ele>70.0</ele><time>2026-04-26T14:12:16Z</time></trkpt><trkpt lat="47.965055928562855" lon="-0.7068409119002951"><ele>70.0</ele><time>2026-04-26T14:12:18Z</time></trkpt><trkpt lat="47.965001809754185" lon="-0.706779705385402"><ele>70.0</ele><time>2026-04-26T14:12:20Z</time></trkpt><trkpt lat="47.96494987966064" lon="-0.7067170359823445"><ele>70.57142857142857</ele><time>2026-04-26T14:12:22Z</time></trkpt><trkpt lat="47.964895878713826" lon="-0.706657194241352"><ele>71.14285714285714</ele><time>2026-04-26T14:12:24Z</time></trkpt><trkpt lat="47.96484606649274" lon="-0.7065866385039249"><ele>71.71428571428572</ele><time>2026-04-26T14:12:26Z</time></trkpt><trkpt lat="47.96478959405382" lon="-0.7065261166654281"><ele>72.28571428571428</ele><time>2026-04-26T14:12:28Z</time></trkpt><trkpt lat="47.96473866875355" lon="-0.7064539381943723"><ele>72.85714285714286</ele><time>2026-04-26T14:12:30Z</time></trkpt><trkpt lat="47.964686872978554" lon="-0.7063855996504048"><ele>73.42857142857143</ele><time>2026-04-26T14:12:32Z</time></trkpt><trkpt lat="47.96463304611805" lon="-0.7063137047605816"><ele>74.0</ele><time>2026-04-26T14:12:34Z</time></trkpt><trkpt lat="47.96457896640318" lon="-0.7062432193484454"><ele>74.0</ele><time>2026-04-26T14:12:36Z</time></trkpt><trkpt lat="47.96452356011907" lon="-0.7061699607745747"><ele>74.0</ele><time>2026-04-26T14:12:38Z</time></trkpt><trkpt lat="47.964469455173855" lon="-0.706098639520125"><ele>74.0</ele><time>2026-04-26T14:12:40Z</time></trkpt><trkpt lat="47.96441494190819" lon="-0.7060239967070611"><ele>74.0</ele><time>2026-04-26T14:12:42Z</time></trkpt><trkpt lat="47.96435592026073" lon="-0.7059520842330292"><ele>74.0</ele><time>2026-04-26T14:12:44Z</time></trkpt><trkpt lat="47.964300636634604" lon="-0.7058757555589872"><ele>74.0</ele><time>2026-04-26T14:12:46Z</time></trkpt><trkpt lat="47.96424331569956" lon="-0.7058042378093907"><ele>74.0</ele><time>2026-04-26T14:12:48Z</time></trkpt><trkpt lat="47.96418629218725" lon="-0.7057306255062531"><ele>73.85714285714286</ele><time>2026-04-26T14:12:50Z</time></trkpt><trkpt lat="47.96413099936285" lon="-0.7056528709881084"><ele>73.71428571428571</ele><time>2026-04-26T14:12:52Z</time></trkpt><trkpt lat="47.96407352646828" lon="-0.7055806654709198"><ele>73.57142857142857</ele><time>2026-04-26T14:12:54Z</time></trkpt><trkpt lat="47.96401758685132" lon="-0.7055085061811198"><ele>73.42857142857143</ele><time>2026-04-26T14:12:56Z</time></trkpt><trkpt lat="47.96396287994535" lon="-0.7054375143305321"><ele>73.28571428571429</ele><time>2026-04-26T14:12:58.001Z</time></trkpt><trkpt lat="47.96390796075992" lon="-0.7053681547620189"><ele>73.14285714285714</ele><time>2026-04-26T14:13:00.001Z</time></trkpt><trkpt lat="47.963852584730674" lon="-0.7052988574957053"><ele>73.0</ele><time>2026-04-26T14:13:02.001Z</time></trkpt><trkpt lat="47.96379587718784" lon="-0.705235271218717"><ele>73.28571428571428</ele><time>2026-04-26T14:13:04.001Z</time></trkpt><trkpt lat="47.96374239598386" lon="-0.7051684871236885"><ele>73.57142857142857</ele><time>2026-04-26T14:13:06.001Z</time></trkpt><trkpt lat="47.96368353174226" lon="-0.7051104457344961"><ele>73.85714285714286</ele><time>2026-04-26T14:13:08.001Z</time></trkpt><trkpt lat="47.96362365919418" lon="-0.705052305147439"><ele>74.14285714285714</ele><time>2026-04-26T14:13:10.001Z</time></trkpt><trkpt lat="47.9635623772056" lon="-0.7049929450033452"><ele>74.42857142857143</ele><time>2026-04-26T14:13:12.001Z</time></trkpt><trkpt lat="47.9634990926586" lon="-0.7049376860171319"><ele>74.71428571428571</ele><time>2026-04-26T14:13:14Z</time></trkpt><trkpt lat="47.96343681147302" lon="-0.7048777326153459"><ele>75.0</ele><time>2026-04-26T14:13:16Z</time></trkpt><trkpt lat="47.963372421163875" lon="-0.7048273624471609"><ele>74.71428571428571</ele><time>2026-04-26T14:13:18Z</time></trkpt><trkpt lat="47.96331072543676" lon="-0.7047769478205199"><ele>74.42857142857143</ele><time>2026-04-26T14:13:20Z</time></trkpt><trkpt lat="47.96324970265765" lon="-0.7047370060008383"><ele>74.14285714285714</ele><time>2026-04-26T14:13:22Z</time></trkpt><trkpt lat="47.96318667797933" lon="-0.7046948191677079"><ele>73.85714285714286</ele><time>2026-04-26T14:13:24Z</time></trkpt><trkpt lat="47.96311964437031" lon="-0.7046599868508295"><ele>73.57142857142857</ele><time>2026-04-26T14:13:26Z</time></trkpt><trkpt lat="47.96305509354148" lon="-0.7046190957614206"><ele>73.28571428571428</ele><time>2026-04-26T14:13:28Z</time></trkpt><trkpt lat="47.96299221010308" lon="-0.7045827961187092"><ele>73.0</ele><time>2026-04-26T14:13:30Z</time></trkpt><trkpt lat="47.96292771025534" lon="-0.7045566003758449"><ele>73.0</ele><time>2026-04-26T14:13:32Z</time></trkpt><trkpt lat="47.962861508514735" lon="-0.7045260718171149"><ele>73.0</ele><time>2026-04-26T14:13:34Z</time></trkpt><trkpt lat="47.96279479342884" lon="-0.7044930603484901"><ele>73.0</ele><time>2026-04-26T14:13:36Z</time></trkpt><trkpt lat="47.96272487401325" lon="-0.7044661852320379"><ele>73.0</ele><time>2026-04-26T14:13:38Z</time></trkpt><trkpt lat="47.962651990574265" lon="-0.7044394296958204"><ele>73.0</ele><time>2026-04-26T14:13:40Z</time></trkpt><trkpt lat="47.96257356956171" lon="-0.7044162044661724"><ele>73.0</ele><time>2026-04-26T14:13:42Z</time></trkpt><trkpt lat="47.96249003180759" lon="-0.7043933254811723"><ele>73.4</ele><time>2026-04-26T14:13:44Z</time></trkpt><trkpt lat="47.962396335334844" lon="-0.7043586196460218"><ele>73.8</ele><time>2026-04-26T14:13:46Z</time></trkpt><trkpt lat="47.96228780432014" lon="-0.7043208306391845"><ele>74.2</ele><time>2026-04-26T14:13:48Z</time></trkpt><trkpt lat="47.96216373937505" lon="-0.7042774945214652"><ele>74.6</ele><time>2026-04-26T14:13:50Z</time></trkpt><trkpt lat="47.962098698138576" lon="-0.7042575524626344"><ele>75.0</ele><time>2026-04-26T14:13:51Z</time></trkpt><trkpt lat="47.96203085394272" lon="-0.7042322182039513"><ele>75.0</ele><time>2026-04-26T14:13:52Z</time></trkpt><trkpt lat="47.96195637938576" lon="-0.7042051167570925"><ele>75.0</ele><time>2026-04-26T14:13:53Z</time></trkpt><trkpt lat="47.961881255071305" lon="-0.704178016318397"><ele>75.0</ele><time>2026-04-26T14:13:54Z</time></trkpt><trkpt lat="47.96180211695575" lon="-0.7041506195745446"><ele>75.0</ele><time>2026-04-26T14:13:55Z</time></trkpt><trkpt lat="47.96171920826503" lon="-0.7041231174530059"><ele>75.0</ele><time>2026-04-26T14:13:56Z</time></trkpt><trkpt lat="47.96163514828804" lon="-0.7040941547285183"><ele>75.0</ele><time>2026-04-26T14:13:57Z</time></trkpt><trkpt lat="47.96155156116212" lon="-0.7040625687841116"><ele>74.66666666666667</ele><time>2026-04-26T14:13:58Z</time></trkpt><trkpt lat="47.96146805666483" lon="-0.7040252012558462"><ele>74.33333333333333</ele><time>2026-04-26T14:13:59Z</time></trkpt><trkpt lat="47.961381118218284" lon="-0.7039882059257122"><ele>74.0</ele><time>2026-04-26T14:14:00Z</time></trkpt><trkpt lat="47.96129630092805" lon="-0.7039635834132765"><ele>73.66666666666666</ele><time>2026-04-26T14:14:01Z</time></trkpt><trkpt lat="47.96120980751888" lon="-0.7039316708242067"><ele>73.33333333333333</ele><time>2026-04-26T14:14:02Z</time></trkpt><trkpt lat="47.96112348332847" lon="-0.7039018336313877"><ele>73.0</ele><time>2026-04-26T14:14:03Z</time></trkpt><trkpt lat="47.961039700485614" lon="-0.7038746391779471"><ele>73.0</ele><time>2026-04-26T14:14:04Z</time></trkpt><trkpt lat="47.96095895964661" lon="-0.7038497369093738"><ele>73.0</ele><time>2026-04-26T14:14:05Z</time></trkpt><trkpt lat="47.96088165678927" lon="-0.7038231564600392"><ele>73.0</ele><time>2026-04-26T14:14:06Z</time></trkpt><trkpt lat="47.960806229255795" lon="-0.703800269566522"><ele>73.0</ele><time>2026-04-26T14:14:07Z</time></trkpt><trkpt lat="47.960732983582005" lon="-0.7037731624279439"><ele>73.0</ele><time>2026-04-26T14:14:08Z</time></trkpt><trkpt lat="47.96066298931084" lon="-0.7037492816624515"><ele>73.0</ele><time>2026-04-26T14:14:09Z</time></trkpt><trkpt lat="47.96059486431505" lon="-0.7037225825364872"><ele>73.0</ele><time>2026-04-26T14:14:10Z</time></trkpt><trkpt lat="47.960530345093744" lon="-0.7036936820593909"><ele>73.0</ele><time>2026-04-26T14:14:11Z</time></trkpt><trkpt lat="47.9604628438662" lon="-0.703670048543891"><ele>73.0</ele><time>2026-04-26T14:14:12Z</time></trkpt><trkpt lat="47.96039659788282" lon="-0.7036499332063968"><ele>73.0</ele><time>2026-04-26T14:14:13Z</time></trkpt><trkpt lat="47.96033125781819" lon="-0.7036280156853902"><ele>73.0</ele><time>2026-04-26T14:14:14Z</time></trkpt><trkpt lat="47.96026549173098" lon="-0.7036061611305174"><ele>73.0</ele><time>2026-04-26T14:14:15Z</time></trkpt><trkpt lat="47.96019751350898" lon="-0.7035846897655388"><ele>73.0</ele><time>2026-04-26T14:14:16Z</time></trkpt><trkpt lat="47.96013198044558" lon="-0.7035626770568422"><ele>72.85714285714286</ele><time>2026-04-26T14:14:17Z</time></trkpt><trkpt lat="47.96006526632674" lon="-0.7035395360271288"><ele>72.71428571428572</ele><time>2026-04-26T14:14:18Z</time></trkpt><trkpt lat="47.960000064318436" lon="-0.7035194574804032"><ele>72.57142857142858</ele><time>2026-04-26T14:14:19Z</time></trkpt><trkpt lat="47.959934918137265" lon="-0.7034971845497423"><ele>72.42857142857143</ele><time>2026-04-26T14:14:20Z</time></trkpt><trkpt lat="47.95987114011115" lon="-0.7034753251621434"><ele>72.28571428571429</ele><time>2026-04-26T14:14:21Z</time></trkpt><trkpt lat="47.95980444501339" lon="-0.7034529382979039"><ele>72.14285714285715</ele><time>2026-04-26T14:14:22Z</time></trkpt><trkpt lat="47.95973950665055" lon="-0.7034328666734787"><ele>72.0</ele><time>2026-04-26T14:14:23Z</time></trkpt><trkpt lat="47.9596755550148" lon="-0.7034123763719996"><ele>72.00000000000001</ele><time>2026-04-26T14:14:24Z</time></trkpt><trkpt lat="47.95961057424917" lon="-0.7033924195027718"><ele>72.0</ele><time>2026-04-26T14:14:25Z</time></trkpt><trkpt lat="47.95954641458254" lon="-0.7033737012348845"><ele>72.0</ele><time>2026-04-26T14:14:26Z</time></trkpt><trkpt lat="47.959482716208186" lon="-0.7033547713939724"><ele>72.0</ele><time>2026-04-26T14:14:27Z</time></trkpt><trkpt lat="47.959419189931324" lon="-0.7033332592140557"><ele>72.0</ele><time>2026-04-26T14:14:28Z</time></trkpt><trkpt lat="47.959354887535284" lon="-0.703312797704152"><ele>72.00000000000001</ele><time>2026-04-26T14:14:29Z</time></trkpt><trkpt lat="47.959291686612985" lon="-0.7032941246631405"><ele>72.0</ele><time>2026-04-26T14:14:30Z</time></trkpt><trkpt lat="47.9592277538944" lon="-0.7032729335504999"><ele>71.6</ele><time>2026-04-26T14:14:31Z</time></trkpt><trkpt lat="47.95916438700976" lon="-0.7032522530540886"><ele>71.2</ele><time>2026-04-26T14:14:32Z</time></trkpt><trkpt lat="47.959100535253086" lon="-0.703231336804573"><ele>70.8</ele><time>2026-04-26T14:14:33Z</time></trkpt><trkpt lat="47.95897930927256" lon="-0.7031904478866602"><ele>70.4</ele><time>2026-04-26T14:14:35Z</time></trkpt><trkpt lat="47.958865188023076" lon="-0.7031564806623415"><ele>70.0</ele><time>2026-04-26T14:14:37Z</time></trkpt><trkpt lat="47.958754062352924" lon="-0.7031213150543048"><ele>70.0</ele><time>2026-04-26T14:14:39Z</time></trkpt><trkpt lat="47.958654252038684" lon="-0.7030865774693952"><ele>70.0</ele><time>2026-04-26T14:14:41Z</time></trkpt><trkpt lat="47.95856118872844" lon="-0.703065926942088"><ele>70.0</ele><time>2026-04-26T14:14:43Z</time></trkpt><trkpt lat="47.95847705280741" lon="-0.7030340627195149"><ele>70.0</ele><time>2026-04-26T14:14:45Z</time></trkpt><trkpt lat="47.95840217109652" lon="-0.7030067267219764"><ele>70.0</ele><time>2026-04-26T14:14:47Z</time></trkpt><trkpt lat="47.95833681613806" lon="-0.7029887713127674"><ele>70.0</ele><time>2026-04-26T14:14:49Z</time></trkpt><trkpt lat="47.95825043261433" lon="-0.7029564729692931"><ele>70.33333333333333</ele><time>2026-04-26T14:14:52Z</time></trkpt><trkpt lat="47.958163035898096" lon="-0.7029257271350254"><ele>70.66666666666666</ele><time>2026-04-26T14:14:55Z</time></trkpt><trkpt lat="47.95807956239641" lon="-0.7028961413115871"><ele>71.0</ele><time>2026-04-26T14:14:58Z</time></trkpt><trkpt lat="47.9579930111559" lon="-0.7028727577675374"><ele>71.33333333333333</ele><time>2026-04-26T14:15:01Z</time></trkpt><trkpt lat="47.957903473599586" lon="-0.7028419827239683"><ele>71.66666666666667</ele><time>2026-04-26T14:15:04Z</time></trkpt><trkpt lat="47.95781924128869" lon="-0.7028163935732278"><ele>72.0</ele><time>2026-04-26T14:15:07Z</time></trkpt><trkpt lat="47.957739848333624" lon="-0.7027873909425792"><ele>72.00000000000001</ele><time>2026-04-26T14:15:10Z</time></trkpt><trkpt lat="47.957661337824405" lon="-0.7027621264516403"><ele>72.0</ele><time>2026-04-26T14:15:13Z</time></trkpt><trkpt lat="47.95758973747035" lon="-0.7027359411087414"><ele>72.0</ele><time>2026-04-26T14:15:16Z</time></trkpt><trkpt lat="47.957520681738806" lon="-0.7027155324421832"><ele>72.0</ele><time>2026-04-26T14:15:19Z</time></trkpt><trkpt lat="47.95745586103464" lon="-0.7026909950205913"><ele>72.0</ele><time>2026-04-26T14:15:22Z</time></trkpt><trkpt lat="47.95738398718987" lon="-0.7026782080274042"><ele>72.00000000000001</ele><time>2026-04-26T14:15:25Z</time></trkpt><trkpt lat="47.957317508385685" lon="-0.7026509624946597"><ele>72.0</ele><time>2026-04-26T14:15:28Z</time></trkpt><trkpt lat="47.95724836372351" lon="-0.7026299055888905"><ele>73.71428571428572</ele><time>2026-04-26T14:15:31Z</time></trkpt><trkpt lat="47.95717968250204" lon="-0.702609855503587"><ele>75.42857142857143</ele><time>2026-04-26T14:15:34Z</time></trkpt><trkpt lat="47.957116684087325" lon="-0.7025838713454124"><ele>77.14285714285714</ele><time>2026-04-26T14:15:37Z</time></trkpt><trkpt lat="47.95704978620172" lon="-0.7025646947088664"><ele>78.85714285714286</ele><time>2026-04-26T14:15:40Z</time></trkpt><trkpt lat="47.95698024463585" lon="-0.7025403868725237"><ele>80.57142857142857</ele><time>2026-04-26T14:15:43Z</time></trkpt><trkpt lat="47.95690323723337" lon="-0.7025133104297214"><ele>82.28571428571429</ele><time>2026-04-26T14:15:46Z</time></trkpt><trkpt lat="47.956825503633645" lon="-0.7024895820351701"><ele>84.0</ele><time>2026-04-26T14:15:49Z</time></trkpt><trkpt lat="47.956747450764205" lon="-0.70246182302418"><ele>84.33333333333333</ele><time>2026-04-26T14:15:52Z</time></trkpt><trkpt lat="47.95666750391921" lon="-0.7024345355112631"><ele>84.66666666666667</ele><time>2026-04-26T14:15:55Z</time></trkpt><trkpt lat="47.95658869750267" lon="-0.7024130410264084"><ele>85.0</ele><time>2026-04-26T14:15:58Z</time></trkpt><trkpt lat="47.95651073512683" lon="-0.7023838924882012"><ele>85.33333333333334</ele><time>2026-04-26T14:16:01Z</time></trkpt><trkpt lat="47.95643215367624" lon="-0.7023592230821508"><ele>85.66666666666667</ele><time>2026-04-26T14:16:04Z</time></trkpt><trkpt lat="47.956355367512266" lon="-0.7023347756435936"><ele>86.0</ele><time>2026-04-26T14:16:07Z</time></trkpt><trkpt lat="47.956276087451734" lon="-0.7023105327086222"><ele>86.0</ele><time>2026-04-26T14:16:10Z</time></trkpt><trkpt lat="47.95619996347544" lon="-0.7022835793896184"><ele>86.0</ele><time>2026-04-26T14:16:13Z</time></trkpt><trkpt lat="47.95612815860282" lon="-0.7022599800716159"><ele>86.0</ele><time>2026-04-26T14:16:16Z</time></trkpt><trkpt lat="47.95606309826308" lon="-0.7022364235189044"><ele>86.0</ele><time>2026-04-26T14:16:19Z</time></trkpt></trkseg></trk></gpx>